<?xml version="1.0" encoding="UTF-8" standalone="no" ?>
<gpx xmlns="http://www.topografix.com/GPX/1/1" xmlns:xsi="http://www.w3.org/2001/XMLSchema-instance" xsi:schemaLocation="http://www.topografix.com/GPX/1/1 http://www.topografix.com/GPX/1/1/gpx.xsd" version="1.1" creator="VisuGPX - https://www.visugpx.com">
  <metadata>
    <name>St Christophe du Bois</name>
    <desc><![CDATA[Circuit Coquelicot st Christophe  mam]]></desc>
  </metadata>
  <trk>
    <name><![CDATA[St Christophe du Bois_1]]></name>
    <trkseg>
      <trkpt lat="47.03167" lon="-0.94034">
        <ele>97.398536682129</ele>
        <time>2016-04-20T12:08:12.000Z</time>
      </trkpt>
      <trkpt lat="47.03168" lon="-0.94038">
        <ele>95.984100341797</ele>
        <time>2016-04-20T12:08:16.000Z</time>
      </trkpt>
      <trkpt lat="47.03168" lon="-0.94041">
        <ele>95.091133117676</ele>
        <time>2016-04-20T12:08:18.000Z</time>
      </trkpt>
      <trkpt lat="47.03168" lon="-0.94045">
        <ele>94.621086120605</ele>
        <time>2016-04-20T12:08:21.000Z</time>
      </trkpt>
      <trkpt lat="47.03168" lon="-0.94049">
        <ele>93.980010986328</ele>
        <time>2016-04-20T12:08:24.000Z</time>
      </trkpt>
      <trkpt lat="47.03168" lon="-0.94052">
        <ele>93.428749084473</ele>
        <time>2016-04-20T12:08:26.000Z</time>
      </trkpt>
      <trkpt lat="47.03168" lon="-0.94054">
        <ele>93.019157409668</ele>
        <time>2016-04-20T12:08:28.000Z</time>
      </trkpt>
      <trkpt lat="47.03168" lon="-0.94057">
        <ele>92.43936920166</ele>
        <time>2016-04-20T12:08:30.000Z</time>
      </trkpt>
      <trkpt lat="47.03168" lon="-0.9406">
        <ele>92.224899291992</ele>
        <time>2016-04-20T12:08:32.000Z</time>
      </trkpt>
      <trkpt lat="47.03168" lon="-0.94065">
        <ele>92.771438598633</ele>
        <time>2016-04-20T12:08:35.000Z</time>
      </trkpt>
      <trkpt lat="47.03169" lon="-0.94069">
        <ele>92.936378479004</ele>
        <time>2016-04-20T12:08:38.000Z</time>
      </trkpt>
      <trkpt lat="47.0317" lon="-0.94073">
        <ele>93.00146484375</ele>
        <time>2016-04-20T12:08:41.000Z</time>
      </trkpt>
      <trkpt lat="47.0317" lon="-0.94076">
        <ele>93.05451965332</ele>
        <time>2016-04-20T12:08:44.000Z</time>
      </trkpt>
      <trkpt lat="47.0317" lon="-0.94081">
        <ele>93.490692138672</ele>
        <time>2016-04-20T12:08:47.000Z</time>
      </trkpt>
      <trkpt lat="47.03171" lon="-0.94083">
        <ele>93.765144348145</ele>
        <time>2016-04-20T12:08:49.000Z</time>
      </trkpt>
      <trkpt lat="47.03171" lon="-0.94086">
        <ele>93.909469604492</ele>
        <time>2016-04-20T12:08:52.000Z</time>
      </trkpt>
      <trkpt lat="47.03171" lon="-0.94091">
        <ele>94.210693359375</ele>
        <time>2016-04-20T12:08:54.000Z</time>
      </trkpt>
      <trkpt lat="47.03171" lon="-0.94093">
        <ele>94.114028930664</ele>
        <time>2016-04-20T12:08:56.000Z</time>
      </trkpt>
      <trkpt lat="47.03171" lon="-0.94096">
        <ele>94.212326049805</ele>
        <time>2016-04-20T12:08:59.000Z</time>
      </trkpt>
      <trkpt lat="47.03172" lon="-0.94096">
        <ele>94.885437011719</ele>
        <time>2016-04-20T12:09:06.000Z</time>
      </trkpt>
      <trkpt lat="47.03173" lon="-0.94097">
        <ele>94.711494445801</ele>
        <time>2016-04-20T12:09:14.000Z</time>
      </trkpt>
      <trkpt lat="47.03173" lon="-0.94107">
        <ele>97.74161529541</ele>
        <time>2016-04-20T12:09:17.000Z</time>
      </trkpt>
      <trkpt lat="47.03175" lon="-0.94112">
        <ele>98.637466430664</ele>
        <time>2016-04-20T12:09:19.000Z</time>
      </trkpt>
      <trkpt lat="47.03175" lon="-0.94116">
        <ele>98.303581237793</ele>
        <time>2016-04-20T12:09:21.000Z</time>
      </trkpt>
      <trkpt lat="47.03177" lon="-0.94118">
        <ele>95.797302246094</ele>
        <time>2016-04-20T12:09:24.000Z</time>
      </trkpt>
      <trkpt lat="47.03179" lon="-0.94121">
        <ele>94.353736877441</ele>
        <time>2016-04-20T12:09:27.000Z</time>
      </trkpt>
      <trkpt lat="47.03182" lon="-0.94125">
        <ele>94.349472045898</ele>
        <time>2016-04-20T12:09:30.000Z</time>
      </trkpt>
      <trkpt lat="47.03184" lon="-0.9413">
        <ele>93.247291564941</ele>
        <time>2016-04-20T12:09:33.000Z</time>
      </trkpt>
      <trkpt lat="47.03183" lon="-0.94133">
        <ele>93.448371887207</ele>
        <time>2016-04-20T12:09:37.000Z</time>
      </trkpt>
      <trkpt lat="47.03181" lon="-0.94135">
        <ele>94.921577453613</ele>
        <time>2016-04-20T12:09:40.000Z</time>
      </trkpt>
      <trkpt lat="47.03181" lon="-0.94136">
        <ele>95.312294006348</ele>
        <time>2016-04-20T12:09:49.000Z</time>
      </trkpt>
      <trkpt lat="47.0318" lon="-0.94136">
        <ele>96.005897521973</ele>
        <time>2016-04-20T12:09:58.000Z</time>
      </trkpt>
      <trkpt lat="47.03176" lon="-0.94137">
        <ele>95.999534606934</ele>
        <time>2016-04-20T12:10:01.000Z</time>
      </trkpt>
      <trkpt lat="47.0317" lon="-0.9414">
        <ele>94.870216369629</ele>
        <time>2016-04-20T12:10:04.000Z</time>
      </trkpt>
      <trkpt lat="47.03168" lon="-0.94141">
        <ele>93.916961669922</ele>
        <time>2016-04-20T12:10:06.000Z</time>
      </trkpt>
      <trkpt lat="47.03164" lon="-0.94141">
        <ele>93.884101867676</ele>
        <time>2016-04-20T12:10:08.000Z</time>
      </trkpt>
      <trkpt lat="47.0316" lon="-0.94142">
        <ele>94.114387512207</ele>
        <time>2016-04-20T12:10:11.000Z</time>
      </trkpt>
      <trkpt lat="47.03157" lon="-0.94145">
        <ele>95.401458740234</ele>
        <time>2016-04-20T12:10:13.000Z</time>
      </trkpt>
      <trkpt lat="47.03153" lon="-0.94148">
        <ele>95.359245300293</ele>
        <time>2016-04-20T12:10:16.000Z</time>
      </trkpt>
      <trkpt lat="47.03147" lon="-0.94153">
        <ele>98.177314758301</ele>
        <time>2016-04-20T12:10:19.000Z</time>
      </trkpt>
      <trkpt lat="47.03144" lon="-0.94156">
        <ele>99.988357543945</ele>
        <time>2016-04-20T12:10:23.000Z</time>
      </trkpt>
      <trkpt lat="47.03141" lon="-0.94158">
        <ele>100.49462890625</ele>
        <time>2016-04-20T12:10:25.000Z</time>
      </trkpt>
      <trkpt lat="47.03139" lon="-0.94159">
        <ele>100.23348236084</ele>
        <time>2016-04-20T12:10:28.000Z</time>
      </trkpt>
      <trkpt lat="47.03136" lon="-0.94159">
        <ele>99.194679260254</ele>
        <time>2016-04-20T12:10:31.000Z</time>
      </trkpt>
      <trkpt lat="47.0313" lon="-0.9416">
        <ele>97.555488586426</ele>
        <time>2016-04-20T12:10:34.000Z</time>
      </trkpt>
      <trkpt lat="47.03129" lon="-0.94159">
        <ele>95.669303894043</ele>
        <time>2016-04-20T12:10:36.000Z</time>
      </trkpt>
      <trkpt lat="47.03126" lon="-0.94159">
        <ele>93.69100189209</ele>
        <time>2016-04-20T12:10:39.000Z</time>
      </trkpt>
      <trkpt lat="47.03125" lon="-0.9416">
        <ele>93.538497924805</ele>
        <time>2016-04-20T12:10:41.000Z</time>
      </trkpt>
      <trkpt lat="47.03123" lon="-0.9416">
        <ele>93.949005126953</ele>
        <time>2016-04-20T12:10:44.000Z</time>
      </trkpt>
      <trkpt lat="47.03122" lon="-0.9416">
        <ele>94.321365356445</ele>
        <time>2016-04-20T12:10:46.000Z</time>
      </trkpt>
      <trkpt lat="47.03118" lon="-0.94163">
        <ele>94.051559448242</ele>
        <time>2016-04-20T12:10:49.000Z</time>
      </trkpt>
      <trkpt lat="47.03114" lon="-0.94165">
        <ele>95.272911071777</ele>
        <time>2016-04-20T12:10:52.000Z</time>
      </trkpt>
      <trkpt lat="47.03109" lon="-0.94166">
        <ele>94.801170349121</ele>
        <time>2016-04-20T12:10:55.000Z</time>
      </trkpt>
      <trkpt lat="47.03104" lon="-0.94166">
        <ele>95.66918182373</ele>
        <time>2016-04-20T12:10:58.000Z</time>
      </trkpt>
      <trkpt lat="47.03103" lon="-0.94167">
        <ele>95.850769042969</ele>
        <time>2016-04-20T12:11:00.000Z</time>
      </trkpt>
      <trkpt lat="47.03102" lon="-0.9417">
        <ele>96.241111755371</ele>
        <time>2016-04-20T12:11:02.000Z</time>
      </trkpt>
      <trkpt lat="47.03099" lon="-0.94174">
        <ele>96.522094726562</ele>
        <time>2016-04-20T12:11:05.000Z</time>
      </trkpt>
      <trkpt lat="47.03096" lon="-0.94176">
        <ele>96.878173828125</ele>
        <time>2016-04-20T12:11:07.000Z</time>
      </trkpt>
      <trkpt lat="47.0309" lon="-0.94177">
        <ele>98.286750793457</ele>
        <time>2016-04-20T12:11:10.000Z</time>
      </trkpt>
      <trkpt lat="47.03086" lon="-0.94177">
        <ele>98.550148010254</ele>
        <time>2016-04-20T12:11:12.000Z</time>
      </trkpt>
      <trkpt lat="47.03083" lon="-0.94179">
        <ele>98.527526855469</ele>
        <time>2016-04-20T12:11:15.000Z</time>
      </trkpt>
      <trkpt lat="47.0308" lon="-0.9418">
        <ele>98.828155517578</ele>
        <time>2016-04-20T12:11:18.000Z</time>
      </trkpt>
      <trkpt lat="47.03078" lon="-0.94185">
        <ele>99.430404663086</ele>
        <time>2016-04-20T12:11:22.000Z</time>
      </trkpt>
      <trkpt lat="47.03077" lon="-0.94187">
        <ele>99.815322875977</ele>
        <time>2016-04-20T12:11:24.000Z</time>
      </trkpt>
      <trkpt lat="47.03073" lon="-0.9419">
        <ele>99.065032958984</ele>
        <time>2016-04-20T12:11:28.000Z</time>
      </trkpt>
      <trkpt lat="47.0307" lon="-0.9419">
        <ele>98.498229980469</ele>
        <time>2016-04-20T12:11:30.000Z</time>
      </trkpt>
      <trkpt lat="47.03063" lon="-0.94192">
        <ele>97.700073242188</ele>
        <time>2016-04-20T12:11:34.000Z</time>
      </trkpt>
      <trkpt lat="47.0306" lon="-0.94193">
        <ele>96.080146789551</ele>
        <time>2016-04-20T12:11:36.000Z</time>
      </trkpt>
      <trkpt lat="47.03057" lon="-0.94197">
        <ele>95.534538269043</ele>
        <time>2016-04-20T12:11:39.000Z</time>
      </trkpt>
      <trkpt lat="47.03055" lon="-0.94199">
        <ele>96.45426940918</ele>
        <time>2016-04-20T12:11:41.000Z</time>
      </trkpt>
      <trkpt lat="47.03054" lon="-0.94203">
        <ele>97.232856750488</ele>
        <time>2016-04-20T12:11:44.000Z</time>
      </trkpt>
      <trkpt lat="47.03052" lon="-0.94205">
        <ele>97.543586730957</ele>
        <time>2016-04-20T12:11:46.000Z</time>
      </trkpt>
      <trkpt lat="47.03047" lon="-0.94207">
        <ele>96.513687133789</ele>
        <time>2016-04-20T12:11:49.000Z</time>
      </trkpt>
      <trkpt lat="47.03046" lon="-0.94207">
        <ele>95.873970031738</ele>
        <time>2016-04-20T12:11:51.000Z</time>
      </trkpt>
      <trkpt lat="47.03044" lon="-0.94207">
        <ele>95.836769104004</ele>
        <time>2016-04-20T12:11:53.000Z</time>
      </trkpt>
      <trkpt lat="47.03041" lon="-0.94209">
        <ele>96.213943481445</ele>
        <time>2016-04-20T12:11:56.000Z</time>
      </trkpt>
      <trkpt lat="47.03038" lon="-0.94213">
        <ele>96.834167480469</ele>
        <time>2016-04-20T12:11:59.000Z</time>
      </trkpt>
      <trkpt lat="47.03033" lon="-0.94216">
        <ele>95.495292663574</ele>
        <time>2016-04-20T12:12:02.000Z</time>
      </trkpt>
      <trkpt lat="47.03024" lon="-0.94218">
        <ele>91.587791442871</ele>
        <time>2016-04-20T12:12:05.000Z</time>
      </trkpt>
      <trkpt lat="47.0302" lon="-0.94221">
        <ele>90.549240112305</ele>
        <time>2016-04-20T12:12:08.000Z</time>
      </trkpt>
      <trkpt lat="47.03019" lon="-0.94224">
        <ele>89.602348327637</ele>
        <time>2016-04-20T12:12:10.000Z</time>
      </trkpt>
      <trkpt lat="47.03018" lon="-0.94229">
        <ele>89.140144348145</ele>
        <time>2016-04-20T12:12:12.000Z</time>
      </trkpt>
      <trkpt lat="47.03016" lon="-0.94233">
        <ele>90.747123718262</ele>
        <time>2016-04-20T12:12:15.000Z</time>
      </trkpt>
      <trkpt lat="47.03014" lon="-0.94234">
        <ele>91.52197265625</ele>
        <time>2016-04-20T12:12:18.000Z</time>
      </trkpt>
      <trkpt lat="47.03015" lon="-0.94236">
        <ele>91.961235046387</ele>
        <time>2016-04-20T12:12:20.000Z</time>
      </trkpt>
      <trkpt lat="47.03016" lon="-0.94242">
        <ele>92.961364746094</ele>
        <time>2016-04-20T12:12:22.000Z</time>
      </trkpt>
      <trkpt lat="47.03015" lon="-0.94245">
        <ele>92.911003112793</ele>
        <time>2016-04-20T12:12:24.000Z</time>
      </trkpt>
      <trkpt lat="47.03013" lon="-0.9425">
        <ele>93.21028137207</ele>
        <time>2016-04-20T12:12:27.000Z</time>
      </trkpt>
      <trkpt lat="47.03011" lon="-0.94257">
        <ele>91.037445068359</ele>
        <time>2016-04-20T12:12:30.000Z</time>
      </trkpt>
      <trkpt lat="47.03009" lon="-0.94261">
        <ele>89.885681152344</ele>
        <time>2016-04-20T12:12:33.000Z</time>
      </trkpt>
      <trkpt lat="47.03008" lon="-0.94264">
        <ele>90.239303588867</ele>
        <time>2016-04-20T12:12:35.000Z</time>
      </trkpt>
      <trkpt lat="47.03002" lon="-0.94269">
        <ele>92.58561706543</ele>
        <time>2016-04-20T12:12:38.000Z</time>
      </trkpt>
      <trkpt lat="47.02998" lon="-0.94277">
        <ele>94.602546691895</ele>
        <time>2016-04-20T12:12:41.000Z</time>
      </trkpt>
      <trkpt lat="47.02997" lon="-0.94278">
        <ele>95.031196594238</ele>
        <time>2016-04-20T12:12:43.000Z</time>
      </trkpt>
      <trkpt lat="47.02993" lon="-0.9428">
        <ele>96.582931518555</ele>
        <time>2016-04-20T12:12:46.000Z</time>
      </trkpt>
      <trkpt lat="47.02993" lon="-0.94281">
        <ele>96.950050354004</ele>
        <time>2016-04-20T12:12:48.000Z</time>
      </trkpt>
      <trkpt lat="47.02996" lon="-0.94287">
        <ele>97.292915344238</ele>
        <time>2016-04-20T12:12:50.000Z</time>
      </trkpt>
      <trkpt lat="47.02992" lon="-0.94291">
        <ele>97.774116516113</ele>
        <time>2016-04-20T12:12:53.000Z</time>
      </trkpt>
      <trkpt lat="47.02988" lon="-0.94292">
        <ele>97.980445861816</ele>
        <time>2016-04-20T12:12:55.000Z</time>
      </trkpt>
      <trkpt lat="47.02987" lon="-0.94293">
        <ele>97.347839355469</ele>
        <time>2016-04-20T12:12:58.000Z</time>
      </trkpt>
      <trkpt lat="47.02984" lon="-0.94297">
        <ele>97.563415527344</ele>
        <time>2016-04-20T12:13:01.000Z</time>
      </trkpt>
      <trkpt lat="47.02974" lon="-0.94302">
        <ele>94.86695098877</ele>
        <time>2016-04-20T12:13:04.000Z</time>
      </trkpt>
      <trkpt lat="47.02973" lon="-0.94308">
        <ele>95.231964111328</ele>
        <time>2016-04-20T12:13:06.000Z</time>
      </trkpt>
      <trkpt lat="47.02974" lon="-0.94311">
        <ele>94.358932495117</ele>
        <time>2016-04-20T12:13:09.000Z</time>
      </trkpt>
      <trkpt lat="47.02976" lon="-0.94317">
        <ele>92.842903137207</ele>
        <time>2016-04-20T12:13:12.000Z</time>
      </trkpt>
      <trkpt lat="47.02976" lon="-0.94323">
        <ele>92.624053955078</ele>
        <time>2016-04-20T12:13:15.000Z</time>
      </trkpt>
      <trkpt lat="47.02975" lon="-0.94327">
        <ele>93.44799041748</ele>
        <time>2016-04-20T12:13:17.000Z</time>
      </trkpt>
      <trkpt lat="47.02972" lon="-0.94331">
        <ele>93.071426391602</ele>
        <time>2016-04-20T12:13:20.000Z</time>
      </trkpt>
      <trkpt lat="47.02969" lon="-0.94334">
        <ele>92.585662841797</ele>
        <time>2016-04-20T12:13:22.000Z</time>
      </trkpt>
      <trkpt lat="47.02965" lon="-0.94338">
        <ele>93.019798278809</ele>
        <time>2016-04-20T12:13:25.000Z</time>
      </trkpt>
      <trkpt lat="47.02962" lon="-0.94342">
        <ele>93.829093933105</ele>
        <time>2016-04-20T12:13:28.000Z</time>
      </trkpt>
      <trkpt lat="47.02961" lon="-0.94345">
        <ele>94.553741455078</ele>
        <time>2016-04-20T12:13:30.000Z</time>
      </trkpt>
      <trkpt lat="47.02959" lon="-0.94348">
        <ele>94.93041229248</ele>
        <time>2016-04-20T12:13:32.000Z</time>
      </trkpt>
      <trkpt lat="47.02955" lon="-0.94351">
        <ele>96.497520446777</ele>
        <time>2016-04-20T12:13:35.000Z</time>
      </trkpt>
      <trkpt lat="47.02951" lon="-0.94353">
        <ele>97.051864624023</ele>
        <time>2016-04-20T12:13:37.000Z</time>
      </trkpt>
      <trkpt lat="47.02948" lon="-0.94354">
        <ele>97.604423522949</ele>
        <time>2016-04-20T12:13:40.000Z</time>
      </trkpt>
      <trkpt lat="47.02943" lon="-0.94354">
        <ele>97.744453430176</ele>
        <time>2016-04-20T12:13:42.000Z</time>
      </trkpt>
      <trkpt lat="47.0294" lon="-0.94356">
        <ele>97.247817993164</ele>
        <time>2016-04-20T12:13:45.000Z</time>
      </trkpt>
      <trkpt lat="47.0294" lon="-0.94357">
        <ele>97.490562438965</ele>
        <time>2016-04-20T12:13:48.000Z</time>
      </trkpt>
      <trkpt lat="47.02937" lon="-0.94359">
        <ele>97.481964111328</ele>
        <time>2016-04-20T12:13:50.000Z</time>
      </trkpt>
      <trkpt lat="47.02934" lon="-0.94361">
        <ele>99.441848754883</ele>
        <time>2016-04-20T12:13:53.000Z</time>
      </trkpt>
      <trkpt lat="47.02932" lon="-0.94364">
        <ele>100.83588409424</ele>
        <time>2016-04-20T12:13:55.000Z</time>
      </trkpt>
      <trkpt lat="47.0293" lon="-0.94368">
        <ele>101.77104187012</ele>
        <time>2016-04-20T12:13:58.000Z</time>
      </trkpt>
      <trkpt lat="47.02927" lon="-0.94369">
        <ele>101.60891723633</ele>
        <time>2016-04-20T12:14:01.000Z</time>
      </trkpt>
      <trkpt lat="47.02926" lon="-0.9437">
        <ele>101.83415222168</ele>
        <time>2016-04-20T12:14:04.000Z</time>
      </trkpt>
      <trkpt lat="47.02925" lon="-0.94373">
        <ele>101.70212554932</ele>
        <time>2016-04-20T12:14:06.000Z</time>
      </trkpt>
      <trkpt lat="47.02922" lon="-0.94378">
        <ele>101.58382415771</ele>
        <time>2016-04-20T12:14:09.000Z</time>
      </trkpt>
      <trkpt lat="47.02917" lon="-0.9438">
        <ele>102.64573669434</ele>
        <time>2016-04-20T12:14:12.000Z</time>
      </trkpt>
      <trkpt lat="47.02915" lon="-0.9438">
        <ele>102.24271392822</ele>
        <time>2016-04-20T12:14:14.000Z</time>
      </trkpt>
      <trkpt lat="47.02914" lon="-0.94385">
        <ele>101.95936584473</ele>
        <time>2016-04-20T12:14:17.000Z</time>
      </trkpt>
      <trkpt lat="47.0291" lon="-0.94384">
        <ele>99.948997497559</ele>
        <time>2016-04-20T12:14:20.000Z</time>
      </trkpt>
      <trkpt lat="47.02909" lon="-0.94385">
        <ele>98.980529785156</ele>
        <time>2016-04-20T12:14:23.000Z</time>
      </trkpt>
      <trkpt lat="47.02907" lon="-0.94386">
        <ele>99.417266845703</ele>
        <time>2016-04-20T12:14:25.000Z</time>
      </trkpt>
      <trkpt lat="47.02901" lon="-0.94392">
        <ele>99.350082397461</ele>
        <time>2016-04-20T12:14:28.000Z</time>
      </trkpt>
      <trkpt lat="47.02899" lon="-0.94396">
        <ele>98.142532348633</ele>
        <time>2016-04-20T12:14:30.000Z</time>
      </trkpt>
      <trkpt lat="47.02899" lon="-0.94397">
        <ele>97.852508544922</ele>
        <time>2016-04-20T12:14:32.000Z</time>
      </trkpt>
      <trkpt lat="47.02901" lon="-0.94402">
        <ele>97.291770935059</ele>
        <time>2016-04-20T12:14:35.000Z</time>
      </trkpt>
      <trkpt lat="47.02901" lon="-0.9441">
        <ele>96.792190551758</ele>
        <time>2016-04-20T12:14:37.000Z</time>
      </trkpt>
      <trkpt lat="47.02898" lon="-0.94413">
        <ele>94.837379455566</ele>
        <time>2016-04-20T12:14:40.000Z</time>
      </trkpt>
      <trkpt lat="47.02898" lon="-0.94415">
        <ele>93.714447021484</ele>
        <time>2016-04-20T12:14:44.000Z</time>
      </trkpt>
      <trkpt lat="47.02897" lon="-0.9442">
        <ele>93.076644897461</ele>
        <time>2016-04-20T12:14:46.000Z</time>
      </trkpt>
      <trkpt lat="47.02896" lon="-0.94429">
        <ele>93.275939941406</ele>
        <time>2016-04-20T12:14:48.000Z</time>
      </trkpt>
      <trkpt lat="47.02896" lon="-0.94433">
        <ele>93.175567626953</ele>
        <time>2016-04-20T12:14:51.000Z</time>
      </trkpt>
      <trkpt lat="47.02898" lon="-0.94438">
        <ele>93.493423461914</ele>
        <time>2016-04-20T12:14:54.000Z</time>
      </trkpt>
      <trkpt lat="47.02901" lon="-0.94447">
        <ele>93.748985290527</ele>
        <time>2016-04-20T12:14:57.000Z</time>
      </trkpt>
      <trkpt lat="47.02901" lon="-0.94451">
        <ele>93.863021850586</ele>
        <time>2016-04-20T12:14:59.000Z</time>
      </trkpt>
      <trkpt lat="47.02903" lon="-0.94453">
        <ele>95.298057556152</ele>
        <time>2016-04-20T12:15:01.000Z</time>
      </trkpt>
      <trkpt lat="47.02905" lon="-0.94456">
        <ele>97.659255981445</ele>
        <time>2016-04-20T12:15:05.000Z</time>
      </trkpt>
      <trkpt lat="47.02906" lon="-0.94465">
        <ele>98.088333129883</ele>
        <time>2016-04-20T12:15:08.000Z</time>
      </trkpt>
      <trkpt lat="47.02905" lon="-0.94468">
        <ele>97.673645019531</ele>
        <time>2016-04-20T12:15:10.000Z</time>
      </trkpt>
      <trkpt lat="47.02902" lon="-0.94472">
        <ele>97.782562255859</ele>
        <time>2016-04-20T12:15:13.000Z</time>
      </trkpt>
      <trkpt lat="47.02903" lon="-0.94482">
        <ele>98.778022766113</ele>
        <time>2016-04-20T12:15:16.000Z</time>
      </trkpt>
      <trkpt lat="47.02907" lon="-0.94486">
        <ele>99.056282043457</ele>
        <time>2016-04-20T12:15:18.000Z</time>
      </trkpt>
      <trkpt lat="47.02909" lon="-0.9449">
        <ele>98.887924194336</ele>
        <time>2016-04-20T12:15:21.000Z</time>
      </trkpt>
      <trkpt lat="47.0291" lon="-0.94493">
        <ele>99.13094329834</ele>
        <time>2016-04-20T12:15:24.000Z</time>
      </trkpt>
      <trkpt lat="47.02908" lon="-0.94494">
        <ele>98.79948425293</ele>
        <time>2016-04-20T12:15:27.000Z</time>
      </trkpt>
      <trkpt lat="47.02908" lon="-0.94498">
        <ele>97.576599121094</ele>
        <time>2016-04-20T12:15:30.000Z</time>
      </trkpt>
      <trkpt lat="47.0291" lon="-0.94503">
        <ele>98.066604614258</ele>
        <time>2016-04-20T12:15:33.000Z</time>
      </trkpt>
      <trkpt lat="47.02911" lon="-0.94508">
        <ele>98.92603302002</ele>
        <time>2016-04-20T12:15:35.000Z</time>
      </trkpt>
      <trkpt lat="47.02917" lon="-0.94515">
        <ele>100.34046936035</ele>
        <time>2016-04-20T12:15:38.000Z</time>
      </trkpt>
      <trkpt lat="47.02916" lon="-0.94517">
        <ele>99.876670837402</ele>
        <time>2016-04-20T12:15:40.000Z</time>
      </trkpt>
      <trkpt lat="47.02913" lon="-0.94515">
        <ele>100.48882293701</ele>
        <time>2016-04-20T12:15:42.000Z</time>
      </trkpt>
      <trkpt lat="47.02908" lon="-0.94515">
        <ele>101.7502746582</ele>
        <time>2016-04-20T12:15:44.000Z</time>
      </trkpt>
      <trkpt lat="47.02905" lon="-0.94524">
        <ele>101.80392456055</ele>
        <time>2016-04-20T12:15:47.000Z</time>
      </trkpt>
      <trkpt lat="47.02903" lon="-0.9453">
        <ele>102.36003875732</ele>
        <time>2016-04-20T12:15:49.000Z</time>
      </trkpt>
      <trkpt lat="47.02899" lon="-0.94535">
        <ele>102.64754486084</ele>
        <time>2016-04-20T12:15:52.000Z</time>
      </trkpt>
      <trkpt lat="47.02895" lon="-0.94538">
        <ele>102.54286193848</ele>
        <time>2016-04-20T12:15:55.000Z</time>
      </trkpt>
      <trkpt lat="47.02892" lon="-0.9454">
        <ele>103.38482666016</ele>
        <time>2016-04-20T12:15:58.000Z</time>
      </trkpt>
      <trkpt lat="47.0289" lon="-0.94544">
        <ele>104.35322570801</ele>
        <time>2016-04-20T12:16:01.000Z</time>
      </trkpt>
      <trkpt lat="47.02887" lon="-0.94547">
        <ele>106.13366699219</ele>
        <time>2016-04-20T12:16:04.000Z</time>
      </trkpt>
      <trkpt lat="47.02884" lon="-0.94549">
        <ele>106.69187164307</ele>
        <time>2016-04-20T12:16:06.000Z</time>
      </trkpt>
      <trkpt lat="47.02882" lon="-0.94549">
        <ele>105.97448730469</ele>
        <time>2016-04-20T12:16:09.000Z</time>
      </trkpt>
      <trkpt lat="47.0288" lon="-0.94551">
        <ele>104.57506561279</ele>
        <time>2016-04-20T12:16:12.000Z</time>
      </trkpt>
      <trkpt lat="47.02879" lon="-0.94551">
        <ele>102.55652618408</ele>
        <time>2016-04-20T12:16:14.000Z</time>
      </trkpt>
      <trkpt lat="47.02876" lon="-0.94553">
        <ele>100.80347442627</ele>
        <time>2016-04-20T12:16:18.000Z</time>
      </trkpt>
      <trkpt lat="47.02872" lon="-0.94555">
        <ele>100.78378295898</ele>
        <time>2016-04-20T12:16:21.000Z</time>
      </trkpt>
      <trkpt lat="47.02868" lon="-0.94559">
        <ele>100.3748550415</ele>
        <time>2016-04-20T12:16:24.000Z</time>
      </trkpt>
      <trkpt lat="47.02866" lon="-0.94562">
        <ele>101.40955352783</ele>
        <time>2016-04-20T12:16:27.000Z</time>
      </trkpt>
      <trkpt lat="47.02865" lon="-0.94565">
        <ele>101.83717346191</ele>
        <time>2016-04-20T12:16:30.000Z</time>
      </trkpt>
      <trkpt lat="47.02863" lon="-0.94569">
        <ele>101.11307525635</ele>
        <time>2016-04-20T12:16:33.000Z</time>
      </trkpt>
      <trkpt lat="47.02858" lon="-0.9457">
        <ele>101.02029418945</ele>
        <time>2016-04-20T12:16:36.000Z</time>
      </trkpt>
      <trkpt lat="47.02852" lon="-0.94573">
        <ele>100.25187683105</ele>
        <time>2016-04-20T12:16:39.000Z</time>
      </trkpt>
      <trkpt lat="47.02848" lon="-0.94574">
        <ele>101.47414398193</ele>
        <time>2016-04-20T12:16:41.000Z</time>
      </trkpt>
      <trkpt lat="47.02843" lon="-0.94576">
        <ele>103.21399688721</ele>
        <time>2016-04-20T12:16:44.000Z</time>
      </trkpt>
      <trkpt lat="47.02835" lon="-0.94577">
        <ele>104.32328033447</ele>
        <time>2016-04-20T12:16:47.000Z</time>
      </trkpt>
      <trkpt lat="47.02831" lon="-0.94577">
        <ele>105.94703674316</ele>
        <time>2016-04-20T12:16:49.000Z</time>
      </trkpt>
      <trkpt lat="47.02827" lon="-0.9458">
        <ele>107.95082092285</ele>
        <time>2016-04-20T12:16:52.000Z</time>
      </trkpt>
      <trkpt lat="47.02826" lon="-0.94584">
        <ele>108.73736572266</ele>
        <time>2016-04-20T12:16:54.000Z</time>
      </trkpt>
      <trkpt lat="47.02822" lon="-0.94585">
        <ele>107.66172790527</ele>
        <time>2016-04-20T12:16:56.000Z</time>
      </trkpt>
      <trkpt lat="47.02819" lon="-0.94586">
        <ele>105.67449951172</ele>
        <time>2016-04-20T12:16:59.000Z</time>
      </trkpt>
      <trkpt lat="47.02818" lon="-0.94587">
        <ele>102.79123687744</ele>
        <time>2016-04-20T12:17:02.000Z</time>
      </trkpt>
      <trkpt lat="47.02816" lon="-0.94587">
        <ele>100.40991973877</ele>
        <time>2016-04-20T12:17:04.000Z</time>
      </trkpt>
      <trkpt lat="47.02815" lon="-0.94588">
        <ele>98.909103393555</ele>
        <time>2016-04-20T12:17:07.000Z</time>
      </trkpt>
      <trkpt lat="47.02814" lon="-0.94589">
        <ele>97.35807800293</ele>
        <time>2016-04-20T12:17:10.000Z</time>
      </trkpt>
      <trkpt lat="47.02812" lon="-0.9459">
        <ele>96.614387512207</ele>
        <time>2016-04-20T12:17:13.000Z</time>
      </trkpt>
      <trkpt lat="47.02808" lon="-0.9459">
        <ele>99.107040405273</ele>
        <time>2016-04-20T12:17:16.000Z</time>
      </trkpt>
      <trkpt lat="47.02806" lon="-0.9459">
        <ele>101.81568908691</ele>
        <time>2016-04-20T12:17:18.000Z</time>
      </trkpt>
      <trkpt lat="47.02803" lon="-0.94591">
        <ele>103.81476593018</ele>
        <time>2016-04-20T12:17:21.000Z</time>
      </trkpt>
      <trkpt lat="47.02799" lon="-0.94593">
        <ele>104.6598815918</ele>
        <time>2016-04-20T12:17:24.000Z</time>
      </trkpt>
      <trkpt lat="47.02797" lon="-0.94595">
        <ele>104.25579833984</ele>
        <time>2016-04-20T12:17:26.000Z</time>
      </trkpt>
      <trkpt lat="47.02791" lon="-0.94599">
        <ele>102.87398529053</ele>
        <time>2016-04-20T12:17:29.000Z</time>
      </trkpt>
      <trkpt lat="47.02789" lon="-0.94602">
        <ele>101.48931884766</ele>
        <time>2016-04-20T12:17:31.000Z</time>
      </trkpt>
      <trkpt lat="47.02787" lon="-0.94609">
        <ele>98.279998779297</ele>
        <time>2016-04-20T12:17:35.000Z</time>
      </trkpt>
      <trkpt lat="47.02785" lon="-0.94612">
        <ele>95.567153930664</ele>
        <time>2016-04-20T12:17:38.000Z</time>
      </trkpt>
      <trkpt lat="47.02784" lon="-0.94615">
        <ele>94.875099182129</ele>
        <time>2016-04-20T12:17:41.000Z</time>
      </trkpt>
      <trkpt lat="47.02783" lon="-0.94618">
        <ele>94.557456970215</ele>
        <time>2016-04-20T12:17:43.000Z</time>
      </trkpt>
      <trkpt lat="47.0278" lon="-0.9462">
        <ele>94.484741210938</ele>
        <time>2016-04-20T12:17:45.000Z</time>
      </trkpt>
      <trkpt lat="47.02777" lon="-0.94622">
        <ele>94.234642028809</ele>
        <time>2016-04-20T12:17:48.000Z</time>
      </trkpt>
      <trkpt lat="47.02774" lon="-0.94623">
        <ele>94.338287353516</ele>
        <time>2016-04-20T12:17:50.000Z</time>
      </trkpt>
      <trkpt lat="47.02771" lon="-0.94623">
        <ele>94.187400817871</ele>
        <time>2016-04-20T12:17:52.000Z</time>
      </trkpt>
      <trkpt lat="47.02768" lon="-0.94624">
        <ele>93.645645141602</ele>
        <time>2016-04-20T12:17:55.000Z</time>
      </trkpt>
      <trkpt lat="47.02766" lon="-0.94625">
        <ele>92.978149414062</ele>
        <time>2016-04-20T12:17:57.000Z</time>
      </trkpt>
      <trkpt lat="47.02763" lon="-0.94628">
        <ele>92.927619934082</ele>
        <time>2016-04-20T12:18:00.000Z</time>
      </trkpt>
      <trkpt lat="47.0276" lon="-0.94628">
        <ele>92.67041015625</ele>
        <time>2016-04-20T12:18:02.000Z</time>
      </trkpt>
      <trkpt lat="47.02757" lon="-0.94629">
        <ele>93.790092468262</ele>
        <time>2016-04-20T12:18:04.000Z</time>
      </trkpt>
      <trkpt lat="47.02754" lon="-0.94627">
        <ele>97.797462463379</ele>
        <time>2016-04-20T12:18:06.000Z</time>
      </trkpt>
      <trkpt lat="47.02752" lon="-0.94626">
        <ele>99.545036315918</ele>
        <time>2016-04-20T12:18:09.000Z</time>
      </trkpt>
      <trkpt lat="47.02751" lon="-0.94626">
        <ele>100.65557861328</ele>
        <time>2016-04-20T12:18:21.000Z</time>
      </trkpt>
      <trkpt lat="47.02749" lon="-0.94626">
        <ele>100.73754882812</ele>
        <time>2016-04-20T12:18:25.000Z</time>
      </trkpt>
      <trkpt lat="47.02747" lon="-0.94627">
        <ele>99.716850280762</ele>
        <time>2016-04-20T12:18:29.000Z</time>
      </trkpt>
      <trkpt lat="47.02743" lon="-0.94631">
        <ele>97.889144897461</ele>
        <time>2016-04-20T12:18:31.000Z</time>
      </trkpt>
      <trkpt lat="47.02738" lon="-0.94634">
        <ele>98.180114746094</ele>
        <time>2016-04-20T12:18:34.000Z</time>
      </trkpt>
      <trkpt lat="47.02732" lon="-0.94635">
        <ele>99.756225585938</ele>
        <time>2016-04-20T12:18:37.000Z</time>
      </trkpt>
      <trkpt lat="47.02729" lon="-0.94634">
        <ele>100.4281463623</ele>
        <time>2016-04-20T12:18:39.000Z</time>
      </trkpt>
      <trkpt lat="47.02727" lon="-0.94635">
        <ele>100.52711486816</ele>
        <time>2016-04-20T12:18:41.000Z</time>
      </trkpt>
      <trkpt lat="47.02723" lon="-0.94639">
        <ele>100.86250305176</ele>
        <time>2016-04-20T12:18:44.000Z</time>
      </trkpt>
      <trkpt lat="47.02721" lon="-0.94646">
        <ele>100.7121887207</ele>
        <time>2016-04-20T12:18:46.000Z</time>
      </trkpt>
      <trkpt lat="47.02718" lon="-0.94654">
        <ele>99.262275695801</ele>
        <time>2016-04-20T12:18:48.000Z</time>
      </trkpt>
      <trkpt lat="47.02713" lon="-0.94659">
        <ele>100.93878173828</ele>
        <time>2016-04-20T12:18:51.000Z</time>
      </trkpt>
      <trkpt lat="47.02708" lon="-0.94666">
        <ele>99.920928955078</ele>
        <time>2016-04-20T12:18:54.000Z</time>
      </trkpt>
      <trkpt lat="47.02705" lon="-0.9467">
        <ele>98.863990783691</ele>
        <time>2016-04-20T12:18:56.000Z</time>
      </trkpt>
      <trkpt lat="47.027" lon="-0.94676">
        <ele>99.784240722656</ele>
        <time>2016-04-20T12:18:59.000Z</time>
      </trkpt>
      <trkpt lat="47.02697" lon="-0.94677">
        <ele>98.253028869629</ele>
        <time>2016-04-20T12:19:02.000Z</time>
      </trkpt>
      <trkpt lat="47.02696" lon="-0.94679">
        <ele>98.320053100586</ele>
        <time>2016-04-20T12:19:04.000Z</time>
      </trkpt>
      <trkpt lat="47.02694" lon="-0.94682">
        <ele>98.713241577148</ele>
        <time>2016-04-20T12:19:06.000Z</time>
      </trkpt>
      <trkpt lat="47.02689" lon="-0.94684">
        <ele>100.72527313232</ele>
        <time>2016-04-20T12:19:09.000Z</time>
      </trkpt>
      <trkpt lat="47.02684" lon="-0.94686">
        <ele>102.39073181152</ele>
        <time>2016-04-20T12:19:12.000Z</time>
      </trkpt>
      <trkpt lat="47.02681" lon="-0.94689">
        <ele>101.81336975098</ele>
        <time>2016-04-20T12:19:14.000Z</time>
      </trkpt>
      <trkpt lat="47.02679" lon="-0.94692">
        <ele>100.12868499756</ele>
        <time>2016-04-20T12:19:16.000Z</time>
      </trkpt>
      <trkpt lat="47.02676" lon="-0.94697">
        <ele>98.726982116699</ele>
        <time>2016-04-20T12:19:19.000Z</time>
      </trkpt>
      <trkpt lat="47.02675" lon="-0.94699">
        <ele>99.717430114746</ele>
        <time>2016-04-20T12:19:21.000Z</time>
      </trkpt>
      <trkpt lat="47.02673" lon="-0.94704">
        <ele>101.55686187744</ele>
        <time>2016-04-20T12:19:24.000Z</time>
      </trkpt>
      <trkpt lat="47.0267" lon="-0.9471">
        <ele>102.69812774658</ele>
        <time>2016-04-20T12:19:27.000Z</time>
      </trkpt>
      <trkpt lat="47.02668" lon="-0.94712">
        <ele>103.38343811035</ele>
        <time>2016-04-20T12:19:29.000Z</time>
      </trkpt>
      <trkpt lat="47.02664" lon="-0.94715">
        <ele>103.44258880615</ele>
        <time>2016-04-20T12:19:32.000Z</time>
      </trkpt>
      <trkpt lat="47.02662" lon="-0.94718">
        <ele>103.81893157959</ele>
        <time>2016-04-20T12:19:34.000Z</time>
      </trkpt>
      <trkpt lat="47.02657" lon="-0.94721">
        <ele>103.86627197266</ele>
        <time>2016-04-20T12:19:37.000Z</time>
      </trkpt>
      <trkpt lat="47.02653" lon="-0.94722">
        <ele>102.52202606201</ele>
        <time>2016-04-20T12:19:39.000Z</time>
      </trkpt>
      <trkpt lat="47.02651" lon="-0.94726">
        <ele>101.95234680176</ele>
        <time>2016-04-20T12:19:42.000Z</time>
      </trkpt>
      <trkpt lat="47.02649" lon="-0.94728">
        <ele>101.63576507568</ele>
        <time>2016-04-20T12:19:44.000Z</time>
      </trkpt>
      <trkpt lat="47.02647" lon="-0.94731">
        <ele>100.91248321533</ele>
        <time>2016-04-20T12:19:46.000Z</time>
      </trkpt>
      <trkpt lat="47.02646" lon="-0.94736">
        <ele>101.08475494385</ele>
        <time>2016-04-20T12:19:49.000Z</time>
      </trkpt>
      <trkpt lat="47.02645" lon="-0.94742">
        <ele>101.60803222656</ele>
        <time>2016-04-20T12:19:52.000Z</time>
      </trkpt>
      <trkpt lat="47.02644" lon="-0.94746">
        <ele>102.1499710083</ele>
        <time>2016-04-20T12:19:55.000Z</time>
      </trkpt>
      <trkpt lat="47.02641" lon="-0.94748">
        <ele>102.83528900146</ele>
        <time>2016-04-20T12:19:58.000Z</time>
      </trkpt>
      <trkpt lat="47.02638" lon="-0.9475">
        <ele>102.66541290283</ele>
        <time>2016-04-20T12:20:00.000Z</time>
      </trkpt>
      <trkpt lat="47.0263" lon="-0.94752">
        <ele>101.37152099609</ele>
        <time>2016-04-20T12:20:03.000Z</time>
      </trkpt>
      <trkpt lat="47.02628" lon="-0.94757">
        <ele>101.2342376709</ele>
        <time>2016-04-20T12:20:06.000Z</time>
      </trkpt>
      <trkpt lat="47.02625" lon="-0.94759">
        <ele>101.13772583008</ele>
        <time>2016-04-20T12:20:08.000Z</time>
      </trkpt>
      <trkpt lat="47.02623" lon="-0.94761">
        <ele>100.41973876953</ele>
        <time>2016-04-20T12:20:11.000Z</time>
      </trkpt>
      <trkpt lat="47.02621" lon="-0.94763">
        <ele>100.7749710083</ele>
        <time>2016-04-20T12:20:13.000Z</time>
      </trkpt>
      <trkpt lat="47.02618" lon="-0.94763">
        <ele>102.75975799561</ele>
        <time>2016-04-20T12:20:16.000Z</time>
      </trkpt>
      <trkpt lat="47.02616" lon="-0.94764">
        <ele>104.60293579102</ele>
        <time>2016-04-20T12:20:19.000Z</time>
      </trkpt>
      <trkpt lat="47.02614" lon="-0.94765">
        <ele>105.37963104248</ele>
        <time>2016-04-20T12:20:21.000Z</time>
      </trkpt>
      <trkpt lat="47.02611" lon="-0.94768">
        <ele>105.94388580322</ele>
        <time>2016-04-20T12:20:24.000Z</time>
      </trkpt>
      <trkpt lat="47.02609" lon="-0.9477">
        <ele>106.01173400879</ele>
        <time>2016-04-20T12:20:26.000Z</time>
      </trkpt>
      <trkpt lat="47.02607" lon="-0.94771">
        <ele>108.01982116699</ele>
        <time>2016-04-20T12:20:29.000Z</time>
      </trkpt>
      <trkpt lat="47.02604" lon="-0.94772">
        <ele>108.8034362793</ele>
        <time>2016-04-20T12:20:32.000Z</time>
      </trkpt>
      <trkpt lat="47.02602" lon="-0.94774">
        <ele>107.97820281982</ele>
        <time>2016-04-20T12:20:34.000Z</time>
      </trkpt>
      <trkpt lat="47.02597" lon="-0.94775">
        <ele>107.29563140869</ele>
        <time>2016-04-20T12:20:37.000Z</time>
      </trkpt>
      <trkpt lat="47.02595" lon="-0.94777">
        <ele>108.06266021729</ele>
        <time>2016-04-20T12:20:39.000Z</time>
      </trkpt>
      <trkpt lat="47.02592" lon="-0.94781">
        <ele>107.25086212158</ele>
        <time>2016-04-20T12:20:42.000Z</time>
      </trkpt>
      <trkpt lat="47.0259" lon="-0.94783">
        <ele>105.78879547119</ele>
        <time>2016-04-20T12:20:44.000Z</time>
      </trkpt>
      <trkpt lat="47.02587" lon="-0.94786">
        <ele>105.40883636475</ele>
        <time>2016-04-20T12:20:47.000Z</time>
      </trkpt>
      <trkpt lat="47.02584" lon="-0.94787">
        <ele>106.34730529785</ele>
        <time>2016-04-20T12:20:50.000Z</time>
      </trkpt>
      <trkpt lat="47.02581" lon="-0.94787">
        <ele>105.58598327637</ele>
        <time>2016-04-20T12:20:52.000Z</time>
      </trkpt>
      <trkpt lat="47.02576" lon="-0.94788">
        <ele>104.5609588623</ele>
        <time>2016-04-20T12:20:55.000Z</time>
      </trkpt>
      <trkpt lat="47.02575" lon="-0.94789">
        <ele>104.93536376953</ele>
        <time>2016-04-20T12:20:57.000Z</time>
      </trkpt>
      <trkpt lat="47.02576" lon="-0.94792">
        <ele>106.19751739502</ele>
        <time>2016-04-20T12:20:59.000Z</time>
      </trkpt>
      <trkpt lat="47.02578" lon="-0.94795">
        <ele>107.62644195557</ele>
        <time>2016-04-20T12:21:02.000Z</time>
      </trkpt>
      <trkpt lat="47.02575" lon="-0.94801">
        <ele>108.93717193604</ele>
        <time>2016-04-20T12:21:05.000Z</time>
      </trkpt>
      <trkpt lat="47.0257" lon="-0.94804">
        <ele>109.8503036499</ele>
        <time>2016-04-20T12:21:10.000Z</time>
      </trkpt>
      <trkpt lat="47.02568" lon="-0.94806">
        <ele>110.38833618164</ele>
        <time>2016-04-20T12:21:13.000Z</time>
      </trkpt>
      <trkpt lat="47.02565" lon="-0.94811">
        <ele>109.70182037354</ele>
        <time>2016-04-20T12:21:16.000Z</time>
      </trkpt>
      <trkpt lat="47.02563" lon="-0.94814">
        <ele>110.2352142334</ele>
        <time>2016-04-20T12:21:18.000Z</time>
      </trkpt>
      <trkpt lat="47.02562" lon="-0.94818">
        <ele>111.33486938477</ele>
        <time>2016-04-20T12:21:21.000Z</time>
      </trkpt>
      <trkpt lat="47.02562" lon="-0.94821">
        <ele>111.48680877686</ele>
        <time>2016-04-20T12:21:23.000Z</time>
      </trkpt>
      <trkpt lat="47.02558" lon="-0.94824">
        <ele>110.11454772949</ele>
        <time>2016-04-20T12:21:26.000Z</time>
      </trkpt>
      <trkpt lat="47.02554" lon="-0.94827">
        <ele>109.87015533447</ele>
        <time>2016-04-20T12:21:29.000Z</time>
      </trkpt>
      <trkpt lat="47.02552" lon="-0.94831">
        <ele>110.91623687744</ele>
        <time>2016-04-20T12:21:31.000Z</time>
      </trkpt>
      <trkpt lat="47.0255" lon="-0.94833">
        <ele>110.44136047363</ele>
        <time>2016-04-20T12:21:33.000Z</time>
      </trkpt>
      <trkpt lat="47.02545" lon="-0.94838">
        <ele>109.83515167236</ele>
        <time>2016-04-20T12:21:36.000Z</time>
      </trkpt>
      <trkpt lat="47.02543" lon="-0.94841">
        <ele>109.5845489502</ele>
        <time>2016-04-20T12:21:39.000Z</time>
      </trkpt>
      <trkpt lat="47.02541" lon="-0.94844">
        <ele>109.51885223389</ele>
        <time>2016-04-20T12:21:42.000Z</time>
      </trkpt>
      <trkpt lat="47.02538" lon="-0.94847">
        <ele>110.09812927246</ele>
        <time>2016-04-20T12:21:44.000Z</time>
      </trkpt>
      <trkpt lat="47.02538" lon="-0.94849">
        <ele>109.47234344482</ele>
        <time>2016-04-20T12:21:46.000Z</time>
      </trkpt>
      <trkpt lat="47.02536" lon="-0.94854">
        <ele>108.49784088135</ele>
        <time>2016-04-20T12:21:49.000Z</time>
      </trkpt>
      <trkpt lat="47.02534" lon="-0.94856">
        <ele>107.81729125977</ele>
        <time>2016-04-20T12:21:51.000Z</time>
      </trkpt>
      <trkpt lat="47.02531" lon="-0.94856">
        <ele>106.14308929443</ele>
        <time>2016-04-20T12:21:53.000Z</time>
      </trkpt>
      <trkpt lat="47.0253" lon="-0.94857">
        <ele>104.92786407471</ele>
        <time>2016-04-20T12:21:55.000Z</time>
      </trkpt>
      <trkpt lat="47.02529" lon="-0.94859">
        <ele>104.69818878174</ele>
        <time>2016-04-20T12:21:58.000Z</time>
      </trkpt>
      <trkpt lat="47.02527" lon="-0.94865">
        <ele>103.70182800293</ele>
        <time>2016-04-20T12:22:01.000Z</time>
      </trkpt>
      <trkpt lat="47.02525" lon="-0.94868">
        <ele>102.89469146729</ele>
        <time>2016-04-20T12:22:03.000Z</time>
      </trkpt>
      <trkpt lat="47.02522" lon="-0.94869">
        <ele>102.17493438721</ele>
        <time>2016-04-20T12:22:05.000Z</time>
      </trkpt>
      <trkpt lat="47.02515" lon="-0.94869">
        <ele>100.2392578125</ele>
        <time>2016-04-20T12:22:08.000Z</time>
      </trkpt>
      <trkpt lat="47.02512" lon="-0.94871">
        <ele>100.33363342285</ele>
        <time>2016-04-20T12:22:10.000Z</time>
      </trkpt>
      <trkpt lat="47.02509" lon="-0.94875">
        <ele>100.50503540039</ele>
        <time>2016-04-20T12:22:13.000Z</time>
      </trkpt>
      <trkpt lat="47.02507" lon="-0.94878">
        <ele>99.914161682129</ele>
        <time>2016-04-20T12:22:15.000Z</time>
      </trkpt>
      <trkpt lat="47.02508" lon="-0.94883">
        <ele>100.20128631592</ele>
        <time>2016-04-20T12:22:18.000Z</time>
      </trkpt>
      <trkpt lat="47.02509" lon="-0.94886">
        <ele>100.5923614502</ele>
        <time>2016-04-20T12:22:21.000Z</time>
      </trkpt>
      <trkpt lat="47.02504" lon="-0.94888">
        <ele>98.910499572754</ele>
        <time>2016-04-20T12:22:24.000Z</time>
      </trkpt>
      <trkpt lat="47.02503" lon="-0.94891">
        <ele>98.006484985352</ele>
        <time>2016-04-20T12:22:27.000Z</time>
      </trkpt>
      <trkpt lat="47.02499" lon="-0.94896">
        <ele>96.109153747559</ele>
        <time>2016-04-20T12:22:30.000Z</time>
      </trkpt>
      <trkpt lat="47.02489" lon="-0.94895">
        <ele>94.768753051758</ele>
        <time>2016-04-20T12:22:33.000Z</time>
      </trkpt>
      <trkpt lat="47.02487" lon="-0.94896">
        <ele>94.595680236816</ele>
        <time>2016-04-20T12:22:35.000Z</time>
      </trkpt>
      <trkpt lat="47.02484" lon="-0.94898">
        <ele>95.958534240723</ele>
        <time>2016-04-20T12:22:37.000Z</time>
      </trkpt>
      <trkpt lat="47.02481" lon="-0.94903">
        <ele>99.271896362305</ele>
        <time>2016-04-20T12:22:40.000Z</time>
      </trkpt>
      <trkpt lat="47.02478" lon="-0.94906">
        <ele>100.44068145752</ele>
        <time>2016-04-20T12:22:43.000Z</time>
      </trkpt>
      <trkpt lat="47.02476" lon="-0.94909">
        <ele>99.475143432617</ele>
        <time>2016-04-20T12:22:47.000Z</time>
      </trkpt>
      <trkpt lat="47.02475" lon="-0.94912">
        <ele>101.70927429199</ele>
        <time>2016-04-20T12:22:51.000Z</time>
      </trkpt>
      <trkpt lat="47.02467" lon="-0.94912">
        <ele>104.23431396484</ele>
        <time>2016-04-20T12:22:54.000Z</time>
      </trkpt>
      <trkpt lat="47.02469" lon="-0.94914">
        <ele>103.7915802002</ele>
        <time>2016-04-20T12:22:57.000Z</time>
      </trkpt>
      <trkpt lat="47.02465" lon="-0.94917">
        <ele>103.38704681396</ele>
        <time>2016-04-20T12:23:01.000Z</time>
      </trkpt>
      <trkpt lat="47.02465" lon="-0.9492">
        <ele>103.14903259277</ele>
        <time>2016-04-20T12:23:03.000Z</time>
      </trkpt>
      <trkpt lat="47.02465" lon="-0.94921">
        <ele>103.23665618896</ele>
        <time>2016-04-20T12:23:05.000Z</time>
      </trkpt>
      <trkpt lat="47.02465" lon="-0.94927">
        <ele>103.58673858643</ele>
        <time>2016-04-20T12:23:08.000Z</time>
      </trkpt>
      <trkpt lat="47.02465" lon="-0.94929">
        <ele>103.61039733887</ele>
        <time>2016-04-20T12:23:10.000Z</time>
      </trkpt>
      <trkpt lat="47.02463" lon="-0.94935">
        <ele>102.92253112793</ele>
        <time>2016-04-20T12:23:13.000Z</time>
      </trkpt>
      <trkpt lat="47.0246" lon="-0.94938">
        <ele>102.5454788208</ele>
        <time>2016-04-20T12:23:16.000Z</time>
      </trkpt>
      <trkpt lat="47.02457" lon="-0.94938">
        <ele>102.59532165527</ele>
        <time>2016-04-20T12:23:18.000Z</time>
      </trkpt>
      <trkpt lat="47.02453" lon="-0.9494">
        <ele>102.39234161377</ele>
        <time>2016-04-20T12:23:21.000Z</time>
      </trkpt>
      <trkpt lat="47.0245" lon="-0.94942">
        <ele>101.44732666016</ele>
        <time>2016-04-20T12:23:23.000Z</time>
      </trkpt>
      <trkpt lat="47.02446" lon="-0.94947">
        <ele>101.17263793945</ele>
        <time>2016-04-20T12:23:28.000Z</time>
      </trkpt>
      <trkpt lat="47.02448" lon="-0.94948">
        <ele>99.831901550293</ele>
        <time>2016-04-20T12:23:35.000Z</time>
      </trkpt>
      <trkpt lat="47.02448" lon="-0.94949">
        <ele>99.599006652832</ele>
        <time>2016-04-20T12:23:39.000Z</time>
      </trkpt>
      <trkpt lat="47.02448" lon="-0.94951">
        <ele>98.904861450195</ele>
        <time>2016-04-20T12:23:41.000Z</time>
      </trkpt>
      <trkpt lat="47.02448" lon="-0.94951">
        <ele>93.442535400391</ele>
        <time>2016-04-20T12:24:01.000Z</time>
      </trkpt>
      <trkpt lat="47.02447" lon="-0.94954">
        <ele>97.471893310547</ele>
        <time>2016-04-20T12:24:06.000Z</time>
      </trkpt>
      <trkpt lat="47.02444" lon="-0.94957">
        <ele>94.631301879883</ele>
        <time>2016-04-20T12:24:08.000Z</time>
      </trkpt>
      <trkpt lat="47.02439" lon="-0.94962">
        <ele>94.424163818359</ele>
        <time>2016-04-20T12:24:11.000Z</time>
      </trkpt>
      <trkpt lat="47.02437" lon="-0.9497">
        <ele>92.969650268555</ele>
        <time>2016-04-20T12:24:13.000Z</time>
      </trkpt>
      <trkpt lat="47.02433" lon="-0.94976">
        <ele>89.982368469238</ele>
        <time>2016-04-20T12:24:16.000Z</time>
      </trkpt>
      <trkpt lat="47.02431" lon="-0.94979">
        <ele>89.558036804199</ele>
        <time>2016-04-20T12:24:19.000Z</time>
      </trkpt>
      <trkpt lat="47.0243" lon="-0.94985">
        <ele>90.109466552734</ele>
        <time>2016-04-20T12:24:22.000Z</time>
      </trkpt>
      <trkpt lat="47.0243" lon="-0.9499">
        <ele>90.273094177246</ele>
        <time>2016-04-20T12:24:26.000Z</time>
      </trkpt>
      <trkpt lat="47.0243" lon="-0.94993">
        <ele>90.149803161621</ele>
        <time>2016-04-20T12:24:28.000Z</time>
      </trkpt>
      <trkpt lat="47.02427" lon="-0.94997">
        <ele>91.688377380371</ele>
        <time>2016-04-20T12:24:31.000Z</time>
      </trkpt>
      <trkpt lat="47.02426" lon="-0.94998">
        <ele>92.051742553711</ele>
        <time>2016-04-20T12:24:33.000Z</time>
      </trkpt>
      <trkpt lat="47.02425" lon="-0.95001">
        <ele>92.488891601562</ele>
        <time>2016-04-20T12:24:36.000Z</time>
      </trkpt>
      <trkpt lat="47.02424" lon="-0.95004">
        <ele>92.728950500488</ele>
        <time>2016-04-20T12:24:38.000Z</time>
      </trkpt>
      <trkpt lat="47.02423" lon="-0.95007">
        <ele>93.845916748047</ele>
        <time>2016-04-20T12:24:41.000Z</time>
      </trkpt>
      <trkpt lat="47.02422" lon="-0.9501">
        <ele>94.241241455078</ele>
        <time>2016-04-20T12:24:44.000Z</time>
      </trkpt>
      <trkpt lat="47.02422" lon="-0.9501">
        <ele>93.100196838379</ele>
        <time>2016-04-20T12:25:04.000Z</time>
      </trkpt>
      <trkpt lat="47.02414" lon="-0.95065">
        <ele>100.29014587402</ele>
        <time>2016-04-20T12:26:24.000Z</time>
      </trkpt>
      <trkpt lat="47.02386" lon="-0.95194">
        <ele>97.674644470215</ele>
        <time>2016-04-20T12:26:34.000Z</time>
      </trkpt>
      <trkpt lat="47.02386" lon="-0.95196">
        <ele>97.038154602051</ele>
        <time>2016-04-20T12:26:36.000Z</time>
      </trkpt>
      <trkpt lat="47.02386" lon="-0.95201">
        <ele>97.718971252441</ele>
        <time>2016-04-20T12:26:39.000Z</time>
      </trkpt>
      <trkpt lat="47.02386" lon="-0.95212">
        <ele>95.984855651855</ele>
        <time>2016-04-20T12:26:42.000Z</time>
      </trkpt>
      <trkpt lat="47.02386" lon="-0.95216">
        <ele>92.691543579102</ele>
        <time>2016-04-20T12:26:45.000Z</time>
      </trkpt>
      <trkpt lat="47.02386" lon="-0.95219">
        <ele>91.350486755371</ele>
        <time>2016-04-20T12:26:47.000Z</time>
      </trkpt>
      <trkpt lat="47.02386" lon="-0.95225">
        <ele>91.237190246582</ele>
        <time>2016-04-20T12:26:50.000Z</time>
      </trkpt>
      <trkpt lat="47.02386" lon="-0.95229">
        <ele>91.346549987793</ele>
        <time>2016-04-20T12:26:52.000Z</time>
      </trkpt>
      <trkpt lat="47.02386" lon="-0.95234">
        <ele>91.763252258301</ele>
        <time>2016-04-20T12:26:55.000Z</time>
      </trkpt>
      <trkpt lat="47.02383" lon="-0.95238">
        <ele>91.909400939941</ele>
        <time>2016-04-20T12:26:57.000Z</time>
      </trkpt>
      <trkpt lat="47.0238" lon="-0.95246">
        <ele>91.272926330566</ele>
        <time>2016-04-20T12:27:00.000Z</time>
      </trkpt>
      <trkpt lat="47.0238" lon="-0.9525">
        <ele>91.387351989746</ele>
        <time>2016-04-20T12:27:02.000Z</time>
      </trkpt>
      <trkpt lat="47.02379" lon="-0.95255">
        <ele>94.258644104004</ele>
        <time>2016-04-20T12:27:05.000Z</time>
      </trkpt>
      <trkpt lat="47.0238" lon="-0.95259">
        <ele>96.446136474609</ele>
        <time>2016-04-20T12:27:07.000Z</time>
      </trkpt>
      <trkpt lat="47.02382" lon="-0.95265">
        <ele>98.495880126953</ele>
        <time>2016-04-20T12:27:10.000Z</time>
      </trkpt>
      <trkpt lat="47.02382" lon="-0.95269">
        <ele>98.947959899902</ele>
        <time>2016-04-20T12:27:13.000Z</time>
      </trkpt>
      <trkpt lat="47.02382" lon="-0.95275">
        <ele>99.00479888916</ele>
        <time>2016-04-20T12:27:17.000Z</time>
      </trkpt>
      <trkpt lat="47.02382" lon="-0.95281">
        <ele>99.459770202637</ele>
        <time>2016-04-20T12:27:21.000Z</time>
      </trkpt>
      <trkpt lat="47.02382" lon="-0.95284">
        <ele>99.46459197998</ele>
        <time>2016-04-20T12:27:24.000Z</time>
      </trkpt>
      <trkpt lat="47.02381" lon="-0.95286">
        <ele>99.744071960449</ele>
        <time>2016-04-20T12:27:26.000Z</time>
      </trkpt>
      <trkpt lat="47.0238" lon="-0.95295">
        <ele>99.570205688477</ele>
        <time>2016-04-20T12:27:29.000Z</time>
      </trkpt>
      <trkpt lat="47.02379" lon="-0.95301">
        <ele>99.663414001465</ele>
        <time>2016-04-20T12:27:32.000Z</time>
      </trkpt>
      <trkpt lat="47.02378" lon="-0.95308">
        <ele>100.05595397949</ele>
        <time>2016-04-20T12:27:35.000Z</time>
      </trkpt>
      <trkpt lat="47.02377" lon="-0.95314">
        <ele>99.498748779297</ele>
        <time>2016-04-20T12:27:38.000Z</time>
      </trkpt>
      <trkpt lat="47.02377" lon="-0.95318">
        <ele>99.121940612793</ele>
        <time>2016-04-20T12:27:41.000Z</time>
      </trkpt>
      <trkpt lat="47.02376" lon="-0.95323">
        <ele>99.127899169922</ele>
        <time>2016-04-20T12:27:43.000Z</time>
      </trkpt>
      <trkpt lat="47.02374" lon="-0.95328">
        <ele>100.04962158203</ele>
        <time>2016-04-20T12:27:46.000Z</time>
      </trkpt>
      <trkpt lat="47.02372" lon="-0.95332">
        <ele>100.64960479736</ele>
        <time>2016-04-20T12:27:48.000Z</time>
      </trkpt>
      <trkpt lat="47.02372" lon="-0.95339">
        <ele>101.51856231689</ele>
        <time>2016-04-20T12:27:51.000Z</time>
      </trkpt>
      <trkpt lat="47.02373" lon="-0.95346">
        <ele>101.51351165771</ele>
        <time>2016-04-20T12:27:53.000Z</time>
      </trkpt>
      <trkpt lat="47.02374" lon="-0.95352">
        <ele>101.97143554688</ele>
        <time>2016-04-20T12:27:55.000Z</time>
      </trkpt>
      <trkpt lat="47.02372" lon="-0.95355">
        <ele>102.65937042236</ele>
        <time>2016-04-20T12:27:58.000Z</time>
      </trkpt>
      <trkpt lat="47.0237" lon="-0.95359">
        <ele>103.77415466309</ele>
        <time>2016-04-20T12:28:01.000Z</time>
      </trkpt>
      <trkpt lat="47.02368" lon="-0.95365">
        <ele>104.51458740234</ele>
        <time>2016-04-20T12:28:05.000Z</time>
      </trkpt>
      <trkpt lat="47.02367" lon="-0.95369">
        <ele>103.76742553711</ele>
        <time>2016-04-20T12:28:07.000Z</time>
      </trkpt>
      <trkpt lat="47.02367" lon="-0.95373">
        <ele>103.12860107422</ele>
        <time>2016-04-20T12:28:09.000Z</time>
      </trkpt>
      <trkpt lat="47.02365" lon="-0.95382">
        <ele>102.28762817383</ele>
        <time>2016-04-20T12:28:12.000Z</time>
      </trkpt>
      <trkpt lat="47.02363" lon="-0.95388">
        <ele>101.20107269287</ele>
        <time>2016-04-20T12:28:15.000Z</time>
      </trkpt>
      <trkpt lat="47.02364" lon="-0.95391">
        <ele>101.35570526123</ele>
        <time>2016-04-20T12:28:17.000Z</time>
      </trkpt>
      <trkpt lat="47.02361" lon="-0.95396">
        <ele>100.83891296387</ele>
        <time>2016-04-20T12:28:20.000Z</time>
      </trkpt>
      <trkpt lat="47.02361" lon="-0.95404">
        <ele>100.53553771973</ele>
        <time>2016-04-20T12:28:23.000Z</time>
      </trkpt>
      <trkpt lat="47.02359" lon="-0.95409">
        <ele>98.78369140625</ele>
        <time>2016-04-20T12:28:26.000Z</time>
      </trkpt>
      <trkpt lat="47.02359" lon="-0.95412">
        <ele>96.71605682373</ele>
        <time>2016-04-20T12:28:29.000Z</time>
      </trkpt>
      <trkpt lat="47.02358" lon="-0.95415">
        <ele>97.664764404297</ele>
        <time>2016-04-20T12:28:32.000Z</time>
      </trkpt>
      <trkpt lat="47.02357" lon="-0.95421">
        <ele>99.288986206055</ele>
        <time>2016-04-20T12:28:35.000Z</time>
      </trkpt>
      <trkpt lat="47.02354" lon="-0.95423">
        <ele>99.609649658203</ele>
        <time>2016-04-20T12:28:37.000Z</time>
      </trkpt>
      <trkpt lat="47.0235" lon="-0.95426">
        <ele>99.862335205078</ele>
        <time>2016-04-20T12:28:39.000Z</time>
      </trkpt>
      <trkpt lat="47.02348" lon="-0.95434">
        <ele>100.044090271</ele>
        <time>2016-04-20T12:28:42.000Z</time>
      </trkpt>
      <trkpt lat="47.02348" lon="-0.95439">
        <ele>100.09944152832</ele>
        <time>2016-04-20T12:28:45.000Z</time>
      </trkpt>
      <trkpt lat="47.02348" lon="-0.95444">
        <ele>100.12628936768</ele>
        <time>2016-04-20T12:28:48.000Z</time>
      </trkpt>
      <trkpt lat="47.02346" lon="-0.9545">
        <ele>100.59384918213</ele>
        <time>2016-04-20T12:28:52.000Z</time>
      </trkpt>
      <trkpt lat="47.02345" lon="-0.95457">
        <ele>101.14364624023</ele>
        <time>2016-04-20T12:28:55.000Z</time>
      </trkpt>
      <trkpt lat="47.02345" lon="-0.95463">
        <ele>100.24598693848</ele>
        <time>2016-04-20T12:28:58.000Z</time>
      </trkpt>
      <trkpt lat="47.02343" lon="-0.95466">
        <ele>98.208396911621</ele>
        <time>2016-04-20T12:29:01.000Z</time>
      </trkpt>
      <trkpt lat="47.02341" lon="-0.95468">
        <ele>100.45909118652</ele>
        <time>2016-04-20T12:29:04.000Z</time>
      </trkpt>
      <trkpt lat="47.02339" lon="-0.95473">
        <ele>101.58404541016</ele>
        <time>2016-04-20T12:29:06.000Z</time>
      </trkpt>
      <trkpt lat="47.0234" lon="-0.9548">
        <ele>101.41549682617</ele>
        <time>2016-04-20T12:29:09.000Z</time>
      </trkpt>
      <trkpt lat="47.0234" lon="-0.95484">
        <ele>101.73119354248</ele>
        <time>2016-04-20T12:29:11.000Z</time>
      </trkpt>
      <trkpt lat="47.0234" lon="-0.95487">
        <ele>101.45435333252</ele>
        <time>2016-04-20T12:29:13.000Z</time>
      </trkpt>
      <trkpt lat="47.02337" lon="-0.95492">
        <ele>100.41175079346</ele>
        <time>2016-04-20T12:29:16.000Z</time>
      </trkpt>
      <trkpt lat="47.02337" lon="-0.95497">
        <ele>101.15540313721</ele>
        <time>2016-04-20T12:29:18.000Z</time>
      </trkpt>
      <trkpt lat="47.02336" lon="-0.95503">
        <ele>102.06382751465</ele>
        <time>2016-04-20T12:29:21.000Z</time>
      </trkpt>
      <trkpt lat="47.02334" lon="-0.9551">
        <ele>101.73680877686</ele>
        <time>2016-04-20T12:29:24.000Z</time>
      </trkpt>
      <trkpt lat="47.02332" lon="-0.95512">
        <ele>101.89528656006</ele>
        <time>2016-04-20T12:29:26.000Z</time>
      </trkpt>
      <trkpt lat="47.02329" lon="-0.95514">
        <ele>100.68039703369</ele>
        <time>2016-04-20T12:29:29.000Z</time>
      </trkpt>
      <trkpt lat="47.02327" lon="-0.95516">
        <ele>99.435821533203</ele>
        <time>2016-04-20T12:29:31.000Z</time>
      </trkpt>
      <trkpt lat="47.02326" lon="-0.95521">
        <ele>99.687294006348</ele>
        <time>2016-04-20T12:29:33.000Z</time>
      </trkpt>
      <trkpt lat="47.02326" lon="-0.9553">
        <ele>101.13899230957</ele>
        <time>2016-04-20T12:29:36.000Z</time>
      </trkpt>
      <trkpt lat="47.02325" lon="-0.95531">
        <ele>102.21137237549</ele>
        <time>2016-04-20T12:29:39.000Z</time>
      </trkpt>
      <trkpt lat="47.02322" lon="-0.95536">
        <ele>103.07942199707</ele>
        <time>2016-04-20T12:29:43.000Z</time>
      </trkpt>
      <trkpt lat="47.02321" lon="-0.95539">
        <ele>103.46621704102</ele>
        <time>2016-04-20T12:29:45.000Z</time>
      </trkpt>
      <trkpt lat="47.02319" lon="-0.95545">
        <ele>105.03241729736</ele>
        <time>2016-04-20T12:29:48.000Z</time>
      </trkpt>
      <trkpt lat="47.02317" lon="-0.95553">
        <ele>105.78284454346</ele>
        <time>2016-04-20T12:29:51.000Z</time>
      </trkpt>
      <trkpt lat="47.02317" lon="-0.95564">
        <ele>105.89684295654</ele>
        <time>2016-04-20T12:29:54.000Z</time>
      </trkpt>
      <trkpt lat="47.02316" lon="-0.95564">
        <ele>105.49267578125</ele>
        <time>2016-04-20T12:29:56.000Z</time>
      </trkpt>
      <trkpt lat="47.02313" lon="-0.95566">
        <ele>103.67895507812</ele>
        <time>2016-04-20T12:29:59.000Z</time>
      </trkpt>
      <trkpt lat="47.02312" lon="-0.95567">
        <ele>104.03890228271</ele>
        <time>2016-04-20T12:30:01.000Z</time>
      </trkpt>
      <trkpt lat="47.02312" lon="-0.95569">
        <ele>103.78053283691</ele>
        <time>2016-04-20T12:30:03.000Z</time>
      </trkpt>
      <trkpt lat="47.02311" lon="-0.95578">
        <ele>103.8088760376</ele>
        <time>2016-04-20T12:30:06.000Z</time>
      </trkpt>
      <trkpt lat="47.0231" lon="-0.9558">
        <ele>103.69602966309</ele>
        <time>2016-04-20T12:30:08.000Z</time>
      </trkpt>
      <trkpt lat="47.02308" lon="-0.95587">
        <ele>103.78330993652</ele>
        <time>2016-04-20T12:30:11.000Z</time>
      </trkpt>
      <trkpt lat="47.02308" lon="-0.95593">
        <ele>103.26219940186</ele>
        <time>2016-04-20T12:30:13.000Z</time>
      </trkpt>
      <trkpt lat="47.02306" lon="-0.95596">
        <ele>102.91890716553</ele>
        <time>2016-04-20T12:30:16.000Z</time>
      </trkpt>
      <trkpt lat="47.02302" lon="-0.95593">
        <ele>101.91873931885</ele>
        <time>2016-04-20T12:30:18.000Z</time>
      </trkpt>
      <trkpt lat="47.02303" lon="-0.95597">
        <ele>101.66156768799</ele>
        <time>2016-04-20T12:30:21.000Z</time>
      </trkpt>
      <trkpt lat="47.02302" lon="-0.95611">
        <ele>100.80675506592</ele>
        <time>2016-04-20T12:30:24.000Z</time>
      </trkpt>
      <trkpt lat="47.02301" lon="-0.95619">
        <ele>100.61406707764</ele>
        <time>2016-04-20T12:30:27.000Z</time>
      </trkpt>
      <trkpt lat="47.02299" lon="-0.95622">
        <ele>101.54266357422</ele>
        <time>2016-04-20T12:30:29.000Z</time>
      </trkpt>
      <trkpt lat="47.02296" lon="-0.95621">
        <ele>104.59539031982</ele>
        <time>2016-04-20T12:30:32.000Z</time>
      </trkpt>
      <trkpt lat="47.02295" lon="-0.95623">
        <ele>105.79164886475</ele>
        <time>2016-04-20T12:30:34.000Z</time>
      </trkpt>
      <trkpt lat="47.02294" lon="-0.95629">
        <ele>104.81436920166</ele>
        <time>2016-04-20T12:30:37.000Z</time>
      </trkpt>
      <trkpt lat="47.02291" lon="-0.95635">
        <ele>103.97249603271</ele>
        <time>2016-04-20T12:30:40.000Z</time>
      </trkpt>
      <trkpt lat="47.0229" lon="-0.9564">
        <ele>103.69202423096</ele>
        <time>2016-04-20T12:30:43.000Z</time>
      </trkpt>
      <trkpt lat="47.0229" lon="-0.95646">
        <ele>103.40579223633</ele>
        <time>2016-04-20T12:30:45.000Z</time>
      </trkpt>
      <trkpt lat="47.02288" lon="-0.95648">
        <ele>102.82081604004</ele>
        <time>2016-04-20T12:30:47.000Z</time>
      </trkpt>
      <trkpt lat="47.02287" lon="-0.95655">
        <ele>103.47436523438</ele>
        <time>2016-04-20T12:30:52.000Z</time>
      </trkpt>
      <trkpt lat="47.02286" lon="-0.95657">
        <ele>103.70449066162</ele>
        <time>2016-04-20T12:30:54.000Z</time>
      </trkpt>
      <trkpt lat="47.02286" lon="-0.95662">
        <ele>104.05290222168</ele>
        <time>2016-04-20T12:30:56.000Z</time>
      </trkpt>
      <trkpt lat="47.02285" lon="-0.95666">
        <ele>104.76545715332</ele>
        <time>2016-04-20T12:30:59.000Z</time>
      </trkpt>
      <trkpt lat="47.02284" lon="-0.95672">
        <ele>105.43827819824</ele>
        <time>2016-04-20T12:31:01.000Z</time>
      </trkpt>
      <trkpt lat="47.02279" lon="-0.95676">
        <ele>106.01819610596</ele>
        <time>2016-04-20T12:31:04.000Z</time>
      </trkpt>
      <trkpt lat="47.02278" lon="-0.95676">
        <ele>105.74554443359</ele>
        <time>2016-04-20T12:31:06.000Z</time>
      </trkpt>
      <trkpt lat="47.02277" lon="-0.95678">
        <ele>105.89177703857</ele>
        <time>2016-04-20T12:31:09.000Z</time>
      </trkpt>
      <trkpt lat="47.02276" lon="-0.95687">
        <ele>106.10009002686</ele>
        <time>2016-04-20T12:31:12.000Z</time>
      </trkpt>
      <trkpt lat="47.02276" lon="-0.95704">
        <ele>105.39248657227</ele>
        <time>2016-04-20T12:31:15.000Z</time>
      </trkpt>
      <trkpt lat="47.02275" lon="-0.95706">
        <ele>105.37674713135</ele>
        <time>2016-04-20T12:31:17.000Z</time>
      </trkpt>
      <trkpt lat="47.02274" lon="-0.95704">
        <ele>105.73926544189</ele>
        <time>2016-04-20T12:31:20.000Z</time>
      </trkpt>
      <trkpt lat="47.02272" lon="-0.95704">
        <ele>105.72221374512</ele>
        <time>2016-04-20T12:31:23.000Z</time>
      </trkpt>
      <trkpt lat="47.02271" lon="-0.95711">
        <ele>105.64630126953</ele>
        <time>2016-04-20T12:31:26.000Z</time>
      </trkpt>
      <trkpt lat="47.0227" lon="-0.95714">
        <ele>105.02768707275</ele>
        <time>2016-04-20T12:31:28.000Z</time>
      </trkpt>
      <trkpt lat="47.02269" lon="-0.95722">
        <ele>103.95372009277</ele>
        <time>2016-04-20T12:31:31.000Z</time>
      </trkpt>
      <trkpt lat="47.02266" lon="-0.95725">
        <ele>102.4401550293</ele>
        <time>2016-04-20T12:31:34.000Z</time>
      </trkpt>
      <trkpt lat="47.02264" lon="-0.95729">
        <ele>102.99543762207</ele>
        <time>2016-04-20T12:31:36.000Z</time>
      </trkpt>
      <trkpt lat="47.02263" lon="-0.95729">
        <ele>103.09880065918</ele>
        <time>2016-04-20T12:31:41.000Z</time>
      </trkpt>
      <trkpt lat="47.02259" lon="-0.95731">
        <ele>103.46127319336</ele>
        <time>2016-04-20T12:31:43.000Z</time>
      </trkpt>
      <trkpt lat="47.02258" lon="-0.95737">
        <ele>102.90740966797</ele>
        <time>2016-04-20T12:31:45.000Z</time>
      </trkpt>
      <trkpt lat="47.02258" lon="-0.95745">
        <ele>102.71524810791</ele>
        <time>2016-04-20T12:31:48.000Z</time>
      </trkpt>
      <trkpt lat="47.02258" lon="-0.9575">
        <ele>102.47366333008</ele>
        <time>2016-04-20T12:31:51.000Z</time>
      </trkpt>
      <trkpt lat="47.02256" lon="-0.95752">
        <ele>100.36192321777</ele>
        <time>2016-04-20T12:31:54.000Z</time>
      </trkpt>
      <trkpt lat="47.02255" lon="-0.95753">
        <ele>100.62065124512</ele>
        <time>2016-04-20T12:31:56.000Z</time>
      </trkpt>
      <trkpt lat="47.02253" lon="-0.95755">
        <ele>101.57265472412</ele>
        <time>2016-04-20T12:31:58.000Z</time>
      </trkpt>
      <trkpt lat="47.02248" lon="-0.95759">
        <ele>101.60134887695</ele>
        <time>2016-04-20T12:32:01.000Z</time>
      </trkpt>
      <trkpt lat="47.02248" lon="-0.95764">
        <ele>103.36236572266</ele>
        <time>2016-04-20T12:32:04.000Z</time>
      </trkpt>
      <trkpt lat="47.02248" lon="-0.95769">
        <ele>103.40909576416</ele>
        <time>2016-04-20T12:32:06.000Z</time>
      </trkpt>
      <trkpt lat="47.02247" lon="-0.95774">
        <ele>104.29827880859</ele>
        <time>2016-04-20T12:32:08.000Z</time>
      </trkpt>
      <trkpt lat="47.02247" lon="-0.95781">
        <ele>104.08898162842</ele>
        <time>2016-04-20T12:32:11.000Z</time>
      </trkpt>
      <trkpt lat="47.02245" lon="-0.95783">
        <ele>103.50146484375</ele>
        <time>2016-04-20T12:32:13.000Z</time>
      </trkpt>
      <trkpt lat="47.02242" lon="-0.95786">
        <ele>101.68339538574</ele>
        <time>2016-04-20T12:32:16.000Z</time>
      </trkpt>
      <trkpt lat="47.0224" lon="-0.95791">
        <ele>101.12663269043</ele>
        <time>2016-04-20T12:32:19.000Z</time>
      </trkpt>
      <trkpt lat="47.02238" lon="-0.95795">
        <ele>100.75178527832</ele>
        <time>2016-04-20T12:32:21.000Z</time>
      </trkpt>
      <trkpt lat="47.02238" lon="-0.95804">
        <ele>100.3359375</ele>
        <time>2016-04-20T12:32:24.000Z</time>
      </trkpt>
      <trkpt lat="47.02238" lon="-0.95809">
        <ele>99.820709228516</ele>
        <time>2016-04-20T12:32:26.000Z</time>
      </trkpt>
      <trkpt lat="47.02236" lon="-0.95808">
        <ele>100.91809844971</ele>
        <time>2016-04-20T12:32:29.000Z</time>
      </trkpt>
      <trkpt lat="47.02235" lon="-0.9581">
        <ele>102.10227203369</ele>
        <time>2016-04-20T12:32:33.000Z</time>
      </trkpt>
      <trkpt lat="47.02232" lon="-0.95815">
        <ele>104.03486633301</ele>
        <time>2016-04-20T12:32:36.000Z</time>
      </trkpt>
      <trkpt lat="47.02228" lon="-0.95816">
        <ele>105.5532989502</ele>
        <time>2016-04-20T12:32:38.000Z</time>
      </trkpt>
      <trkpt lat="47.02224" lon="-0.95819">
        <ele>106.25112915039</ele>
        <time>2016-04-20T12:32:41.000Z</time>
      </trkpt>
      <trkpt lat="47.02223" lon="-0.95823">
        <ele>107.09093475342</ele>
        <time>2016-04-20T12:32:44.000Z</time>
      </trkpt>
      <trkpt lat="47.02222" lon="-0.95826">
        <ele>106.75267028809</ele>
        <time>2016-04-20T12:32:47.000Z</time>
      </trkpt>
      <trkpt lat="47.0222" lon="-0.95828">
        <ele>107.53925323486</ele>
        <time>2016-04-20T12:32:49.000Z</time>
      </trkpt>
      <trkpt lat="47.02218" lon="-0.95836">
        <ele>109.03747558594</ele>
        <time>2016-04-20T12:32:52.000Z</time>
      </trkpt>
      <trkpt lat="47.02217" lon="-0.95841">
        <ele>109.26661682129</ele>
        <time>2016-04-20T12:32:54.000Z</time>
      </trkpt>
      <trkpt lat="47.02217" lon="-0.95843">
        <ele>110.26374053955</ele>
        <time>2016-04-20T12:32:58.000Z</time>
      </trkpt>
      <trkpt lat="47.02209" lon="-0.95848">
        <ele>109.94422912598</ele>
        <time>2016-04-20T12:33:01.000Z</time>
      </trkpt>
      <trkpt lat="47.02208" lon="-0.95847">
        <ele>110.10042572021</ele>
        <time>2016-04-20T12:33:04.000Z</time>
      </trkpt>
      <trkpt lat="47.02208" lon="-0.95853">
        <ele>109.72059631348</ele>
        <time>2016-04-20T12:33:07.000Z</time>
      </trkpt>
      <trkpt lat="47.02207" lon="-0.95859">
        <ele>108.81711578369</ele>
        <time>2016-04-20T12:33:09.000Z</time>
      </trkpt>
      <trkpt lat="47.02204" lon="-0.95861">
        <ele>108.51366424561</ele>
        <time>2016-04-20T12:33:12.000Z</time>
      </trkpt>
      <trkpt lat="47.02203" lon="-0.95868">
        <ele>110.90518188477</ele>
        <time>2016-04-20T12:33:15.000Z</time>
      </trkpt>
      <trkpt lat="47.02202" lon="-0.95869">
        <ele>111.31031799316</ele>
        <time>2016-04-20T12:33:17.000Z</time>
      </trkpt>
      <trkpt lat="47.02199" lon="-0.95871">
        <ele>110.48889160156</ele>
        <time>2016-04-20T12:33:19.000Z</time>
      </trkpt>
      <trkpt lat="47.02198" lon="-0.95878">
        <ele>110.4716796875</ele>
        <time>2016-04-20T12:33:22.000Z</time>
      </trkpt>
      <trkpt lat="47.02196" lon="-0.95884">
        <ele>111.4252166748</ele>
        <time>2016-04-20T12:33:25.000Z</time>
      </trkpt>
      <trkpt lat="47.02196" lon="-0.95887">
        <ele>112.16973876953</ele>
        <time>2016-04-20T12:33:27.000Z</time>
      </trkpt>
      <trkpt lat="47.02195" lon="-0.95889">
        <ele>113.74461364746</ele>
        <time>2016-04-20T12:33:30.000Z</time>
      </trkpt>
      <trkpt lat="47.02192" lon="-0.9589">
        <ele>114.55085754395</ele>
        <time>2016-04-20T12:33:32.000Z</time>
      </trkpt>
      <trkpt lat="47.02188" lon="-0.95895">
        <ele>114.25775146484</ele>
        <time>2016-04-20T12:33:35.000Z</time>
      </trkpt>
      <trkpt lat="47.02184" lon="-0.95897">
        <ele>113.23376464844</ele>
        <time>2016-04-20T12:33:38.000Z</time>
      </trkpt>
      <trkpt lat="47.02182" lon="-0.959">
        <ele>113.02629089355</ele>
        <time>2016-04-20T12:33:40.000Z</time>
      </trkpt>
      <trkpt lat="47.02179" lon="-0.95901">
        <ele>113.37836456299</ele>
        <time>2016-04-20T12:33:42.000Z</time>
      </trkpt>
      <trkpt lat="47.02179" lon="-0.95903">
        <ele>114.31246185303</ele>
        <time>2016-04-20T12:33:44.000Z</time>
      </trkpt>
      <trkpt lat="47.02177" lon="-0.95905">
        <ele>115.39738464355</ele>
        <time>2016-04-20T12:33:46.000Z</time>
      </trkpt>
      <trkpt lat="47.02176" lon="-0.9591">
        <ele>115.31548309326</ele>
        <time>2016-04-20T12:33:48.000Z</time>
      </trkpt>
      <trkpt lat="47.02175" lon="-0.95913">
        <ele>115.06028747559</ele>
        <time>2016-04-20T12:33:51.000Z</time>
      </trkpt>
      <trkpt lat="47.02173" lon="-0.95916">
        <ele>114.87519836426</ele>
        <time>2016-04-20T12:33:54.000Z</time>
      </trkpt>
      <trkpt lat="47.02172" lon="-0.95919">
        <ele>115.1944732666</ele>
        <time>2016-04-20T12:33:56.000Z</time>
      </trkpt>
      <trkpt lat="47.02169" lon="-0.95922">
        <ele>115.54247283936</ele>
        <time>2016-04-20T12:33:58.000Z</time>
      </trkpt>
      <trkpt lat="47.02164" lon="-0.95925">
        <ele>114.9435043335</ele>
        <time>2016-04-20T12:34:01.000Z</time>
      </trkpt>
      <trkpt lat="47.02161" lon="-0.95927">
        <ele>113.89817047119</ele>
        <time>2016-04-20T12:34:04.000Z</time>
      </trkpt>
      <trkpt lat="47.02158" lon="-0.95931">
        <ele>113.53816986084</ele>
        <time>2016-04-20T12:34:07.000Z</time>
      </trkpt>
      <trkpt lat="47.02155" lon="-0.95935">
        <ele>113.17672729492</ele>
        <time>2016-04-20T12:34:10.000Z</time>
      </trkpt>
      <trkpt lat="47.02152" lon="-0.95937">
        <ele>113.70896148682</ele>
        <time>2016-04-20T12:34:12.000Z</time>
      </trkpt>
      <trkpt lat="47.02148" lon="-0.95941">
        <ele>112.75759887695</ele>
        <time>2016-04-20T12:34:15.000Z</time>
      </trkpt>
      <trkpt lat="47.02146" lon="-0.95942">
        <ele>111.1844329834</ele>
        <time>2016-04-20T12:34:17.000Z</time>
      </trkpt>
      <trkpt lat="47.02144" lon="-0.95944">
        <ele>109.9906539917</ele>
        <time>2016-04-20T12:34:19.000Z</time>
      </trkpt>
      <trkpt lat="47.0214" lon="-0.95947">
        <ele>110.35623168945</ele>
        <time>2016-04-20T12:34:23.000Z</time>
      </trkpt>
      <trkpt lat="47.02139" lon="-0.9595">
        <ele>109.85098266602</ele>
        <time>2016-04-20T12:34:26.000Z</time>
      </trkpt>
      <trkpt lat="47.02137" lon="-0.95954">
        <ele>109.32778930664</ele>
        <time>2016-04-20T12:34:28.000Z</time>
      </trkpt>
      <trkpt lat="47.02135" lon="-0.95957">
        <ele>109.39440155029</ele>
        <time>2016-04-20T12:34:31.000Z</time>
      </trkpt>
      <trkpt lat="47.02133" lon="-0.9596">
        <ele>108.86827850342</ele>
        <time>2016-04-20T12:34:33.000Z</time>
      </trkpt>
      <trkpt lat="47.02131" lon="-0.95962">
        <ele>109.08132171631</ele>
        <time>2016-04-20T12:34:36.000Z</time>
      </trkpt>
      <trkpt lat="47.02126" lon="-0.95964">
        <ele>107.06259155273</ele>
        <time>2016-04-20T12:34:39.000Z</time>
      </trkpt>
      <trkpt lat="47.02124" lon="-0.95967">
        <ele>107.4849395752</ele>
        <time>2016-04-20T12:34:42.000Z</time>
      </trkpt>
      <trkpt lat="47.02121" lon="-0.95968">
        <ele>108.59071350098</ele>
        <time>2016-04-20T12:34:44.000Z</time>
      </trkpt>
      <trkpt lat="47.02119" lon="-0.9597">
        <ele>107.98100280762</ele>
        <time>2016-04-20T12:34:46.000Z</time>
      </trkpt>
      <trkpt lat="47.02116" lon="-0.95972">
        <ele>106.92936706543</ele>
        <time>2016-04-20T12:34:48.000Z</time>
      </trkpt>
      <trkpt lat="47.02112" lon="-0.95975">
        <ele>106.003074646</ele>
        <time>2016-04-20T12:34:52.000Z</time>
      </trkpt>
      <trkpt lat="47.0211" lon="-0.95979">
        <ele>106.33601379395</ele>
        <time>2016-04-20T12:34:55.000Z</time>
      </trkpt>
      <trkpt lat="47.02108" lon="-0.95983">
        <ele>105.44387054443</ele>
        <time>2016-04-20T12:34:58.000Z</time>
      </trkpt>
      <trkpt lat="47.02106" lon="-0.95986">
        <ele>105.97089385986</ele>
        <time>2016-04-20T12:35:00.000Z</time>
      </trkpt>
      <trkpt lat="47.02103" lon="-0.95988">
        <ele>106.76434326172</ele>
        <time>2016-04-20T12:35:02.000Z</time>
      </trkpt>
      <trkpt lat="47.02102" lon="-0.95989">
        <ele>106.80404663086</ele>
        <time>2016-04-20T12:35:05.000Z</time>
      </trkpt>
      <trkpt lat="47.021" lon="-0.95991">
        <ele>107.27639770508</ele>
        <time>2016-04-20T12:35:07.000Z</time>
      </trkpt>
      <trkpt lat="47.02097" lon="-0.95993">
        <ele>106.43413543701</ele>
        <time>2016-04-20T12:35:10.000Z</time>
      </trkpt>
      <trkpt lat="47.02093" lon="-0.95994">
        <ele>105.66592407227</ele>
        <time>2016-04-20T12:35:12.000Z</time>
      </trkpt>
      <trkpt lat="47.0209" lon="-0.95999">
        <ele>103.80359649658</ele>
        <time>2016-04-20T12:35:15.000Z</time>
      </trkpt>
      <trkpt lat="47.02089" lon="-0.96002">
        <ele>103.57054901123</ele>
        <time>2016-04-20T12:35:17.000Z</time>
      </trkpt>
      <trkpt lat="47.02086" lon="-0.96004">
        <ele>103.50503540039</ele>
        <time>2016-04-20T12:35:20.000Z</time>
      </trkpt>
      <trkpt lat="47.02084" lon="-0.96007">
        <ele>103.8427734375</ele>
        <time>2016-04-20T12:35:23.000Z</time>
      </trkpt>
      <trkpt lat="47.02079" lon="-0.96009">
        <ele>104.71007537842</ele>
        <time>2016-04-20T12:35:26.000Z</time>
      </trkpt>
      <trkpt lat="47.02076" lon="-0.96011">
        <ele>104.21897888184</ele>
        <time>2016-04-20T12:35:29.000Z</time>
      </trkpt>
      <trkpt lat="47.02073" lon="-0.96013">
        <ele>103.60426330566</ele>
        <time>2016-04-20T12:35:32.000Z</time>
      </trkpt>
      <trkpt lat="47.02071" lon="-0.96017">
        <ele>104.04893493652</ele>
        <time>2016-04-20T12:35:35.000Z</time>
      </trkpt>
      <trkpt lat="47.02069" lon="-0.9602">
        <ele>104.16382598877</ele>
        <time>2016-04-20T12:35:38.000Z</time>
      </trkpt>
      <trkpt lat="47.02065" lon="-0.96023">
        <ele>102.57141113281</ele>
        <time>2016-04-20T12:35:41.000Z</time>
      </trkpt>
      <trkpt lat="47.02062" lon="-0.96025">
        <ele>101.27964019775</ele>
        <time>2016-04-20T12:35:43.000Z</time>
      </trkpt>
      <trkpt lat="47.0206" lon="-0.96028">
        <ele>101.67974853516</ele>
        <time>2016-04-20T12:35:46.000Z</time>
      </trkpt>
      <trkpt lat="47.02058" lon="-0.96031">
        <ele>102.92413330078</ele>
        <time>2016-04-20T12:35:49.000Z</time>
      </trkpt>
      <trkpt lat="47.02053" lon="-0.96036">
        <ele>104.14273834229</ele>
        <time>2016-04-20T12:35:52.000Z</time>
      </trkpt>
      <trkpt lat="47.0205" lon="-0.96038">
        <ele>103.24518585205</ele>
        <time>2016-04-20T12:35:55.000Z</time>
      </trkpt>
      <trkpt lat="47.02047" lon="-0.96039">
        <ele>103.00475311279</ele>
        <time>2016-04-20T12:35:58.000Z</time>
      </trkpt>
      <trkpt lat="47.02045" lon="-0.9604">
        <ele>104.56999206543</ele>
        <time>2016-04-20T12:36:00.000Z</time>
      </trkpt>
      <trkpt lat="47.02041" lon="-0.96043">
        <ele>107.22188568115</ele>
        <time>2016-04-20T12:36:03.000Z</time>
      </trkpt>
      <trkpt lat="47.0204" lon="-0.96045">
        <ele>108.04973602295</ele>
        <time>2016-04-20T12:36:05.000Z</time>
      </trkpt>
      <trkpt lat="47.02034" lon="-0.9605">
        <ele>107.83165740967</ele>
        <time>2016-04-20T12:36:08.000Z</time>
      </trkpt>
      <trkpt lat="47.02033" lon="-0.96052">
        <ele>106.91990661621</ele>
        <time>2016-04-20T12:36:10.000Z</time>
      </trkpt>
      <trkpt lat="47.02031" lon="-0.96055">
        <ele>105.67295074463</ele>
        <time>2016-04-20T12:36:12.000Z</time>
      </trkpt>
      <trkpt lat="47.0203" lon="-0.96063">
        <ele>105.49576568604</ele>
        <time>2016-04-20T12:36:15.000Z</time>
      </trkpt>
      <trkpt lat="47.02026" lon="-0.96068">
        <ele>105.02286529541</ele>
        <time>2016-04-20T12:36:18.000Z</time>
      </trkpt>
      <trkpt lat="47.02024" lon="-0.9607">
        <ele>104.28107452393</ele>
        <time>2016-04-20T12:36:20.000Z</time>
      </trkpt>
      <trkpt lat="47.02019" lon="-0.96071">
        <ele>104.31130218506</ele>
        <time>2016-04-20T12:36:23.000Z</time>
      </trkpt>
      <trkpt lat="47.02018" lon="-0.96072">
        <ele>105.69313049316</ele>
        <time>2016-04-20T12:36:25.000Z</time>
      </trkpt>
      <trkpt lat="47.02015" lon="-0.96077">
        <ele>107.60472106934</ele>
        <time>2016-04-20T12:36:28.000Z</time>
      </trkpt>
      <trkpt lat="47.02011" lon="-0.96081">
        <ele>108.49899291992</ele>
        <time>2016-04-20T12:36:31.000Z</time>
      </trkpt>
      <trkpt lat="47.02011" lon="-0.96086">
        <ele>109.00862884521</ele>
        <time>2016-04-20T12:36:34.000Z</time>
      </trkpt>
      <trkpt lat="47.0201" lon="-0.96089">
        <ele>109.65054321289</ele>
        <time>2016-04-20T12:36:36.000Z</time>
      </trkpt>
      <trkpt lat="47.02005" lon="-0.96094">
        <ele>110.91677093506</ele>
        <time>2016-04-20T12:36:39.000Z</time>
      </trkpt>
      <trkpt lat="47.02003" lon="-0.961">
        <ele>111.20544433594</ele>
        <time>2016-04-20T12:36:42.000Z</time>
      </trkpt>
      <trkpt lat="47.02001" lon="-0.96102">
        <ele>110.25277709961</ele>
        <time>2016-04-20T12:36:44.000Z</time>
      </trkpt>
      <trkpt lat="47.02002" lon="-0.96106">
        <ele>110.71356964111</ele>
        <time>2016-04-20T12:36:47.000Z</time>
      </trkpt>
      <trkpt lat="47.02002" lon="-0.96108">
        <ele>110.58268737793</ele>
        <time>2016-04-20T12:36:49.000Z</time>
      </trkpt>
      <trkpt lat="47.02" lon="-0.96113">
        <ele>110.21879577637</ele>
        <time>2016-04-20T12:36:52.000Z</time>
      </trkpt>
      <trkpt lat="47.01997" lon="-0.96117">
        <ele>108.5475692749</ele>
        <time>2016-04-20T12:36:55.000Z</time>
      </trkpt>
      <trkpt lat="47.01995" lon="-0.96121">
        <ele>106.88130187988</ele>
        <time>2016-04-20T12:36:58.000Z</time>
      </trkpt>
      <trkpt lat="47.01992" lon="-0.96126">
        <ele>106.57118225098</ele>
        <time>2016-04-20T12:37:01.000Z</time>
      </trkpt>
      <trkpt lat="47.01991" lon="-0.96131">
        <ele>106.25660705566</ele>
        <time>2016-04-20T12:37:03.000Z</time>
      </trkpt>
      <trkpt lat="47.01987" lon="-0.96135">
        <ele>106.34972381592</ele>
        <time>2016-04-20T12:37:07.000Z</time>
      </trkpt>
      <trkpt lat="47.01986" lon="-0.96139">
        <ele>106.10150909424</ele>
        <time>2016-04-20T12:37:09.000Z</time>
      </trkpt>
      <trkpt lat="47.01984" lon="-0.96141">
        <ele>106.27635955811</ele>
        <time>2016-04-20T12:37:11.000Z</time>
      </trkpt>
      <trkpt lat="47.01983" lon="-0.96143">
        <ele>106.43939208984</ele>
        <time>2016-04-20T12:37:13.000Z</time>
      </trkpt>
      <trkpt lat="47.01981" lon="-0.96149">
        <ele>105.75061798096</ele>
        <time>2016-04-20T12:37:16.000Z</time>
      </trkpt>
      <trkpt lat="47.01979" lon="-0.96154">
        <ele>104.65071868896</ele>
        <time>2016-04-20T12:37:19.000Z</time>
      </trkpt>
      <trkpt lat="47.01977" lon="-0.96156">
        <ele>103.78031158447</ele>
        <time>2016-04-20T12:37:21.000Z</time>
      </trkpt>
      <trkpt lat="47.01975" lon="-0.96166">
        <ele>102.46659851074</ele>
        <time>2016-04-20T12:37:24.000Z</time>
      </trkpt>
      <trkpt lat="47.01972" lon="-0.96172">
        <ele>102.17671966553</ele>
        <time>2016-04-20T12:37:27.000Z</time>
      </trkpt>
      <trkpt lat="47.01971" lon="-0.96179">
        <ele>102.66361999512</ele>
        <time>2016-04-20T12:37:30.000Z</time>
      </trkpt>
      <trkpt lat="47.01968" lon="-0.96184">
        <ele>101.74453735352</ele>
        <time>2016-04-20T12:37:33.000Z</time>
      </trkpt>
      <trkpt lat="47.0197" lon="-0.96196">
        <ele>100.11022186279</ele>
        <time>2016-04-20T12:37:36.000Z</time>
      </trkpt>
      <trkpt lat="47.01969" lon="-0.96198">
        <ele>100.10752868652</ele>
        <time>2016-04-20T12:37:39.000Z</time>
      </trkpt>
      <trkpt lat="47.01968" lon="-0.962">
        <ele>101.26849365234</ele>
        <time>2016-04-20T12:37:43.000Z</time>
      </trkpt>
      <trkpt lat="47.01966" lon="-0.96203">
        <ele>102.64222717285</ele>
        <time>2016-04-20T12:37:46.000Z</time>
      </trkpt>
      <trkpt lat="47.01963" lon="-0.96204">
        <ele>104.51653289795</ele>
        <time>2016-04-20T12:37:49.000Z</time>
      </trkpt>
      <trkpt lat="47.01961" lon="-0.96208">
        <ele>104.85321044922</ele>
        <time>2016-04-20T12:37:52.000Z</time>
      </trkpt>
      <trkpt lat="47.0196" lon="-0.9621">
        <ele>104.46346282959</ele>
        <time>2016-04-20T12:37:54.000Z</time>
      </trkpt>
      <trkpt lat="47.01957" lon="-0.96215">
        <ele>105.62939453125</ele>
        <time>2016-04-20T12:37:57.000Z</time>
      </trkpt>
      <trkpt lat="47.01955" lon="-0.9622">
        <ele>106.34064483643</ele>
        <time>2016-04-20T12:38:00.000Z</time>
      </trkpt>
      <trkpt lat="47.01954" lon="-0.96223">
        <ele>106.67658996582</ele>
        <time>2016-04-20T12:38:03.000Z</time>
      </trkpt>
      <trkpt lat="47.01944" lon="-0.96229">
        <ele>105.43202972412</ele>
        <time>2016-04-20T12:38:06.000Z</time>
      </trkpt>
      <trkpt lat="47.01944" lon="-0.96233">
        <ele>102.54026031494</ele>
        <time>2016-04-20T12:38:10.000Z</time>
      </trkpt>
      <trkpt lat="47.0194" lon="-0.96237">
        <ele>101.39186859131</ele>
        <time>2016-04-20T12:38:13.000Z</time>
      </trkpt>
      <trkpt lat="47.01939" lon="-0.96239">
        <ele>101.14693450928</ele>
        <time>2016-04-20T12:38:15.000Z</time>
      </trkpt>
      <trkpt lat="47.01941" lon="-0.96252">
        <ele>101.01739501953</ele>
        <time>2016-04-20T12:38:18.000Z</time>
      </trkpt>
      <trkpt lat="47.0194" lon="-0.96256">
        <ele>102.19222259521</ele>
        <time>2016-04-20T12:38:21.000Z</time>
      </trkpt>
      <trkpt lat="47.01939" lon="-0.9626">
        <ele>102.38109588623</ele>
        <time>2016-04-20T12:38:23.000Z</time>
      </trkpt>
      <trkpt lat="47.01937" lon="-0.96262">
        <ele>101.02797698975</ele>
        <time>2016-04-20T12:38:26.000Z</time>
      </trkpt>
      <trkpt lat="47.01936" lon="-0.96267">
        <ele>99.613708496094</ele>
        <time>2016-04-20T12:38:28.000Z</time>
      </trkpt>
      <trkpt lat="47.01936" lon="-0.96269">
        <ele>99.84716796875</ele>
        <time>2016-04-20T12:38:30.000Z</time>
      </trkpt>
      <trkpt lat="47.01936" lon="-0.96275">
        <ele>98.861175537109</ele>
        <time>2016-04-20T12:38:33.000Z</time>
      </trkpt>
      <trkpt lat="47.01934" lon="-0.96277">
        <ele>97.073333740234</ele>
        <time>2016-04-20T12:38:35.000Z</time>
      </trkpt>
      <trkpt lat="47.01931" lon="-0.96279">
        <ele>95.428314208984</ele>
        <time>2016-04-20T12:38:37.000Z</time>
      </trkpt>
      <trkpt lat="47.0193" lon="-0.96281">
        <ele>96.023361206055</ele>
        <time>2016-04-20T12:38:39.000Z</time>
      </trkpt>
      <trkpt lat="47.01927" lon="-0.96285">
        <ele>97.046669006348</ele>
        <time>2016-04-20T12:38:42.000Z</time>
      </trkpt>
      <trkpt lat="47.01927" lon="-0.96289">
        <ele>96.250938415527</ele>
        <time>2016-04-20T12:38:44.000Z</time>
      </trkpt>
      <trkpt lat="47.01926" lon="-0.96291">
        <ele>95.842384338379</ele>
        <time>2016-04-20T12:38:46.000Z</time>
      </trkpt>
      <trkpt lat="47.0192" lon="-0.96295">
        <ele>95.411437988281</ele>
        <time>2016-04-20T12:38:49.000Z</time>
      </trkpt>
      <trkpt lat="47.01918" lon="-0.96303">
        <ele>94.78426361084</ele>
        <time>2016-04-20T12:38:52.000Z</time>
      </trkpt>
      <trkpt lat="47.01917" lon="-0.96304">
        <ele>94.131164550781</ele>
        <time>2016-04-20T12:38:54.000Z</time>
      </trkpt>
      <trkpt lat="47.01916" lon="-0.96308">
        <ele>92.10359954834</ele>
        <time>2016-04-20T12:38:57.000Z</time>
      </trkpt>
      <trkpt lat="47.01913" lon="-0.96311">
        <ele>90.742065429688</ele>
        <time>2016-04-20T12:39:00.000Z</time>
      </trkpt>
      <trkpt lat="47.01912" lon="-0.96321">
        <ele>91.476928710938</ele>
        <time>2016-04-20T12:39:03.000Z</time>
      </trkpt>
      <trkpt lat="47.01912" lon="-0.96336">
        <ele>92.172988891602</ele>
        <time>2016-04-20T12:39:06.000Z</time>
      </trkpt>
      <trkpt lat="47.01911" lon="-0.96337">
        <ele>94.493644714355</ele>
        <time>2016-04-20T12:39:09.000Z</time>
      </trkpt>
      <trkpt lat="47.0191" lon="-0.96338">
        <ele>96.291351318359</ele>
        <time>2016-04-20T12:39:12.000Z</time>
      </trkpt>
      <trkpt lat="47.01907" lon="-0.96346">
        <ele>96.304122924805</ele>
        <time>2016-04-20T12:39:15.000Z</time>
      </trkpt>
      <trkpt lat="47.01907" lon="-0.9635">
        <ele>96.286819458008</ele>
        <time>2016-04-20T12:39:19.000Z</time>
      </trkpt>
      <trkpt lat="47.01905" lon="-0.9635">
        <ele>98.907432556152</ele>
        <time>2016-04-20T12:39:22.000Z</time>
      </trkpt>
      <trkpt lat="47.01903" lon="-0.96353">
        <ele>102.17027282715</ele>
        <time>2016-04-20T12:39:25.000Z</time>
      </trkpt>
      <trkpt lat="47.019" lon="-0.96359">
        <ele>102.99338531494</ele>
        <time>2016-04-20T12:39:28.000Z</time>
      </trkpt>
      <trkpt lat="47.01897" lon="-0.96364">
        <ele>105.28507995605</ele>
        <time>2016-04-20T12:39:31.000Z</time>
      </trkpt>
      <trkpt lat="47.01896" lon="-0.96367">
        <ele>106.10447692871</ele>
        <time>2016-04-20T12:39:33.000Z</time>
      </trkpt>
      <trkpt lat="47.01896" lon="-0.96372">
        <ele>106.65829467773</ele>
        <time>2016-04-20T12:39:35.000Z</time>
      </trkpt>
      <trkpt lat="47.01896" lon="-0.96376">
        <ele>106.69501495361</ele>
        <time>2016-04-20T12:39:37.000Z</time>
      </trkpt>
      <trkpt lat="47.01896" lon="-0.96386">
        <ele>106.62760925293</ele>
        <time>2016-04-20T12:39:40.000Z</time>
      </trkpt>
      <trkpt lat="47.01895" lon="-0.9639">
        <ele>107.21082305908</ele>
        <time>2016-04-20T12:39:42.000Z</time>
      </trkpt>
      <trkpt lat="47.01895" lon="-0.96392">
        <ele>107.29286956787</ele>
        <time>2016-04-20T12:39:44.000Z</time>
      </trkpt>
      <trkpt lat="47.01894" lon="-0.96393">
        <ele>106.98925018311</ele>
        <time>2016-04-20T12:39:47.000Z</time>
      </trkpt>
      <trkpt lat="47.01892" lon="-0.96396">
        <ele>104.91892242432</ele>
        <time>2016-04-20T12:39:49.000Z</time>
      </trkpt>
      <trkpt lat="47.01888" lon="-0.96403">
        <ele>103.56548309326</ele>
        <time>2016-04-20T12:39:53.000Z</time>
      </trkpt>
      <trkpt lat="47.01886" lon="-0.96411">
        <ele>104.20008850098</ele>
        <time>2016-04-20T12:39:56.000Z</time>
      </trkpt>
      <trkpt lat="47.01878" lon="-0.96412">
        <ele>104.8267364502</ele>
        <time>2016-04-20T12:39:59.000Z</time>
      </trkpt>
      <trkpt lat="47.01873" lon="-0.96423">
        <ele>104.9153213501</ele>
        <time>2016-04-20T12:40:02.000Z</time>
      </trkpt>
      <trkpt lat="47.01871" lon="-0.96429">
        <ele>105.81385040283</ele>
        <time>2016-04-20T12:40:04.000Z</time>
      </trkpt>
      <trkpt lat="47.01875" lon="-0.96434">
        <ele>107.47790527344</ele>
        <time>2016-04-20T12:40:06.000Z</time>
      </trkpt>
      <trkpt lat="47.01883" lon="-0.96441">
        <ele>109.24787139893</ele>
        <time>2016-04-20T12:40:08.000Z</time>
      </trkpt>
      <trkpt lat="47.01889" lon="-0.96449">
        <ele>111.33268737793</ele>
        <time>2016-04-20T12:40:11.000Z</time>
      </trkpt>
      <trkpt lat="47.01888" lon="-0.96452">
        <ele>111.80916595459</ele>
        <time>2016-04-20T12:40:13.000Z</time>
      </trkpt>
      <trkpt lat="47.01881" lon="-0.96451">
        <ele>112.18807983398</ele>
        <time>2016-04-20T12:40:16.000Z</time>
      </trkpt>
      <trkpt lat="47.01878" lon="-0.9645">
        <ele>111.82987976074</ele>
        <time>2016-04-20T12:40:18.000Z</time>
      </trkpt>
      <trkpt lat="47.01875" lon="-0.96452">
        <ele>111.95838165283</ele>
        <time>2016-04-20T12:40:21.000Z</time>
      </trkpt>
      <trkpt lat="47.01871" lon="-0.96457">
        <ele>112.3169631958</ele>
        <time>2016-04-20T12:40:24.000Z</time>
      </trkpt>
      <trkpt lat="47.01869" lon="-0.96461">
        <ele>113.17325592041</ele>
        <time>2016-04-20T12:40:27.000Z</time>
      </trkpt>
      <trkpt lat="47.01868" lon="-0.96462">
        <ele>113.31140136719</ele>
        <time>2016-04-20T12:40:30.000Z</time>
      </trkpt>
      <trkpt lat="47.01865" lon="-0.96464">
        <ele>114.53265380859</ele>
        <time>2016-04-20T12:40:32.000Z</time>
      </trkpt>
      <trkpt lat="47.0186" lon="-0.96467">
        <ele>114.22439575195</ele>
        <time>2016-04-20T12:40:34.000Z</time>
      </trkpt>
      <trkpt lat="47.01857" lon="-0.9647">
        <ele>114.43349456787</ele>
        <time>2016-04-20T12:40:37.000Z</time>
      </trkpt>
      <trkpt lat="47.01855" lon="-0.96469">
        <ele>113.52881622314</ele>
        <time>2016-04-20T12:40:39.000Z</time>
      </trkpt>
      <trkpt lat="47.01854" lon="-0.96471">
        <ele>111.57955169678</ele>
        <time>2016-04-20T12:40:43.000Z</time>
      </trkpt>
      <trkpt lat="47.01852" lon="-0.96475">
        <ele>109.7712020874</ele>
        <time>2016-04-20T12:40:45.000Z</time>
      </trkpt>
      <trkpt lat="47.01851" lon="-0.96484">
        <ele>110.1382598877</ele>
        <time>2016-04-20T12:40:48.000Z</time>
      </trkpt>
      <trkpt lat="47.01849" lon="-0.96488">
        <ele>109.25919342041</ele>
        <time>2016-04-20T12:40:51.000Z</time>
      </trkpt>
      <trkpt lat="47.01849" lon="-0.96492">
        <ele>108.65892028809</ele>
        <time>2016-04-20T12:40:53.000Z</time>
      </trkpt>
      <trkpt lat="47.01847" lon="-0.96493">
        <ele>108.21616363525</ele>
        <time>2016-04-20T12:40:56.000Z</time>
      </trkpt>
      <trkpt lat="47.01846" lon="-0.96503">
        <ele>108.06722259521</ele>
        <time>2016-04-20T12:41:00.000Z</time>
      </trkpt>
      <trkpt lat="47.01846" lon="-0.96506">
        <ele>107.38453674316</ele>
        <time>2016-04-20T12:41:03.000Z</time>
      </trkpt>
      <trkpt lat="47.01844" lon="-0.96508">
        <ele>106.25150299072</ele>
        <time>2016-04-20T12:41:05.000Z</time>
      </trkpt>
      <trkpt lat="47.01842" lon="-0.96511">
        <ele>105.11145019531</ele>
        <time>2016-04-20T12:41:08.000Z</time>
      </trkpt>
      <trkpt lat="47.01841" lon="-0.9651">
        <ele>103.56559753418</ele>
        <time>2016-04-20T12:41:10.000Z</time>
      </trkpt>
      <trkpt lat="47.0184" lon="-0.96517">
        <ele>101.3854598999</ele>
        <time>2016-04-20T12:41:13.000Z</time>
      </trkpt>
      <trkpt lat="47.01839" lon="-0.96525">
        <ele>100.80921173096</ele>
        <time>2016-04-20T12:41:15.000Z</time>
      </trkpt>
      <trkpt lat="47.01838" lon="-0.96529">
        <ele>101.28196716309</ele>
        <time>2016-04-20T12:41:18.000Z</time>
      </trkpt>
      <trkpt lat="47.01836" lon="-0.96529">
        <ele>101.71231079102</ele>
        <time>2016-04-20T12:41:20.000Z</time>
      </trkpt>
      <trkpt lat="47.01834" lon="-0.96529">
        <ele>101.65515899658</ele>
        <time>2016-04-20T12:41:22.000Z</time>
      </trkpt>
      <trkpt lat="47.01834" lon="-0.96527">
        <ele>101.12699890137</ele>
        <time>2016-04-20T12:41:25.000Z</time>
      </trkpt>
      <trkpt lat="47.01832" lon="-0.96528">
        <ele>101.70091247559</ele>
        <time>2016-04-20T12:41:31.000Z</time>
      </trkpt>
      <trkpt lat="47.01831" lon="-0.96529">
        <ele>102.18663024902</ele>
        <time>2016-04-20T12:41:33.000Z</time>
      </trkpt>
      <trkpt lat="47.0183" lon="-0.96538">
        <ele>103.14841461182</ele>
        <time>2016-04-20T12:41:36.000Z</time>
      </trkpt>
      <trkpt lat="47.01827" lon="-0.96542">
        <ele>104.68456268311</ele>
        <time>2016-04-20T12:41:39.000Z</time>
      </trkpt>
      <trkpt lat="47.01826" lon="-0.96542">
        <ele>104.44427490234</ele>
        <time>2016-04-20T12:41:41.000Z</time>
      </trkpt>
      <trkpt lat="47.01825" lon="-0.96541">
        <ele>104.4517288208</ele>
        <time>2016-04-20T12:41:43.000Z</time>
      </trkpt>
      <trkpt lat="47.01823" lon="-0.96542">
        <ele>105.7275390625</ele>
        <time>2016-04-20T12:41:45.000Z</time>
      </trkpt>
      <trkpt lat="47.0182" lon="-0.96548">
        <ele>109.11661529541</ele>
        <time>2016-04-20T12:41:48.000Z</time>
      </trkpt>
      <trkpt lat="47.0182" lon="-0.96552">
        <ele>111.85657501221</ele>
        <time>2016-04-20T12:41:51.000Z</time>
      </trkpt>
      <trkpt lat="47.01821" lon="-0.96556">
        <ele>113.29554748535</ele>
        <time>2016-04-20T12:41:53.000Z</time>
      </trkpt>
      <trkpt lat="47.0182" lon="-0.9656">
        <ele>113.84825897217</ele>
        <time>2016-04-20T12:41:55.000Z</time>
      </trkpt>
      <trkpt lat="47.01819" lon="-0.96568">
        <ele>113.49086761475</ele>
        <time>2016-04-20T12:41:57.000Z</time>
      </trkpt>
      <trkpt lat="47.01818" lon="-0.96574">
        <ele>112.84613037109</ele>
        <time>2016-04-20T12:42:00.000Z</time>
      </trkpt>
      <trkpt lat="47.01817" lon="-0.96579">
        <ele>112.5482711792</ele>
        <time>2016-04-20T12:42:02.000Z</time>
      </trkpt>
      <trkpt lat="47.01817" lon="-0.96595">
        <ele>112.73867797852</ele>
        <time>2016-04-20T12:42:05.000Z</time>
      </trkpt>
      <trkpt lat="47.01815" lon="-0.96597">
        <ele>112.50820922852</ele>
        <time>2016-04-20T12:42:09.000Z</time>
      </trkpt>
      <trkpt lat="47.01814" lon="-0.96597">
        <ele>113.94041442871</ele>
        <time>2016-04-20T12:42:14.000Z</time>
      </trkpt>
      <trkpt lat="47.01812" lon="-0.96597">
        <ele>113.78814697266</ele>
        <time>2016-04-20T12:42:16.000Z</time>
      </trkpt>
      <trkpt lat="47.0181" lon="-0.96598">
        <ele>112.12019348145</ele>
        <time>2016-04-20T12:42:19.000Z</time>
      </trkpt>
      <trkpt lat="47.01807" lon="-0.966">
        <ele>111.90423583984</ele>
        <time>2016-04-20T12:42:21.000Z</time>
      </trkpt>
      <trkpt lat="47.01804" lon="-0.96604">
        <ele>111.43395233154</ele>
        <time>2016-04-20T12:42:24.000Z</time>
      </trkpt>
      <trkpt lat="47.01803" lon="-0.96607">
        <ele>111.4197845459</ele>
        <time>2016-04-20T12:42:26.000Z</time>
      </trkpt>
      <trkpt lat="47.01803" lon="-0.96609">
        <ele>110.8629989624</ele>
        <time>2016-04-20T12:42:28.000Z</time>
      </trkpt>
      <trkpt lat="47.01802" lon="-0.9661">
        <ele>110.17440032959</ele>
        <time>2016-04-20T12:42:31.000Z</time>
      </trkpt>
      <trkpt lat="47.01799" lon="-0.96611">
        <ele>107.90046691895</ele>
        <time>2016-04-20T12:42:33.000Z</time>
      </trkpt>
      <trkpt lat="47.01797" lon="-0.96613">
        <ele>106.41358184814</ele>
        <time>2016-04-20T12:42:35.000Z</time>
      </trkpt>
      <trkpt lat="47.01795" lon="-0.96615">
        <ele>105.11452484131</ele>
        <time>2016-04-20T12:42:37.000Z</time>
      </trkpt>
      <trkpt lat="47.01795" lon="-0.96619">
        <ele>104.74778747559</ele>
        <time>2016-04-20T12:42:40.000Z</time>
      </trkpt>
      <trkpt lat="47.01793" lon="-0.96624">
        <ele>105.89894104004</ele>
        <time>2016-04-20T12:42:42.000Z</time>
      </trkpt>
      <trkpt lat="47.0179" lon="-0.96628">
        <ele>108.04679870605</ele>
        <time>2016-04-20T12:42:45.000Z</time>
      </trkpt>
      <trkpt lat="47.01789" lon="-0.96626">
        <ele>108.14852905273</ele>
        <time>2016-04-20T12:42:47.000Z</time>
      </trkpt>
      <trkpt lat="47.01786" lon="-0.96628">
        <ele>106.89414215088</ele>
        <time>2016-04-20T12:42:50.000Z</time>
      </trkpt>
      <trkpt lat="47.01783" lon="-0.96632">
        <ele>105.49187469482</ele>
        <time>2016-04-20T12:42:52.000Z</time>
      </trkpt>
      <trkpt lat="47.01781" lon="-0.96642">
        <ele>106.25498962402</ele>
        <time>2016-04-20T12:42:55.000Z</time>
      </trkpt>
      <trkpt lat="47.0178" lon="-0.96642">
        <ele>108.00582122803</ele>
        <time>2016-04-20T12:42:58.000Z</time>
      </trkpt>
      <trkpt lat="47.01779" lon="-0.96642">
        <ele>109.49879455566</ele>
        <time>2016-04-20T12:43:00.000Z</time>
      </trkpt>
      <trkpt lat="47.01778" lon="-0.96642">
        <ele>109.99810028076</ele>
        <time>2016-04-20T12:43:02.000Z</time>
      </trkpt>
      <trkpt lat="47.01776" lon="-0.96644">
        <ele>108.36980438232</ele>
        <time>2016-04-20T12:43:04.000Z</time>
      </trkpt>
      <trkpt lat="47.01775" lon="-0.96653">
        <ele>105.85015869141</ele>
        <time>2016-04-20T12:43:07.000Z</time>
      </trkpt>
      <trkpt lat="47.01772" lon="-0.96654">
        <ele>105.07215881348</ele>
        <time>2016-04-20T12:43:10.000Z</time>
      </trkpt>
      <trkpt lat="47.0177" lon="-0.96657">
        <ele>104.21120452881</ele>
        <time>2016-04-20T12:43:13.000Z</time>
      </trkpt>
      <trkpt lat="47.01769" lon="-0.96659">
        <ele>103.83401489258</ele>
        <time>2016-04-20T12:43:15.000Z</time>
      </trkpt>
      <trkpt lat="47.01769" lon="-0.96662">
        <ele>103.06670379639</ele>
        <time>2016-04-20T12:43:17.000Z</time>
      </trkpt>
      <trkpt lat="47.01769" lon="-0.96663">
        <ele>102.33856964111</ele>
        <time>2016-04-20T12:43:30.000Z</time>
      </trkpt>
      <trkpt lat="47.01769" lon="-0.96663">
        <ele>110.23564910889</ele>
        <time>2016-04-20T12:43:50.000Z</time>
      </trkpt>
      <trkpt lat="47.01768" lon="-0.96664">
        <ele>102.3828125</ele>
        <time>2016-04-20T12:44:01.000Z</time>
      </trkpt>
      <trkpt lat="47.01766" lon="-0.96665">
        <ele>104.04696655273</ele>
        <time>2016-04-20T12:44:03.000Z</time>
      </trkpt>
      <trkpt lat="47.01765" lon="-0.96667">
        <ele>106.60610198975</ele>
        <time>2016-04-20T12:44:06.000Z</time>
      </trkpt>
      <trkpt lat="47.01765" lon="-0.96669">
        <ele>110.12518310547</ele>
        <time>2016-04-20T12:44:08.000Z</time>
      </trkpt>
      <trkpt lat="47.01767" lon="-0.96672">
        <ele>111.26348876953</ele>
        <time>2016-04-20T12:44:11.000Z</time>
      </trkpt>
      <trkpt lat="47.01768" lon="-0.96676">
        <ele>111.77923583984</ele>
        <time>2016-04-20T12:44:13.000Z</time>
      </trkpt>
      <trkpt lat="47.0177" lon="-0.96678">
        <ele>112.14208221436</ele>
        <time>2016-04-20T12:44:17.000Z</time>
      </trkpt>
      <trkpt lat="47.01776" lon="-0.96675">
        <ele>112.52041625977</ele>
        <time>2016-04-20T12:44:20.000Z</time>
      </trkpt>
      <trkpt lat="47.0178" lon="-0.96677">
        <ele>113.14253234863</ele>
        <time>2016-04-20T12:44:22.000Z</time>
      </trkpt>
      <trkpt lat="47.01781" lon="-0.96687">
        <ele>112.51158905029</ele>
        <time>2016-04-20T12:44:24.000Z</time>
      </trkpt>
      <trkpt lat="47.01786" lon="-0.96694">
        <ele>112.75534820557</ele>
        <time>2016-04-20T12:44:27.000Z</time>
      </trkpt>
      <trkpt lat="47.01786" lon="-0.96697">
        <ele>113.48273468018</ele>
        <time>2016-04-20T12:44:32.000Z</time>
      </trkpt>
      <trkpt lat="47.01786" lon="-0.96701">
        <ele>112.56360626221</ele>
        <time>2016-04-20T12:44:35.000Z</time>
      </trkpt>
      <trkpt lat="47.01788" lon="-0.96699">
        <ele>112.38130950928</ele>
        <time>2016-04-20T12:44:37.000Z</time>
      </trkpt>
      <trkpt lat="47.01793" lon="-0.96702">
        <ele>113.29393768311</ele>
        <time>2016-04-20T12:44:40.000Z</time>
      </trkpt>
      <trkpt lat="47.01794" lon="-0.96703">
        <ele>113.76049804688</ele>
        <time>2016-04-20T12:44:42.000Z</time>
      </trkpt>
      <trkpt lat="47.01796" lon="-0.96705">
        <ele>115.16120147705</ele>
        <time>2016-04-20T12:44:47.000Z</time>
      </trkpt>
      <trkpt lat="47.01799" lon="-0.96707">
        <ele>115.69687652588</ele>
        <time>2016-04-20T12:44:50.000Z</time>
      </trkpt>
      <trkpt lat="47.018" lon="-0.96711">
        <ele>115.03032684326</ele>
        <time>2016-04-20T12:44:52.000Z</time>
      </trkpt>
      <trkpt lat="47.01799" lon="-0.96719">
        <ele>115.00764465332</ele>
        <time>2016-04-20T12:44:55.000Z</time>
      </trkpt>
      <trkpt lat="47.01802" lon="-0.96721">
        <ele>114.88824462891</ele>
        <time>2016-04-20T12:44:57.000Z</time>
      </trkpt>
      <trkpt lat="47.01806" lon="-0.96723">
        <ele>115.14751434326</ele>
        <time>2016-04-20T12:45:00.000Z</time>
      </trkpt>
      <trkpt lat="47.01807" lon="-0.96723">
        <ele>115.31219482422</ele>
        <time>2016-04-20T12:45:02.000Z</time>
      </trkpt>
      <trkpt lat="47.0181" lon="-0.96727">
        <ele>114.94914245605</ele>
        <time>2016-04-20T12:45:05.000Z</time>
      </trkpt>
      <trkpt lat="47.01812" lon="-0.9673">
        <ele>115.60464477539</ele>
        <time>2016-04-20T12:45:08.000Z</time>
      </trkpt>
      <trkpt lat="47.01816" lon="-0.96734">
        <ele>114.29364013672</ele>
        <time>2016-04-20T12:45:11.000Z</time>
      </trkpt>
      <trkpt lat="47.01819" lon="-0.96738">
        <ele>113.59394836426</ele>
        <time>2016-04-20T12:45:13.000Z</time>
      </trkpt>
      <trkpt lat="47.01822" lon="-0.96745">
        <ele>113.45373535156</ele>
        <time>2016-04-20T12:45:16.000Z</time>
      </trkpt>
      <trkpt lat="47.01825" lon="-0.96746">
        <ele>114.5648727417</ele>
        <time>2016-04-20T12:45:19.000Z</time>
      </trkpt>
      <trkpt lat="47.01825" lon="-0.96745">
        <ele>115.1138381958</ele>
        <time>2016-04-20T12:45:21.000Z</time>
      </trkpt>
      <trkpt lat="47.01825" lon="-0.96743">
        <ele>115.50662994385</ele>
        <time>2016-04-20T12:45:25.000Z</time>
      </trkpt>
      <trkpt lat="47.01826" lon="-0.96743">
        <ele>114.72372436523</ele>
        <time>2016-04-20T12:45:43.000Z</time>
      </trkpt>
      <trkpt lat="47.0183" lon="-0.96745">
        <ele>117.59985351562</ele>
        <time>2016-04-20T12:45:46.000Z</time>
      </trkpt>
      <trkpt lat="47.01833" lon="-0.96752">
        <ele>116.61557769775</ele>
        <time>2016-04-20T12:45:49.000Z</time>
      </trkpt>
      <trkpt lat="47.01837" lon="-0.96759">
        <ele>114.04426574707</ele>
        <time>2016-04-20T12:45:53.000Z</time>
      </trkpt>
      <trkpt lat="47.0184" lon="-0.96765">
        <ele>112.27879333496</ele>
        <time>2016-04-20T12:45:56.000Z</time>
      </trkpt>
      <trkpt lat="47.01843" lon="-0.96769">
        <ele>110.45819091797</ele>
        <time>2016-04-20T12:45:58.000Z</time>
      </trkpt>
      <trkpt lat="47.01847" lon="-0.96773">
        <ele>110.99249267578</ele>
        <time>2016-04-20T12:46:01.000Z</time>
      </trkpt>
      <trkpt lat="47.01851" lon="-0.96778">
        <ele>111.82943725586</ele>
        <time>2016-04-20T12:46:05.000Z</time>
      </trkpt>
      <trkpt lat="47.01852" lon="-0.96779">
        <ele>111.66600799561</ele>
        <time>2016-04-20T12:46:07.000Z</time>
      </trkpt>
      <trkpt lat="47.01854" lon="-0.96784">
        <ele>111.86195373535</ele>
        <time>2016-04-20T12:46:09.000Z</time>
      </trkpt>
      <trkpt lat="47.01856" lon="-0.96788">
        <ele>112.67241668701</ele>
        <time>2016-04-20T12:46:12.000Z</time>
      </trkpt>
      <trkpt lat="47.01859" lon="-0.9679">
        <ele>113.13419342041</ele>
        <time>2016-04-20T12:46:15.000Z</time>
      </trkpt>
      <trkpt lat="47.0186" lon="-0.96793">
        <ele>113.70227050781</ele>
        <time>2016-04-20T12:46:18.000Z</time>
      </trkpt>
      <trkpt lat="47.0186" lon="-0.96796">
        <ele>113.60779571533</ele>
        <time>2016-04-20T12:46:21.000Z</time>
      </trkpt>
      <trkpt lat="47.0186" lon="-0.96804">
        <ele>111.64080810547</ele>
        <time>2016-04-20T12:46:24.000Z</time>
      </trkpt>
      <trkpt lat="47.01858" lon="-0.96806">
        <ele>110.21946716309</ele>
        <time>2016-04-20T12:46:27.000Z</time>
      </trkpt>
      <trkpt lat="47.01857" lon="-0.96807">
        <ele>110.21464538574</ele>
        <time>2016-04-20T12:46:29.000Z</time>
      </trkpt>
      <trkpt lat="47.01855" lon="-0.96809">
        <ele>109.34609222412</ele>
        <time>2016-04-20T12:46:32.000Z</time>
      </trkpt>
      <trkpt lat="47.01853" lon="-0.96812">
        <ele>109.32564544678</ele>
        <time>2016-04-20T12:46:34.000Z</time>
      </trkpt>
      <trkpt lat="47.01852" lon="-0.96816">
        <ele>109.22085571289</ele>
        <time>2016-04-20T12:46:37.000Z</time>
      </trkpt>
      <trkpt lat="47.0185" lon="-0.96818">
        <ele>108.50525665283</ele>
        <time>2016-04-20T12:46:40.000Z</time>
      </trkpt>
      <trkpt lat="47.01847" lon="-0.96822">
        <ele>108.49003601074</ele>
        <time>2016-04-20T12:46:43.000Z</time>
      </trkpt>
      <trkpt lat="47.01846" lon="-0.96827">
        <ele>109.42153167725</ele>
        <time>2016-04-20T12:46:45.000Z</time>
      </trkpt>
      <trkpt lat="47.01842" lon="-0.96834">
        <ele>107.86325073242</ele>
        <time>2016-04-20T12:46:48.000Z</time>
      </trkpt>
      <trkpt lat="47.01839" lon="-0.96835">
        <ele>107.74967956543</ele>
        <time>2016-04-20T12:46:51.000Z</time>
      </trkpt>
      <trkpt lat="47.01838" lon="-0.96835">
        <ele>107.88413238525</ele>
        <time>2016-04-20T12:46:54.000Z</time>
      </trkpt>
      <trkpt lat="47.01837" lon="-0.96837">
        <ele>107.66719055176</ele>
        <time>2016-04-20T12:46:56.000Z</time>
      </trkpt>
      <trkpt lat="47.01836" lon="-0.96844">
        <ele>107.024559021</ele>
        <time>2016-04-20T12:46:59.000Z</time>
      </trkpt>
      <trkpt lat="47.01835" lon="-0.96848">
        <ele>107.00479125977</ele>
        <time>2016-04-20T12:47:01.000Z</time>
      </trkpt>
      <trkpt lat="47.01832" lon="-0.96853">
        <ele>109.15965270996</ele>
        <time>2016-04-20T12:47:04.000Z</time>
      </trkpt>
      <trkpt lat="47.01829" lon="-0.96856">
        <ele>110.38617706299</ele>
        <time>2016-04-20T12:47:10.000Z</time>
      </trkpt>
      <trkpt lat="47.01826" lon="-0.9686">
        <ele>108.41333007812</ele>
        <time>2016-04-20T12:47:13.000Z</time>
      </trkpt>
      <trkpt lat="47.01824" lon="-0.96866">
        <ele>109.46991729736</ele>
        <time>2016-04-20T12:47:16.000Z</time>
      </trkpt>
      <trkpt lat="47.01821" lon="-0.96869">
        <ele>110.98532104492</ele>
        <time>2016-04-20T12:47:19.000Z</time>
      </trkpt>
      <trkpt lat="47.01819" lon="-0.9687">
        <ele>113.14130401611</ele>
        <time>2016-04-20T12:47:22.000Z</time>
      </trkpt>
      <trkpt lat="47.01817" lon="-0.96872">
        <ele>114.07229614258</ele>
        <time>2016-04-20T12:47:25.000Z</time>
      </trkpt>
      <trkpt lat="47.01815" lon="-0.96877">
        <ele>112.26487731934</ele>
        <time>2016-04-20T12:47:28.000Z</time>
      </trkpt>
      <trkpt lat="47.01813" lon="-0.96881">
        <ele>110.99415588379</ele>
        <time>2016-04-20T12:47:31.000Z</time>
      </trkpt>
      <trkpt lat="47.0181" lon="-0.96883">
        <ele>110.84982299805</ele>
        <time>2016-04-20T12:47:33.000Z</time>
      </trkpt>
      <trkpt lat="47.01809" lon="-0.96884">
        <ele>111.01974487305</ele>
        <time>2016-04-20T12:47:35.000Z</time>
      </trkpt>
      <trkpt lat="47.01806" lon="-0.96886">
        <ele>111.15047454834</ele>
        <time>2016-04-20T12:47:39.000Z</time>
      </trkpt>
      <trkpt lat="47.01805" lon="-0.96889">
        <ele>110.4499130249</ele>
        <time>2016-04-20T12:47:41.000Z</time>
      </trkpt>
      <trkpt lat="47.01803" lon="-0.96893">
        <ele>109.28657531738</ele>
        <time>2016-04-20T12:47:45.000Z</time>
      </trkpt>
      <trkpt lat="47.01799" lon="-0.96898">
        <ele>107.39562225342</ele>
        <time>2016-04-20T12:47:49.000Z</time>
      </trkpt>
      <trkpt lat="47.01797" lon="-0.96907">
        <ele>106.84027099609</ele>
        <time>2016-04-20T12:47:52.000Z</time>
      </trkpt>
      <trkpt lat="47.01794" lon="-0.96911">
        <ele>106.52512359619</ele>
        <time>2016-04-20T12:47:55.000Z</time>
      </trkpt>
      <trkpt lat="47.01792" lon="-0.96912">
        <ele>106.86225891113</ele>
        <time>2016-04-20T12:47:57.000Z</time>
      </trkpt>
      <trkpt lat="47.0179" lon="-0.96914">
        <ele>107.30061340332</ele>
        <time>2016-04-20T12:47:59.000Z</time>
      </trkpt>
      <trkpt lat="47.01789" lon="-0.96921">
        <ele>107.98816680908</ele>
        <time>2016-04-20T12:48:03.000Z</time>
      </trkpt>
      <trkpt lat="47.01788" lon="-0.96925">
        <ele>108.67679595947</ele>
        <time>2016-04-20T12:48:05.000Z</time>
      </trkpt>
      <trkpt lat="47.01786" lon="-0.96925">
        <ele>110.50175476074</ele>
        <time>2016-04-20T12:48:08.000Z</time>
      </trkpt>
      <trkpt lat="47.01785" lon="-0.96926">
        <ele>111.69919586182</ele>
        <time>2016-04-20T12:48:11.000Z</time>
      </trkpt>
      <trkpt lat="47.01782" lon="-0.96927">
        <ele>112.57691955566</ele>
        <time>2016-04-20T12:48:14.000Z</time>
      </trkpt>
      <trkpt lat="47.01779" lon="-0.96929">
        <ele>112.91418457031</ele>
        <time>2016-04-20T12:48:16.000Z</time>
      </trkpt>
      <trkpt lat="47.01774" lon="-0.96929">
        <ele>113.92367553711</ele>
        <time>2016-04-20T12:48:19.000Z</time>
      </trkpt>
      <trkpt lat="47.01773" lon="-0.96931">
        <ele>114.97198486328</ele>
        <time>2016-04-20T12:48:21.000Z</time>
      </trkpt>
      <trkpt lat="47.01772" lon="-0.96933">
        <ele>115.44674682617</ele>
        <time>2016-04-20T12:48:23.000Z</time>
      </trkpt>
      <trkpt lat="47.01771" lon="-0.96934">
        <ele>116.5764541626</ele>
        <time>2016-04-20T12:48:25.000Z</time>
      </trkpt>
      <trkpt lat="47.01772" lon="-0.96947">
        <ele>115.34819030762</ele>
        <time>2016-04-20T12:48:28.000Z</time>
      </trkpt>
      <trkpt lat="47.01771" lon="-0.9695">
        <ele>115.31227874756</ele>
        <time>2016-04-20T12:48:30.000Z</time>
      </trkpt>
      <trkpt lat="47.01767" lon="-0.96949">
        <ele>115.21256256104</ele>
        <time>2016-04-20T12:48:33.000Z</time>
      </trkpt>
      <trkpt lat="47.01764" lon="-0.96953">
        <ele>115.64978027344</ele>
        <time>2016-04-20T12:48:36.000Z</time>
      </trkpt>
      <trkpt lat="47.01764" lon="-0.96955">
        <ele>117.16262817383</ele>
        <time>2016-04-20T12:48:39.000Z</time>
      </trkpt>
      <trkpt lat="47.01763" lon="-0.96958">
        <ele>117.64963531494</ele>
        <time>2016-04-20T12:48:41.000Z</time>
      </trkpt>
      <trkpt lat="47.01761" lon="-0.96963">
        <ele>117.11180114746</ele>
        <time>2016-04-20T12:48:44.000Z</time>
      </trkpt>
      <trkpt lat="47.01761" lon="-0.96967">
        <ele>117.0962677002</ele>
        <time>2016-04-20T12:48:46.000Z</time>
      </trkpt>
      <trkpt lat="47.0176" lon="-0.9697">
        <ele>116.30308532715</ele>
        <time>2016-04-20T12:48:49.000Z</time>
      </trkpt>
      <trkpt lat="47.0176" lon="-0.96972">
        <ele>114.95861053467</ele>
        <time>2016-04-20T12:48:52.000Z</time>
      </trkpt>
      <trkpt lat="47.01761" lon="-0.96973">
        <ele>113.7459487915</ele>
        <time>2016-04-20T12:48:54.000Z</time>
      </trkpt>
      <trkpt lat="47.01763" lon="-0.96974">
        <ele>112.6916809082</ele>
        <time>2016-04-20T12:48:57.000Z</time>
      </trkpt>
      <trkpt lat="47.01766" lon="-0.96981">
        <ele>110.86193084717</ele>
        <time>2016-04-20T12:49:00.000Z</time>
      </trkpt>
      <trkpt lat="47.01768" lon="-0.96984">
        <ele>110.464012146</ele>
        <time>2016-04-20T12:49:02.000Z</time>
      </trkpt>
      <trkpt lat="47.0177" lon="-0.96987">
        <ele>110.94243621826</ele>
        <time>2016-04-20T12:49:05.000Z</time>
      </trkpt>
      <trkpt lat="47.01773" lon="-0.96992">
        <ele>111.43238830566</ele>
        <time>2016-04-20T12:49:08.000Z</time>
      </trkpt>
      <trkpt lat="47.01777" lon="-0.96993">
        <ele>111.85583496094</ele>
        <time>2016-04-20T12:49:10.000Z</time>
      </trkpt>
      <trkpt lat="47.0178" lon="-0.96994">
        <ele>111.98789215088</ele>
        <time>2016-04-20T12:49:13.000Z</time>
      </trkpt>
      <trkpt lat="47.01782" lon="-0.96996">
        <ele>112.33963775635</ele>
        <time>2016-04-20T12:49:16.000Z</time>
      </trkpt>
      <trkpt lat="47.01784" lon="-0.96998">
        <ele>111.95710754395</ele>
        <time>2016-04-20T12:49:19.000Z</time>
      </trkpt>
      <trkpt lat="47.01785" lon="-0.96999">
        <ele>111.68839263916</ele>
        <time>2016-04-20T12:49:22.000Z</time>
      </trkpt>
      <trkpt lat="47.01786" lon="-0.97">
        <ele>111.26030731201</ele>
        <time>2016-04-20T12:49:24.000Z</time>
      </trkpt>
      <trkpt lat="47.01789" lon="-0.97001">
        <ele>109.59452819824</ele>
        <time>2016-04-20T12:49:26.000Z</time>
      </trkpt>
      <trkpt lat="47.01792" lon="-0.97005">
        <ele>109.46907806396</ele>
        <time>2016-04-20T12:49:30.000Z</time>
      </trkpt>
      <trkpt lat="47.01796" lon="-0.97007">
        <ele>109.10485839844</ele>
        <time>2016-04-20T12:49:33.000Z</time>
      </trkpt>
      <trkpt lat="47.01798" lon="-0.97008">
        <ele>109.33463287354</ele>
        <time>2016-04-20T12:49:35.000Z</time>
      </trkpt>
      <trkpt lat="47.018" lon="-0.97008">
        <ele>110.16167449951</ele>
        <time>2016-04-20T12:49:38.000Z</time>
      </trkpt>
      <trkpt lat="47.01802" lon="-0.97008">
        <ele>111.70961761475</ele>
        <time>2016-04-20T12:49:41.000Z</time>
      </trkpt>
      <trkpt lat="47.01805" lon="-0.97009">
        <ele>111.97178649902</ele>
        <time>2016-04-20T12:49:44.000Z</time>
      </trkpt>
      <trkpt lat="47.01809" lon="-0.97009">
        <ele>112.74308013916</ele>
        <time>2016-04-20T12:49:47.000Z</time>
      </trkpt>
      <trkpt lat="47.01815" lon="-0.97009">
        <ele>114.01184844971</ele>
        <time>2016-04-20T12:49:50.000Z</time>
      </trkpt>
      <trkpt lat="47.01818" lon="-0.9701">
        <ele>114.39151000977</ele>
        <time>2016-04-20T12:49:52.000Z</time>
      </trkpt>
      <trkpt lat="47.0182" lon="-0.97012">
        <ele>113.45275878906</ele>
        <time>2016-04-20T12:49:55.000Z</time>
      </trkpt>
      <trkpt lat="47.01822" lon="-0.97015">
        <ele>111.7296295166</ele>
        <time>2016-04-20T12:49:57.000Z</time>
      </trkpt>
      <trkpt lat="47.01823" lon="-0.97015">
        <ele>111.96802520752</ele>
        <time>2016-04-20T12:50:00.000Z</time>
      </trkpt>
      <trkpt lat="47.01828" lon="-0.97015">
        <ele>113.75243377686</ele>
        <time>2016-04-20T12:50:03.000Z</time>
      </trkpt>
      <trkpt lat="47.01831" lon="-0.97015">
        <ele>114.7209854126</ele>
        <time>2016-04-20T12:50:05.000Z</time>
      </trkpt>
      <trkpt lat="47.01834" lon="-0.97015">
        <ele>116.25710296631</ele>
        <time>2016-04-20T12:50:08.000Z</time>
      </trkpt>
      <trkpt lat="47.01837" lon="-0.97015">
        <ele>116.69846343994</ele>
        <time>2016-04-20T12:50:11.000Z</time>
      </trkpt>
      <trkpt lat="47.01839" lon="-0.97015">
        <ele>116.23840332031</ele>
        <time>2016-04-20T12:50:13.000Z</time>
      </trkpt>
      <trkpt lat="47.01841" lon="-0.97016">
        <ele>116.9956817627</ele>
        <time>2016-04-20T12:50:15.000Z</time>
      </trkpt>
      <trkpt lat="47.01842" lon="-0.97018">
        <ele>117.67263793945</ele>
        <time>2016-04-20T12:50:17.000Z</time>
      </trkpt>
      <trkpt lat="47.01845" lon="-0.97018">
        <ele>118.60109710693</ele>
        <time>2016-04-20T12:50:20.000Z</time>
      </trkpt>
      <trkpt lat="47.01848" lon="-0.97018">
        <ele>120.33499908447</ele>
        <time>2016-04-20T12:50:23.000Z</time>
      </trkpt>
      <trkpt lat="47.0185" lon="-0.97018">
        <ele>120.91854858398</ele>
        <time>2016-04-20T12:50:25.000Z</time>
      </trkpt>
      <trkpt lat="47.01853" lon="-0.97019">
        <ele>120.1290512085</ele>
        <time>2016-04-20T12:50:28.000Z</time>
      </trkpt>
      <trkpt lat="47.01856" lon="-0.9702">
        <ele>118.87755584717</ele>
        <time>2016-04-20T12:50:31.000Z</time>
      </trkpt>
      <trkpt lat="47.01857" lon="-0.9702">
        <ele>119.0412902832</ele>
        <time>2016-04-20T12:50:33.000Z</time>
      </trkpt>
      <trkpt lat="47.01859" lon="-0.97021">
        <ele>119.67140960693</ele>
        <time>2016-04-20T12:50:35.000Z</time>
      </trkpt>
      <trkpt lat="47.01862" lon="-0.97025">
        <ele>119.57086181641</ele>
        <time>2016-04-20T12:50:38.000Z</time>
      </trkpt>
      <trkpt lat="47.01865" lon="-0.97027">
        <ele>118.43859863281</ele>
        <time>2016-04-20T12:50:41.000Z</time>
      </trkpt>
      <trkpt lat="47.0187" lon="-0.97029">
        <ele>117.21569061279</ele>
        <time>2016-04-20T12:50:44.000Z</time>
      </trkpt>
      <trkpt lat="47.01872" lon="-0.9703">
        <ele>117.68320465088</ele>
        <time>2016-04-20T12:50:46.000Z</time>
      </trkpt>
      <trkpt lat="47.01876" lon="-0.97031">
        <ele>117.84558105469</ele>
        <time>2016-04-20T12:50:50.000Z</time>
      </trkpt>
      <trkpt lat="47.01879" lon="-0.97032">
        <ele>117.91527557373</ele>
        <time>2016-04-20T12:50:53.000Z</time>
      </trkpt>
      <trkpt lat="47.01881" lon="-0.97032">
        <ele>118.38429260254</ele>
        <time>2016-04-20T12:50:55.000Z</time>
      </trkpt>
      <trkpt lat="47.01884" lon="-0.97033">
        <ele>118.5466003418</ele>
        <time>2016-04-20T12:50:57.000Z</time>
      </trkpt>
      <trkpt lat="47.01888" lon="-0.97036">
        <ele>117.48126220703</ele>
        <time>2016-04-20T12:51:00.000Z</time>
      </trkpt>
      <trkpt lat="47.01889" lon="-0.97037">
        <ele>116.99767303467</ele>
        <time>2016-04-20T12:51:03.000Z</time>
      </trkpt>
      <trkpt lat="47.01891" lon="-0.97038">
        <ele>116.57869720459</ele>
        <time>2016-04-20T12:51:05.000Z</time>
      </trkpt>
      <trkpt lat="47.01894" lon="-0.97039">
        <ele>116.08752441406</ele>
        <time>2016-04-20T12:51:08.000Z</time>
      </trkpt>
      <trkpt lat="47.01901" lon="-0.97039">
        <ele>114.73220062256</ele>
        <time>2016-04-20T12:51:11.000Z</time>
      </trkpt>
      <trkpt lat="47.01904" lon="-0.97043">
        <ele>115.29154968262</ele>
        <time>2016-04-20T12:51:14.000Z</time>
      </trkpt>
      <trkpt lat="47.01905" lon="-0.97045">
        <ele>115.38161468506</ele>
        <time>2016-04-20T12:51:16.000Z</time>
      </trkpt>
      <trkpt lat="47.01906" lon="-0.97046">
        <ele>116.02484130859</ele>
        <time>2016-04-20T12:51:19.000Z</time>
      </trkpt>
      <trkpt lat="47.01909" lon="-0.97047">
        <ele>116.1252822876</ele>
        <time>2016-04-20T12:51:21.000Z</time>
      </trkpt>
      <trkpt lat="47.01914" lon="-0.97048">
        <ele>115.57521820068</ele>
        <time>2016-04-20T12:51:24.000Z</time>
      </trkpt>
      <trkpt lat="47.01917" lon="-0.97048">
        <ele>114.09558105469</ele>
        <time>2016-04-20T12:51:27.000Z</time>
      </trkpt>
      <trkpt lat="47.0192" lon="-0.97049">
        <ele>113.15712738037</ele>
        <time>2016-04-20T12:51:30.000Z</time>
      </trkpt>
      <trkpt lat="47.0192" lon="-0.97051">
        <ele>113.16291809082</ele>
        <time>2016-04-20T12:51:33.000Z</time>
      </trkpt>
      <trkpt lat="47.01921" lon="-0.97054">
        <ele>112.71098327637</ele>
        <time>2016-04-20T12:51:35.000Z</time>
      </trkpt>
      <trkpt lat="47.01925" lon="-0.97056">
        <ele>112.93179321289</ele>
        <time>2016-04-20T12:51:39.000Z</time>
      </trkpt>
      <trkpt lat="47.01929" lon="-0.97057">
        <ele>113.62670898438</ele>
        <time>2016-04-20T12:51:42.000Z</time>
      </trkpt>
      <trkpt lat="47.01933" lon="-0.9706">
        <ele>113.79962158203</ele>
        <time>2016-04-20T12:51:44.000Z</time>
      </trkpt>
      <trkpt lat="47.01937" lon="-0.97065">
        <ele>113.36868286133</ele>
        <time>2016-04-20T12:51:47.000Z</time>
      </trkpt>
      <trkpt lat="47.01939" lon="-0.97066">
        <ele>114.15942382812</ele>
        <time>2016-04-20T12:51:50.000Z</time>
      </trkpt>
      <trkpt lat="47.01941" lon="-0.97069">
        <ele>114.73989105225</ele>
        <time>2016-04-20T12:51:53.000Z</time>
      </trkpt>
      <trkpt lat="47.01943" lon="-0.97072">
        <ele>114.66819763184</ele>
        <time>2016-04-20T12:51:55.000Z</time>
      </trkpt>
      <trkpt lat="47.01946" lon="-0.97074">
        <ele>116.58967590332</ele>
        <time>2016-04-20T12:51:58.000Z</time>
      </trkpt>
      <trkpt lat="47.01948" lon="-0.97075">
        <ele>116.98477172852</ele>
        <time>2016-04-20T12:52:00.000Z</time>
      </trkpt>
      <trkpt lat="47.01949" lon="-0.97076">
        <ele>116.97801971436</ele>
        <time>2016-04-20T12:52:03.000Z</time>
      </trkpt>
      <trkpt lat="47.01951" lon="-0.97079">
        <ele>116.71172332764</ele>
        <time>2016-04-20T12:52:06.000Z</time>
      </trkpt>
      <trkpt lat="47.01953" lon="-0.97084">
        <ele>115.26071166992</ele>
        <time>2016-04-20T12:52:09.000Z</time>
      </trkpt>
      <trkpt lat="47.01956" lon="-0.97093">
        <ele>113.27159881592</ele>
        <time>2016-04-20T12:52:13.000Z</time>
      </trkpt>
      <trkpt lat="47.01958" lon="-0.97097">
        <ele>113.18383789062</ele>
        <time>2016-04-20T12:52:15.000Z</time>
      </trkpt>
      <trkpt lat="47.01961" lon="-0.97102">
        <ele>114.84732818604</ele>
        <time>2016-04-20T12:52:18.000Z</time>
      </trkpt>
      <trkpt lat="47.01964" lon="-0.97105">
        <ele>115.39203643799</ele>
        <time>2016-04-20T12:52:20.000Z</time>
      </trkpt>
      <trkpt lat="47.01966" lon="-0.97108">
        <ele>115.48264312744</ele>
        <time>2016-04-20T12:52:23.000Z</time>
      </trkpt>
      <trkpt lat="47.01968" lon="-0.97111">
        <ele>115.727684021</ele>
        <time>2016-04-20T12:52:25.000Z</time>
      </trkpt>
      <trkpt lat="47.01971" lon="-0.97114">
        <ele>116.3727722168</ele>
        <time>2016-04-20T12:52:28.000Z</time>
      </trkpt>
      <trkpt lat="47.01973" lon="-0.97117">
        <ele>117.05363464355</ele>
        <time>2016-04-20T12:52:30.000Z</time>
      </trkpt>
      <trkpt lat="47.01975" lon="-0.97121">
        <ele>118.2225112915</ele>
        <time>2016-04-20T12:52:33.000Z</time>
      </trkpt>
      <trkpt lat="47.01978" lon="-0.97128">
        <ele>117.88440704346</ele>
        <time>2016-04-20T12:52:36.000Z</time>
      </trkpt>
      <trkpt lat="47.01979" lon="-0.97133">
        <ele>117.00798034668</ele>
        <time>2016-04-20T12:52:38.000Z</time>
      </trkpt>
      <trkpt lat="47.0198" lon="-0.97134">
        <ele>116.62641906738</ele>
        <time>2016-04-20T12:52:40.000Z</time>
      </trkpt>
      <trkpt lat="47.01982" lon="-0.97135">
        <ele>116.77070617676</ele>
        <time>2016-04-20T12:52:42.000Z</time>
      </trkpt>
      <trkpt lat="47.01985" lon="-0.9714">
        <ele>115.28265380859</ele>
        <time>2016-04-20T12:52:44.000Z</time>
      </trkpt>
      <trkpt lat="47.01989" lon="-0.97149">
        <ele>115.93817138672</ele>
        <time>2016-04-20T12:52:47.000Z</time>
      </trkpt>
      <trkpt lat="47.01991" lon="-0.97151">
        <ele>116.8572769165</ele>
        <time>2016-04-20T12:52:50.000Z</time>
      </trkpt>
      <trkpt lat="47.01991" lon="-0.97152">
        <ele>116.70919036865</ele>
        <time>2016-04-20T12:52:56.000Z</time>
      </trkpt>
      <trkpt lat="47.01994" lon="-0.97157">
        <ele>115.31352233887</ele>
        <time>2016-04-20T12:52:59.000Z</time>
      </trkpt>
      <trkpt lat="47.01996" lon="-0.97164">
        <ele>115.29039001465</ele>
        <time>2016-04-20T12:53:02.000Z</time>
      </trkpt>
      <trkpt lat="47.01998" lon="-0.97168">
        <ele>114.75009155273</ele>
        <time>2016-04-20T12:53:04.000Z</time>
      </trkpt>
      <trkpt lat="47.02001" lon="-0.97175">
        <ele>115.24992370605</ele>
        <time>2016-04-20T12:53:07.000Z</time>
      </trkpt>
      <trkpt lat="47.02002" lon="-0.97176">
        <ele>115.82877349854</ele>
        <time>2016-04-20T12:53:10.000Z</time>
      </trkpt>
      <trkpt lat="47.02002" lon="-0.97181">
        <ele>115.33097076416</ele>
        <time>2016-04-20T12:53:13.000Z</time>
      </trkpt>
      <trkpt lat="47.02004" lon="-0.97187">
        <ele>113.13689422607</ele>
        <time>2016-04-20T12:53:15.000Z</time>
      </trkpt>
      <trkpt lat="47.02005" lon="-0.97188">
        <ele>111.88887023926</ele>
        <time>2016-04-20T12:53:17.000Z</time>
      </trkpt>
      <trkpt lat="47.02005" lon="-0.9719">
        <ele>109.21509552002</ele>
        <time>2016-04-20T12:53:20.000Z</time>
      </trkpt>
      <trkpt lat="47.02005" lon="-0.97192">
        <ele>107.96278381348</ele>
        <time>2016-04-20T12:53:26.000Z</time>
      </trkpt>
      <trkpt lat="47.02007" lon="-0.97192">
        <ele>109.45264434814</ele>
        <time>2016-04-20T12:53:45.000Z</time>
      </trkpt>
      <trkpt lat="47.02015" lon="-0.97193">
        <ele>109.92101287842</ele>
        <time>2016-04-20T12:53:48.000Z</time>
      </trkpt>
      <trkpt lat="47.02021" lon="-0.97199">
        <ele>112.42530059814</ele>
        <time>2016-04-20T12:53:51.000Z</time>
      </trkpt>
      <trkpt lat="47.02024" lon="-0.97201">
        <ele>112.52261352539</ele>
        <time>2016-04-20T12:53:53.000Z</time>
      </trkpt>
      <trkpt lat="47.02027" lon="-0.97205">
        <ele>112.22244262695</ele>
        <time>2016-04-20T12:53:56.000Z</time>
      </trkpt>
      <trkpt lat="47.0203" lon="-0.97208">
        <ele>112.40688323975</ele>
        <time>2016-04-20T12:53:58.000Z</time>
      </trkpt>
      <trkpt lat="47.02032" lon="-0.97209">
        <ele>112.45889282227</ele>
        <time>2016-04-20T12:54:00.000Z</time>
      </trkpt>
      <trkpt lat="47.02035" lon="-0.97212">
        <ele>112.12427520752</ele>
        <time>2016-04-20T12:54:03.000Z</time>
      </trkpt>
      <trkpt lat="47.02037" lon="-0.97215">
        <ele>111.64678955078</ele>
        <time>2016-04-20T12:54:05.000Z</time>
      </trkpt>
      <trkpt lat="47.02039" lon="-0.97219">
        <ele>112.31832122803</ele>
        <time>2016-04-20T12:54:08.000Z</time>
      </trkpt>
      <trkpt lat="47.02042" lon="-0.9722">
        <ele>114.50344085693</ele>
        <time>2016-04-20T12:54:11.000Z</time>
      </trkpt>
      <trkpt lat="47.02045" lon="-0.97225">
        <ele>114.13405609131</ele>
        <time>2016-04-20T12:54:14.000Z</time>
      </trkpt>
      <trkpt lat="47.02047" lon="-0.97229">
        <ele>113.04349517822</ele>
        <time>2016-04-20T12:54:16.000Z</time>
      </trkpt>
      <trkpt lat="47.0205" lon="-0.97233">
        <ele>112.43640136719</ele>
        <time>2016-04-20T12:54:19.000Z</time>
      </trkpt>
      <trkpt lat="47.02053" lon="-0.97235">
        <ele>113.48694610596</ele>
        <time>2016-04-20T12:54:22.000Z</time>
      </trkpt>
      <trkpt lat="47.02055" lon="-0.97237">
        <ele>113.26949310303</ele>
        <time>2016-04-20T12:54:24.000Z</time>
      </trkpt>
      <trkpt lat="47.02058" lon="-0.9724">
        <ele>113.30914306641</ele>
        <time>2016-04-20T12:54:27.000Z</time>
      </trkpt>
      <trkpt lat="47.02061" lon="-0.97244">
        <ele>112.7438659668</ele>
        <time>2016-04-20T12:54:29.000Z</time>
      </trkpt>
      <trkpt lat="47.02065" lon="-0.97248">
        <ele>111.64192199707</ele>
        <time>2016-04-20T12:54:32.000Z</time>
      </trkpt>
      <trkpt lat="47.02066" lon="-0.97249">
        <ele>112.83891296387</ele>
        <time>2016-04-20T12:54:37.000Z</time>
      </trkpt>
      <trkpt lat="47.02067" lon="-0.97253">
        <ele>113.43417358398</ele>
        <time>2016-04-20T12:54:40.000Z</time>
      </trkpt>
      <trkpt lat="47.02071" lon="-0.97262">
        <ele>113.47973632812</ele>
        <time>2016-04-20T12:54:43.000Z</time>
      </trkpt>
      <trkpt lat="47.02072" lon="-0.97266">
        <ele>113.47582244873</ele>
        <time>2016-04-20T12:54:45.000Z</time>
      </trkpt>
      <trkpt lat="47.02074" lon="-0.9727">
        <ele>112.29406738281</ele>
        <time>2016-04-20T12:54:48.000Z</time>
      </trkpt>
      <trkpt lat="47.02076" lon="-0.97272">
        <ele>112.28256225586</ele>
        <time>2016-04-20T12:54:50.000Z</time>
      </trkpt>
      <trkpt lat="47.0208" lon="-0.97279">
        <ele>115.49345397949</ele>
        <time>2016-04-20T12:54:53.000Z</time>
      </trkpt>
      <trkpt lat="47.02082" lon="-0.97283">
        <ele>115.6683883667</ele>
        <time>2016-04-20T12:54:56.000Z</time>
      </trkpt>
      <trkpt lat="47.02085" lon="-0.97286">
        <ele>115.32847595215</ele>
        <time>2016-04-20T12:55:00.000Z</time>
      </trkpt>
      <trkpt lat="47.02086" lon="-0.97288">
        <ele>115.69633483887</ele>
        <time>2016-04-20T12:55:02.000Z</time>
      </trkpt>
      <trkpt lat="47.02087" lon="-0.9729">
        <ele>115.07432556152</ele>
        <time>2016-04-20T12:55:05.000Z</time>
      </trkpt>
      <trkpt lat="47.0209" lon="-0.97296">
        <ele>115.10280609131</ele>
        <time>2016-04-20T12:55:08.000Z</time>
      </trkpt>
      <trkpt lat="47.02093" lon="-0.97302">
        <ele>117.07277679443</ele>
        <time>2016-04-20T12:55:11.000Z</time>
      </trkpt>
      <trkpt lat="47.02096" lon="-0.97305">
        <ele>119.8537979126</ele>
        <time>2016-04-20T12:55:14.000Z</time>
      </trkpt>
      <trkpt lat="47.02097" lon="-0.97306">
        <ele>120.82076263428</ele>
        <time>2016-04-20T12:55:16.000Z</time>
      </trkpt>
      <trkpt lat="47.02098" lon="-0.97308">
        <ele>121.23114776611</ele>
        <time>2016-04-20T12:55:18.000Z</time>
      </trkpt>
      <trkpt lat="47.021" lon="-0.97311">
        <ele>122.07704925537</ele>
        <time>2016-04-20T12:55:20.000Z</time>
      </trkpt>
      <trkpt lat="47.02102" lon="-0.97316">
        <ele>122.96152496338</ele>
        <time>2016-04-20T12:55:23.000Z</time>
      </trkpt>
      <trkpt lat="47.02103" lon="-0.97319">
        <ele>122.9719619751</ele>
        <time>2016-04-20T12:55:26.000Z</time>
      </trkpt>
      <trkpt lat="47.02104" lon="-0.97324">
        <ele>122.06684112549</ele>
        <time>2016-04-20T12:55:29.000Z</time>
      </trkpt>
      <trkpt lat="47.02107" lon="-0.97328">
        <ele>119.4880065918</ele>
        <time>2016-04-20T12:55:32.000Z</time>
      </trkpt>
      <trkpt lat="47.02108" lon="-0.9733">
        <ele>119.08852386475</ele>
        <time>2016-04-20T12:55:34.000Z</time>
      </trkpt>
      <trkpt lat="47.02109" lon="-0.97332">
        <ele>118.51609802246</ele>
        <time>2016-04-20T12:55:37.000Z</time>
      </trkpt>
      <trkpt lat="47.02111" lon="-0.97335">
        <ele>118.17426300049</ele>
        <time>2016-04-20T12:55:39.000Z</time>
      </trkpt>
      <trkpt lat="47.02111" lon="-0.97336">
        <ele>118.22593688965</ele>
        <time>2016-04-20T12:55:41.000Z</time>
      </trkpt>
      <trkpt lat="47.02114" lon="-0.9734">
        <ele>118.98828887939</ele>
        <time>2016-04-20T12:55:43.000Z</time>
      </trkpt>
      <trkpt lat="47.0212" lon="-0.97348">
        <ele>119.27094268799</ele>
        <time>2016-04-20T12:55:46.000Z</time>
      </trkpt>
      <trkpt lat="47.02121" lon="-0.97352">
        <ele>118.83518981934</ele>
        <time>2016-04-20T12:55:48.000Z</time>
      </trkpt>
      <trkpt lat="47.02122" lon="-0.97355">
        <ele>119.15804290771</ele>
        <time>2016-04-20T12:55:50.000Z</time>
      </trkpt>
      <trkpt lat="47.02123" lon="-0.97358">
        <ele>120.32668304443</ele>
        <time>2016-04-20T12:55:53.000Z</time>
      </trkpt>
      <trkpt lat="47.02124" lon="-0.97359">
        <ele>120.47677612305</ele>
        <time>2016-04-20T12:55:57.000Z</time>
      </trkpt>
      <trkpt lat="47.02127" lon="-0.97364">
        <ele>119.00187683105</ele>
        <time>2016-04-20T12:56:00.000Z</time>
      </trkpt>
      <trkpt lat="47.02129" lon="-0.97369">
        <ele>117.88272857666</ele>
        <time>2016-04-20T12:56:03.000Z</time>
      </trkpt>
      <trkpt lat="47.02132" lon="-0.97374">
        <ele>118.6517868042</ele>
        <time>2016-04-20T12:56:06.000Z</time>
      </trkpt>
      <trkpt lat="47.02134" lon="-0.97377">
        <ele>118.66345977783</ele>
        <time>2016-04-20T12:56:08.000Z</time>
      </trkpt>
      <trkpt lat="47.02137" lon="-0.97381">
        <ele>118.12842559814</ele>
        <time>2016-04-20T12:56:10.000Z</time>
      </trkpt>
      <trkpt lat="47.0214" lon="-0.97389">
        <ele>118.14463806152</ele>
        <time>2016-04-20T12:56:13.000Z</time>
      </trkpt>
      <trkpt lat="47.02142" lon="-0.97392">
        <ele>118.09002685547</ele>
        <time>2016-04-20T12:56:15.000Z</time>
      </trkpt>
      <trkpt lat="47.02144" lon="-0.97396">
        <ele>116.87110900879</ele>
        <time>2016-04-20T12:56:18.000Z</time>
      </trkpt>
      <trkpt lat="47.02145" lon="-0.97398">
        <ele>116.87728118896</ele>
        <time>2016-04-20T12:56:20.000Z</time>
      </trkpt>
      <trkpt lat="47.02145" lon="-0.974">
        <ele>116.53884124756</ele>
        <time>2016-04-20T12:56:22.000Z</time>
      </trkpt>
      <trkpt lat="47.02146" lon="-0.97403">
        <ele>115.87982177734</ele>
        <time>2016-04-20T12:56:24.000Z</time>
      </trkpt>
      <trkpt lat="47.02147" lon="-0.97404">
        <ele>115.76552581787</ele>
        <time>2016-04-20T12:56:28.000Z</time>
      </trkpt>
      <trkpt lat="47.0215" lon="-0.97411">
        <ele>115.29767608643</ele>
        <time>2016-04-20T12:56:32.000Z</time>
      </trkpt>
      <trkpt lat="47.02153" lon="-0.97416">
        <ele>114.26315307617</ele>
        <time>2016-04-20T12:56:35.000Z</time>
      </trkpt>
      <trkpt lat="47.02153" lon="-0.97418">
        <ele>113.89921569824</ele>
        <time>2016-04-20T12:56:37.000Z</time>
      </trkpt>
      <trkpt lat="47.02155" lon="-0.97419">
        <ele>113.5912399292</ele>
        <time>2016-04-20T12:56:39.000Z</time>
      </trkpt>
      <trkpt lat="47.02156" lon="-0.97421">
        <ele>114.61730194092</ele>
        <time>2016-04-20T12:56:42.000Z</time>
      </trkpt>
      <trkpt lat="47.0216" lon="-0.97425">
        <ele>116.55116271973</ele>
        <time>2016-04-20T12:56:44.000Z</time>
      </trkpt>
      <trkpt lat="47.02166" lon="-0.97432">
        <ele>116.32585906982</ele>
        <time>2016-04-20T12:56:47.000Z</time>
      </trkpt>
      <trkpt lat="47.02169" lon="-0.97435">
        <ele>114.52536010742</ele>
        <time>2016-04-20T12:56:49.000Z</time>
      </trkpt>
      <trkpt lat="47.02174" lon="-0.97438">
        <ele>115.59838867188</ele>
        <time>2016-04-20T12:56:54.000Z</time>
      </trkpt>
      <trkpt lat="47.02177" lon="-0.97441">
        <ele>116.71826934814</ele>
        <time>2016-04-20T12:56:56.000Z</time>
      </trkpt>
      <trkpt lat="47.02179" lon="-0.97445">
        <ele>116.60297393799</ele>
        <time>2016-04-20T12:56:58.000Z</time>
      </trkpt>
      <trkpt lat="47.02181" lon="-0.97448">
        <ele>116.14505767822</ele>
        <time>2016-04-20T12:57:00.000Z</time>
      </trkpt>
      <trkpt lat="47.02184" lon="-0.97452">
        <ele>113.80304718018</ele>
        <time>2016-04-20T12:57:03.000Z</time>
      </trkpt>
      <trkpt lat="47.02187" lon="-0.97455">
        <ele>111.10208129883</ele>
        <time>2016-04-20T12:57:06.000Z</time>
      </trkpt>
      <trkpt lat="47.02189" lon="-0.97455">
        <ele>109.90303039551</ele>
        <time>2016-04-20T12:57:08.000Z</time>
      </trkpt>
      <trkpt lat="47.02191" lon="-0.97456">
        <ele>109.14105987549</ele>
        <time>2016-04-20T12:57:10.000Z</time>
      </trkpt>
      <trkpt lat="47.02193" lon="-0.97457">
        <ele>107.88519287109</ele>
        <time>2016-04-20T12:57:13.000Z</time>
      </trkpt>
      <trkpt lat="47.02197" lon="-0.9746">
        <ele>106.54970550537</ele>
        <time>2016-04-20T12:57:16.000Z</time>
      </trkpt>
      <trkpt lat="47.022" lon="-0.97464">
        <ele>108.29756164551</ele>
        <time>2016-04-20T12:57:19.000Z</time>
      </trkpt>
      <trkpt lat="47.02206" lon="-0.97468">
        <ele>108.59030914307</ele>
        <time>2016-04-20T12:57:23.000Z</time>
      </trkpt>
      <trkpt lat="47.02209" lon="-0.9747">
        <ele>106.71212005615</ele>
        <time>2016-04-20T12:57:25.000Z</time>
      </trkpt>
      <trkpt lat="47.02213" lon="-0.97473">
        <ele>105.23649597168</ele>
        <time>2016-04-20T12:57:28.000Z</time>
      </trkpt>
      <trkpt lat="47.02215" lon="-0.97474">
        <ele>106.24996185303</ele>
        <time>2016-04-20T12:57:30.000Z</time>
      </trkpt>
      <trkpt lat="47.02218" lon="-0.97473">
        <ele>108.66278076172</ele>
        <time>2016-04-20T12:57:33.000Z</time>
      </trkpt>
      <trkpt lat="47.02222" lon="-0.97474">
        <ele>111.24951171875</ele>
        <time>2016-04-20T12:57:36.000Z</time>
      </trkpt>
      <trkpt lat="47.02225" lon="-0.9748">
        <ele>109.41890716553</ele>
        <time>2016-04-20T12:57:39.000Z</time>
      </trkpt>
      <trkpt lat="47.02229" lon="-0.97485">
        <ele>108.94317626953</ele>
        <time>2016-04-20T12:57:43.000Z</time>
      </trkpt>
      <trkpt lat="47.02232" lon="-0.97487">
        <ele>110.95078277588</ele>
        <time>2016-04-20T12:57:46.000Z</time>
      </trkpt>
      <trkpt lat="47.02236" lon="-0.97488">
        <ele>112.14125061035</ele>
        <time>2016-04-20T12:57:48.000Z</time>
      </trkpt>
      <trkpt lat="47.02239" lon="-0.97489">
        <ele>112.82802581787</ele>
        <time>2016-04-20T12:57:51.000Z</time>
      </trkpt>
      <trkpt lat="47.02243" lon="-0.97491">
        <ele>113.99216461182</ele>
        <time>2016-04-20T12:57:54.000Z</time>
      </trkpt>
      <trkpt lat="47.02246" lon="-0.97494">
        <ele>113.68800354004</ele>
        <time>2016-04-20T12:57:56.000Z</time>
      </trkpt>
      <trkpt lat="47.02249" lon="-0.97496">
        <ele>114.0041885376</ele>
        <time>2016-04-20T12:57:59.000Z</time>
      </trkpt>
      <trkpt lat="47.02252" lon="-0.97498">
        <ele>113.68166351318</ele>
        <time>2016-04-20T12:58:02.000Z</time>
      </trkpt>
      <trkpt lat="47.02256" lon="-0.975">
        <ele>113.85655975342</ele>
        <time>2016-04-20T12:58:05.000Z</time>
      </trkpt>
      <trkpt lat="47.02259" lon="-0.97504">
        <ele>113.25714874268</ele>
        <time>2016-04-20T12:58:08.000Z</time>
      </trkpt>
      <trkpt lat="47.02262" lon="-0.97508">
        <ele>113.4220199585</ele>
        <time>2016-04-20T12:58:11.000Z</time>
      </trkpt>
      <trkpt lat="47.02264" lon="-0.9751">
        <ele>112.75989532471</ele>
        <time>2016-04-20T12:58:13.000Z</time>
      </trkpt>
      <trkpt lat="47.02267" lon="-0.97513">
        <ele>111.15428161621</ele>
        <time>2016-04-20T12:58:15.000Z</time>
      </trkpt>
      <trkpt lat="47.0227" lon="-0.97517">
        <ele>111.49932098389</ele>
        <time>2016-04-20T12:58:18.000Z</time>
      </trkpt>
      <trkpt lat="47.02273" lon="-0.97519">
        <ele>111.11602020264</ele>
        <time>2016-04-20T12:58:20.000Z</time>
      </trkpt>
      <trkpt lat="47.02276" lon="-0.9752">
        <ele>110.93030548096</ele>
        <time>2016-04-20T12:58:22.000Z</time>
      </trkpt>
      <trkpt lat="47.02279" lon="-0.97521">
        <ele>110.95803833008</ele>
        <time>2016-04-20T12:58:24.000Z</time>
      </trkpt>
      <trkpt lat="47.02282" lon="-0.97521">
        <ele>111.63995361328</ele>
        <time>2016-04-20T12:58:27.000Z</time>
      </trkpt>
      <trkpt lat="47.02284" lon="-0.97523">
        <ele>112.27439117432</ele>
        <time>2016-04-20T12:58:29.000Z</time>
      </trkpt>
      <trkpt lat="47.02288" lon="-0.97527">
        <ele>112.66748046875</ele>
        <time>2016-04-20T12:58:32.000Z</time>
      </trkpt>
      <trkpt lat="47.0229" lon="-0.97529">
        <ele>112.51301574707</ele>
        <time>2016-04-20T12:58:34.000Z</time>
      </trkpt>
      <trkpt lat="47.02292" lon="-0.9753">
        <ele>111.79610443115</ele>
        <time>2016-04-20T12:58:36.000Z</time>
      </trkpt>
      <trkpt lat="47.02296" lon="-0.97533">
        <ele>111.14242553711</ele>
        <time>2016-04-20T12:58:39.000Z</time>
      </trkpt>
      <trkpt lat="47.023" lon="-0.97534">
        <ele>112.93704986572</ele>
        <time>2016-04-20T12:58:42.000Z</time>
      </trkpt>
      <trkpt lat="47.02302" lon="-0.97535">
        <ele>113.74951934814</ele>
        <time>2016-04-20T12:58:44.000Z</time>
      </trkpt>
      <trkpt lat="47.02303" lon="-0.97536">
        <ele>113.78253173828</ele>
        <time>2016-04-20T12:58:46.000Z</time>
      </trkpt>
      <trkpt lat="47.02305" lon="-0.97539">
        <ele>113.28742980957</ele>
        <time>2016-04-20T12:58:49.000Z</time>
      </trkpt>
      <trkpt lat="47.02306" lon="-0.97541">
        <ele>112.99389648438</ele>
        <time>2016-04-20T12:58:51.000Z</time>
      </trkpt>
      <trkpt lat="47.02309" lon="-0.97545">
        <ele>112.4988861084</ele>
        <time>2016-04-20T12:58:54.000Z</time>
      </trkpt>
      <trkpt lat="47.02311" lon="-0.97546">
        <ele>112.45378875732</ele>
        <time>2016-04-20T12:58:56.000Z</time>
      </trkpt>
      <trkpt lat="47.02314" lon="-0.97551">
        <ele>111.82460021973</ele>
        <time>2016-04-20T12:58:59.000Z</time>
      </trkpt>
      <trkpt lat="47.02317" lon="-0.97555">
        <ele>111.5018157959</ele>
        <time>2016-04-20T12:59:01.000Z</time>
      </trkpt>
      <trkpt lat="47.0232" lon="-0.97563">
        <ele>112.9182434082</ele>
        <time>2016-04-20T12:59:05.000Z</time>
      </trkpt>
      <trkpt lat="47.02322" lon="-0.97568">
        <ele>114.08640289307</ele>
        <time>2016-04-20T12:59:08.000Z</time>
      </trkpt>
      <trkpt lat="47.02325" lon="-0.97571">
        <ele>113.80735778809</ele>
        <time>2016-04-20T12:59:11.000Z</time>
      </trkpt>
      <trkpt lat="47.02327" lon="-0.97574">
        <ele>112.54332733154</ele>
        <time>2016-04-20T12:59:13.000Z</time>
      </trkpt>
      <trkpt lat="47.02331" lon="-0.97577">
        <ele>110.90701293945</ele>
        <time>2016-04-20T12:59:17.000Z</time>
      </trkpt>
      <trkpt lat="47.02333" lon="-0.97578">
        <ele>111.6291809082</ele>
        <time>2016-04-20T12:59:19.000Z</time>
      </trkpt>
      <trkpt lat="47.02336" lon="-0.97581">
        <ele>111.9367980957</ele>
        <time>2016-04-20T12:59:21.000Z</time>
      </trkpt>
      <trkpt lat="47.02339" lon="-0.97582">
        <ele>113.02165985107</ele>
        <time>2016-04-20T12:59:24.000Z</time>
      </trkpt>
      <trkpt lat="47.02343" lon="-0.97583">
        <ele>113.9674911499</ele>
        <time>2016-04-20T12:59:27.000Z</time>
      </trkpt>
      <trkpt lat="47.02345" lon="-0.97586">
        <ele>113.27275848389</ele>
        <time>2016-04-20T12:59:29.000Z</time>
      </trkpt>
      <trkpt lat="47.02351" lon="-0.97589">
        <ele>111.03350067139</ele>
        <time>2016-04-20T12:59:32.000Z</time>
      </trkpt>
      <trkpt lat="47.02354" lon="-0.97591">
        <ele>110.48656463623</ele>
        <time>2016-04-20T12:59:34.000Z</time>
      </trkpt>
      <trkpt lat="47.02356" lon="-0.97594">
        <ele>110.75527954102</ele>
        <time>2016-04-20T12:59:37.000Z</time>
      </trkpt>
      <trkpt lat="47.02359" lon="-0.97596">
        <ele>110.22309875488</ele>
        <time>2016-04-20T12:59:40.000Z</time>
      </trkpt>
      <trkpt lat="47.02363" lon="-0.97597">
        <ele>110.7823638916</ele>
        <time>2016-04-20T12:59:43.000Z</time>
      </trkpt>
      <trkpt lat="47.02367" lon="-0.97601">
        <ele>109.71212005615</ele>
        <time>2016-04-20T12:59:46.000Z</time>
      </trkpt>
      <trkpt lat="47.02369" lon="-0.97603">
        <ele>109.83583068848</ele>
        <time>2016-04-20T12:59:48.000Z</time>
      </trkpt>
      <trkpt lat="47.02372" lon="-0.97603">
        <ele>111.25212860107</ele>
        <time>2016-04-20T12:59:51.000Z</time>
      </trkpt>
      <trkpt lat="47.02374" lon="-0.97603">
        <ele>111.14160919189</ele>
        <time>2016-04-20T12:59:53.000Z</time>
      </trkpt>
      <trkpt lat="47.02378" lon="-0.97603">
        <ele>110.68692779541</ele>
        <time>2016-04-20T12:59:57.000Z</time>
      </trkpt>
      <trkpt lat="47.02381" lon="-0.97605">
        <ele>110.48168182373</ele>
        <time>2016-04-20T12:59:59.000Z</time>
      </trkpt>
      <trkpt lat="47.02384" lon="-0.97607">
        <ele>110.08320617676</ele>
        <time>2016-04-20T13:00:01.000Z</time>
      </trkpt>
      <trkpt lat="47.02388" lon="-0.9761">
        <ele>109.49138641357</ele>
        <time>2016-04-20T13:00:04.000Z</time>
      </trkpt>
      <trkpt lat="47.02391" lon="-0.97611">
        <ele>109.0647354126</ele>
        <time>2016-04-20T13:00:06.000Z</time>
      </trkpt>
      <trkpt lat="47.02394" lon="-0.97614">
        <ele>107.0237121582</ele>
        <time>2016-04-20T13:00:09.000Z</time>
      </trkpt>
      <trkpt lat="47.02397" lon="-0.97615">
        <ele>107.15414428711</ele>
        <time>2016-04-20T13:00:11.000Z</time>
      </trkpt>
      <trkpt lat="47.02401" lon="-0.97617">
        <ele>106.68726348877</ele>
        <time>2016-04-20T13:00:14.000Z</time>
      </trkpt>
      <trkpt lat="47.02403" lon="-0.97619">
        <ele>106.3784866333</ele>
        <time>2016-04-20T13:00:18.000Z</time>
      </trkpt>
      <trkpt lat="47.02407" lon="-0.97621">
        <ele>106.05439758301</ele>
        <time>2016-04-20T13:00:20.000Z</time>
      </trkpt>
      <trkpt lat="47.02411" lon="-0.97623">
        <ele>107.29196166992</ele>
        <time>2016-04-20T13:00:23.000Z</time>
      </trkpt>
      <trkpt lat="47.02414" lon="-0.97625">
        <ele>106.78108215332</ele>
        <time>2016-04-20T13:00:25.000Z</time>
      </trkpt>
      <trkpt lat="47.02415" lon="-0.97625">
        <ele>106.96063232422</ele>
        <time>2016-04-20T13:00:27.000Z</time>
      </trkpt>
      <trkpt lat="47.02418" lon="-0.97626">
        <ele>108.01483154297</ele>
        <time>2016-04-20T13:00:29.000Z</time>
      </trkpt>
      <trkpt lat="47.02422" lon="-0.9763">
        <ele>107.78643798828</ele>
        <time>2016-04-20T13:00:32.000Z</time>
      </trkpt>
      <trkpt lat="47.02426" lon="-0.97632">
        <ele>108.33458709717</ele>
        <time>2016-04-20T13:00:35.000Z</time>
      </trkpt>
      <trkpt lat="47.02429" lon="-0.97635">
        <ele>107.76230621338</ele>
        <time>2016-04-20T13:00:37.000Z</time>
      </trkpt>
      <trkpt lat="47.02432" lon="-0.97636">
        <ele>107.4920501709</ele>
        <time>2016-04-20T13:00:39.000Z</time>
      </trkpt>
      <trkpt lat="47.02436" lon="-0.97639">
        <ele>106.5251159668</ele>
        <time>2016-04-20T13:00:42.000Z</time>
      </trkpt>
      <trkpt lat="47.02439" lon="-0.9764">
        <ele>106.35967254639</ele>
        <time>2016-04-20T13:00:44.000Z</time>
      </trkpt>
      <trkpt lat="47.02443" lon="-0.97641">
        <ele>106.9517364502</ele>
        <time>2016-04-20T13:00:47.000Z</time>
      </trkpt>
      <trkpt lat="47.02446" lon="-0.97643">
        <ele>107.37354278564</ele>
        <time>2016-04-20T13:00:50.000Z</time>
      </trkpt>
      <trkpt lat="47.02449" lon="-0.97645">
        <ele>106.77505493164</ele>
        <time>2016-04-20T13:00:52.000Z</time>
      </trkpt>
      <trkpt lat="47.02452" lon="-0.97647">
        <ele>105.41393280029</ele>
        <time>2016-04-20T13:00:54.000Z</time>
      </trkpt>
      <trkpt lat="47.02455" lon="-0.97649">
        <ele>104.59131622314</ele>
        <time>2016-04-20T13:00:56.000Z</time>
      </trkpt>
      <trkpt lat="47.02458" lon="-0.9765">
        <ele>104.80239868164</ele>
        <time>2016-04-20T13:00:59.000Z</time>
      </trkpt>
      <trkpt lat="47.02461" lon="-0.9765">
        <ele>105.71035766602</ele>
        <time>2016-04-20T13:01:02.000Z</time>
      </trkpt>
      <trkpt lat="47.02465" lon="-0.97652">
        <ele>105.50603485107</ele>
        <time>2016-04-20T13:01:05.000Z</time>
      </trkpt>
      <trkpt lat="47.02469" lon="-0.97653">
        <ele>106.47983551025</ele>
        <time>2016-04-20T13:01:08.000Z</time>
      </trkpt>
      <trkpt lat="47.02473" lon="-0.97655">
        <ele>105.2041015625</ele>
        <time>2016-04-20T13:01:11.000Z</time>
      </trkpt>
      <trkpt lat="47.02475" lon="-0.97657">
        <ele>104.96086120605</ele>
        <time>2016-04-20T13:01:13.000Z</time>
      </trkpt>
      <trkpt lat="47.02478" lon="-0.97658">
        <ele>105.38659667969</ele>
        <time>2016-04-20T13:01:16.000Z</time>
      </trkpt>
      <trkpt lat="47.02481" lon="-0.97659">
        <ele>105.37510681152</ele>
        <time>2016-04-20T13:01:18.000Z</time>
      </trkpt>
      <trkpt lat="47.02485" lon="-0.9766">
        <ele>105.44986724854</ele>
        <time>2016-04-20T13:01:21.000Z</time>
      </trkpt>
      <trkpt lat="47.02489" lon="-0.97661">
        <ele>104.56542205811</ele>
        <time>2016-04-20T13:01:25.000Z</time>
      </trkpt>
      <trkpt lat="47.02493" lon="-0.97663">
        <ele>103.96550750732</ele>
        <time>2016-04-20T13:01:27.000Z</time>
      </trkpt>
      <trkpt lat="47.02497" lon="-0.97666">
        <ele>102.62024688721</ele>
        <time>2016-04-20T13:01:30.000Z</time>
      </trkpt>
      <trkpt lat="47.02499" lon="-0.97667">
        <ele>102.14064788818</ele>
        <time>2016-04-20T13:01:33.000Z</time>
      </trkpt>
      <trkpt lat="47.02503" lon="-0.9767">
        <ele>104.44591522217</ele>
        <time>2016-04-20T13:01:36.000Z</time>
      </trkpt>
      <trkpt lat="47.02507" lon="-0.97672">
        <ele>106.0071105957</ele>
        <time>2016-04-20T13:01:39.000Z</time>
      </trkpt>
      <trkpt lat="47.0251" lon="-0.97673">
        <ele>105.70769500732</ele>
        <time>2016-04-20T13:01:41.000Z</time>
      </trkpt>
      <trkpt lat="47.02514" lon="-0.97673">
        <ele>105.49498748779</ele>
        <time>2016-04-20T13:01:43.000Z</time>
      </trkpt>
      <trkpt lat="47.02517" lon="-0.97673">
        <ele>105.45539855957</ele>
        <time>2016-04-20T13:01:45.000Z</time>
      </trkpt>
      <trkpt lat="47.0252" lon="-0.97673">
        <ele>105.08871459961</ele>
        <time>2016-04-20T13:01:48.000Z</time>
      </trkpt>
      <trkpt lat="47.02523" lon="-0.97673">
        <ele>104.22449493408</ele>
        <time>2016-04-20T13:01:50.000Z</time>
      </trkpt>
      <trkpt lat="47.02526" lon="-0.97673">
        <ele>103.54342651367</ele>
        <time>2016-04-20T13:01:53.000Z</time>
      </trkpt>
      <trkpt lat="47.02531" lon="-0.97673">
        <ele>104.31439208984</ele>
        <time>2016-04-20T13:01:56.000Z</time>
      </trkpt>
      <trkpt lat="47.02533" lon="-0.97673">
        <ele>105.09667205811</ele>
        <time>2016-04-20T13:01:58.000Z</time>
      </trkpt>
      <trkpt lat="47.02537" lon="-0.97673">
        <ele>104.59757232666</ele>
        <time>2016-04-20T13:02:01.000Z</time>
      </trkpt>
      <trkpt lat="47.0254" lon="-0.97674">
        <ele>103.72099304199</ele>
        <time>2016-04-20T13:02:03.000Z</time>
      </trkpt>
      <trkpt lat="47.02545" lon="-0.97675">
        <ele>102.48487854004</ele>
        <time>2016-04-20T13:02:06.000Z</time>
      </trkpt>
      <trkpt lat="47.02548" lon="-0.97677">
        <ele>101.76947021484</ele>
        <time>2016-04-20T13:02:08.000Z</time>
      </trkpt>
      <trkpt lat="47.0255" lon="-0.97679">
        <ele>101.20417785645</ele>
        <time>2016-04-20T13:02:11.000Z</time>
      </trkpt>
      <trkpt lat="47.02552" lon="-0.97681">
        <ele>101.66450500488</ele>
        <time>2016-04-20T13:02:13.000Z</time>
      </trkpt>
      <trkpt lat="47.02556" lon="-0.97682">
        <ele>102.21174621582</ele>
        <time>2016-04-20T13:02:16.000Z</time>
      </trkpt>
      <trkpt lat="47.02557" lon="-0.97681">
        <ele>101.81065368652</ele>
        <time>2016-04-20T13:02:19.000Z</time>
      </trkpt>
      <trkpt lat="47.02561" lon="-0.97682">
        <ele>103.36361694336</ele>
        <time>2016-04-20T13:02:22.000Z</time>
      </trkpt>
      <trkpt lat="47.02564" lon="-0.97681">
        <ele>104.32123565674</ele>
        <time>2016-04-20T13:02:24.000Z</time>
      </trkpt>
      <trkpt lat="47.02569" lon="-0.97682">
        <ele>102.59548950195</ele>
        <time>2016-04-20T13:02:27.000Z</time>
      </trkpt>
      <trkpt lat="47.02571" lon="-0.97683">
        <ele>102.76837158203</ele>
        <time>2016-04-20T13:02:29.000Z</time>
      </trkpt>
      <trkpt lat="47.02575" lon="-0.97683">
        <ele>103.76181030273</ele>
        <time>2016-04-20T13:02:32.000Z</time>
      </trkpt>
      <trkpt lat="47.0258" lon="-0.97684">
        <ele>102.97359466553</ele>
        <time>2016-04-20T13:02:35.000Z</time>
      </trkpt>
      <trkpt lat="47.02584" lon="-0.97685">
        <ele>102.41963195801</ele>
        <time>2016-04-20T13:02:37.000Z</time>
      </trkpt>
      <trkpt lat="47.02588" lon="-0.97687">
        <ele>101.55909729004</ele>
        <time>2016-04-20T13:02:40.000Z</time>
      </trkpt>
      <trkpt lat="47.02591" lon="-0.97687">
        <ele>102.00185394287</ele>
        <time>2016-04-20T13:02:43.000Z</time>
      </trkpt>
      <trkpt lat="47.02594" lon="-0.97687">
        <ele>101.32154083252</ele>
        <time>2016-04-20T13:02:45.000Z</time>
      </trkpt>
      <trkpt lat="47.02598" lon="-0.97688">
        <ele>101.37410736084</ele>
        <time>2016-04-20T13:02:48.000Z</time>
      </trkpt>
      <trkpt lat="47.026" lon="-0.97688">
        <ele>101.15087890625</ele>
        <time>2016-04-20T13:02:50.000Z</time>
      </trkpt>
      <trkpt lat="47.02602" lon="-0.97689">
        <ele>102.37396240234</ele>
        <time>2016-04-20T13:02:53.000Z</time>
      </trkpt>
      <trkpt lat="47.02607" lon="-0.97689">
        <ele>103.07167053223</ele>
        <time>2016-04-20T13:02:56.000Z</time>
      </trkpt>
      <trkpt lat="47.02608" lon="-0.97689">
        <ele>102.65117645264</ele>
        <time>2016-04-20T13:03:06.000Z</time>
      </trkpt>
      <trkpt lat="47.0261" lon="-0.97692">
        <ele>101.9196395874</ele>
        <time>2016-04-20T13:03:08.000Z</time>
      </trkpt>
      <trkpt lat="47.02612" lon="-0.97695">
        <ele>102.23606109619</ele>
        <time>2016-04-20T13:03:10.000Z</time>
      </trkpt>
      <trkpt lat="47.02617" lon="-0.97697">
        <ele>102.08712005615</ele>
        <time>2016-04-20T13:03:14.000Z</time>
      </trkpt>
      <trkpt lat="47.02622" lon="-0.97699">
        <ele>99.865928649902</ele>
        <time>2016-04-20T13:03:17.000Z</time>
      </trkpt>
      <trkpt lat="47.02625" lon="-0.97702">
        <ele>100.159324646</ele>
        <time>2016-04-20T13:03:19.000Z</time>
      </trkpt>
      <trkpt lat="47.02628" lon="-0.97704">
        <ele>100.63357543945</ele>
        <time>2016-04-20T13:03:22.000Z</time>
      </trkpt>
      <trkpt lat="47.0263" lon="-0.97705">
        <ele>101.17169952393</ele>
        <time>2016-04-20T13:03:25.000Z</time>
      </trkpt>
      <trkpt lat="47.02634" lon="-0.97705">
        <ele>102.0132598877</ele>
        <time>2016-04-20T13:03:28.000Z</time>
      </trkpt>
      <trkpt lat="47.02638" lon="-0.97706">
        <ele>102.4337387085</ele>
        <time>2016-04-20T13:03:31.000Z</time>
      </trkpt>
      <trkpt lat="47.0264" lon="-0.97707">
        <ele>102.1171875</ele>
        <time>2016-04-20T13:03:33.000Z</time>
      </trkpt>
      <trkpt lat="47.02643" lon="-0.97709">
        <ele>101.59580230713</ele>
        <time>2016-04-20T13:03:41.000Z</time>
      </trkpt>
      <trkpt lat="47.02645" lon="-0.9771">
        <ele>101.81960296631</ele>
        <time>2016-04-20T13:03:45.000Z</time>
      </trkpt>
      <trkpt lat="47.02652" lon="-0.97713">
        <ele>100.7526473999</ele>
        <time>2016-04-20T13:03:48.000Z</time>
      </trkpt>
      <trkpt lat="47.02656" lon="-0.97714">
        <ele>100.86595916748</ele>
        <time>2016-04-20T13:03:50.000Z</time>
      </trkpt>
      <trkpt lat="47.02662" lon="-0.97716">
        <ele>100.09669494629</ele>
        <time>2016-04-20T13:03:53.000Z</time>
      </trkpt>
      <trkpt lat="47.02667" lon="-0.97716">
        <ele>99.503524780273</ele>
        <time>2016-04-20T13:03:55.000Z</time>
      </trkpt>
      <trkpt lat="47.02672" lon="-0.97716">
        <ele>101.34180450439</ele>
        <time>2016-04-20T13:03:58.000Z</time>
      </trkpt>
      <trkpt lat="47.02675" lon="-0.97717">
        <ele>102.6859588623</ele>
        <time>2016-04-20T13:04:01.000Z</time>
      </trkpt>
      <trkpt lat="47.02679" lon="-0.97718">
        <ele>103.09142303467</ele>
        <time>2016-04-20T13:04:04.000Z</time>
      </trkpt>
      <trkpt lat="47.02684" lon="-0.97722">
        <ele>102.67609405518</ele>
        <time>2016-04-20T13:04:07.000Z</time>
      </trkpt>
      <trkpt lat="47.02688" lon="-0.97724">
        <ele>103.32476806641</ele>
        <time>2016-04-20T13:04:10.000Z</time>
      </trkpt>
      <trkpt lat="47.02691" lon="-0.97724">
        <ele>104.30361175537</ele>
        <time>2016-04-20T13:04:13.000Z</time>
      </trkpt>
      <trkpt lat="47.02695" lon="-0.97726">
        <ele>104.47625732422</ele>
        <time>2016-04-20T13:04:16.000Z</time>
      </trkpt>
      <trkpt lat="47.02699" lon="-0.97729">
        <ele>103.75716400146</ele>
        <time>2016-04-20T13:04:19.000Z</time>
      </trkpt>
      <trkpt lat="47.02702" lon="-0.97733">
        <ele>103.84917449951</ele>
        <time>2016-04-20T13:04:22.000Z</time>
      </trkpt>
      <trkpt lat="47.02705" lon="-0.97734">
        <ele>104.31179046631</ele>
        <time>2016-04-20T13:04:24.000Z</time>
      </trkpt>
      <trkpt lat="47.02708" lon="-0.97737">
        <ele>104.13318634033</ele>
        <time>2016-04-20T13:04:26.000Z</time>
      </trkpt>
      <trkpt lat="47.02711" lon="-0.9774">
        <ele>104.57327270508</ele>
        <time>2016-04-20T13:04:29.000Z</time>
      </trkpt>
      <trkpt lat="47.02713" lon="-0.97741">
        <ele>104.93308258057</ele>
        <time>2016-04-20T13:04:31.000Z</time>
      </trkpt>
      <trkpt lat="47.02717" lon="-0.97745">
        <ele>104.31580352783</ele>
        <time>2016-04-20T13:04:34.000Z</time>
      </trkpt>
      <trkpt lat="47.0272" lon="-0.97747">
        <ele>104.41681671143</ele>
        <time>2016-04-20T13:04:36.000Z</time>
      </trkpt>
      <trkpt lat="47.02724" lon="-0.97747">
        <ele>104.81632995605</ele>
        <time>2016-04-20T13:04:39.000Z</time>
      </trkpt>
      <trkpt lat="47.02726" lon="-0.97748">
        <ele>105.10836029053</ele>
        <time>2016-04-20T13:04:42.000Z</time>
      </trkpt>
      <trkpt lat="47.0273" lon="-0.97751">
        <ele>104.88264465332</ele>
        <time>2016-04-20T13:04:45.000Z</time>
      </trkpt>
      <trkpt lat="47.02734" lon="-0.97754">
        <ele>104.48667907715</ele>
        <time>2016-04-20T13:04:48.000Z</time>
      </trkpt>
      <trkpt lat="47.02736" lon="-0.97755">
        <ele>105.17632293701</ele>
        <time>2016-04-20T13:04:50.000Z</time>
      </trkpt>
      <trkpt lat="47.02739" lon="-0.97757">
        <ele>106.01789093018</ele>
        <time>2016-04-20T13:04:53.000Z</time>
      </trkpt>
      <trkpt lat="47.02742" lon="-0.97761">
        <ele>106.31658172607</ele>
        <time>2016-04-20T13:04:57.000Z</time>
      </trkpt>
      <trkpt lat="47.02745" lon="-0.97762">
        <ele>106.5334854126</ele>
        <time>2016-04-20T13:04:59.000Z</time>
      </trkpt>
      <trkpt lat="47.02748" lon="-0.97764">
        <ele>106.80780792236</ele>
        <time>2016-04-20T13:05:01.000Z</time>
      </trkpt>
      <trkpt lat="47.02751" lon="-0.97768">
        <ele>106.70021820068</ele>
        <time>2016-04-20T13:05:04.000Z</time>
      </trkpt>
      <trkpt lat="47.02754" lon="-0.97773">
        <ele>106.28124237061</ele>
        <time>2016-04-20T13:05:07.000Z</time>
      </trkpt>
      <trkpt lat="47.02757" lon="-0.97775">
        <ele>107.11823272705</ele>
        <time>2016-04-20T13:05:10.000Z</time>
      </trkpt>
      <trkpt lat="47.02758" lon="-0.97776">
        <ele>108.78707122803</ele>
        <time>2016-04-20T13:05:12.000Z</time>
      </trkpt>
      <trkpt lat="47.02761" lon="-0.97782">
        <ele>109.24622344971</ele>
        <time>2016-04-20T13:05:15.000Z</time>
      </trkpt>
      <trkpt lat="47.02763" lon="-0.97787">
        <ele>109.64800262451</ele>
        <time>2016-04-20T13:05:18.000Z</time>
      </trkpt>
      <trkpt lat="47.02768" lon="-0.97791">
        <ele>108.13348388672</ele>
        <time>2016-04-20T13:05:21.000Z</time>
      </trkpt>
      <trkpt lat="47.02771" lon="-0.97793">
        <ele>109.20615386963</ele>
        <time>2016-04-20T13:05:24.000Z</time>
      </trkpt>
      <trkpt lat="47.02774" lon="-0.97797">
        <ele>111.14775085449</ele>
        <time>2016-04-20T13:05:27.000Z</time>
      </trkpt>
      <trkpt lat="47.02777" lon="-0.97801">
        <ele>111.49082946777</ele>
        <time>2016-04-20T13:05:30.000Z</time>
      </trkpt>
      <trkpt lat="47.0278" lon="-0.97806">
        <ele>110.13375854492</ele>
        <time>2016-04-20T13:05:33.000Z</time>
      </trkpt>
      <trkpt lat="47.02783" lon="-0.97811">
        <ele>109.1413269043</ele>
        <time>2016-04-20T13:05:36.000Z</time>
      </trkpt>
      <trkpt lat="47.02787" lon="-0.97814">
        <ele>107.96908569336</ele>
        <time>2016-04-20T13:05:39.000Z</time>
      </trkpt>
      <trkpt lat="47.02789" lon="-0.97817">
        <ele>108.61675262451</ele>
        <time>2016-04-20T13:05:41.000Z</time>
      </trkpt>
      <trkpt lat="47.02792" lon="-0.97819">
        <ele>110.40506744385</ele>
        <time>2016-04-20T13:05:44.000Z</time>
      </trkpt>
      <trkpt lat="47.02794" lon="-0.97819">
        <ele>111.27643585205</ele>
        <time>2016-04-20T13:05:46.000Z</time>
      </trkpt>
      <trkpt lat="47.02797" lon="-0.9782">
        <ele>111.18930053711</ele>
        <time>2016-04-20T13:05:48.000Z</time>
      </trkpt>
      <trkpt lat="47.028" lon="-0.97822">
        <ele>111.38450622559</ele>
        <time>2016-04-20T13:05:50.000Z</time>
      </trkpt>
      <trkpt lat="47.02802" lon="-0.97825">
        <ele>112.28452301025</ele>
        <time>2016-04-20T13:05:53.000Z</time>
      </trkpt>
      <trkpt lat="47.02803" lon="-0.97828">
        <ele>113.88186645508</ele>
        <time>2016-04-20T13:05:56.000Z</time>
      </trkpt>
      <trkpt lat="47.02805" lon="-0.97829">
        <ele>114.20021820068</ele>
        <time>2016-04-20T13:06:02.000Z</time>
      </trkpt>
      <trkpt lat="47.02807" lon="-0.97831">
        <ele>113.09496307373</ele>
        <time>2016-04-20T13:06:04.000Z</time>
      </trkpt>
      <trkpt lat="47.02811" lon="-0.97839">
        <ele>112.66522216797</ele>
        <time>2016-04-20T13:06:07.000Z</time>
      </trkpt>
      <trkpt lat="47.02815" lon="-0.97843">
        <ele>111.73991394043</ele>
        <time>2016-04-20T13:06:10.000Z</time>
      </trkpt>
      <trkpt lat="47.02818" lon="-0.97845">
        <ele>111.39892578125</ele>
        <time>2016-04-20T13:06:12.000Z</time>
      </trkpt>
      <trkpt lat="47.02821" lon="-0.9785">
        <ele>111.75855255127</ele>
        <time>2016-04-20T13:06:15.000Z</time>
      </trkpt>
      <trkpt lat="47.02824" lon="-0.97854">
        <ele>111.26775360107</ele>
        <time>2016-04-20T13:06:17.000Z</time>
      </trkpt>
      <trkpt lat="47.02826" lon="-0.97859">
        <ele>112.58062744141</ele>
        <time>2016-04-20T13:06:21.000Z</time>
      </trkpt>
      <trkpt lat="47.02827" lon="-0.97861">
        <ele>114.28437805176</ele>
        <time>2016-04-20T13:06:23.000Z</time>
      </trkpt>
      <trkpt lat="47.02829" lon="-0.97864">
        <ele>114.97040557861</ele>
        <time>2016-04-20T13:06:26.000Z</time>
      </trkpt>
      <trkpt lat="47.02831" lon="-0.97868">
        <ele>115.28504943848</ele>
        <time>2016-04-20T13:06:28.000Z</time>
      </trkpt>
      <trkpt lat="47.02834" lon="-0.97874">
        <ele>113.78435516357</ele>
        <time>2016-04-20T13:06:31.000Z</time>
      </trkpt>
      <trkpt lat="47.02837" lon="-0.97877">
        <ele>114.03160858154</ele>
        <time>2016-04-20T13:06:34.000Z</time>
      </trkpt>
      <trkpt lat="47.0284" lon="-0.97883">
        <ele>114.43370056152</ele>
        <time>2016-04-20T13:06:37.000Z</time>
      </trkpt>
      <trkpt lat="47.02842" lon="-0.97885">
        <ele>113.85344696045</ele>
        <time>2016-04-20T13:06:39.000Z</time>
      </trkpt>
      <trkpt lat="47.02844" lon="-0.97887">
        <ele>113.85607910156</ele>
        <time>2016-04-20T13:06:42.000Z</time>
      </trkpt>
      <trkpt lat="47.02848" lon="-0.97893">
        <ele>112.65004730225</ele>
        <time>2016-04-20T13:06:45.000Z</time>
      </trkpt>
      <trkpt lat="47.02849" lon="-0.97896">
        <ele>112.80858612061</ele>
        <time>2016-04-20T13:06:47.000Z</time>
      </trkpt>
      <trkpt lat="47.02851" lon="-0.97901">
        <ele>113.4556350708</ele>
        <time>2016-04-20T13:06:51.000Z</time>
      </trkpt>
      <trkpt lat="47.02853" lon="-0.97903">
        <ele>113.89540863037</ele>
        <time>2016-04-20T13:06:53.000Z</time>
      </trkpt>
      <trkpt lat="47.02855" lon="-0.97906">
        <ele>114.34622192383</ele>
        <time>2016-04-20T13:06:56.000Z</time>
      </trkpt>
      <trkpt lat="47.02857" lon="-0.97911">
        <ele>112.87421417236</ele>
        <time>2016-04-20T13:06:59.000Z</time>
      </trkpt>
      <trkpt lat="47.02859" lon="-0.97914">
        <ele>112.42855834961</ele>
        <time>2016-04-20T13:07:01.000Z</time>
      </trkpt>
      <trkpt lat="47.02861" lon="-0.97919">
        <ele>111.06206512451</ele>
        <time>2016-04-20T13:07:03.000Z</time>
      </trkpt>
      <trkpt lat="47.02864" lon="-0.97927">
        <ele>110.26039123535</ele>
        <time>2016-04-20T13:07:06.000Z</time>
      </trkpt>
      <trkpt lat="47.02866" lon="-0.9793">
        <ele>109.43562316895</ele>
        <time>2016-04-20T13:07:08.000Z</time>
      </trkpt>
      <trkpt lat="47.0287" lon="-0.97933">
        <ele>108.52983856201</ele>
        <time>2016-04-20T13:07:11.000Z</time>
      </trkpt>
      <trkpt lat="47.02872" lon="-0.97934">
        <ele>108.45703125</ele>
        <time>2016-04-20T13:07:13.000Z</time>
      </trkpt>
      <trkpt lat="47.02876" lon="-0.97936">
        <ele>107.8240737915</ele>
        <time>2016-04-20T13:07:17.000Z</time>
      </trkpt>
      <trkpt lat="47.02877" lon="-0.9794">
        <ele>107.86022949219</ele>
        <time>2016-04-20T13:07:20.000Z</time>
      </trkpt>
      <trkpt lat="47.02879" lon="-0.97943">
        <ele>107.98444366455</ele>
        <time>2016-04-20T13:07:22.000Z</time>
      </trkpt>
      <trkpt lat="47.02883" lon="-0.97949">
        <ele>108.76634216309</ele>
        <time>2016-04-20T13:07:25.000Z</time>
      </trkpt>
      <trkpt lat="47.02885" lon="-0.97953">
        <ele>110.03298950195</ele>
        <time>2016-04-20T13:07:28.000Z</time>
      </trkpt>
      <trkpt lat="47.02888" lon="-0.97958">
        <ele>110.46437835693</ele>
        <time>2016-04-20T13:07:31.000Z</time>
      </trkpt>
      <trkpt lat="47.0289" lon="-0.97962">
        <ele>109.53030395508</ele>
        <time>2016-04-20T13:07:34.000Z</time>
      </trkpt>
      <trkpt lat="47.02893" lon="-0.97967">
        <ele>107.99032592773</ele>
        <time>2016-04-20T13:07:37.000Z</time>
      </trkpt>
      <trkpt lat="47.02896" lon="-0.97975">
        <ele>106.9535369873</ele>
        <time>2016-04-20T13:07:40.000Z</time>
      </trkpt>
      <trkpt lat="47.02897" lon="-0.97979">
        <ele>108.06409454346</ele>
        <time>2016-04-20T13:07:42.000Z</time>
      </trkpt>
      <trkpt lat="47.029" lon="-0.97983">
        <ele>107.92839813232</ele>
        <time>2016-04-20T13:07:45.000Z</time>
      </trkpt>
      <trkpt lat="47.02903" lon="-0.97985">
        <ele>106.63386535645</ele>
        <time>2016-04-20T13:07:48.000Z</time>
      </trkpt>
      <trkpt lat="47.02906" lon="-0.97988">
        <ele>106.95450592041</ele>
        <time>2016-04-20T13:07:51.000Z</time>
      </trkpt>
      <trkpt lat="47.02909" lon="-0.97991">
        <ele>107.25429534912</ele>
        <time>2016-04-20T13:07:53.000Z</time>
      </trkpt>
      <trkpt lat="47.02911" lon="-0.97994">
        <ele>107.76712799072</ele>
        <time>2016-04-20T13:07:55.000Z</time>
      </trkpt>
      <trkpt lat="47.02913" lon="-0.97997">
        <ele>109.27737426758</ele>
        <time>2016-04-20T13:07:58.000Z</time>
      </trkpt>
      <trkpt lat="47.02914" lon="-0.97999">
        <ele>110.45983886719</ele>
        <time>2016-04-20T13:08:01.000Z</time>
      </trkpt>
      <trkpt lat="47.02916" lon="-0.98001">
        <ele>112.12658691406</ele>
        <time>2016-04-20T13:08:04.000Z</time>
      </trkpt>
      <trkpt lat="47.02919" lon="-0.98006">
        <ele>111.85359191895</ele>
        <time>2016-04-20T13:08:07.000Z</time>
      </trkpt>
      <trkpt lat="47.02923" lon="-0.98012">
        <ele>112.48401641846</ele>
        <time>2016-04-20T13:08:10.000Z</time>
      </trkpt>
      <trkpt lat="47.02924" lon="-0.98016">
        <ele>112.88549804688</ele>
        <time>2016-04-20T13:08:12.000Z</time>
      </trkpt>
      <trkpt lat="47.02925" lon="-0.98021">
        <ele>112.66284179688</ele>
        <time>2016-04-20T13:08:14.000Z</time>
      </trkpt>
      <trkpt lat="47.02929" lon="-0.98027">
        <ele>111.66123962402</ele>
        <time>2016-04-20T13:08:17.000Z</time>
      </trkpt>
      <trkpt lat="47.0293" lon="-0.98031">
        <ele>112.07230377197</ele>
        <time>2016-04-20T13:08:20.000Z</time>
      </trkpt>
      <trkpt lat="47.02934" lon="-0.98034">
        <ele>111.61658477783</ele>
        <time>2016-04-20T13:08:23.000Z</time>
      </trkpt>
      <trkpt lat="47.02935" lon="-0.98037">
        <ele>110.83936309814</ele>
        <time>2016-04-20T13:08:26.000Z</time>
      </trkpt>
      <trkpt lat="47.02937" lon="-0.98039">
        <ele>110.84977722168</ele>
        <time>2016-04-20T13:08:29.000Z</time>
      </trkpt>
      <trkpt lat="47.02942" lon="-0.98042">
        <ele>112.28685760498</ele>
        <time>2016-04-20T13:08:32.000Z</time>
      </trkpt>
      <trkpt lat="47.02945" lon="-0.98047">
        <ele>112.47601318359</ele>
        <time>2016-04-20T13:08:35.000Z</time>
      </trkpt>
      <trkpt lat="47.02946" lon="-0.98049">
        <ele>112.77458953857</ele>
        <time>2016-04-20T13:08:37.000Z</time>
      </trkpt>
      <trkpt lat="47.0295" lon="-0.98052">
        <ele>113.06623840332</ele>
        <time>2016-04-20T13:08:40.000Z</time>
      </trkpt>
      <trkpt lat="47.02951" lon="-0.98055">
        <ele>113.88804626465</ele>
        <time>2016-04-20T13:08:42.000Z</time>
      </trkpt>
      <trkpt lat="47.02951" lon="-0.98057">
        <ele>113.52719116211</ele>
        <time>2016-04-20T13:08:45.000Z</time>
      </trkpt>
      <trkpt lat="47.02953" lon="-0.9806">
        <ele>112.34471130371</ele>
        <time>2016-04-20T13:08:47.000Z</time>
      </trkpt>
      <trkpt lat="47.02955" lon="-0.98071">
        <ele>111.78820800781</ele>
        <time>2016-04-20T13:08:50.000Z</time>
      </trkpt>
      <trkpt lat="47.02958" lon="-0.98077">
        <ele>113.13668060303</ele>
        <time>2016-04-20T13:08:53.000Z</time>
      </trkpt>
      <trkpt lat="47.0296" lon="-0.98081">
        <ele>113.26471710205</ele>
        <time>2016-04-20T13:08:56.000Z</time>
      </trkpt>
      <trkpt lat="47.02962" lon="-0.98084">
        <ele>112.13771820068</ele>
        <time>2016-04-20T13:08:58.000Z</time>
      </trkpt>
      <trkpt lat="47.02964" lon="-0.98087">
        <ele>111.17123413086</ele>
        <time>2016-04-20T13:09:01.000Z</time>
      </trkpt>
      <trkpt lat="47.02966" lon="-0.9809">
        <ele>109.9900894165</ele>
        <time>2016-04-20T13:09:03.000Z</time>
      </trkpt>
      <trkpt lat="47.02969" lon="-0.98094">
        <ele>110.29560852051</ele>
        <time>2016-04-20T13:09:06.000Z</time>
      </trkpt>
      <trkpt lat="47.02971" lon="-0.98095">
        <ele>110.39192199707</ele>
        <time>2016-04-20T13:09:08.000Z</time>
      </trkpt>
      <trkpt lat="47.02974" lon="-0.981">
        <ele>110.1248626709</ele>
        <time>2016-04-20T13:09:11.000Z</time>
      </trkpt>
      <trkpt lat="47.02976" lon="-0.98104">
        <ele>110.55480957031</ele>
        <time>2016-04-20T13:09:14.000Z</time>
      </trkpt>
      <trkpt lat="47.02977" lon="-0.98107">
        <ele>111.44302368164</ele>
        <time>2016-04-20T13:09:16.000Z</time>
      </trkpt>
      <trkpt lat="47.02979" lon="-0.9811">
        <ele>111.86013793945</ele>
        <time>2016-04-20T13:09:18.000Z</time>
      </trkpt>
      <trkpt lat="47.02982" lon="-0.98113">
        <ele>112.76956939697</ele>
        <time>2016-04-20T13:09:21.000Z</time>
      </trkpt>
      <trkpt lat="47.02984" lon="-0.98116">
        <ele>112.58786010742</ele>
        <time>2016-04-20T13:09:24.000Z</time>
      </trkpt>
      <trkpt lat="47.02986" lon="-0.98118">
        <ele>111.87174224854</ele>
        <time>2016-04-20T13:09:26.000Z</time>
      </trkpt>
      <trkpt lat="47.02987" lon="-0.9812">
        <ele>111.60817718506</ele>
        <time>2016-04-20T13:09:28.000Z</time>
      </trkpt>
      <trkpt lat="47.02991" lon="-0.98125">
        <ele>110.58475494385</ele>
        <time>2016-04-20T13:09:31.000Z</time>
      </trkpt>
      <trkpt lat="47.02995" lon="-0.98128">
        <ele>110.24271392822</ele>
        <time>2016-04-20T13:09:34.000Z</time>
      </trkpt>
      <trkpt lat="47.02998" lon="-0.98129">
        <ele>110.76286315918</ele>
        <time>2016-04-20T13:09:36.000Z</time>
      </trkpt>
      <trkpt lat="47.03" lon="-0.98133">
        <ele>111.01721191406</ele>
        <time>2016-04-20T13:09:39.000Z</time>
      </trkpt>
      <trkpt lat="47.03001" lon="-0.98134">
        <ele>111.23055267334</ele>
        <time>2016-04-20T13:09:41.000Z</time>
      </trkpt>
      <trkpt lat="47.03005" lon="-0.98137">
        <ele>110.6125793457</ele>
        <time>2016-04-20T13:09:44.000Z</time>
      </trkpt>
      <trkpt lat="47.03007" lon="-0.98139">
        <ele>110.46792602539</ele>
        <time>2016-04-20T13:09:46.000Z</time>
      </trkpt>
      <trkpt lat="47.03009" lon="-0.98142">
        <ele>110.44888305664</ele>
        <time>2016-04-20T13:09:49.000Z</time>
      </trkpt>
      <trkpt lat="47.03012" lon="-0.98144">
        <ele>110.45446014404</ele>
        <time>2016-04-20T13:09:52.000Z</time>
      </trkpt>
      <trkpt lat="47.03015" lon="-0.98147">
        <ele>111.00624847412</ele>
        <time>2016-04-20T13:09:55.000Z</time>
      </trkpt>
      <trkpt lat="47.03017" lon="-0.98149">
        <ele>111.34994506836</ele>
        <time>2016-04-20T13:09:57.000Z</time>
      </trkpt>
      <trkpt lat="47.0302" lon="-0.9815">
        <ele>110.46437835693</ele>
        <time>2016-04-20T13:09:59.000Z</time>
      </trkpt>
      <trkpt lat="47.03022" lon="-0.98153">
        <ele>109.71318054199</ele>
        <time>2016-04-20T13:10:02.000Z</time>
      </trkpt>
      <trkpt lat="47.03025" lon="-0.98157">
        <ele>109.43008422852</ele>
        <time>2016-04-20T13:10:05.000Z</time>
      </trkpt>
      <trkpt lat="47.03028" lon="-0.98158">
        <ele>109.81424713135</ele>
        <time>2016-04-20T13:10:07.000Z</time>
      </trkpt>
      <trkpt lat="47.03031" lon="-0.98161">
        <ele>109.27387237549</ele>
        <time>2016-04-20T13:10:10.000Z</time>
      </trkpt>
      <trkpt lat="47.03034" lon="-0.98163">
        <ele>109.28998565674</ele>
        <time>2016-04-20T13:10:13.000Z</time>
      </trkpt>
      <trkpt lat="47.03037" lon="-0.98166">
        <ele>109.78950500488</ele>
        <time>2016-04-20T13:10:15.000Z</time>
      </trkpt>
      <trkpt lat="47.03039" lon="-0.98169">
        <ele>109.97751617432</ele>
        <time>2016-04-20T13:10:18.000Z</time>
      </trkpt>
      <trkpt lat="47.03043" lon="-0.98172">
        <ele>109.56520843506</ele>
        <time>2016-04-20T13:10:21.000Z</time>
      </trkpt>
      <trkpt lat="47.03045" lon="-0.98173">
        <ele>110.8578414917</ele>
        <time>2016-04-20T13:10:23.000Z</time>
      </trkpt>
      <trkpt lat="47.03048" lon="-0.98174">
        <ele>111.12158203125</ele>
        <time>2016-04-20T13:10:26.000Z</time>
      </trkpt>
      <trkpt lat="47.0305" lon="-0.98176">
        <ele>111.66349029541</ele>
        <time>2016-04-20T13:10:28.000Z</time>
      </trkpt>
      <trkpt lat="47.03052" lon="-0.98178">
        <ele>112.27452850342</ele>
        <time>2016-04-20T13:10:30.000Z</time>
      </trkpt>
      <trkpt lat="47.03054" lon="-0.98182">
        <ele>113.09169006348</ele>
        <time>2016-04-20T13:10:33.000Z</time>
      </trkpt>
      <trkpt lat="47.03058" lon="-0.98184">
        <ele>114.34294128418</ele>
        <time>2016-04-20T13:10:36.000Z</time>
      </trkpt>
      <trkpt lat="47.03062" lon="-0.98186">
        <ele>114.47546386719</ele>
        <time>2016-04-20T13:10:39.000Z</time>
      </trkpt>
      <trkpt lat="47.03065" lon="-0.98191">
        <ele>115.72571563721</ele>
        <time>2016-04-20T13:10:42.000Z</time>
      </trkpt>
      <trkpt lat="47.03069" lon="-0.98194">
        <ele>115.43173980713</ele>
        <time>2016-04-20T13:10:45.000Z</time>
      </trkpt>
      <trkpt lat="47.0307" lon="-0.98196">
        <ele>114.95196533203</ele>
        <time>2016-04-20T13:10:47.000Z</time>
      </trkpt>
      <trkpt lat="47.03072" lon="-0.98199">
        <ele>115.49923706055</ele>
        <time>2016-04-20T13:10:49.000Z</time>
      </trkpt>
      <trkpt lat="47.03074" lon="-0.98202">
        <ele>116.90065002441</ele>
        <time>2016-04-20T13:10:52.000Z</time>
      </trkpt>
      <trkpt lat="47.03076" lon="-0.98205">
        <ele>117.04859924316</ele>
        <time>2016-04-20T13:10:54.000Z</time>
      </trkpt>
      <trkpt lat="47.03078" lon="-0.98209">
        <ele>116.33296966553</ele>
        <time>2016-04-20T13:10:56.000Z</time>
      </trkpt>
      <trkpt lat="47.03082" lon="-0.9821">
        <ele>115.13334655762</ele>
        <time>2016-04-20T13:10:59.000Z</time>
      </trkpt>
      <trkpt lat="47.03084" lon="-0.98212">
        <ele>114.64571380615</ele>
        <time>2016-04-20T13:11:01.000Z</time>
      </trkpt>
      <trkpt lat="47.03088" lon="-0.98217">
        <ele>111.84606933594</ele>
        <time>2016-04-20T13:11:04.000Z</time>
      </trkpt>
      <trkpt lat="47.03091" lon="-0.98221">
        <ele>109.6555480957</ele>
        <time>2016-04-20T13:11:06.000Z</time>
      </trkpt>
      <trkpt lat="47.03094" lon="-0.98224">
        <ele>108.78871917725</ele>
        <time>2016-04-20T13:11:09.000Z</time>
      </trkpt>
      <trkpt lat="47.03097" lon="-0.98224">
        <ele>110.27216339111</ele>
        <time>2016-04-20T13:11:12.000Z</time>
      </trkpt>
      <trkpt lat="47.03099" lon="-0.98225">
        <ele>111.08734130859</ele>
        <time>2016-04-20T13:11:15.000Z</time>
      </trkpt>
      <trkpt lat="47.03101" lon="-0.98228">
        <ele>111.06650543213</ele>
        <time>2016-04-20T13:11:17.000Z</time>
      </trkpt>
      <trkpt lat="47.03102" lon="-0.9823">
        <ele>111.12076568604</ele>
        <time>2016-04-20T13:11:19.000Z</time>
      </trkpt>
      <trkpt lat="47.03106" lon="-0.98232">
        <ele>112.59322357178</ele>
        <time>2016-04-20T13:11:22.000Z</time>
      </trkpt>
      <trkpt lat="47.03109" lon="-0.98235">
        <ele>112.52451324463</ele>
        <time>2016-04-20T13:11:25.000Z</time>
      </trkpt>
      <trkpt lat="47.03111" lon="-0.98238">
        <ele>111.47646331787</ele>
        <time>2016-04-20T13:11:28.000Z</time>
      </trkpt>
      <trkpt lat="47.03116" lon="-0.98243">
        <ele>110.95586395264</ele>
        <time>2016-04-20T13:11:31.000Z</time>
      </trkpt>
      <trkpt lat="47.0312" lon="-0.98249">
        <ele>109.47232818604</ele>
        <time>2016-04-20T13:11:33.000Z</time>
      </trkpt>
      <trkpt lat="47.03124" lon="-0.98251">
        <ele>110.70071411133</ele>
        <time>2016-04-20T13:11:36.000Z</time>
      </trkpt>
      <trkpt lat="47.03126" lon="-0.98254">
        <ele>111.73125457764</ele>
        <time>2016-04-20T13:11:39.000Z</time>
      </trkpt>
      <trkpt lat="47.03129" lon="-0.98256">
        <ele>111.95893096924</ele>
        <time>2016-04-20T13:11:42.000Z</time>
      </trkpt>
      <trkpt lat="47.0313" lon="-0.9826">
        <ele>112.66592407227</ele>
        <time>2016-04-20T13:11:44.000Z</time>
      </trkpt>
      <trkpt lat="47.03132" lon="-0.98262">
        <ele>113.27828979492</ele>
        <time>2016-04-20T13:11:47.000Z</time>
      </trkpt>
      <trkpt lat="47.03135" lon="-0.98264">
        <ele>114.63265991211</ele>
        <time>2016-04-20T13:11:50.000Z</time>
      </trkpt>
      <trkpt lat="47.03137" lon="-0.98267">
        <ele>115.92153930664</ele>
        <time>2016-04-20T13:11:53.000Z</time>
      </trkpt>
      <trkpt lat="47.03139" lon="-0.9827">
        <ele>116.42967987061</ele>
        <time>2016-04-20T13:11:55.000Z</time>
      </trkpt>
      <trkpt lat="47.03141" lon="-0.98272">
        <ele>117.15133666992</ele>
        <time>2016-04-20T13:11:57.000Z</time>
      </trkpt>
      <trkpt lat="47.03143" lon="-0.98273">
        <ele>117.42191314697</ele>
        <time>2016-04-20T13:12:00.000Z</time>
      </trkpt>
      <trkpt lat="47.03146" lon="-0.98276">
        <ele>119.21022033691</ele>
        <time>2016-04-20T13:12:04.000Z</time>
      </trkpt>
      <trkpt lat="47.03147" lon="-0.98279">
        <ele>119.57510375977</ele>
        <time>2016-04-20T13:12:06.000Z</time>
      </trkpt>
      <trkpt lat="47.03149" lon="-0.98282">
        <ele>118.83573150635</ele>
        <time>2016-04-20T13:12:08.000Z</time>
      </trkpt>
      <trkpt lat="47.03152" lon="-0.98283">
        <ele>117.84336853027</ele>
        <time>2016-04-20T13:12:11.000Z</time>
      </trkpt>
      <trkpt lat="47.03155" lon="-0.98287">
        <ele>118.10367584229</ele>
        <time>2016-04-20T13:12:14.000Z</time>
      </trkpt>
      <trkpt lat="47.03158" lon="-0.98289">
        <ele>117.37678527832</ele>
        <time>2016-04-20T13:12:16.000Z</time>
      </trkpt>
      <trkpt lat="47.03161" lon="-0.98293">
        <ele>116.84771728516</ele>
        <time>2016-04-20T13:12:19.000Z</time>
      </trkpt>
      <trkpt lat="47.03164" lon="-0.98294">
        <ele>116.53723907471</ele>
        <time>2016-04-20T13:12:21.000Z</time>
      </trkpt>
      <trkpt lat="47.03168" lon="-0.98296">
        <ele>117.61274719238</ele>
        <time>2016-04-20T13:12:24.000Z</time>
      </trkpt>
      <trkpt lat="47.03169" lon="-0.98298">
        <ele>117.60154724121</ele>
        <time>2016-04-20T13:12:26.000Z</time>
      </trkpt>
      <trkpt lat="47.03171" lon="-0.983">
        <ele>117.19425201416</ele>
        <time>2016-04-20T13:12:28.000Z</time>
      </trkpt>
      <trkpt lat="47.03173" lon="-0.98303">
        <ele>117.35732269287</ele>
        <time>2016-04-20T13:12:30.000Z</time>
      </trkpt>
      <trkpt lat="47.03174" lon="-0.98306">
        <ele>118.64587402344</ele>
        <time>2016-04-20T13:12:33.000Z</time>
      </trkpt>
      <trkpt lat="47.03176" lon="-0.98309">
        <ele>119.97145843506</ele>
        <time>2016-04-20T13:12:36.000Z</time>
      </trkpt>
      <trkpt lat="47.03179" lon="-0.98311">
        <ele>118.94637298584</ele>
        <time>2016-04-20T13:12:38.000Z</time>
      </trkpt>
      <trkpt lat="47.03182" lon="-0.98312">
        <ele>117.68031311035</ele>
        <time>2016-04-20T13:12:42.000Z</time>
      </trkpt>
      <trkpt lat="47.03183" lon="-0.98314">
        <ele>117.48491668701</ele>
        <time>2016-04-20T13:12:50.000Z</time>
      </trkpt>
      <trkpt lat="47.03185" lon="-0.98316">
        <ele>117.42883300781</ele>
        <time>2016-04-20T13:12:52.000Z</time>
      </trkpt>
      <trkpt lat="47.03186" lon="-0.98318">
        <ele>116.47913360596</ele>
        <time>2016-04-20T13:12:54.000Z</time>
      </trkpt>
      <trkpt lat="47.03188" lon="-0.9832">
        <ele>115.42824554443</ele>
        <time>2016-04-20T13:12:56.000Z</time>
      </trkpt>
      <trkpt lat="47.03192" lon="-0.98322">
        <ele>112.7087097168</ele>
        <time>2016-04-20T13:12:59.000Z</time>
      </trkpt>
      <trkpt lat="47.03193" lon="-0.98323">
        <ele>111.88989257812</ele>
        <time>2016-04-20T13:13:01.000Z</time>
      </trkpt>
      <trkpt lat="47.03196" lon="-0.98325">
        <ele>111.10646057129</ele>
        <time>2016-04-20T13:13:06.000Z</time>
      </trkpt>
      <trkpt lat="47.03199" lon="-0.98327">
        <ele>111.32627868652</ele>
        <time>2016-04-20T13:13:09.000Z</time>
      </trkpt>
      <trkpt lat="47.03202" lon="-0.98329">
        <ele>112.43671417236</ele>
        <time>2016-04-20T13:13:11.000Z</time>
      </trkpt>
      <trkpt lat="47.03207" lon="-0.98332">
        <ele>113.38018798828</ele>
        <time>2016-04-20T13:13:14.000Z</time>
      </trkpt>
      <trkpt lat="47.0321" lon="-0.98333">
        <ele>113.10654449463</ele>
        <time>2016-04-20T13:13:16.000Z</time>
      </trkpt>
      <trkpt lat="47.03213" lon="-0.98333">
        <ele>112.58323669434</ele>
        <time>2016-04-20T13:13:18.000Z</time>
      </trkpt>
      <trkpt lat="47.03218" lon="-0.98333">
        <ele>111.56785583496</ele>
        <time>2016-04-20T13:13:21.000Z</time>
      </trkpt>
      <trkpt lat="47.03222" lon="-0.98334">
        <ele>112.01291656494</ele>
        <time>2016-04-20T13:13:24.000Z</time>
      </trkpt>
      <trkpt lat="47.03224" lon="-0.98334">
        <ele>112.60816192627</ele>
        <time>2016-04-20T13:13:27.000Z</time>
      </trkpt>
      <trkpt lat="47.03227" lon="-0.98335">
        <ele>113.31600189209</ele>
        <time>2016-04-20T13:13:30.000Z</time>
      </trkpt>
      <trkpt lat="47.03229" lon="-0.98335">
        <ele>113.46047210693</ele>
        <time>2016-04-20T13:13:32.000Z</time>
      </trkpt>
      <trkpt lat="47.03232" lon="-0.98337">
        <ele>113.78555297852</ele>
        <time>2016-04-20T13:13:35.000Z</time>
      </trkpt>
      <trkpt lat="47.03236" lon="-0.98338">
        <ele>113.49610137939</ele>
        <time>2016-04-20T13:13:39.000Z</time>
      </trkpt>
      <trkpt lat="47.03239" lon="-0.98338">
        <ele>113.82450866699</ele>
        <time>2016-04-20T13:13:41.000Z</time>
      </trkpt>
      <trkpt lat="47.03241" lon="-0.98338">
        <ele>114.1591796875</ele>
        <time>2016-04-20T13:13:43.000Z</time>
      </trkpt>
      <trkpt lat="47.03243" lon="-0.98338">
        <ele>114.4266204834</ele>
        <time>2016-04-20T13:13:45.000Z</time>
      </trkpt>
      <trkpt lat="47.03248" lon="-0.98337">
        <ele>114.47473144531</ele>
        <time>2016-04-20T13:13:49.000Z</time>
      </trkpt>
      <trkpt lat="47.03251" lon="-0.98338">
        <ele>113.38513946533</ele>
        <time>2016-04-20T13:13:51.000Z</time>
      </trkpt>
      <trkpt lat="47.03255" lon="-0.98338">
        <ele>113.36795043945</ele>
        <time>2016-04-20T13:13:54.000Z</time>
      </trkpt>
      <trkpt lat="47.03257" lon="-0.98338">
        <ele>112.10074615479</ele>
        <time>2016-04-20T13:13:57.000Z</time>
      </trkpt>
      <trkpt lat="47.03259" lon="-0.98338">
        <ele>111.11360168457</ele>
        <time>2016-04-20T13:14:00.000Z</time>
      </trkpt>
      <trkpt lat="47.03262" lon="-0.98337">
        <ele>110.91793823242</ele>
        <time>2016-04-20T13:14:02.000Z</time>
      </trkpt>
      <trkpt lat="47.03266" lon="-0.98337">
        <ele>110.09028625488</ele>
        <time>2016-04-20T13:14:06.000Z</time>
      </trkpt>
      <trkpt lat="47.0327" lon="-0.98336">
        <ele>109.61003875732</ele>
        <time>2016-04-20T13:14:09.000Z</time>
      </trkpt>
      <trkpt lat="47.03273" lon="-0.98335">
        <ele>109.76554107666</ele>
        <time>2016-04-20T13:14:11.000Z</time>
      </trkpt>
      <trkpt lat="47.03275" lon="-0.98334">
        <ele>109.99388122559</ele>
        <time>2016-04-20T13:14:13.000Z</time>
      </trkpt>
      <trkpt lat="47.03278" lon="-0.98334">
        <ele>110.3634262085</ele>
        <time>2016-04-20T13:14:24.000Z</time>
      </trkpt>
      <trkpt lat="47.03279" lon="-0.98333">
        <ele>110.45864105225</ele>
        <time>2016-04-20T13:14:27.000Z</time>
      </trkpt>
      <trkpt lat="47.03279" lon="-0.98333">
        <ele>109.94495391846</ele>
        <time>2016-04-20T13:14:30.000Z</time>
      </trkpt>
      <trkpt lat="47.03281" lon="-0.98332">
        <ele>108.79259490967</ele>
        <time>2016-04-20T13:14:34.000Z</time>
      </trkpt>
      <trkpt lat="47.03283" lon="-0.98332">
        <ele>107.63516235352</ele>
        <time>2016-04-20T13:14:39.000Z</time>
      </trkpt>
      <trkpt lat="47.03284" lon="-0.98332">
        <ele>107.04032897949</ele>
        <time>2016-04-20T13:14:43.000Z</time>
      </trkpt>
      <trkpt lat="47.03286" lon="-0.9833">
        <ele>106.61061096191</ele>
        <time>2016-04-20T13:14:45.000Z</time>
      </trkpt>
      <trkpt lat="47.0329" lon="-0.98328">
        <ele>107.119972229</ele>
        <time>2016-04-20T13:14:49.000Z</time>
      </trkpt>
      <trkpt lat="47.03293" lon="-0.98325">
        <ele>107.80687713623</ele>
        <time>2016-04-20T13:14:52.000Z</time>
      </trkpt>
      <trkpt lat="47.03294" lon="-0.98322">
        <ele>108.25835418701</ele>
        <time>2016-04-20T13:14:54.000Z</time>
      </trkpt>
      <trkpt lat="47.03295" lon="-0.98319">
        <ele>107.91058349609</ele>
        <time>2016-04-20T13:14:56.000Z</time>
      </trkpt>
      <trkpt lat="47.03295" lon="-0.98313">
        <ele>107.11462402344</ele>
        <time>2016-04-20T13:15:00.000Z</time>
      </trkpt>
      <trkpt lat="47.03295" lon="-0.9831">
        <ele>106.4665145874</ele>
        <time>2016-04-20T13:15:03.000Z</time>
      </trkpt>
      <trkpt lat="47.03295" lon="-0.98308">
        <ele>106.25513458252</ele>
        <time>2016-04-20T13:15:05.000Z</time>
      </trkpt>
      <trkpt lat="47.03295" lon="-0.98304">
        <ele>105.98567199707</ele>
        <time>2016-04-20T13:15:08.000Z</time>
      </trkpt>
      <trkpt lat="47.03296" lon="-0.98302">
        <ele>105.52714538574</ele>
        <time>2016-04-20T13:15:12.000Z</time>
      </trkpt>
      <trkpt lat="47.03299" lon="-0.98297">
        <ele>104.58380126953</ele>
        <time>2016-04-20T13:15:15.000Z</time>
      </trkpt>
      <trkpt lat="47.033" lon="-0.98295">
        <ele>104.48419952393</ele>
        <time>2016-04-20T13:15:17.000Z</time>
      </trkpt>
      <trkpt lat="47.03302" lon="-0.98292">
        <ele>104.72234344482</ele>
        <time>2016-04-20T13:15:20.000Z</time>
      </trkpt>
      <trkpt lat="47.03304" lon="-0.98286">
        <ele>105.85152435303</ele>
        <time>2016-04-20T13:15:24.000Z</time>
      </trkpt>
      <trkpt lat="47.03305" lon="-0.98284">
        <ele>106.85385894775</ele>
        <time>2016-04-20T13:15:26.000Z</time>
      </trkpt>
      <trkpt lat="47.03307" lon="-0.98281">
        <ele>107.91244506836</ele>
        <time>2016-04-20T13:15:29.000Z</time>
      </trkpt>
      <trkpt lat="47.03309" lon="-0.98276">
        <ele>107.42060089111</ele>
        <time>2016-04-20T13:15:32.000Z</time>
      </trkpt>
      <trkpt lat="47.03308" lon="-0.98271">
        <ele>106.94617462158</ele>
        <time>2016-04-20T13:15:35.000Z</time>
      </trkpt>
      <trkpt lat="47.03307" lon="-0.98265">
        <ele>106.35373687744</ele>
        <time>2016-04-20T13:15:38.000Z</time>
      </trkpt>
      <trkpt lat="47.03307" lon="-0.98261">
        <ele>106.60192871094</ele>
        <time>2016-04-20T13:15:40.000Z</time>
      </trkpt>
      <trkpt lat="47.03305" lon="-0.98256">
        <ele>107.6400680542</ele>
        <time>2016-04-20T13:15:42.000Z</time>
      </trkpt>
      <trkpt lat="47.03302" lon="-0.98252">
        <ele>107.35968017578</ele>
        <time>2016-04-20T13:15:44.000Z</time>
      </trkpt>
      <trkpt lat="47.03296" lon="-0.98248">
        <ele>104.79988098145</ele>
        <time>2016-04-20T13:15:47.000Z</time>
      </trkpt>
      <trkpt lat="47.03295" lon="-0.98245">
        <ele>105.38977813721</ele>
        <time>2016-04-20T13:15:49.000Z</time>
      </trkpt>
      <trkpt lat="47.03291" lon="-0.98235">
        <ele>108.36923217773</ele>
        <time>2016-04-20T13:15:52.000Z</time>
      </trkpt>
      <trkpt lat="47.03291" lon="-0.98232">
        <ele>109.95785522461</ele>
        <time>2016-04-20T13:15:55.000Z</time>
      </trkpt>
      <trkpt lat="47.03291" lon="-0.9823">
        <ele>110.21279907227</ele>
        <time>2016-04-20T13:15:57.000Z</time>
      </trkpt>
      <trkpt lat="47.03293" lon="-0.98225">
        <ele>110.38419342041</ele>
        <time>2016-04-20T13:16:00.000Z</time>
      </trkpt>
      <trkpt lat="47.03294" lon="-0.98221">
        <ele>108.61268615723</ele>
        <time>2016-04-20T13:16:03.000Z</time>
      </trkpt>
      <trkpt lat="47.03296" lon="-0.98219">
        <ele>107.60125732422</ele>
        <time>2016-04-20T13:16:05.000Z</time>
      </trkpt>
      <trkpt lat="47.03297" lon="-0.98215">
        <ele>106.3716583252</ele>
        <time>2016-04-20T13:16:08.000Z</time>
      </trkpt>
      <trkpt lat="47.03299" lon="-0.98212">
        <ele>105.32894134521</ele>
        <time>2016-04-20T13:16:10.000Z</time>
      </trkpt>
      <trkpt lat="47.03302" lon="-0.98206">
        <ele>103.1667098999</ele>
        <time>2016-04-20T13:16:13.000Z</time>
      </trkpt>
      <trkpt lat="47.03304" lon="-0.98202">
        <ele>102.60386657715</ele>
        <time>2016-04-20T13:16:15.000Z</time>
      </trkpt>
      <trkpt lat="47.03307" lon="-0.98198">
        <ele>103.41751098633</ele>
        <time>2016-04-20T13:16:19.000Z</time>
      </trkpt>
      <trkpt lat="47.03308" lon="-0.98195">
        <ele>104.557762146</ele>
        <time>2016-04-20T13:16:22.000Z</time>
      </trkpt>
      <trkpt lat="47.03309" lon="-0.98194">
        <ele>104.9747543335</ele>
        <time>2016-04-20T13:16:24.000Z</time>
      </trkpt>
      <trkpt lat="47.03312" lon="-0.98188">
        <ele>104.32656860352</ele>
        <time>2016-04-20T13:16:27.000Z</time>
      </trkpt>
      <trkpt lat="47.03315" lon="-0.98185">
        <ele>102.64521026611</ele>
        <time>2016-04-20T13:16:29.000Z</time>
      </trkpt>
      <trkpt lat="47.03318" lon="-0.9818">
        <ele>100.42807769775</ele>
        <time>2016-04-20T13:16:32.000Z</time>
      </trkpt>
      <trkpt lat="47.03321" lon="-0.98173">
        <ele>97.929901123047</ele>
        <time>2016-04-20T13:16:35.000Z</time>
      </trkpt>
      <trkpt lat="47.03322" lon="-0.98169">
        <ele>97.34871673584</ele>
        <time>2016-04-20T13:16:38.000Z</time>
      </trkpt>
      <trkpt lat="47.03324" lon="-0.98166">
        <ele>97.05793762207</ele>
        <time>2016-04-20T13:16:41.000Z</time>
      </trkpt>
      <trkpt lat="47.03327" lon="-0.98162">
        <ele>95.418983459473</ele>
        <time>2016-04-20T13:16:44.000Z</time>
      </trkpt>
      <trkpt lat="47.03329" lon="-0.98158">
        <ele>95.034782409668</ele>
        <time>2016-04-20T13:16:46.000Z</time>
      </trkpt>
      <trkpt lat="47.03334" lon="-0.98151">
        <ele>95.233459472656</ele>
        <time>2016-04-20T13:16:49.000Z</time>
      </trkpt>
      <trkpt lat="47.03336" lon="-0.98147">
        <ele>95.427436828613</ele>
        <time>2016-04-20T13:16:52.000Z</time>
      </trkpt>
      <trkpt lat="47.03337" lon="-0.98144">
        <ele>95.79475402832</ele>
        <time>2016-04-20T13:16:54.000Z</time>
      </trkpt>
      <trkpt lat="47.03341" lon="-0.9814">
        <ele>95.205436706543</ele>
        <time>2016-04-20T13:16:57.000Z</time>
      </trkpt>
      <trkpt lat="47.03345" lon="-0.98134">
        <ele>94.166801452637</ele>
        <time>2016-04-20T13:17:02.000Z</time>
      </trkpt>
      <trkpt lat="47.03346" lon="-0.98129">
        <ele>92.885269165039</ele>
        <time>2016-04-20T13:17:05.000Z</time>
      </trkpt>
      <trkpt lat="47.03347" lon="-0.98124">
        <ele>91.928939819336</ele>
        <time>2016-04-20T13:17:08.000Z</time>
      </trkpt>
      <trkpt lat="47.03349" lon="-0.98121">
        <ele>91.765335083008</ele>
        <time>2016-04-20T13:17:10.000Z</time>
      </trkpt>
      <trkpt lat="47.03351" lon="-0.98117">
        <ele>92.579788208008</ele>
        <time>2016-04-20T13:17:14.000Z</time>
      </trkpt>
      <trkpt lat="47.03352" lon="-0.98114">
        <ele>93.698715209961</ele>
        <time>2016-04-20T13:17:16.000Z</time>
      </trkpt>
      <trkpt lat="47.03354" lon="-0.98108">
        <ele>94.416404724121</ele>
        <time>2016-04-20T13:17:19.000Z</time>
      </trkpt>
      <trkpt lat="47.03356" lon="-0.98103">
        <ele>94.517951965332</ele>
        <time>2016-04-20T13:17:22.000Z</time>
      </trkpt>
      <trkpt lat="47.03358" lon="-0.98102">
        <ele>93.300926208496</ele>
        <time>2016-04-20T13:17:24.000Z</time>
      </trkpt>
      <trkpt lat="47.0336" lon="-0.98099">
        <ele>92.538047790527</ele>
        <time>2016-04-20T13:17:27.000Z</time>
      </trkpt>
      <trkpt lat="47.03362" lon="-0.98096">
        <ele>92.761726379395</ele>
        <time>2016-04-20T13:17:29.000Z</time>
      </trkpt>
      <trkpt lat="47.03365" lon="-0.98089">
        <ele>92.766944885254</ele>
        <time>2016-04-20T13:17:32.000Z</time>
      </trkpt>
      <trkpt lat="47.03367" lon="-0.98086">
        <ele>93.343109130859</ele>
        <time>2016-04-20T13:17:35.000Z</time>
      </trkpt>
      <trkpt lat="47.0337" lon="-0.98081">
        <ele>93.736015319824</ele>
        <time>2016-04-20T13:17:38.000Z</time>
      </trkpt>
      <trkpt lat="47.03371" lon="-0.98078">
        <ele>93.293960571289</ele>
        <time>2016-04-20T13:17:40.000Z</time>
      </trkpt>
      <trkpt lat="47.03373" lon="-0.98073">
        <ele>94.47607421875</ele>
        <time>2016-04-20T13:17:43.000Z</time>
      </trkpt>
      <trkpt lat="47.03374" lon="-0.98071">
        <ele>94.902923583984</ele>
        <time>2016-04-20T13:17:45.000Z</time>
      </trkpt>
      <trkpt lat="47.03374" lon="-0.98067">
        <ele>95.32494354248</ele>
        <time>2016-04-20T13:17:48.000Z</time>
      </trkpt>
      <trkpt lat="47.03375" lon="-0.98064">
        <ele>96.266654968262</ele>
        <time>2016-04-20T13:17:51.000Z</time>
      </trkpt>
      <trkpt lat="47.03376" lon="-0.98058">
        <ele>97.401191711426</ele>
        <time>2016-04-20T13:17:54.000Z</time>
      </trkpt>
      <trkpt lat="47.03379" lon="-0.98054">
        <ele>96.631065368652</ele>
        <time>2016-04-20T13:17:56.000Z</time>
      </trkpt>
      <trkpt lat="47.03381" lon="-0.9805">
        <ele>96.463676452637</ele>
        <time>2016-04-20T13:17:59.000Z</time>
      </trkpt>
      <trkpt lat="47.03382" lon="-0.98047">
        <ele>96.968299865723</ele>
        <time>2016-04-20T13:18:01.000Z</time>
      </trkpt>
      <trkpt lat="47.03382" lon="-0.98044">
        <ele>97.466903686523</ele>
        <time>2016-04-20T13:18:03.000Z</time>
      </trkpt>
      <trkpt lat="47.03384" lon="-0.98041">
        <ele>97.281455993652</ele>
        <time>2016-04-20T13:18:06.000Z</time>
      </trkpt>
      <trkpt lat="47.03386" lon="-0.98034">
        <ele>96.81324005127</ele>
        <time>2016-04-20T13:18:09.000Z</time>
      </trkpt>
      <trkpt lat="47.03386" lon="-0.98032">
        <ele>96.974098205566</ele>
        <time>2016-04-20T13:18:11.000Z</time>
      </trkpt>
      <trkpt lat="47.03388" lon="-0.98026">
        <ele>96.942832946777</ele>
        <time>2016-04-20T13:18:14.000Z</time>
      </trkpt>
      <trkpt lat="47.03392" lon="-0.98019">
        <ele>96.954437255859</ele>
        <time>2016-04-20T13:18:17.000Z</time>
      </trkpt>
      <trkpt lat="47.03392" lon="-0.98018">
        <ele>96.843391418457</ele>
        <time>2016-04-20T13:18:19.000Z</time>
      </trkpt>
      <trkpt lat="47.03393" lon="-0.98015">
        <ele>97.174751281738</ele>
        <time>2016-04-20T13:18:22.000Z</time>
      </trkpt>
      <trkpt lat="47.03395" lon="-0.98012">
        <ele>97.706352233887</ele>
        <time>2016-04-20T13:18:25.000Z</time>
      </trkpt>
      <trkpt lat="47.03396" lon="-0.9801">
        <ele>97.785995483398</ele>
        <time>2016-04-20T13:18:27.000Z</time>
      </trkpt>
      <trkpt lat="47.03399" lon="-0.98006">
        <ele>97.596099853516</ele>
        <time>2016-04-20T13:18:29.000Z</time>
      </trkpt>
      <trkpt lat="47.034" lon="-0.98002">
        <ele>97.529411315918</ele>
        <time>2016-04-20T13:18:32.000Z</time>
      </trkpt>
      <trkpt lat="47.03401" lon="-0.97996">
        <ele>97.392951965332</ele>
        <time>2016-04-20T13:18:35.000Z</time>
      </trkpt>
      <trkpt lat="47.03401" lon="-0.97993">
        <ele>97.433662414551</ele>
        <time>2016-04-20T13:18:37.000Z</time>
      </trkpt>
      <trkpt lat="47.034" lon="-0.97991">
        <ele>97.125694274902</ele>
        <time>2016-04-20T13:18:39.000Z</time>
      </trkpt>
      <trkpt lat="47.034" lon="-0.97987">
        <ele>96.463966369629</ele>
        <time>2016-04-20T13:18:42.000Z</time>
      </trkpt>
      <trkpt lat="47.03401" lon="-0.97983">
        <ele>95.635902404785</ele>
        <time>2016-04-20T13:18:44.000Z</time>
      </trkpt>
      <trkpt lat="47.03401" lon="-0.97978">
        <ele>94.984214782715</ele>
        <time>2016-04-20T13:18:46.000Z</time>
      </trkpt>
      <trkpt lat="47.03403" lon="-0.97977">
        <ele>95.389350891113</ele>
        <time>2016-04-20T13:18:49.000Z</time>
      </trkpt>
      <trkpt lat="47.03405" lon="-0.97975">
        <ele>94.874992370605</ele>
        <time>2016-04-20T13:18:51.000Z</time>
      </trkpt>
      <trkpt lat="47.03406" lon="-0.97972">
        <ele>94.676658630371</ele>
        <time>2016-04-20T13:18:53.000Z</time>
      </trkpt>
      <trkpt lat="47.03409" lon="-0.97967">
        <ele>94.475173950195</ele>
        <time>2016-04-20T13:18:55.000Z</time>
      </trkpt>
      <trkpt lat="47.0341" lon="-0.97963">
        <ele>96.039710998535</ele>
        <time>2016-04-20T13:18:58.000Z</time>
      </trkpt>
      <trkpt lat="47.03411" lon="-0.97959">
        <ele>96.606796264648</ele>
        <time>2016-04-20T13:19:01.000Z</time>
      </trkpt>
      <trkpt lat="47.03411" lon="-0.97956">
        <ele>96.565475463867</ele>
        <time>2016-04-20T13:19:03.000Z</time>
      </trkpt>
      <trkpt lat="47.03412" lon="-0.97949">
        <ele>95.859725952148</ele>
        <time>2016-04-20T13:19:06.000Z</time>
      </trkpt>
      <trkpt lat="47.03416" lon="-0.97944">
        <ele>94.319053649902</ele>
        <time>2016-04-20T13:19:09.000Z</time>
      </trkpt>
      <trkpt lat="47.03421" lon="-0.97939">
        <ele>93.399932861328</ele>
        <time>2016-04-20T13:19:13.000Z</time>
      </trkpt>
      <trkpt lat="47.03425" lon="-0.97935">
        <ele>93.680953979492</ele>
        <time>2016-04-20T13:19:16.000Z</time>
      </trkpt>
      <trkpt lat="47.03428" lon="-0.97931">
        <ele>94.71070098877</ele>
        <time>2016-04-20T13:19:19.000Z</time>
      </trkpt>
      <trkpt lat="47.03431" lon="-0.97928">
        <ele>95.266044616699</ele>
        <time>2016-04-20T13:19:22.000Z</time>
      </trkpt>
      <trkpt lat="47.03432" lon="-0.97926">
        <ele>95.049110412598</ele>
        <time>2016-04-20T13:19:24.000Z</time>
      </trkpt>
      <trkpt lat="47.03432" lon="-0.97924">
        <ele>94.74104309082</ele>
        <time>2016-04-20T13:19:26.000Z</time>
      </trkpt>
      <trkpt lat="47.03436" lon="-0.97919">
        <ele>93.475967407227</ele>
        <time>2016-04-20T13:19:30.000Z</time>
      </trkpt>
      <trkpt lat="47.0344" lon="-0.97915">
        <ele>93.878730773926</ele>
        <time>2016-04-20T13:19:34.000Z</time>
      </trkpt>
      <trkpt lat="47.03443" lon="-0.97913">
        <ele>95.12818145752</ele>
        <time>2016-04-20T13:19:36.000Z</time>
      </trkpt>
      <trkpt lat="47.03445" lon="-0.97906">
        <ele>94.376609802246</ele>
        <time>2016-04-20T13:19:40.000Z</time>
      </trkpt>
      <trkpt lat="47.03447" lon="-0.97902">
        <ele>93.760475158691</ele>
        <time>2016-04-20T13:19:42.000Z</time>
      </trkpt>
      <trkpt lat="47.0345" lon="-0.979">
        <ele>93.218902587891</ele>
        <time>2016-04-20T13:19:44.000Z</time>
      </trkpt>
      <trkpt lat="47.03452" lon="-0.97895">
        <ele>92.773010253906</ele>
        <time>2016-04-20T13:19:48.000Z</time>
      </trkpt>
      <trkpt lat="47.03454" lon="-0.97893">
        <ele>92.576927185059</ele>
        <time>2016-04-20T13:19:50.000Z</time>
      </trkpt>
      <trkpt lat="47.03457" lon="-0.97888">
        <ele>93.087371826172</ele>
        <time>2016-04-20T13:19:53.000Z</time>
      </trkpt>
      <trkpt lat="47.03458" lon="-0.97886">
        <ele>93.373153686523</ele>
        <time>2016-04-20T13:19:55.000Z</time>
      </trkpt>
      <trkpt lat="47.0346" lon="-0.97882">
        <ele>94.242828369141</ele>
        <time>2016-04-20T13:19:58.000Z</time>
      </trkpt>
      <trkpt lat="47.03461" lon="-0.97879">
        <ele>95.278793334961</ele>
        <time>2016-04-20T13:20:01.000Z</time>
      </trkpt>
      <trkpt lat="47.03462" lon="-0.97876">
        <ele>95.453880310059</ele>
        <time>2016-04-20T13:20:03.000Z</time>
      </trkpt>
      <trkpt lat="47.03463" lon="-0.97874">
        <ele>95.824104309082</ele>
        <time>2016-04-20T13:20:06.000Z</time>
      </trkpt>
      <trkpt lat="47.03466" lon="-0.9787">
        <ele>96.508430480957</ele>
        <time>2016-04-20T13:20:09.000Z</time>
      </trkpt>
      <trkpt lat="47.03469" lon="-0.97865">
        <ele>96.273902893066</ele>
        <time>2016-04-20T13:20:12.000Z</time>
      </trkpt>
      <trkpt lat="47.03472" lon="-0.97862">
        <ele>95.157539367676</ele>
        <time>2016-04-20T13:20:14.000Z</time>
      </trkpt>
      <trkpt lat="47.03474" lon="-0.97858">
        <ele>94.524589538574</ele>
        <time>2016-04-20T13:20:17.000Z</time>
      </trkpt>
      <trkpt lat="47.03477" lon="-0.97853">
        <ele>94.093650817871</ele>
        <time>2016-04-20T13:20:20.000Z</time>
      </trkpt>
      <trkpt lat="47.03478" lon="-0.9785">
        <ele>94.719253540039</ele>
        <time>2016-04-20T13:20:23.000Z</time>
      </trkpt>
      <trkpt lat="47.0348" lon="-0.97846">
        <ele>95.939224243164</ele>
        <time>2016-04-20T13:20:27.000Z</time>
      </trkpt>
      <trkpt lat="47.03482" lon="-0.97842">
        <ele>96.894561767578</ele>
        <time>2016-04-20T13:20:30.000Z</time>
      </trkpt>
      <trkpt lat="47.03484" lon="-0.97839">
        <ele>97.03694152832</ele>
        <time>2016-04-20T13:20:33.000Z</time>
      </trkpt>
      <trkpt lat="47.03486" lon="-0.97836">
        <ele>96.5546875</ele>
        <time>2016-04-20T13:20:35.000Z</time>
      </trkpt>
      <trkpt lat="47.03487" lon="-0.97834">
        <ele>96.485565185547</ele>
        <time>2016-04-20T13:20:38.000Z</time>
      </trkpt>
      <trkpt lat="47.03489" lon="-0.9783">
        <ele>96.662498474121</ele>
        <time>2016-04-20T13:20:41.000Z</time>
      </trkpt>
      <trkpt lat="47.03492" lon="-0.97826">
        <ele>96.156852722168</ele>
        <time>2016-04-20T13:20:43.000Z</time>
      </trkpt>
      <trkpt lat="47.03495" lon="-0.97821">
        <ele>94.675796508789</ele>
        <time>2016-04-20T13:20:47.000Z</time>
      </trkpt>
      <trkpt lat="47.035" lon="-0.97813">
        <ele>91.780181884766</ele>
        <time>2016-04-20T13:20:49.000Z</time>
      </trkpt>
      <trkpt lat="47.03504" lon="-0.97808">
        <ele>90.535133361816</ele>
        <time>2016-04-20T13:20:52.000Z</time>
      </trkpt>
      <trkpt lat="47.03505" lon="-0.97806">
        <ele>89.759666442871</ele>
        <time>2016-04-20T13:20:54.000Z</time>
      </trkpt>
      <trkpt lat="47.03508" lon="-0.97804">
        <ele>89.473472595215</ele>
        <time>2016-04-20T13:20:56.000Z</time>
      </trkpt>
      <trkpt lat="47.03508" lon="-0.97803">
        <ele>90.327514648438</ele>
        <time>2016-04-20T13:20:58.000Z</time>
      </trkpt>
      <trkpt lat="47.03512" lon="-0.97802">
        <ele>91.870933532715</ele>
        <time>2016-04-20T13:21:01.000Z</time>
      </trkpt>
      <trkpt lat="47.03514" lon="-0.97802">
        <ele>92.167327880859</ele>
        <time>2016-04-20T13:21:04.000Z</time>
      </trkpt>
      <trkpt lat="47.03517" lon="-0.97801">
        <ele>92.652473449707</ele>
        <time>2016-04-20T13:21:07.000Z</time>
      </trkpt>
      <trkpt lat="47.03518" lon="-0.97799">
        <ele>93.457374572754</ele>
        <time>2016-04-20T13:21:10.000Z</time>
      </trkpt>
      <trkpt lat="47.03519" lon="-0.97797">
        <ele>94.001396179199</ele>
        <time>2016-04-20T13:21:13.000Z</time>
      </trkpt>
      <trkpt lat="47.03519" lon="-0.97794">
        <ele>94.02392578125</ele>
        <time>2016-04-20T13:21:16.000Z</time>
      </trkpt>
      <trkpt lat="47.03521" lon="-0.97789">
        <ele>93.417686462402</ele>
        <time>2016-04-20T13:21:19.000Z</time>
      </trkpt>
      <trkpt lat="47.03524" lon="-0.97784">
        <ele>93.416854858398</ele>
        <time>2016-04-20T13:21:22.000Z</time>
      </trkpt>
      <trkpt lat="47.03527" lon="-0.97782">
        <ele>93.462661743164</ele>
        <time>2016-04-20T13:21:24.000Z</time>
      </trkpt>
      <trkpt lat="47.03529" lon="-0.97778">
        <ele>93.163604736328</ele>
        <time>2016-04-20T13:21:28.000Z</time>
      </trkpt>
      <trkpt lat="47.03531" lon="-0.97774">
        <ele>93.933891296387</ele>
        <time>2016-04-20T13:21:31.000Z</time>
      </trkpt>
      <trkpt lat="47.03532" lon="-0.9777">
        <ele>94.838310241699</ele>
        <time>2016-04-20T13:21:33.000Z</time>
      </trkpt>
      <trkpt lat="47.03534" lon="-0.97766">
        <ele>95.491905212402</ele>
        <time>2016-04-20T13:21:36.000Z</time>
      </trkpt>
      <trkpt lat="47.03538" lon="-0.9776">
        <ele>94.033966064453</ele>
        <time>2016-04-20T13:21:39.000Z</time>
      </trkpt>
      <trkpt lat="47.03541" lon="-0.97755">
        <ele>93.05908203125</ele>
        <time>2016-04-20T13:21:42.000Z</time>
      </trkpt>
      <trkpt lat="47.03542" lon="-0.97752">
        <ele>92.308212280273</ele>
        <time>2016-04-20T13:21:44.000Z</time>
      </trkpt>
      <trkpt lat="47.03544" lon="-0.97748">
        <ele>91.950210571289</ele>
        <time>2016-04-20T13:21:46.000Z</time>
      </trkpt>
      <trkpt lat="47.03545" lon="-0.97747">
        <ele>91.794929504395</ele>
        <time>2016-04-20T13:21:48.000Z</time>
      </trkpt>
      <trkpt lat="47.03547" lon="-0.97742">
        <ele>91.156105041504</ele>
        <time>2016-04-20T13:21:52.000Z</time>
      </trkpt>
      <trkpt lat="47.03548" lon="-0.9774">
        <ele>91.317779541016</ele>
        <time>2016-04-20T13:21:54.000Z</time>
      </trkpt>
      <trkpt lat="47.03551" lon="-0.97735">
        <ele>91.487464904785</ele>
        <time>2016-04-20T13:21:57.000Z</time>
      </trkpt>
      <trkpt lat="47.03552" lon="-0.97734">
        <ele>92.344985961914</ele>
        <time>2016-04-20T13:21:59.000Z</time>
      </trkpt>
      <trkpt lat="47.03554" lon="-0.97732">
        <ele>93.360794067383</ele>
        <time>2016-04-20T13:22:01.000Z</time>
      </trkpt>
      <trkpt lat="47.03556" lon="-0.97728">
        <ele>93.503570556641</ele>
        <time>2016-04-20T13:22:05.000Z</time>
      </trkpt>
      <trkpt lat="47.03558" lon="-0.97725">
        <ele>93.097358703613</ele>
        <time>2016-04-20T13:22:07.000Z</time>
      </trkpt>
      <trkpt lat="47.0356" lon="-0.97719">
        <ele>92.477073669434</ele>
        <time>2016-04-20T13:22:10.000Z</time>
      </trkpt>
      <trkpt lat="47.03563" lon="-0.97712">
        <ele>91.515121459961</ele>
        <time>2016-04-20T13:22:13.000Z</time>
      </trkpt>
      <trkpt lat="47.03565" lon="-0.97708">
        <ele>90.665664672852</ele>
        <time>2016-04-20T13:22:15.000Z</time>
      </trkpt>
      <trkpt lat="47.03568" lon="-0.97705">
        <ele>89.674880981445</ele>
        <time>2016-04-20T13:22:17.000Z</time>
      </trkpt>
      <trkpt lat="47.03569" lon="-0.97703">
        <ele>89.066871643066</ele>
        <time>2016-04-20T13:22:19.000Z</time>
      </trkpt>
      <trkpt lat="47.03571" lon="-0.977">
        <ele>88.568840026855</ele>
        <time>2016-04-20T13:22:22.000Z</time>
      </trkpt>
      <trkpt lat="47.03571" lon="-0.97699">
        <ele>89.282485961914</ele>
        <time>2016-04-20T13:22:25.000Z</time>
      </trkpt>
      <trkpt lat="47.03572" lon="-0.97698">
        <ele>91.085784912109</ele>
        <time>2016-04-20T13:22:28.000Z</time>
      </trkpt>
      <trkpt lat="47.03574" lon="-0.97696">
        <ele>93.07982635498</ele>
        <time>2016-04-20T13:22:30.000Z</time>
      </trkpt>
      <trkpt lat="47.03577" lon="-0.97691">
        <ele>95.227928161621</ele>
        <time>2016-04-20T13:22:33.000Z</time>
      </trkpt>
      <trkpt lat="47.03578" lon="-0.97688">
        <ele>94.691291809082</ele>
        <time>2016-04-20T13:22:35.000Z</time>
      </trkpt>
      <trkpt lat="47.0358" lon="-0.97683">
        <ele>93.59992980957</ele>
        <time>2016-04-20T13:22:38.000Z</time>
      </trkpt>
      <trkpt lat="47.03582" lon="-0.9768">
        <ele>93.476409912109</ele>
        <time>2016-04-20T13:22:41.000Z</time>
      </trkpt>
      <trkpt lat="47.03584" lon="-0.97678">
        <ele>93.771789550781</ele>
        <time>2016-04-20T13:22:43.000Z</time>
      </trkpt>
      <trkpt lat="47.03585" lon="-0.97675">
        <ele>93.966087341309</ele>
        <time>2016-04-20T13:22:46.000Z</time>
      </trkpt>
      <trkpt lat="47.03588" lon="-0.9767">
        <ele>93.603530883789</ele>
        <time>2016-04-20T13:22:50.000Z</time>
      </trkpt>
      <trkpt lat="47.0359" lon="-0.97666">
        <ele>94.127960205078</ele>
        <time>2016-04-20T13:22:52.000Z</time>
      </trkpt>
      <trkpt lat="47.03591" lon="-0.97665">
        <ele>94.630760192871</ele>
        <time>2016-04-20T13:22:54.000Z</time>
      </trkpt>
      <trkpt lat="47.03592" lon="-0.97662">
        <ele>94.652473449707</ele>
        <time>2016-04-20T13:22:56.000Z</time>
      </trkpt>
      <trkpt lat="47.03593" lon="-0.97658">
        <ele>94.249458312988</ele>
        <time>2016-04-20T13:23:01.000Z</time>
      </trkpt>
      <trkpt lat="47.03595" lon="-0.97654">
        <ele>93.484245300293</ele>
        <time>2016-04-20T13:23:04.000Z</time>
      </trkpt>
      <trkpt lat="47.03596" lon="-0.97652">
        <ele>92.165107727051</ele>
        <time>2016-04-20T13:23:08.000Z</time>
      </trkpt>
      <trkpt lat="47.03597" lon="-0.97649">
        <ele>91.693023681641</ele>
        <time>2016-04-20T13:23:13.000Z</time>
      </trkpt>
      <trkpt lat="47.03599" lon="-0.97645">
        <ele>90.389678955078</ele>
        <time>2016-04-20T13:23:16.000Z</time>
      </trkpt>
      <trkpt lat="47.036" lon="-0.97642">
        <ele>90.616928100586</ele>
        <time>2016-04-20T13:23:19.000Z</time>
      </trkpt>
      <trkpt lat="47.03601" lon="-0.97638">
        <ele>90.820365905762</ele>
        <time>2016-04-20T13:23:21.000Z</time>
      </trkpt>
      <trkpt lat="47.03603" lon="-0.97631">
        <ele>90.533378601074</ele>
        <time>2016-04-20T13:23:24.000Z</time>
      </trkpt>
      <trkpt lat="47.03605" lon="-0.97627">
        <ele>90.483558654785</ele>
        <time>2016-04-20T13:23:26.000Z</time>
      </trkpt>
      <trkpt lat="47.03606" lon="-0.97625">
        <ele>90.48616027832</ele>
        <time>2016-04-20T13:23:29.000Z</time>
      </trkpt>
      <trkpt lat="47.03607" lon="-0.97621">
        <ele>90.171203613281</ele>
        <time>2016-04-20T13:23:31.000Z</time>
      </trkpt>
      <trkpt lat="47.03607" lon="-0.97615">
        <ele>89.86686706543</ele>
        <time>2016-04-20T13:23:34.000Z</time>
      </trkpt>
      <trkpt lat="47.03607" lon="-0.97613">
        <ele>89.75025177002</ele>
        <time>2016-04-20T13:23:37.000Z</time>
      </trkpt>
      <trkpt lat="47.03608" lon="-0.97609">
        <ele>88.59846496582</ele>
        <time>2016-04-20T13:23:40.000Z</time>
      </trkpt>
      <trkpt lat="47.03609" lon="-0.97606">
        <ele>87.100204467773</ele>
        <time>2016-04-20T13:23:42.000Z</time>
      </trkpt>
      <trkpt lat="47.03611" lon="-0.97604">
        <ele>86.158828735352</ele>
        <time>2016-04-20T13:23:45.000Z</time>
      </trkpt>
      <trkpt lat="47.03611" lon="-0.97601">
        <ele>87.713821411133</ele>
        <time>2016-04-20T13:23:48.000Z</time>
      </trkpt>
      <trkpt lat="47.03613" lon="-0.97592">
        <ele>88.473747253418</ele>
        <time>2016-04-20T13:23:52.000Z</time>
      </trkpt>
      <trkpt lat="47.03613" lon="-0.97588">
        <ele>88.819854736328</ele>
        <time>2016-04-20T13:23:56.000Z</time>
      </trkpt>
      <trkpt lat="47.03614" lon="-0.97585">
        <ele>89.626411437988</ele>
        <time>2016-04-20T13:23:58.000Z</time>
      </trkpt>
      <trkpt lat="47.03614" lon="-0.97582">
        <ele>89.583366394043</ele>
        <time>2016-04-20T13:24:00.000Z</time>
      </trkpt>
      <trkpt lat="47.03616" lon="-0.97575">
        <ele>89.706520080566</ele>
        <time>2016-04-20T13:24:04.000Z</time>
      </trkpt>
      <trkpt lat="47.03617" lon="-0.97572">
        <ele>90.327110290527</ele>
        <time>2016-04-20T13:24:07.000Z</time>
      </trkpt>
      <trkpt lat="47.03618" lon="-0.97569">
        <ele>90.573387145996</ele>
        <time>2016-04-20T13:24:09.000Z</time>
      </trkpt>
      <trkpt lat="47.0362" lon="-0.97562">
        <ele>91.102073669434</ele>
        <time>2016-04-20T13:24:13.000Z</time>
      </trkpt>
      <trkpt lat="47.03622" lon="-0.97552">
        <ele>91.830497741699</ele>
        <time>2016-04-20T13:24:15.000Z</time>
      </trkpt>
      <trkpt lat="47.03625" lon="-0.97544">
        <ele>91.243087768555</ele>
        <time>2016-04-20T13:24:18.000Z</time>
      </trkpt>
      <trkpt lat="47.03626" lon="-0.97542">
        <ele>91.409614562988</ele>
        <time>2016-04-20T13:24:21.000Z</time>
      </trkpt>
      <trkpt lat="47.03625" lon="-0.97544">
        <ele>91.454536437988</ele>
        <time>2016-04-20T13:24:24.000Z</time>
      </trkpt>
      <trkpt lat="47.03626" lon="-0.97542">
        <ele>90.610198974609</ele>
        <time>2016-04-20T13:24:27.000Z</time>
      </trkpt>
      <trkpt lat="47.03627" lon="-0.97539">
        <ele>90.165664672852</ele>
        <time>2016-04-20T13:24:29.000Z</time>
      </trkpt>
      <trkpt lat="47.03629" lon="-0.97535">
        <ele>90.244186401367</ele>
        <time>2016-04-20T13:24:32.000Z</time>
      </trkpt>
      <trkpt lat="47.03629" lon="-0.97533">
        <ele>90.953338623047</ele>
        <time>2016-04-20T13:24:35.000Z</time>
      </trkpt>
      <trkpt lat="47.0363" lon="-0.97529">
        <ele>91.684814453125</ele>
        <time>2016-04-20T13:24:38.000Z</time>
      </trkpt>
      <trkpt lat="47.03632" lon="-0.97525">
        <ele>90.548370361328</ele>
        <time>2016-04-20T13:24:40.000Z</time>
      </trkpt>
      <trkpt lat="47.03632" lon="-0.97521">
        <ele>90.497032165527</ele>
        <time>2016-04-20T13:24:43.000Z</time>
      </trkpt>
      <trkpt lat="47.0363" lon="-0.97519">
        <ele>90.033218383789</ele>
        <time>2016-04-20T13:24:46.000Z</time>
      </trkpt>
      <trkpt lat="47.0363" lon="-0.97509">
        <ele>89.280654907227</ele>
        <time>2016-04-20T13:24:49.000Z</time>
      </trkpt>
      <trkpt lat="47.03631" lon="-0.97499">
        <ele>89.178283691406</ele>
        <time>2016-04-20T13:24:52.000Z</time>
      </trkpt>
      <trkpt lat="47.03632" lon="-0.97497">
        <ele>89.347480773926</ele>
        <time>2016-04-20T13:24:54.000Z</time>
      </trkpt>
      <trkpt lat="47.03633" lon="-0.97492">
        <ele>89.205413818359</ele>
        <time>2016-04-20T13:24:56.000Z</time>
      </trkpt>
      <trkpt lat="47.03634" lon="-0.9749">
        <ele>89.295478820801</ele>
        <time>2016-04-20T13:24:58.000Z</time>
      </trkpt>
      <trkpt lat="47.03637" lon="-0.97487">
        <ele>88.865516662598</ele>
        <time>2016-04-20T13:25:01.000Z</time>
      </trkpt>
      <trkpt lat="47.03638" lon="-0.97486">
        <ele>87.996932983398</ele>
        <time>2016-04-20T13:25:03.000Z</time>
      </trkpt>
      <trkpt lat="47.0364" lon="-0.97482">
        <ele>87.257453918457</ele>
        <time>2016-04-20T13:25:06.000Z</time>
      </trkpt>
      <trkpt lat="47.03643" lon="-0.97478">
        <ele>87.602249145508</ele>
        <time>2016-04-20T13:25:09.000Z</time>
      </trkpt>
      <trkpt lat="47.03644" lon="-0.97473">
        <ele>86.94066619873</ele>
        <time>2016-04-20T13:25:12.000Z</time>
      </trkpt>
      <trkpt lat="47.03645" lon="-0.97467">
        <ele>86.246208190918</ele>
        <time>2016-04-20T13:25:16.000Z</time>
      </trkpt>
      <trkpt lat="47.03648" lon="-0.97463">
        <ele>85.231674194336</ele>
        <time>2016-04-20T13:25:18.000Z</time>
      </trkpt>
      <trkpt lat="47.03651" lon="-0.97459">
        <ele>85.39567565918</ele>
        <time>2016-04-20T13:25:21.000Z</time>
      </trkpt>
      <trkpt lat="47.03654" lon="-0.97452">
        <ele>85.724380493164</ele>
        <time>2016-04-20T13:25:24.000Z</time>
      </trkpt>
      <trkpt lat="47.03655" lon="-0.97449">
        <ele>85.610580444336</ele>
        <time>2016-04-20T13:25:26.000Z</time>
      </trkpt>
      <trkpt lat="47.03657" lon="-0.97446">
        <ele>86.169250488281</ele>
        <time>2016-04-20T13:25:29.000Z</time>
      </trkpt>
      <trkpt lat="47.03658" lon="-0.97444">
        <ele>87.009819030762</ele>
        <time>2016-04-20T13:25:31.000Z</time>
      </trkpt>
      <trkpt lat="47.03659" lon="-0.9744">
        <ele>88.064674377441</ele>
        <time>2016-04-20T13:25:33.000Z</time>
      </trkpt>
      <trkpt lat="47.03661" lon="-0.97438">
        <ele>89.765899658203</ele>
        <time>2016-04-20T13:25:36.000Z</time>
      </trkpt>
      <trkpt lat="47.03664" lon="-0.97435">
        <ele>88.853614807129</ele>
        <time>2016-04-20T13:25:39.000Z</time>
      </trkpt>
      <trkpt lat="47.03666" lon="-0.97429">
        <ele>87.939247131348</ele>
        <time>2016-04-20T13:25:42.000Z</time>
      </trkpt>
      <trkpt lat="47.03666" lon="-0.97427">
        <ele>88.155296325684</ele>
        <time>2016-04-20T13:25:44.000Z</time>
      </trkpt>
      <trkpt lat="47.03668" lon="-0.97423">
        <ele>88.070365905762</ele>
        <time>2016-04-20T13:25:47.000Z</time>
      </trkpt>
      <trkpt lat="47.03671" lon="-0.97416">
        <ele>86.626892089844</ele>
        <time>2016-04-20T13:25:50.000Z</time>
      </trkpt>
      <trkpt lat="47.03672" lon="-0.97413">
        <ele>86.033805847168</ele>
        <time>2016-04-20T13:25:52.000Z</time>
      </trkpt>
      <trkpt lat="47.03674" lon="-0.9741">
        <ele>85.941337585449</ele>
        <time>2016-04-20T13:25:54.000Z</time>
      </trkpt>
      <trkpt lat="47.03675" lon="-0.97407">
        <ele>85.335319519043</ele>
        <time>2016-04-20T13:25:56.000Z</time>
      </trkpt>
      <trkpt lat="47.03676" lon="-0.97406">
        <ele>84.971954345703</ele>
        <time>2016-04-20T13:25:58.000Z</time>
      </trkpt>
      <trkpt lat="47.03677" lon="-0.97404">
        <ele>83.906402587891</ele>
        <time>2016-04-20T13:26:02.000Z</time>
      </trkpt>
      <trkpt lat="47.03679" lon="-0.97397">
        <ele>83.497817993164</ele>
        <time>2016-04-20T13:26:05.000Z</time>
      </trkpt>
      <trkpt lat="47.0368" lon="-0.97393">
        <ele>83.176246643066</ele>
        <time>2016-04-20T13:26:07.000Z</time>
      </trkpt>
      <trkpt lat="47.03681" lon="-0.9739">
        <ele>83.28125</ele>
        <time>2016-04-20T13:26:10.000Z</time>
      </trkpt>
      <trkpt lat="47.03682" lon="-0.97386">
        <ele>83.441314697266</ele>
        <time>2016-04-20T13:26:12.000Z</time>
      </trkpt>
      <trkpt lat="47.03683" lon="-0.97384">
        <ele>83.222854614258</ele>
        <time>2016-04-20T13:26:15.000Z</time>
      </trkpt>
      <trkpt lat="47.03683" lon="-0.97381">
        <ele>83.053955078125</ele>
        <time>2016-04-20T13:26:19.000Z</time>
      </trkpt>
      <trkpt lat="47.03684" lon="-0.97379">
        <ele>83.448013305664</ele>
        <time>2016-04-20T13:26:21.000Z</time>
      </trkpt>
      <trkpt lat="47.03685" lon="-0.97375">
        <ele>84.253204345703</ele>
        <time>2016-04-20T13:26:24.000Z</time>
      </trkpt>
      <trkpt lat="47.03685" lon="-0.9737">
        <ele>84.95401763916</ele>
        <time>2016-04-20T13:26:26.000Z</time>
      </trkpt>
      <trkpt lat="47.03686" lon="-0.97365">
        <ele>85.342407226562</ele>
        <time>2016-04-20T13:26:30.000Z</time>
      </trkpt>
      <trkpt lat="47.03687" lon="-0.97361">
        <ele>85.249671936035</ele>
        <time>2016-04-20T13:26:32.000Z</time>
      </trkpt>
      <trkpt lat="47.03687" lon="-0.97353">
        <ele>84.962997436523</ele>
        <time>2016-04-20T13:26:35.000Z</time>
      </trkpt>
      <trkpt lat="47.03688" lon="-0.97351">
        <ele>85.590171813965</ele>
        <time>2016-04-20T13:26:38.000Z</time>
      </trkpt>
      <trkpt lat="47.0369" lon="-0.97346">
        <ele>85.814178466797</ele>
        <time>2016-04-20T13:26:41.000Z</time>
      </trkpt>
      <trkpt lat="47.03692" lon="-0.97339">
        <ele>85.241592407227</ele>
        <time>2016-04-20T13:26:44.000Z</time>
      </trkpt>
      <trkpt lat="47.03695" lon="-0.97332">
        <ele>84.098907470703</ele>
        <time>2016-04-20T13:26:48.000Z</time>
      </trkpt>
      <trkpt lat="47.03696" lon="-0.97327">
        <ele>83.111351013184</ele>
        <time>2016-04-20T13:26:52.000Z</time>
      </trkpt>
      <trkpt lat="47.03697" lon="-0.97324">
        <ele>82.877464294434</ele>
        <time>2016-04-20T13:26:54.000Z</time>
      </trkpt>
      <trkpt lat="47.03697" lon="-0.97319">
        <ele>81.67552947998</ele>
        <time>2016-04-20T13:26:59.000Z</time>
      </trkpt>
      <trkpt lat="47.03699" lon="-0.97311">
        <ele>79.977264404297</ele>
        <time>2016-04-20T13:27:02.000Z</time>
      </trkpt>
      <trkpt lat="47.03701" lon="-0.97306">
        <ele>78.903022766113</ele>
        <time>2016-04-20T13:27:04.000Z</time>
      </trkpt>
      <trkpt lat="47.03702" lon="-0.973">
        <ele>79.683807373047</ele>
        <time>2016-04-20T13:27:07.000Z</time>
      </trkpt>
      <trkpt lat="47.03703" lon="-0.97297">
        <ele>80.473373413086</ele>
        <time>2016-04-20T13:27:12.000Z</time>
      </trkpt>
      <trkpt lat="47.03703" lon="-0.97295">
        <ele>80.743827819824</ele>
        <time>2016-04-20T13:27:14.000Z</time>
      </trkpt>
      <trkpt lat="47.03706" lon="-0.97289">
        <ele>81.114143371582</ele>
        <time>2016-04-20T13:27:17.000Z</time>
      </trkpt>
      <trkpt lat="47.03708" lon="-0.97282">
        <ele>80.604827880859</ele>
        <time>2016-04-20T13:27:20.000Z</time>
      </trkpt>
      <trkpt lat="47.03708" lon="-0.97278">
        <ele>80.253067016602</ele>
        <time>2016-04-20T13:27:23.000Z</time>
      </trkpt>
      <trkpt lat="47.03711" lon="-0.97269">
        <ele>78.476943969727</ele>
        <time>2016-04-20T13:27:28.000Z</time>
      </trkpt>
      <trkpt lat="47.03711" lon="-0.97262">
        <ele>79.663764953613</ele>
        <time>2016-04-20T13:27:31.000Z</time>
      </trkpt>
      <trkpt lat="47.03712" lon="-0.9726">
        <ele>82.541809082031</ele>
        <time>2016-04-20T13:27:34.000Z</time>
      </trkpt>
      <trkpt lat="47.03714" lon="-0.97255">
        <ele>83.91349029541</ele>
        <time>2016-04-20T13:27:38.000Z</time>
      </trkpt>
      <trkpt lat="47.03714" lon="-0.97251">
        <ele>83.980010986328</ele>
        <time>2016-04-20T13:27:41.000Z</time>
      </trkpt>
      <trkpt lat="47.03714" lon="-0.97246">
        <ele>83.725624084473</ele>
        <time>2016-04-20T13:27:43.000Z</time>
      </trkpt>
      <trkpt lat="47.03716" lon="-0.9724">
        <ele>83.294486999512</ele>
        <time>2016-04-20T13:27:45.000Z</time>
      </trkpt>
      <trkpt lat="47.03716" lon="-0.97238">
        <ele>82.950500488281</ele>
        <time>2016-04-20T13:27:47.000Z</time>
      </trkpt>
      <trkpt lat="47.03719" lon="-0.97232">
        <ele>82.05493927002</ele>
        <time>2016-04-20T13:27:50.000Z</time>
      </trkpt>
      <trkpt lat="47.0372" lon="-0.97228">
        <ele>81.287414550781</ele>
        <time>2016-04-20T13:27:52.000Z</time>
      </trkpt>
      <trkpt lat="47.0372" lon="-0.97224">
        <ele>80.995094299316</ele>
        <time>2016-04-20T13:27:55.000Z</time>
      </trkpt>
      <trkpt lat="47.03722" lon="-0.97216">
        <ele>80.410530090332</ele>
        <time>2016-04-20T13:27:58.000Z</time>
      </trkpt>
      <trkpt lat="47.03722" lon="-0.97212">
        <ele>80.537506103516</ele>
        <time>2016-04-20T13:28:01.000Z</time>
      </trkpt>
      <trkpt lat="47.03722" lon="-0.97209">
        <ele>80.206748962402</ele>
        <time>2016-04-20T13:28:03.000Z</time>
      </trkpt>
      <trkpt lat="47.03722" lon="-0.97202">
        <ele>79.106185913086</ele>
        <time>2016-04-20T13:28:06.000Z</time>
      </trkpt>
      <trkpt lat="47.03724" lon="-0.972">
        <ele>78.993659973145</ele>
        <time>2016-04-20T13:28:08.000Z</time>
      </trkpt>
      <trkpt lat="47.03725" lon="-0.97193">
        <ele>78.613319396973</ele>
        <time>2016-04-20T13:28:11.000Z</time>
      </trkpt>
      <trkpt lat="47.03726" lon="-0.97192">
        <ele>78.546340942383</ele>
        <time>2016-04-20T13:28:13.000Z</time>
      </trkpt>
      <trkpt lat="47.03728" lon="-0.97189">
        <ele>81.142639160156</ele>
        <time>2016-04-20T13:28:16.000Z</time>
      </trkpt>
      <trkpt lat="47.0373" lon="-0.97186">
        <ele>82.59880065918</ele>
        <time>2016-04-20T13:28:18.000Z</time>
      </trkpt>
      <trkpt lat="47.03731" lon="-0.97182">
        <ele>83.433654785156</ele>
        <time>2016-04-20T13:28:21.000Z</time>
      </trkpt>
      <trkpt lat="47.03733" lon="-0.97176">
        <ele>83.862548828125</ele>
        <time>2016-04-20T13:28:24.000Z</time>
      </trkpt>
      <trkpt lat="47.03733" lon="-0.97173">
        <ele>83.992263793945</ele>
        <time>2016-04-20T13:28:26.000Z</time>
      </trkpt>
      <trkpt lat="47.03735" lon="-0.97171">
        <ele>85.035011291504</ele>
        <time>2016-04-20T13:28:29.000Z</time>
      </trkpt>
      <trkpt lat="47.03735" lon="-0.97164">
        <ele>85.267852783203</ele>
        <time>2016-04-20T13:28:32.000Z</time>
      </trkpt>
      <trkpt lat="47.03735" lon="-0.97158">
        <ele>85.079917907715</ele>
        <time>2016-04-20T13:28:35.000Z</time>
      </trkpt>
      <trkpt lat="47.03734" lon="-0.97154">
        <ele>84.519081115723</ele>
        <time>2016-04-20T13:28:37.000Z</time>
      </trkpt>
      <trkpt lat="47.03735" lon="-0.97149">
        <ele>83.721778869629</ele>
        <time>2016-04-20T13:28:39.000Z</time>
      </trkpt>
      <trkpt lat="47.03734" lon="-0.97145">
        <ele>82.479598999023</ele>
        <time>2016-04-20T13:28:42.000Z</time>
      </trkpt>
      <trkpt lat="47.03735" lon="-0.97142">
        <ele>81.231781005859</ele>
        <time>2016-04-20T13:28:45.000Z</time>
      </trkpt>
      <trkpt lat="47.03735" lon="-0.97142">
        <ele>81.082862854004</ele>
        <time>2016-04-20T13:28:48.000Z</time>
      </trkpt>
      <trkpt lat="47.03737" lon="-0.97135">
        <ele>80.628448486328</ele>
        <time>2016-04-20T13:28:51.000Z</time>
      </trkpt>
      <trkpt lat="47.03739" lon="-0.9713">
        <ele>80.179100036621</ele>
        <time>2016-04-20T13:28:53.000Z</time>
      </trkpt>
      <trkpt lat="47.0374" lon="-0.97128">
        <ele>79.718544006348</ele>
        <time>2016-04-20T13:28:55.000Z</time>
      </trkpt>
      <trkpt lat="47.03741" lon="-0.97127">
        <ele>79.567276000977</ele>
        <time>2016-04-20T13:29:00.000Z</time>
      </trkpt>
      <trkpt lat="47.03743" lon="-0.97123">
        <ele>79.337768554688</ele>
        <time>2016-04-20T13:29:02.000Z</time>
      </trkpt>
      <trkpt lat="47.03745" lon="-0.97117">
        <ele>79.755546569824</ele>
        <time>2016-04-20T13:29:04.000Z</time>
      </trkpt>
      <trkpt lat="47.03748" lon="-0.97113">
        <ele>79.110084533691</ele>
        <time>2016-04-20T13:29:07.000Z</time>
      </trkpt>
      <trkpt lat="47.03749" lon="-0.9711">
        <ele>78.142913818359</ele>
        <time>2016-04-20T13:29:10.000Z</time>
      </trkpt>
      <trkpt lat="47.03751" lon="-0.97105">
        <ele>78.152557373047</ele>
        <time>2016-04-20T13:29:12.000Z</time>
      </trkpt>
      <trkpt lat="47.03753" lon="-0.97101">
        <ele>78.049545288086</ele>
        <time>2016-04-20T13:29:14.000Z</time>
      </trkpt>
      <trkpt lat="47.03755" lon="-0.97095">
        <ele>77.170524597168</ele>
        <time>2016-04-20T13:29:17.000Z</time>
      </trkpt>
      <trkpt lat="47.03756" lon="-0.97092">
        <ele>77.846839904785</ele>
        <time>2016-04-20T13:29:19.000Z</time>
      </trkpt>
      <trkpt lat="47.03756" lon="-0.97088">
        <ele>77.951927185059</ele>
        <time>2016-04-20T13:29:21.000Z</time>
      </trkpt>
      <trkpt lat="47.03757" lon="-0.97084">
        <ele>78.121391296387</ele>
        <time>2016-04-20T13:29:24.000Z</time>
      </trkpt>
      <trkpt lat="47.03759" lon="-0.9708">
        <ele>78.924301147461</ele>
        <time>2016-04-20T13:29:27.000Z</time>
      </trkpt>
      <trkpt lat="47.03759" lon="-0.97076">
        <ele>80.041091918945</ele>
        <time>2016-04-20T13:29:29.000Z</time>
      </trkpt>
      <trkpt lat="47.03759" lon="-0.97075">
        <ele>80.187324523926</ele>
        <time>2016-04-20T13:29:31.000Z</time>
      </trkpt>
      <trkpt lat="47.03761" lon="-0.97068">
        <ele>80.328674316406</ele>
        <time>2016-04-20T13:29:34.000Z</time>
      </trkpt>
      <trkpt lat="47.03764" lon="-0.97064">
        <ele>82.062049865723</ele>
        <time>2016-04-20T13:29:37.000Z</time>
      </trkpt>
      <trkpt lat="47.03766" lon="-0.97061">
        <ele>82.500709533691</ele>
        <time>2016-04-20T13:29:40.000Z</time>
      </trkpt>
      <trkpt lat="47.03768" lon="-0.97057">
        <ele>82.211235046387</ele>
        <time>2016-04-20T13:29:43.000Z</time>
      </trkpt>
      <trkpt lat="47.03769" lon="-0.97054">
        <ele>82.291397094727</ele>
        <time>2016-04-20T13:29:45.000Z</time>
      </trkpt>
      <trkpt lat="47.03771" lon="-0.97049">
        <ele>81.693542480469</ele>
        <time>2016-04-20T13:29:48.000Z</time>
      </trkpt>
      <trkpt lat="47.03772" lon="-0.97046">
        <ele>81.24299621582</ele>
        <time>2016-04-20T13:29:50.000Z</time>
      </trkpt>
      <trkpt lat="47.03776" lon="-0.97042">
        <ele>80.46021270752</ele>
        <time>2016-04-20T13:29:53.000Z</time>
      </trkpt>
      <trkpt lat="47.03778" lon="-0.97039">
        <ele>82.054306030273</ele>
        <time>2016-04-20T13:29:56.000Z</time>
      </trkpt>
      <trkpt lat="47.03778" lon="-0.97035">
        <ele>83.448081970215</ele>
        <time>2016-04-20T13:29:59.000Z</time>
      </trkpt>
      <trkpt lat="47.03779" lon="-0.97031">
        <ele>83.470687866211</ele>
        <time>2016-04-20T13:30:01.000Z</time>
      </trkpt>
      <trkpt lat="47.0378" lon="-0.97028">
        <ele>83.969429016113</ele>
        <time>2016-04-20T13:30:04.000Z</time>
      </trkpt>
      <trkpt lat="47.03781" lon="-0.97026">
        <ele>82.139503479004</ele>
        <time>2016-04-20T13:30:08.000Z</time>
      </trkpt>
      <trkpt lat="47.03786" lon="-0.97022">
        <ele>80.26513671875</ele>
        <time>2016-04-20T13:30:11.000Z</time>
      </trkpt>
      <trkpt lat="47.03788" lon="-0.97016">
        <ele>79.764068603516</ele>
        <time>2016-04-20T13:30:14.000Z</time>
      </trkpt>
      <trkpt lat="47.0379" lon="-0.97009">
        <ele>78.85368347168</ele>
        <time>2016-04-20T13:30:17.000Z</time>
      </trkpt>
      <trkpt lat="47.03791" lon="-0.97004">
        <ele>77.824699401855</ele>
        <time>2016-04-20T13:30:20.000Z</time>
      </trkpt>
      <trkpt lat="47.03793" lon="-0.96999">
        <ele>77.394668579102</ele>
        <time>2016-04-20T13:30:22.000Z</time>
      </trkpt>
      <trkpt lat="47.03795" lon="-0.96993">
        <ele>77.057525634766</ele>
        <time>2016-04-20T13:30:24.000Z</time>
      </trkpt>
      <trkpt lat="47.03797" lon="-0.96988">
        <ele>76.638717651367</ele>
        <time>2016-04-20T13:30:27.000Z</time>
      </trkpt>
      <trkpt lat="47.03798" lon="-0.96986">
        <ele>76.77889251709</ele>
        <time>2016-04-20T13:30:30.000Z</time>
      </trkpt>
      <trkpt lat="47.03799" lon="-0.96981">
        <ele>76.303314208984</ele>
        <time>2016-04-20T13:30:32.000Z</time>
      </trkpt>
      <trkpt lat="47.03801" lon="-0.96976">
        <ele>75.454818725586</ele>
        <time>2016-04-20T13:30:34.000Z</time>
      </trkpt>
      <trkpt lat="47.03804" lon="-0.96973">
        <ele>74.110015869141</ele>
        <time>2016-04-20T13:30:37.000Z</time>
      </trkpt>
      <trkpt lat="47.03804" lon="-0.96971">
        <ele>73.896614074707</ele>
        <time>2016-04-20T13:30:39.000Z</time>
      </trkpt>
      <trkpt lat="47.03804" lon="-0.96967">
        <ele>73.305702209473</ele>
        <time>2016-04-20T13:30:41.000Z</time>
      </trkpt>
      <trkpt lat="47.03804" lon="-0.96963">
        <ele>72.579238891602</ele>
        <time>2016-04-20T13:30:43.000Z</time>
      </trkpt>
      <trkpt lat="47.03806" lon="-0.96953">
        <ele>70.756782531738</ele>
        <time>2016-04-20T13:30:46.000Z</time>
      </trkpt>
      <trkpt lat="47.03806" lon="-0.9695">
        <ele>70.851142883301</ele>
        <time>2016-04-20T13:30:54.000Z</time>
      </trkpt>
      <trkpt lat="47.03807" lon="-0.96948">
        <ele>71.476402282715</ele>
        <time>2016-04-20T13:30:57.000Z</time>
      </trkpt>
      <trkpt lat="47.03808" lon="-0.96944">
        <ele>72.88533782959</ele>
        <time>2016-04-20T13:30:59.000Z</time>
      </trkpt>
      <trkpt lat="47.0381" lon="-0.96938">
        <ele>75.10572052002</ele>
        <time>2016-04-20T13:31:02.000Z</time>
      </trkpt>
      <trkpt lat="47.0381" lon="-0.96936">
        <ele>74.551071166992</ele>
        <time>2016-04-20T13:31:05.000Z</time>
      </trkpt>
      <trkpt lat="47.03811" lon="-0.96933">
        <ele>74.280822753906</ele>
        <time>2016-04-20T13:31:08.000Z</time>
      </trkpt>
      <trkpt lat="47.03812" lon="-0.96929">
        <ele>74.339599609375</ele>
        <time>2016-04-20T13:31:10.000Z</time>
      </trkpt>
      <trkpt lat="47.03815" lon="-0.96922">
        <ele>75.357002258301</ele>
        <time>2016-04-20T13:31:13.000Z</time>
      </trkpt>
      <trkpt lat="47.03817" lon="-0.96916">
        <ele>77.172103881836</ele>
        <time>2016-04-20T13:31:16.000Z</time>
      </trkpt>
      <trkpt lat="47.0382" lon="-0.96913">
        <ele>76.52116394043</ele>
        <time>2016-04-20T13:31:18.000Z</time>
      </trkpt>
      <trkpt lat="47.03823" lon="-0.96911">
        <ele>75.957847595215</ele>
        <time>2016-04-20T13:31:21.000Z</time>
      </trkpt>
      <trkpt lat="47.03827" lon="-0.96906">
        <ele>76.166107177734</ele>
        <time>2016-04-20T13:31:24.000Z</time>
      </trkpt>
      <trkpt lat="47.03831" lon="-0.96903">
        <ele>77.211448669434</ele>
        <time>2016-04-20T13:31:28.000Z</time>
      </trkpt>
      <trkpt lat="47.03833" lon="-0.96902">
        <ele>77.857604980469</ele>
        <time>2016-04-20T13:31:30.000Z</time>
      </trkpt>
      <trkpt lat="47.03835" lon="-0.96899">
        <ele>78.056640625</ele>
        <time>2016-04-20T13:31:32.000Z</time>
      </trkpt>
      <trkpt lat="47.03836" lon="-0.96899">
        <ele>77.745590209961</ele>
        <time>2016-04-20T13:31:34.000Z</time>
      </trkpt>
      <trkpt lat="47.03841" lon="-0.96896">
        <ele>78.289611816406</ele>
        <time>2016-04-20T13:31:37.000Z</time>
      </trkpt>
      <trkpt lat="47.03843" lon="-0.96895">
        <ele>79.223373413086</ele>
        <time>2016-04-20T13:31:39.000Z</time>
      </trkpt>
      <trkpt lat="47.03845" lon="-0.96894">
        <ele>80.712272644043</ele>
        <time>2016-04-20T13:31:41.000Z</time>
      </trkpt>
      <trkpt lat="47.03847" lon="-0.96893">
        <ele>81.628730773926</ele>
        <time>2016-04-20T13:31:43.000Z</time>
      </trkpt>
      <trkpt lat="47.0385" lon="-0.96891">
        <ele>81.831314086914</ele>
        <time>2016-04-20T13:31:46.000Z</time>
      </trkpt>
      <trkpt lat="47.03855" lon="-0.96889">
        <ele>81.855247497559</ele>
        <time>2016-04-20T13:31:49.000Z</time>
      </trkpt>
      <trkpt lat="47.03856" lon="-0.96889">
        <ele>82.062309265137</ele>
        <time>2016-04-20T13:31:51.000Z</time>
      </trkpt>
      <trkpt lat="47.03859" lon="-0.96887">
        <ele>82.573181152344</ele>
        <time>2016-04-20T13:31:55.000Z</time>
      </trkpt>
      <trkpt lat="47.0386" lon="-0.96886">
        <ele>83.327461242676</ele>
        <time>2016-04-20T13:31:57.000Z</time>
      </trkpt>
      <trkpt lat="47.03863" lon="-0.96884">
        <ele>84.785926818848</ele>
        <time>2016-04-20T13:32:03.000Z</time>
      </trkpt>
      <trkpt lat="47.03864" lon="-0.96882">
        <ele>84.627349853516</ele>
        <time>2016-04-20T13:32:17.000Z</time>
      </trkpt>
      <trkpt lat="47.03865" lon="-0.96881">
        <ele>84.812561035156</ele>
        <time>2016-04-20T13:32:20.000Z</time>
      </trkpt>
      <trkpt lat="47.03867" lon="-0.96877">
        <ele>86.37020111084</ele>
        <time>2016-04-20T13:32:23.000Z</time>
      </trkpt>
      <trkpt lat="47.03867" lon="-0.96873">
        <ele>87.464584350586</ele>
        <time>2016-04-20T13:32:26.000Z</time>
      </trkpt>
      <trkpt lat="47.03867" lon="-0.96869">
        <ele>88.425941467285</ele>
        <time>2016-04-20T13:32:28.000Z</time>
      </trkpt>
      <trkpt lat="47.03867" lon="-0.96866">
        <ele>88.940505981445</ele>
        <time>2016-04-20T13:32:30.000Z</time>
      </trkpt>
      <trkpt lat="47.03868" lon="-0.96861">
        <ele>89.28931427002</ele>
        <time>2016-04-20T13:32:33.000Z</time>
      </trkpt>
      <trkpt lat="47.0387" lon="-0.96857">
        <ele>89.748176574707</ele>
        <time>2016-04-20T13:32:35.000Z</time>
      </trkpt>
      <trkpt lat="47.03872" lon="-0.96852">
        <ele>89.706756591797</ele>
        <time>2016-04-20T13:32:38.000Z</time>
      </trkpt>
      <trkpt lat="47.03873" lon="-0.96849">
        <ele>89.525520324707</ele>
        <time>2016-04-20T13:32:40.000Z</time>
      </trkpt>
      <trkpt lat="47.03874" lon="-0.96846">
        <ele>89.121910095215</ele>
        <time>2016-04-20T13:32:42.000Z</time>
      </trkpt>
      <trkpt lat="47.03876" lon="-0.96841">
        <ele>88.870468139648</ele>
        <time>2016-04-20T13:32:46.000Z</time>
      </trkpt>
      <trkpt lat="47.03878" lon="-0.96837">
        <ele>88.645324707031</ele>
        <time>2016-04-20T13:32:48.000Z</time>
      </trkpt>
      <trkpt lat="47.0388" lon="-0.96834">
        <ele>89.233558654785</ele>
        <time>2016-04-20T13:32:50.000Z</time>
      </trkpt>
      <trkpt lat="47.03882" lon="-0.96831">
        <ele>90.466491699219</ele>
        <time>2016-04-20T13:32:53.000Z</time>
      </trkpt>
      <trkpt lat="47.03884" lon="-0.96829">
        <ele>90.506454467773</ele>
        <time>2016-04-20T13:32:55.000Z</time>
      </trkpt>
      <trkpt lat="47.03885" lon="-0.96826">
        <ele>91.306915283203</ele>
        <time>2016-04-20T13:32:58.000Z</time>
      </trkpt>
      <trkpt lat="47.03888" lon="-0.96821">
        <ele>92.131500244141</ele>
        <time>2016-04-20T13:33:01.000Z</time>
      </trkpt>
      <trkpt lat="47.03889" lon="-0.96818">
        <ele>92.439056396484</ele>
        <time>2016-04-20T13:33:03.000Z</time>
      </trkpt>
      <trkpt lat="47.03891" lon="-0.96815">
        <ele>93.240303039551</ele>
        <time>2016-04-20T13:33:05.000Z</time>
      </trkpt>
      <trkpt lat="47.03892" lon="-0.96813">
        <ele>93.887588500977</ele>
        <time>2016-04-20T13:33:08.000Z</time>
      </trkpt>
      <trkpt lat="47.03894" lon="-0.9681">
        <ele>94.869445800781</ele>
        <time>2016-04-20T13:33:10.000Z</time>
      </trkpt>
      <trkpt lat="47.03897" lon="-0.96806">
        <ele>94.543380737305</ele>
        <time>2016-04-20T13:33:13.000Z</time>
      </trkpt>
      <trkpt lat="47.03899" lon="-0.96802">
        <ele>93.706352233887</ele>
        <time>2016-04-20T13:33:16.000Z</time>
      </trkpt>
      <trkpt lat="47.03901" lon="-0.96799">
        <ele>93.48014831543</ele>
        <time>2016-04-20T13:33:18.000Z</time>
      </trkpt>
      <trkpt lat="47.03903" lon="-0.96796">
        <ele>94.218704223633</ele>
        <time>2016-04-20T13:33:21.000Z</time>
      </trkpt>
      <trkpt lat="47.03904" lon="-0.96794">
        <ele>94.082084655762</ele>
        <time>2016-04-20T13:33:23.000Z</time>
      </trkpt>
      <trkpt lat="47.03907" lon="-0.9679">
        <ele>92.596122741699</ele>
        <time>2016-04-20T13:33:27.000Z</time>
      </trkpt>
      <trkpt lat="47.03908" lon="-0.96787">
        <ele>94.099449157715</ele>
        <time>2016-04-20T13:33:30.000Z</time>
      </trkpt>
      <trkpt lat="47.03909" lon="-0.96786">
        <ele>94.812950134277</ele>
        <time>2016-04-20T13:33:32.000Z</time>
      </trkpt>
      <trkpt lat="47.03911" lon="-0.96783">
        <ele>95.715927124023</ele>
        <time>2016-04-20T13:33:35.000Z</time>
      </trkpt>
      <trkpt lat="47.03913" lon="-0.96777">
        <ele>96.100883483887</ele>
        <time>2016-04-20T13:33:38.000Z</time>
      </trkpt>
      <trkpt lat="47.03915" lon="-0.96774">
        <ele>95.824462890625</ele>
        <time>2016-04-20T13:33:41.000Z</time>
      </trkpt>
      <trkpt lat="47.03917" lon="-0.96771">
        <ele>95.957290649414</ele>
        <time>2016-04-20T13:33:43.000Z</time>
      </trkpt>
      <trkpt lat="47.03919" lon="-0.96767">
        <ele>96.465087890625</ele>
        <time>2016-04-20T13:33:46.000Z</time>
      </trkpt>
      <trkpt lat="47.0392" lon="-0.96765">
        <ele>96.899551391602</ele>
        <time>2016-04-20T13:33:49.000Z</time>
      </trkpt>
      <trkpt lat="47.03922" lon="-0.96761">
        <ele>96.996841430664</ele>
        <time>2016-04-20T13:33:51.000Z</time>
      </trkpt>
      <trkpt lat="47.03925" lon="-0.96755">
        <ele>95.672248840332</ele>
        <time>2016-04-20T13:33:53.000Z</time>
      </trkpt>
      <trkpt lat="47.03927" lon="-0.9675">
        <ele>93.731559753418</ele>
        <time>2016-04-20T13:33:56.000Z</time>
      </trkpt>
      <trkpt lat="47.03929" lon="-0.96749">
        <ele>94.565948486328</ele>
        <time>2016-04-20T13:33:59.000Z</time>
      </trkpt>
      <trkpt lat="47.03933" lon="-0.96744">
        <ele>94.736793518066</ele>
        <time>2016-04-20T13:34:02.000Z</time>
      </trkpt>
      <trkpt lat="47.03935" lon="-0.96741">
        <ele>94.136367797852</ele>
        <time>2016-04-20T13:34:04.000Z</time>
      </trkpt>
      <trkpt lat="47.03938" lon="-0.96737">
        <ele>93.35181427002</ele>
        <time>2016-04-20T13:34:07.000Z</time>
      </trkpt>
      <trkpt lat="47.03939" lon="-0.96734">
        <ele>92.955200195312</ele>
        <time>2016-04-20T13:34:10.000Z</time>
      </trkpt>
      <trkpt lat="47.03944" lon="-0.96728">
        <ele>91.362174987793</ele>
        <time>2016-04-20T13:34:13.000Z</time>
      </trkpt>
      <trkpt lat="47.03946" lon="-0.96727">
        <ele>91.368881225586</ele>
        <time>2016-04-20T13:34:16.000Z</time>
      </trkpt>
      <trkpt lat="47.03947" lon="-0.96727">
        <ele>92.58846282959</ele>
        <time>2016-04-20T13:34:18.000Z</time>
      </trkpt>
      <trkpt lat="47.03948" lon="-0.96727">
        <ele>92.77303314209</ele>
        <time>2016-04-20T13:34:21.000Z</time>
      </trkpt>
      <trkpt lat="47.03951" lon="-0.96726">
        <ele>92.674560546875</ele>
        <time>2016-04-20T13:34:24.000Z</time>
      </trkpt>
      <trkpt lat="47.03953" lon="-0.96726">
        <ele>93.456634521484</ele>
        <time>2016-04-20T13:34:26.000Z</time>
      </trkpt>
      <trkpt lat="47.03956" lon="-0.96727">
        <ele>94.299766540527</ele>
        <time>2016-04-20T13:34:29.000Z</time>
      </trkpt>
      <trkpt lat="47.0396" lon="-0.96726">
        <ele>94.486190795898</ele>
        <time>2016-04-20T13:34:32.000Z</time>
      </trkpt>
      <trkpt lat="47.03963" lon="-0.96724">
        <ele>94.872497558594</ele>
        <time>2016-04-20T13:34:35.000Z</time>
      </trkpt>
      <trkpt lat="47.03965" lon="-0.96722">
        <ele>95.985054016113</ele>
        <time>2016-04-20T13:34:37.000Z</time>
      </trkpt>
      <trkpt lat="47.03967" lon="-0.96721">
        <ele>96.27734375</ele>
        <time>2016-04-20T13:34:39.000Z</time>
      </trkpt>
      <trkpt lat="47.0397" lon="-0.9672">
        <ele>97.619529724121</ele>
        <time>2016-04-20T13:34:42.000Z</time>
      </trkpt>
      <trkpt lat="47.03971" lon="-0.96718">
        <ele>96.611152648926</ele>
        <time>2016-04-20T13:34:44.000Z</time>
      </trkpt>
      <trkpt lat="47.03974" lon="-0.96716">
        <ele>95.721343994141</ele>
        <time>2016-04-20T13:34:46.000Z</time>
      </trkpt>
      <trkpt lat="47.03977" lon="-0.96715">
        <ele>95.443016052246</ele>
        <time>2016-04-20T13:34:48.000Z</time>
      </trkpt>
      <trkpt lat="47.03981" lon="-0.96714">
        <ele>94.580894470215</ele>
        <time>2016-04-20T13:34:51.000Z</time>
      </trkpt>
      <trkpt lat="47.03983" lon="-0.96713">
        <ele>94.82837677002</ele>
        <time>2016-04-20T13:34:54.000Z</time>
      </trkpt>
      <trkpt lat="47.03987" lon="-0.96713">
        <ele>95.418403625488</ele>
        <time>2016-04-20T13:34:57.000Z</time>
      </trkpt>
      <trkpt lat="47.03991" lon="-0.96712">
        <ele>95.84716796875</ele>
        <time>2016-04-20T13:35:00.000Z</time>
      </trkpt>
      <trkpt lat="47.03996" lon="-0.9671">
        <ele>97.158042907715</ele>
        <time>2016-04-20T13:35:03.000Z</time>
      </trkpt>
      <trkpt lat="47.03998" lon="-0.9671">
        <ele>97.418640136719</ele>
        <time>2016-04-20T13:35:05.000Z</time>
      </trkpt>
      <trkpt lat="47.04" lon="-0.96709">
        <ele>96.832534790039</ele>
        <time>2016-04-20T13:35:08.000Z</time>
      </trkpt>
      <trkpt lat="47.04004" lon="-0.96708">
        <ele>96.39533996582</ele>
        <time>2016-04-20T13:35:10.000Z</time>
      </trkpt>
      <trkpt lat="47.04007" lon="-0.96707">
        <ele>97.497383117676</ele>
        <time>2016-04-20T13:35:13.000Z</time>
      </trkpt>
      <trkpt lat="47.04012" lon="-0.96707">
        <ele>98.420433044434</ele>
        <time>2016-04-20T13:35:16.000Z</time>
      </trkpt>
      <trkpt lat="47.04013" lon="-0.96707">
        <ele>98.735237121582</ele>
        <time>2016-04-20T13:35:19.000Z</time>
      </trkpt>
      <trkpt lat="47.04014" lon="-0.96707">
        <ele>98.960334777832</ele>
        <time>2016-04-20T13:35:21.000Z</time>
      </trkpt>
      <trkpt lat="47.04019" lon="-0.96707">
        <ele>99.846588134766</ele>
        <time>2016-04-20T13:35:24.000Z</time>
      </trkpt>
      <trkpt lat="47.04023" lon="-0.96706">
        <ele>99.975524902344</ele>
        <time>2016-04-20T13:35:27.000Z</time>
      </trkpt>
      <trkpt lat="47.04026" lon="-0.96706">
        <ele>101.83041381836</ele>
        <time>2016-04-20T13:35:30.000Z</time>
      </trkpt>
      <trkpt lat="47.0403" lon="-0.96706">
        <ele>103.39687347412</ele>
        <time>2016-04-20T13:35:33.000Z</time>
      </trkpt>
      <trkpt lat="47.04035" lon="-0.96704">
        <ele>103.06251525879</ele>
        <time>2016-04-20T13:35:36.000Z</time>
      </trkpt>
      <trkpt lat="47.04037" lon="-0.96704">
        <ele>103.14615631104</ele>
        <time>2016-04-20T13:35:38.000Z</time>
      </trkpt>
      <trkpt lat="47.04042" lon="-0.96702">
        <ele>101.61627197266</ele>
        <time>2016-04-20T13:35:42.000Z</time>
      </trkpt>
      <trkpt lat="47.04046" lon="-0.96701">
        <ele>102.33526611328</ele>
        <time>2016-04-20T13:35:46.000Z</time>
      </trkpt>
      <trkpt lat="47.0405" lon="-0.96701">
        <ele>103.08464050293</ele>
        <time>2016-04-20T13:35:49.000Z</time>
      </trkpt>
      <trkpt lat="47.04053" lon="-0.96702">
        <ele>103.91770935059</ele>
        <time>2016-04-20T13:35:52.000Z</time>
      </trkpt>
      <trkpt lat="47.04057" lon="-0.96702">
        <ele>104.46558380127</ele>
        <time>2016-04-20T13:35:54.000Z</time>
      </trkpt>
      <trkpt lat="47.0406" lon="-0.96701">
        <ele>104.48435974121</ele>
        <time>2016-04-20T13:35:57.000Z</time>
      </trkpt>
      <trkpt lat="47.04064" lon="-0.967">
        <ele>103.6138458252</ele>
        <time>2016-04-20T13:35:59.000Z</time>
      </trkpt>
      <trkpt lat="47.04069" lon="-0.96699">
        <ele>103.46672058105</ele>
        <time>2016-04-20T13:36:03.000Z</time>
      </trkpt>
      <trkpt lat="47.04073" lon="-0.96699">
        <ele>103.93868255615</ele>
        <time>2016-04-20T13:36:06.000Z</time>
      </trkpt>
      <trkpt lat="47.04078" lon="-0.96699">
        <ele>103.49900817871</ele>
        <time>2016-04-20T13:36:09.000Z</time>
      </trkpt>
      <trkpt lat="47.04082" lon="-0.96699">
        <ele>102.64347076416</ele>
        <time>2016-04-20T13:36:12.000Z</time>
      </trkpt>
      <trkpt lat="47.04084" lon="-0.96699">
        <ele>102.48163604736</ele>
        <time>2016-04-20T13:36:14.000Z</time>
      </trkpt>
      <trkpt lat="47.04086" lon="-0.96699">
        <ele>102.47113800049</ele>
        <time>2016-04-20T13:36:16.000Z</time>
      </trkpt>
      <trkpt lat="47.0409" lon="-0.96699">
        <ele>101.51718139648</ele>
        <time>2016-04-20T13:36:19.000Z</time>
      </trkpt>
      <trkpt lat="47.04093" lon="-0.967">
        <ele>102.07430267334</ele>
        <time>2016-04-20T13:36:22.000Z</time>
      </trkpt>
      <trkpt lat="47.04095" lon="-0.96699">
        <ele>102.00031280518</ele>
        <time>2016-04-20T13:36:24.000Z</time>
      </trkpt>
      <trkpt lat="47.04099" lon="-0.96699">
        <ele>101.51139831543</ele>
        <time>2016-04-20T13:36:26.000Z</time>
      </trkpt>
      <trkpt lat="47.04103" lon="-0.96699">
        <ele>99.674491882324</ele>
        <time>2016-04-20T13:36:29.000Z</time>
      </trkpt>
      <trkpt lat="47.04106" lon="-0.96698">
        <ele>100.28046417236</ele>
        <time>2016-04-20T13:36:32.000Z</time>
      </trkpt>
      <trkpt lat="47.04109" lon="-0.96697">
        <ele>100.12784576416</ele>
        <time>2016-04-20T13:36:34.000Z</time>
      </trkpt>
      <trkpt lat="47.04111" lon="-0.96697">
        <ele>101.28800201416</ele>
        <time>2016-04-20T13:36:37.000Z</time>
      </trkpt>
      <trkpt lat="47.04113" lon="-0.96697">
        <ele>102.5587387085</ele>
        <time>2016-04-20T13:36:39.000Z</time>
      </trkpt>
      <trkpt lat="47.04115" lon="-0.96697">
        <ele>102.67515563965</ele>
        <time>2016-04-20T13:36:41.000Z</time>
      </trkpt>
      <trkpt lat="47.04119" lon="-0.96697">
        <ele>102.86986541748</ele>
        <time>2016-04-20T13:36:44.000Z</time>
      </trkpt>
      <trkpt lat="47.04121" lon="-0.96697">
        <ele>103.32887268066</ele>
        <time>2016-04-20T13:36:46.000Z</time>
      </trkpt>
      <trkpt lat="47.04124" lon="-0.96697">
        <ele>104.14772033691</ele>
        <time>2016-04-20T13:36:49.000Z</time>
      </trkpt>
      <trkpt lat="47.04128" lon="-0.96696">
        <ele>103.285987854</ele>
        <time>2016-04-20T13:36:52.000Z</time>
      </trkpt>
      <trkpt lat="47.04131" lon="-0.96697">
        <ele>104.01509094238</ele>
        <time>2016-04-20T13:36:55.000Z</time>
      </trkpt>
      <trkpt lat="47.04134" lon="-0.96696">
        <ele>103.6742401123</ele>
        <time>2016-04-20T13:36:58.000Z</time>
      </trkpt>
      <trkpt lat="47.04139" lon="-0.96695">
        <ele>102.49757385254</ele>
        <time>2016-04-20T13:37:02.000Z</time>
      </trkpt>
      <trkpt lat="47.04143" lon="-0.96693">
        <ele>101.10400390625</ele>
        <time>2016-04-20T13:37:06.000Z</time>
      </trkpt>
      <trkpt lat="47.04147" lon="-0.9669">
        <ele>99.621299743652</ele>
        <time>2016-04-20T13:37:09.000Z</time>
      </trkpt>
      <trkpt lat="47.04151" lon="-0.96689">
        <ele>98.673599243164</ele>
        <time>2016-04-20T13:37:12.000Z</time>
      </trkpt>
      <trkpt lat="47.04153" lon="-0.96688">
        <ele>98.871696472168</ele>
        <time>2016-04-20T13:37:15.000Z</time>
      </trkpt>
      <trkpt lat="47.04159" lon="-0.96685">
        <ele>98.932685852051</ele>
        <time>2016-04-20T13:37:18.000Z</time>
      </trkpt>
      <trkpt lat="47.04161" lon="-0.96685">
        <ele>99.309768676758</ele>
        <time>2016-04-20T13:37:20.000Z</time>
      </trkpt>
      <trkpt lat="47.04165" lon="-0.96683">
        <ele>99.629257202148</ele>
        <time>2016-04-20T13:37:23.000Z</time>
      </trkpt>
      <trkpt lat="47.04168" lon="-0.96682">
        <ele>98.137565612793</ele>
        <time>2016-04-20T13:37:26.000Z</time>
      </trkpt>
      <trkpt lat="47.04171" lon="-0.96681">
        <ele>97.839599609375</ele>
        <time>2016-04-20T13:37:31.000Z</time>
      </trkpt>
      <trkpt lat="47.04175" lon="-0.9668">
        <ele>96.520957946777</ele>
        <time>2016-04-20T13:37:34.000Z</time>
      </trkpt>
      <trkpt lat="47.04178" lon="-0.96679">
        <ele>96.332130432129</ele>
        <time>2016-04-20T13:37:38.000Z</time>
      </trkpt>
      <trkpt lat="47.04183" lon="-0.96679">
        <ele>96.888580322266</ele>
        <time>2016-04-20T13:37:41.000Z</time>
      </trkpt>
      <trkpt lat="47.04185" lon="-0.96679">
        <ele>96.636657714844</ele>
        <time>2016-04-20T13:37:43.000Z</time>
      </trkpt>
      <trkpt lat="47.04187" lon="-0.96679">
        <ele>96.478050231934</ele>
        <time>2016-04-20T13:37:45.000Z</time>
      </trkpt>
      <trkpt lat="47.04191" lon="-0.96679">
        <ele>95.496421813965</ele>
        <time>2016-04-20T13:37:48.000Z</time>
      </trkpt>
      <trkpt lat="47.04194" lon="-0.96679">
        <ele>94.153259277344</ele>
        <time>2016-04-20T13:37:51.000Z</time>
      </trkpt>
      <trkpt lat="47.04197" lon="-0.9668">
        <ele>93.462059020996</ele>
        <time>2016-04-20T13:37:53.000Z</time>
      </trkpt>
      <trkpt lat="47.04201" lon="-0.96681">
        <ele>94.428520202637</ele>
        <time>2016-04-20T13:37:56.000Z</time>
      </trkpt>
      <trkpt lat="47.04203" lon="-0.96681">
        <ele>95.056648254395</ele>
        <time>2016-04-20T13:37:58.000Z</time>
      </trkpt>
      <trkpt lat="47.04208" lon="-0.96682">
        <ele>95.855995178223</ele>
        <time>2016-04-20T13:38:01.000Z</time>
      </trkpt>
      <trkpt lat="47.0421" lon="-0.96682">
        <ele>96.337631225586</ele>
        <time>2016-04-20T13:38:03.000Z</time>
      </trkpt>
      <trkpt lat="47.04212" lon="-0.96682">
        <ele>95.172950744629</ele>
        <time>2016-04-20T13:38:06.000Z</time>
      </trkpt>
      <trkpt lat="47.04215" lon="-0.96682">
        <ele>95.866317749023</ele>
        <time>2016-04-20T13:38:09.000Z</time>
      </trkpt>
      <trkpt lat="47.04218" lon="-0.96682">
        <ele>97.645233154297</ele>
        <time>2016-04-20T13:38:12.000Z</time>
      </trkpt>
      <trkpt lat="47.04221" lon="-0.96682">
        <ele>98.748008728027</ele>
        <time>2016-04-20T13:38:14.000Z</time>
      </trkpt>
      <trkpt lat="47.04227" lon="-0.96682">
        <ele>98.550765991211</ele>
        <time>2016-04-20T13:38:17.000Z</time>
      </trkpt>
      <trkpt lat="47.0423" lon="-0.96683">
        <ele>98.472633361816</ele>
        <time>2016-04-20T13:38:20.000Z</time>
      </trkpt>
      <trkpt lat="47.04233" lon="-0.96683">
        <ele>98.455932617188</ele>
        <time>2016-04-20T13:38:23.000Z</time>
      </trkpt>
      <trkpt lat="47.04238" lon="-0.96684">
        <ele>99.164665222168</ele>
        <time>2016-04-20T13:38:26.000Z</time>
      </trkpt>
      <trkpt lat="47.04242" lon="-0.96685">
        <ele>99.049537658691</ele>
        <time>2016-04-20T13:38:28.000Z</time>
      </trkpt>
      <trkpt lat="47.04244" lon="-0.96686">
        <ele>98.91340637207</ele>
        <time>2016-04-20T13:38:30.000Z</time>
      </trkpt>
      <trkpt lat="47.04248" lon="-0.96687">
        <ele>98.679573059082</ele>
        <time>2016-04-20T13:38:33.000Z</time>
      </trkpt>
      <trkpt lat="47.04251" lon="-0.96689">
        <ele>97.481590270996</ele>
        <time>2016-04-20T13:38:35.000Z</time>
      </trkpt>
      <trkpt lat="47.04252" lon="-0.96689">
        <ele>96.628852844238</ele>
        <time>2016-04-20T13:38:37.000Z</time>
      </trkpt>
      <trkpt lat="47.04256" lon="-0.9669">
        <ele>96.332336425781</ele>
        <time>2016-04-20T13:38:41.000Z</time>
      </trkpt>
      <trkpt lat="47.0426" lon="-0.96691">
        <ele>96.447204589844</ele>
        <time>2016-04-20T13:38:44.000Z</time>
      </trkpt>
      <trkpt lat="47.04264" lon="-0.96691">
        <ele>97.084159851074</ele>
        <time>2016-04-20T13:38:47.000Z</time>
      </trkpt>
      <trkpt lat="47.04266" lon="-0.96692">
        <ele>96.749923706055</ele>
        <time>2016-04-20T13:38:49.000Z</time>
      </trkpt>
      <trkpt lat="47.04269" lon="-0.96696">
        <ele>95.855690002441</ele>
        <time>2016-04-20T13:38:52.000Z</time>
      </trkpt>
      <trkpt lat="47.04271" lon="-0.96699">
        <ele>94.503982543945</ele>
        <time>2016-04-20T13:38:54.000Z</time>
      </trkpt>
      <trkpt lat="47.04275" lon="-0.96701">
        <ele>93.169898986816</ele>
        <time>2016-04-20T13:38:57.000Z</time>
      </trkpt>
      <trkpt lat="47.04277" lon="-0.96702">
        <ele>93.682205200195</ele>
        <time>2016-04-20T13:38:59.000Z</time>
      </trkpt>
      <trkpt lat="47.04281" lon="-0.96704">
        <ele>94.224632263184</ele>
        <time>2016-04-20T13:39:02.000Z</time>
      </trkpt>
      <trkpt lat="47.04285" lon="-0.96707">
        <ele>93.746826171875</ele>
        <time>2016-04-20T13:39:05.000Z</time>
      </trkpt>
      <trkpt lat="47.04289" lon="-0.96708">
        <ele>93.473373413086</ele>
        <time>2016-04-20T13:39:07.000Z</time>
      </trkpt>
      <trkpt lat="47.04292" lon="-0.9671">
        <ele>94.134857177734</ele>
        <time>2016-04-20T13:39:09.000Z</time>
      </trkpt>
      <trkpt lat="47.04295" lon="-0.96711">
        <ele>95.482131958008</ele>
        <time>2016-04-20T13:39:11.000Z</time>
      </trkpt>
      <trkpt lat="47.04299" lon="-0.96711">
        <ele>97.478393554688</ele>
        <time>2016-04-20T13:39:14.000Z</time>
      </trkpt>
      <trkpt lat="47.04302" lon="-0.96712">
        <ele>96.893775939941</ele>
        <time>2016-04-20T13:39:17.000Z</time>
      </trkpt>
      <trkpt lat="47.04303" lon="-0.96713">
        <ele>96.515663146973</ele>
        <time>2016-04-20T13:39:19.000Z</time>
      </trkpt>
      <trkpt lat="47.04305" lon="-0.96715">
        <ele>96.791648864746</ele>
        <time>2016-04-20T13:39:22.000Z</time>
      </trkpt>
      <trkpt lat="47.04309" lon="-0.9672">
        <ele>97.460670471191</ele>
        <time>2016-04-20T13:39:25.000Z</time>
      </trkpt>
      <trkpt lat="47.04313" lon="-0.96723">
        <ele>97.320137023926</ele>
        <time>2016-04-20T13:39:28.000Z</time>
      </trkpt>
      <trkpt lat="47.04316" lon="-0.96723">
        <ele>95.677268981934</ele>
        <time>2016-04-20T13:39:30.000Z</time>
      </trkpt>
      <trkpt lat="47.04322" lon="-0.96724">
        <ele>92.235931396484</ele>
        <time>2016-04-20T13:39:33.000Z</time>
      </trkpt>
      <trkpt lat="47.04325" lon="-0.96725">
        <ele>92.271255493164</ele>
        <time>2016-04-20T13:39:36.000Z</time>
      </trkpt>
      <trkpt lat="47.04328" lon="-0.96726">
        <ele>92.470069885254</ele>
        <time>2016-04-20T13:39:38.000Z</time>
      </trkpt>
      <trkpt lat="47.0433" lon="-0.96726">
        <ele>93.739105224609</ele>
        <time>2016-04-20T13:39:42.000Z</time>
      </trkpt>
      <trkpt lat="47.04334" lon="-0.96726">
        <ele>94.866256713867</ele>
        <time>2016-04-20T13:39:45.000Z</time>
      </trkpt>
      <trkpt lat="47.04336" lon="-0.96728">
        <ele>94.538131713867</ele>
        <time>2016-04-20T13:39:47.000Z</time>
      </trkpt>
      <trkpt lat="47.04339" lon="-0.96734">
        <ele>93.983367919922</ele>
        <time>2016-04-20T13:39:50.000Z</time>
      </trkpt>
      <trkpt lat="47.04342" lon="-0.96736">
        <ele>93.488647460938</ele>
        <time>2016-04-20T13:39:52.000Z</time>
      </trkpt>
      <trkpt lat="47.04343" lon="-0.96737">
        <ele>93.465721130371</ele>
        <time>2016-04-20T13:39:54.000Z</time>
      </trkpt>
      <trkpt lat="47.04345" lon="-0.96739">
        <ele>93.476058959961</ele>
        <time>2016-04-20T13:39:57.000Z</time>
      </trkpt>
      <trkpt lat="47.04348" lon="-0.96739">
        <ele>94.732276916504</ele>
        <time>2016-04-20T13:40:00.000Z</time>
      </trkpt>
      <trkpt lat="47.0435" lon="-0.9674">
        <ele>94.648651123047</ele>
        <time>2016-04-20T13:40:03.000Z</time>
      </trkpt>
      <trkpt lat="47.04353" lon="-0.96741">
        <ele>94.030982971191</ele>
        <time>2016-04-20T13:40:05.000Z</time>
      </trkpt>
      <trkpt lat="47.04356" lon="-0.96743">
        <ele>93.474601745605</ele>
        <time>2016-04-20T13:40:07.000Z</time>
      </trkpt>
      <trkpt lat="47.04359" lon="-0.96745">
        <ele>93.085731506348</ele>
        <time>2016-04-20T13:40:09.000Z</time>
      </trkpt>
      <trkpt lat="47.04361" lon="-0.96747">
        <ele>92.286476135254</ele>
        <time>2016-04-20T13:40:12.000Z</time>
      </trkpt>
      <trkpt lat="47.04362" lon="-0.96748">
        <ele>92.340354919434</ele>
        <time>2016-04-20T13:40:14.000Z</time>
      </trkpt>
      <trkpt lat="47.04366" lon="-0.9675">
        <ele>90.83959197998</ele>
        <time>2016-04-20T13:40:17.000Z</time>
      </trkpt>
      <trkpt lat="47.04371" lon="-0.96752">
        <ele>89.433219909668</ele>
        <time>2016-04-20T13:40:20.000Z</time>
      </trkpt>
      <trkpt lat="47.04374" lon="-0.96753">
        <ele>90.310981750488</ele>
        <time>2016-04-20T13:40:22.000Z</time>
      </trkpt>
      <trkpt lat="47.04376" lon="-0.96754">
        <ele>91.392768859863</ele>
        <time>2016-04-20T13:40:24.000Z</time>
      </trkpt>
      <trkpt lat="47.04379" lon="-0.96755">
        <ele>92.174438476562</ele>
        <time>2016-04-20T13:40:27.000Z</time>
      </trkpt>
      <trkpt lat="47.04382" lon="-0.96755">
        <ele>92.076293945312</ele>
        <time>2016-04-20T13:40:29.000Z</time>
      </trkpt>
      <trkpt lat="47.04386" lon="-0.96755">
        <ele>91.362152099609</ele>
        <time>2016-04-20T13:40:32.000Z</time>
      </trkpt>
      <trkpt lat="47.0439" lon="-0.96757">
        <ele>92.310791015625</ele>
        <time>2016-04-20T13:40:35.000Z</time>
      </trkpt>
      <trkpt lat="47.04391" lon="-0.96758">
        <ele>92.771949768066</ele>
        <time>2016-04-20T13:40:37.000Z</time>
      </trkpt>
      <trkpt lat="47.04395" lon="-0.9676">
        <ele>93.615104675293</ele>
        <time>2016-04-20T13:40:40.000Z</time>
      </trkpt>
      <trkpt lat="47.04398" lon="-0.96762">
        <ele>92.833610534668</ele>
        <time>2016-04-20T13:40:42.000Z</time>
      </trkpt>
      <trkpt lat="47.04401" lon="-0.96763">
        <ele>92.141128540039</ele>
        <time>2016-04-20T13:40:45.000Z</time>
      </trkpt>
      <trkpt lat="47.04404" lon="-0.96763">
        <ele>91.939765930176</ele>
        <time>2016-04-20T13:40:47.000Z</time>
      </trkpt>
      <trkpt lat="47.04407" lon="-0.96763">
        <ele>92.704795837402</ele>
        <time>2016-04-20T13:40:49.000Z</time>
      </trkpt>
      <trkpt lat="47.04411" lon="-0.96763">
        <ele>91.869323730469</ele>
        <time>2016-04-20T13:40:52.000Z</time>
      </trkpt>
      <trkpt lat="47.04414" lon="-0.96763">
        <ele>91.522575378418</ele>
        <time>2016-04-20T13:40:54.000Z</time>
      </trkpt>
      <trkpt lat="47.04416" lon="-0.96764">
        <ele>91.819541931152</ele>
        <time>2016-04-20T13:40:57.000Z</time>
      </trkpt>
      <trkpt lat="47.04418" lon="-0.96764">
        <ele>92.939430236816</ele>
        <time>2016-04-20T13:41:00.000Z</time>
      </trkpt>
      <trkpt lat="47.0442" lon="-0.96764">
        <ele>93.737998962402</ele>
        <time>2016-04-20T13:41:03.000Z</time>
      </trkpt>
      <trkpt lat="47.04424" lon="-0.96764">
        <ele>94.288505554199</ele>
        <time>2016-04-20T13:41:06.000Z</time>
      </trkpt>
      <trkpt lat="47.04428" lon="-0.96764">
        <ele>93.708992004395</ele>
        <time>2016-04-20T13:41:10.000Z</time>
      </trkpt>
      <trkpt lat="47.04433" lon="-0.96764">
        <ele>94.207275390625</ele>
        <time>2016-04-20T13:41:13.000Z</time>
      </trkpt>
      <trkpt lat="47.04436" lon="-0.96765">
        <ele>94.782440185547</ele>
        <time>2016-04-20T13:41:16.000Z</time>
      </trkpt>
      <trkpt lat="47.0444" lon="-0.96765">
        <ele>94.212890625</ele>
        <time>2016-04-20T13:41:18.000Z</time>
      </trkpt>
      <trkpt lat="47.04445" lon="-0.96766">
        <ele>94.239784240723</ele>
        <time>2016-04-20T13:41:21.000Z</time>
      </trkpt>
      <trkpt lat="47.04448" lon="-0.96768">
        <ele>93.485191345215</ele>
        <time>2016-04-20T13:41:24.000Z</time>
      </trkpt>
      <trkpt lat="47.04452" lon="-0.96773">
        <ele>93.41333770752</ele>
        <time>2016-04-20T13:41:27.000Z</time>
      </trkpt>
      <trkpt lat="47.04454" lon="-0.96773">
        <ele>93.110801696777</ele>
        <time>2016-04-20T13:41:30.000Z</time>
      </trkpt>
      <trkpt lat="47.04457" lon="-0.96775">
        <ele>93.356758117676</ele>
        <time>2016-04-20T13:41:34.000Z</time>
      </trkpt>
      <trkpt lat="47.04459" lon="-0.96774">
        <ele>94.167602539062</ele>
        <time>2016-04-20T13:41:37.000Z</time>
      </trkpt>
      <trkpt lat="47.0446" lon="-0.96773">
        <ele>94.532012939453</ele>
        <time>2016-04-20T13:41:40.000Z</time>
      </trkpt>
      <trkpt lat="47.04461" lon="-0.96773">
        <ele>93.815795898438</ele>
        <time>2016-04-20T13:41:45.000Z</time>
      </trkpt>
      <trkpt lat="47.04462" lon="-0.96772">
        <ele>94.409881591797</ele>
        <time>2016-04-20T13:41:48.000Z</time>
      </trkpt>
      <trkpt lat="47.04466" lon="-0.96771">
        <ele>96.026252746582</ele>
        <time>2016-04-20T13:41:51.000Z</time>
      </trkpt>
      <trkpt lat="47.04469" lon="-0.96771">
        <ele>98.281089782715</ele>
        <time>2016-04-20T13:41:54.000Z</time>
      </trkpt>
      <trkpt lat="47.04473" lon="-0.96769">
        <ele>97.815505981445</ele>
        <time>2016-04-20T13:41:57.000Z</time>
      </trkpt>
      <trkpt lat="47.04477" lon="-0.96768">
        <ele>96.383209228516</ele>
        <time>2016-04-20T13:41:59.000Z</time>
      </trkpt>
      <trkpt lat="47.0448" lon="-0.96767">
        <ele>94.620681762695</ele>
        <time>2016-04-20T13:42:01.000Z</time>
      </trkpt>
      <trkpt lat="47.04484" lon="-0.96766">
        <ele>93.112953186035</ele>
        <time>2016-04-20T13:42:05.000Z</time>
      </trkpt>
      <trkpt lat="47.04488" lon="-0.96764">
        <ele>92.822891235352</ele>
        <time>2016-04-20T13:42:08.000Z</time>
      </trkpt>
      <trkpt lat="47.04493" lon="-0.96764">
        <ele>93.425682067871</ele>
        <time>2016-04-20T13:42:12.000Z</time>
      </trkpt>
      <trkpt lat="47.04495" lon="-0.96763">
        <ele>93.799697875977</ele>
        <time>2016-04-20T13:42:14.000Z</time>
      </trkpt>
      <trkpt lat="47.04499" lon="-0.96762">
        <ele>94.512840270996</ele>
        <time>2016-04-20T13:42:17.000Z</time>
      </trkpt>
      <trkpt lat="47.04501" lon="-0.96762">
        <ele>94.549575805664</ele>
        <time>2016-04-20T13:42:19.000Z</time>
      </trkpt>
      <trkpt lat="47.04504" lon="-0.96762">
        <ele>94.488891601562</ele>
        <time>2016-04-20T13:42:22.000Z</time>
      </trkpt>
      <trkpt lat="47.04506" lon="-0.96762">
        <ele>95.471214294434</ele>
        <time>2016-04-20T13:42:24.000Z</time>
      </trkpt>
      <trkpt lat="47.04507" lon="-0.96761">
        <ele>96.481544494629</ele>
        <time>2016-04-20T13:42:27.000Z</time>
      </trkpt>
      <trkpt lat="47.0451" lon="-0.9676">
        <ele>96.024398803711</ele>
        <time>2016-04-20T13:42:29.000Z</time>
      </trkpt>
      <trkpt lat="47.04515" lon="-0.9676">
        <ele>95.425903320312</ele>
        <time>2016-04-20T13:42:32.000Z</time>
      </trkpt>
      <trkpt lat="47.04517" lon="-0.9676">
        <ele>95.099082946777</ele>
        <time>2016-04-20T13:42:34.000Z</time>
      </trkpt>
      <trkpt lat="47.0452" lon="-0.96759">
        <ele>93.964958190918</ele>
        <time>2016-04-20T13:42:37.000Z</time>
      </trkpt>
      <trkpt lat="47.04524" lon="-0.96757">
        <ele>92.66104888916</ele>
        <time>2016-04-20T13:42:39.000Z</time>
      </trkpt>
      <trkpt lat="47.04528" lon="-0.96755">
        <ele>93.01197052002</ele>
        <time>2016-04-20T13:42:42.000Z</time>
      </trkpt>
      <trkpt lat="47.04532" lon="-0.96754">
        <ele>91.653381347656</ele>
        <time>2016-04-20T13:42:44.000Z</time>
      </trkpt>
      <trkpt lat="47.04535" lon="-0.96752">
        <ele>90.895866394043</ele>
        <time>2016-04-20T13:42:46.000Z</time>
      </trkpt>
      <trkpt lat="47.04539" lon="-0.9675">
        <ele>90.31029510498</ele>
        <time>2016-04-20T13:42:49.000Z</time>
      </trkpt>
      <trkpt lat="47.04543" lon="-0.96748">
        <ele>89.672256469727</ele>
        <time>2016-04-20T13:42:51.000Z</time>
      </trkpt>
      <trkpt lat="47.04546" lon="-0.96747">
        <ele>89.134880065918</ele>
        <time>2016-04-20T13:42:53.000Z</time>
      </trkpt>
      <trkpt lat="47.04548" lon="-0.96746">
        <ele>89.856750488281</ele>
        <time>2016-04-20T13:42:55.000Z</time>
      </trkpt>
      <trkpt lat="47.04552" lon="-0.96745">
        <ele>90.154113769531</ele>
        <time>2016-04-20T13:42:58.000Z</time>
      </trkpt>
      <trkpt lat="47.04554" lon="-0.96745">
        <ele>90.424545288086</ele>
        <time>2016-04-20T13:43:00.000Z</time>
      </trkpt>
      <trkpt lat="47.04558" lon="-0.96743">
        <ele>89.66088104248</ele>
        <time>2016-04-20T13:43:03.000Z</time>
      </trkpt>
      <trkpt lat="47.04561" lon="-0.96742">
        <ele>90.630218505859</ele>
        <time>2016-04-20T13:43:05.000Z</time>
      </trkpt>
      <trkpt lat="47.04564" lon="-0.9674">
        <ele>89.173950195312</ele>
        <time>2016-04-20T13:43:08.000Z</time>
      </trkpt>
      <trkpt lat="47.04568" lon="-0.96737">
        <ele>87.497940063477</ele>
        <time>2016-04-20T13:43:11.000Z</time>
      </trkpt>
      <trkpt lat="47.04572" lon="-0.96736">
        <ele>87.062438964844</ele>
        <time>2016-04-20T13:43:14.000Z</time>
      </trkpt>
      <trkpt lat="47.04575" lon="-0.96736">
        <ele>86.51847076416</ele>
        <time>2016-04-20T13:43:16.000Z</time>
      </trkpt>
      <trkpt lat="47.04578" lon="-0.96734">
        <ele>85.727188110352</ele>
        <time>2016-04-20T13:43:19.000Z</time>
      </trkpt>
      <trkpt lat="47.04581" lon="-0.96733">
        <ele>85.472763061523</ele>
        <time>2016-04-20T13:43:22.000Z</time>
      </trkpt>
      <trkpt lat="47.04583" lon="-0.96732">
        <ele>86.20093536377</ele>
        <time>2016-04-20T13:43:24.000Z</time>
      </trkpt>
      <trkpt lat="47.04586" lon="-0.96733">
        <ele>87.098892211914</ele>
        <time>2016-04-20T13:43:28.000Z</time>
      </trkpt>
      <trkpt lat="47.04588" lon="-0.96735">
        <ele>86.363250732422</ele>
        <time>2016-04-20T13:43:30.000Z</time>
      </trkpt>
      <trkpt lat="47.0459" lon="-0.96736">
        <ele>87.100494384766</ele>
        <time>2016-04-20T13:43:32.000Z</time>
      </trkpt>
      <trkpt lat="47.04595" lon="-0.96735">
        <ele>87.90592956543</ele>
        <time>2016-04-20T13:43:35.000Z</time>
      </trkpt>
      <trkpt lat="47.04596" lon="-0.96736">
        <ele>87.634948730469</ele>
        <time>2016-04-20T13:43:38.000Z</time>
      </trkpt>
      <trkpt lat="47.04599" lon="-0.96736">
        <ele>85.993499755859</ele>
        <time>2016-04-20T13:43:41.000Z</time>
      </trkpt>
      <trkpt lat="47.04603" lon="-0.96738">
        <ele>84.314720153809</ele>
        <time>2016-04-20T13:43:43.000Z</time>
      </trkpt>
      <trkpt lat="47.04609" lon="-0.96739">
        <ele>82.269287109375</ele>
        <time>2016-04-20T13:43:46.000Z</time>
      </trkpt>
      <trkpt lat="47.04613" lon="-0.9674">
        <ele>82.370559692383</ele>
        <time>2016-04-20T13:43:49.000Z</time>
      </trkpt>
      <trkpt lat="47.04616" lon="-0.96741">
        <ele>80.937133789062</ele>
        <time>2016-04-20T13:43:53.000Z</time>
      </trkpt>
      <trkpt lat="47.04617" lon="-0.96742">
        <ele>80.675704956055</ele>
        <time>2016-04-20T13:43:55.000Z</time>
      </trkpt>
      <trkpt lat="47.04617" lon="-0.96744">
        <ele>81.158012390137</ele>
        <time>2016-04-20T13:43:57.000Z</time>
      </trkpt>
      <trkpt lat="47.04619" lon="-0.96746">
        <ele>82.877540588379</ele>
        <time>2016-04-20T13:44:00.000Z</time>
      </trkpt>
      <trkpt lat="47.04621" lon="-0.96747">
        <ele>83.647750854492</ele>
        <time>2016-04-20T13:44:02.000Z</time>
      </trkpt>
      <trkpt lat="47.04622" lon="-0.96748">
        <ele>84.906066894531</ele>
        <time>2016-04-20T13:44:05.000Z</time>
      </trkpt>
      <trkpt lat="47.04625" lon="-0.96748">
        <ele>85.75609588623</ele>
        <time>2016-04-20T13:44:08.000Z</time>
      </trkpt>
      <trkpt lat="47.04627" lon="-0.96749">
        <ele>86.483657836914</ele>
        <time>2016-04-20T13:44:11.000Z</time>
      </trkpt>
      <trkpt lat="47.04628" lon="-0.96751">
        <ele>86.171691894531</ele>
        <time>2016-04-20T13:44:14.000Z</time>
      </trkpt>
      <trkpt lat="47.04629" lon="-0.96752">
        <ele>86.869606018066</ele>
        <time>2016-04-20T13:44:18.000Z</time>
      </trkpt>
      <trkpt lat="47.04632" lon="-0.96755">
        <ele>91.430023193359</ele>
        <time>2016-04-20T13:44:21.000Z</time>
      </trkpt>
      <trkpt lat="47.04636" lon="-0.96759">
        <ele>92.250183105469</ele>
        <time>2016-04-20T13:44:25.000Z</time>
      </trkpt>
      <trkpt lat="47.04639" lon="-0.96761">
        <ele>90.921630859375</ele>
        <time>2016-04-20T13:44:27.000Z</time>
      </trkpt>
      <trkpt lat="47.04642" lon="-0.96764">
        <ele>90.46314239502</ele>
        <time>2016-04-20T13:44:29.000Z</time>
      </trkpt>
      <trkpt lat="47.04646" lon="-0.96768">
        <ele>91.151924133301</ele>
        <time>2016-04-20T13:44:32.000Z</time>
      </trkpt>
      <trkpt lat="47.04647" lon="-0.96772">
        <ele>89.374671936035</ele>
        <time>2016-04-20T13:44:34.000Z</time>
      </trkpt>
      <trkpt lat="47.04652" lon="-0.96776">
        <ele>88.382400512695</ele>
        <time>2016-04-20T13:44:37.000Z</time>
      </trkpt>
      <trkpt lat="47.04654" lon="-0.96778">
        <ele>89.098541259766</ele>
        <time>2016-04-20T13:44:39.000Z</time>
      </trkpt>
      <trkpt lat="47.04657" lon="-0.9678">
        <ele>90.288703918457</ele>
        <time>2016-04-20T13:44:42.000Z</time>
      </trkpt>
      <trkpt lat="47.0466" lon="-0.9678">
        <ele>90.834533691406</ele>
        <time>2016-04-20T13:44:44.000Z</time>
      </trkpt>
      <trkpt lat="47.04664" lon="-0.96783">
        <ele>91.426109313965</ele>
        <time>2016-04-20T13:44:47.000Z</time>
      </trkpt>
      <trkpt lat="47.04667" lon="-0.96785">
        <ele>91.467735290527</ele>
        <time>2016-04-20T13:44:49.000Z</time>
      </trkpt>
      <trkpt lat="47.04671" lon="-0.96788">
        <ele>91.761817932129</ele>
        <time>2016-04-20T13:44:52.000Z</time>
      </trkpt>
      <trkpt lat="47.04673" lon="-0.96789">
        <ele>91.652206420898</ele>
        <time>2016-04-20T13:44:54.000Z</time>
      </trkpt>
      <trkpt lat="47.04677" lon="-0.96791">
        <ele>91.724960327148</ele>
        <time>2016-04-20T13:44:57.000Z</time>
      </trkpt>
      <trkpt lat="47.04679" lon="-0.96791">
        <ele>91.562973022461</ele>
        <time>2016-04-20T13:44:59.000Z</time>
      </trkpt>
      <trkpt lat="47.04681" lon="-0.96793">
        <ele>92.616455078125</ele>
        <time>2016-04-20T13:45:02.000Z</time>
      </trkpt>
      <trkpt lat="47.04686" lon="-0.96796">
        <ele>93.27530670166</ele>
        <time>2016-04-20T13:45:05.000Z</time>
      </trkpt>
      <trkpt lat="47.04692" lon="-0.96798">
        <ele>93.374076843262</ele>
        <time>2016-04-20T13:45:08.000Z</time>
      </trkpt>
      <trkpt lat="47.04695" lon="-0.96801">
        <ele>94.486663818359</ele>
        <time>2016-04-20T13:45:10.000Z</time>
      </trkpt>
      <trkpt lat="47.04699" lon="-0.96806">
        <ele>94.508186340332</ele>
        <time>2016-04-20T13:45:13.000Z</time>
      </trkpt>
      <trkpt lat="47.04705" lon="-0.96808">
        <ele>93.827903747559</ele>
        <time>2016-04-20T13:45:17.000Z</time>
      </trkpt>
      <trkpt lat="47.0471" lon="-0.96808">
        <ele>91.568138122559</ele>
        <time>2016-04-20T13:45:19.000Z</time>
      </trkpt>
      <trkpt lat="47.04715" lon="-0.96808">
        <ele>91.40705871582</ele>
        <time>2016-04-20T13:45:22.000Z</time>
      </trkpt>
      <trkpt lat="47.04721" lon="-0.96808">
        <ele>91.835906982422</ele>
        <time>2016-04-20T13:45:26.000Z</time>
      </trkpt>
      <trkpt lat="47.04727" lon="-0.96809">
        <ele>91.089538574219</ele>
        <time>2016-04-20T13:45:29.000Z</time>
      </trkpt>
      <trkpt lat="47.04729" lon="-0.96811">
        <ele>90.610877990723</ele>
        <time>2016-04-20T13:45:31.000Z</time>
      </trkpt>
      <trkpt lat="47.0473" lon="-0.96812">
        <ele>90.516532897949</ele>
        <time>2016-04-20T13:45:33.000Z</time>
      </trkpt>
      <trkpt lat="47.04732" lon="-0.96815">
        <ele>92.180335998535</ele>
        <time>2016-04-20T13:45:36.000Z</time>
      </trkpt>
      <trkpt lat="47.04733" lon="-0.96816">
        <ele>92.478370666504</ele>
        <time>2016-04-20T13:45:38.000Z</time>
      </trkpt>
      <trkpt lat="47.04735" lon="-0.96818">
        <ele>93.856407165527</ele>
        <time>2016-04-20T13:45:40.000Z</time>
      </trkpt>
      <trkpt lat="47.04738" lon="-0.96822">
        <ele>94.277336120605</ele>
        <time>2016-04-20T13:45:43.000Z</time>
      </trkpt>
      <trkpt lat="47.0474" lon="-0.96824">
        <ele>94.776596069336</ele>
        <time>2016-04-20T13:45:46.000Z</time>
      </trkpt>
      <trkpt lat="47.04743" lon="-0.96825">
        <ele>93.898750305176</ele>
        <time>2016-04-20T13:45:48.000Z</time>
      </trkpt>
      <trkpt lat="47.04744" lon="-0.96826">
        <ele>93.268272399902</ele>
        <time>2016-04-20T13:45:50.000Z</time>
      </trkpt>
      <trkpt lat="47.04752" lon="-0.96825">
        <ele>92.37769317627</ele>
        <time>2016-04-20T13:45:53.000Z</time>
      </trkpt>
      <trkpt lat="47.04757" lon="-0.96826">
        <ele>92.447814941406</ele>
        <time>2016-04-20T13:45:56.000Z</time>
      </trkpt>
      <trkpt lat="47.04757" lon="-0.96828">
        <ele>93.190536499023</ele>
        <time>2016-04-20T13:45:59.000Z</time>
      </trkpt>
      <trkpt lat="47.04758" lon="-0.96829">
        <ele>93.513305664062</ele>
        <time>2016-04-20T13:46:01.000Z</time>
      </trkpt>
      <trkpt lat="47.04758" lon="-0.96832">
        <ele>93.508407592773</ele>
        <time>2016-04-20T13:46:03.000Z</time>
      </trkpt>
      <trkpt lat="47.04761" lon="-0.96835">
        <ele>93.473457336426</ele>
        <time>2016-04-20T13:46:06.000Z</time>
      </trkpt>
      <trkpt lat="47.04765" lon="-0.96837">
        <ele>94.017623901367</ele>
        <time>2016-04-20T13:46:10.000Z</time>
      </trkpt>
      <trkpt lat="47.04768" lon="-0.9684">
        <ele>94.366119384766</ele>
        <time>2016-04-20T13:46:13.000Z</time>
      </trkpt>
      <trkpt lat="47.04769" lon="-0.96841">
        <ele>94.746917724609</ele>
        <time>2016-04-20T13:46:15.000Z</time>
      </trkpt>
      <trkpt lat="47.04771" lon="-0.96841">
        <ele>93.762741088867</ele>
        <time>2016-04-20T13:46:18.000Z</time>
      </trkpt>
      <trkpt lat="47.04775" lon="-0.96843">
        <ele>92.146156311035</ele>
        <time>2016-04-20T13:46:21.000Z</time>
      </trkpt>
      <trkpt lat="47.04777" lon="-0.96845">
        <ele>91.614280700684</ele>
        <time>2016-04-20T13:46:23.000Z</time>
      </trkpt>
      <trkpt lat="47.0478" lon="-0.96847">
        <ele>92.941680908203</ele>
        <time>2016-04-20T13:46:26.000Z</time>
      </trkpt>
      <trkpt lat="47.04784" lon="-0.96847">
        <ele>93.47110748291</ele>
        <time>2016-04-20T13:46:29.000Z</time>
      </trkpt>
      <trkpt lat="47.04786" lon="-0.96848">
        <ele>94.135536193848</ele>
        <time>2016-04-20T13:46:31.000Z</time>
      </trkpt>
      <trkpt lat="47.04788" lon="-0.96851">
        <ele>94.444885253906</ele>
        <time>2016-04-20T13:46:34.000Z</time>
      </trkpt>
      <trkpt lat="47.04792" lon="-0.96854">
        <ele>95.956100463867</ele>
        <time>2016-04-20T13:46:37.000Z</time>
      </trkpt>
      <trkpt lat="47.04794" lon="-0.96855">
        <ele>96.062599182129</ele>
        <time>2016-04-20T13:46:39.000Z</time>
      </trkpt>
      <trkpt lat="47.04798" lon="-0.96855">
        <ele>94.959190368652</ele>
        <time>2016-04-20T13:46:42.000Z</time>
      </trkpt>
      <trkpt lat="47.04799" lon="-0.96856">
        <ele>94.155563354492</ele>
        <time>2016-04-20T13:46:46.000Z</time>
      </trkpt>
      <trkpt lat="47.04799" lon="-0.96856">
        <ele>90.451919555664</ele>
        <time>2016-04-20T13:47:06.000Z</time>
      </trkpt>
      <trkpt lat="47.048" lon="-0.96856">
        <ele>93.344116210938</ele>
        <time>2016-04-20T13:47:08.000Z</time>
      </trkpt>
      <trkpt lat="47.04803" lon="-0.96855">
        <ele>92.57250213623</ele>
        <time>2016-04-20T13:47:10.000Z</time>
      </trkpt>
      <trkpt lat="47.04808" lon="-0.96854">
        <ele>91.162963867188</ele>
        <time>2016-04-20T13:47:13.000Z</time>
      </trkpt>
      <trkpt lat="47.04811" lon="-0.96854">
        <ele>90.588432312012</ele>
        <time>2016-04-20T13:47:15.000Z</time>
      </trkpt>
      <trkpt lat="47.04815" lon="-0.96853">
        <ele>88.901123046875</ele>
        <time>2016-04-20T13:47:18.000Z</time>
      </trkpt>
      <trkpt lat="47.04818" lon="-0.96853">
        <ele>88.6201171875</ele>
        <time>2016-04-20T13:47:20.000Z</time>
      </trkpt>
      <trkpt lat="47.04819" lon="-0.96852">
        <ele>88.629173278809</ele>
        <time>2016-04-20T13:47:22.000Z</time>
      </trkpt>
      <trkpt lat="47.04821" lon="-0.96853">
        <ele>89.170700073242</ele>
        <time>2016-04-20T13:47:25.000Z</time>
      </trkpt>
      <trkpt lat="47.04824" lon="-0.96853">
        <ele>90.140266418457</ele>
        <time>2016-04-20T13:47:28.000Z</time>
      </trkpt>
      <trkpt lat="47.04827" lon="-0.96854">
        <ele>91.103935241699</ele>
        <time>2016-04-20T13:47:30.000Z</time>
      </trkpt>
      <trkpt lat="47.04829" lon="-0.96854">
        <ele>90.773910522461</ele>
        <time>2016-04-20T13:47:32.000Z</time>
      </trkpt>
      <trkpt lat="47.04834" lon="-0.96854">
        <ele>89.428260803223</ele>
        <time>2016-04-20T13:47:35.000Z</time>
      </trkpt>
      <trkpt lat="47.04837" lon="-0.96853">
        <ele>88.53092956543</ele>
        <time>2016-04-20T13:47:38.000Z</time>
      </trkpt>
      <trkpt lat="47.0484" lon="-0.96851">
        <ele>88.812187194824</ele>
        <time>2016-04-20T13:47:41.000Z</time>
      </trkpt>
      <trkpt lat="47.04842" lon="-0.96851">
        <ele>89.690933227539</ele>
        <time>2016-04-20T13:47:43.000Z</time>
      </trkpt>
      <trkpt lat="47.04848" lon="-0.96849">
        <ele>91.028442382812</ele>
        <time>2016-04-20T13:47:46.000Z</time>
      </trkpt>
      <trkpt lat="47.04852" lon="-0.96848">
        <ele>91.493705749512</ele>
        <time>2016-04-20T13:47:49.000Z</time>
      </trkpt>
      <trkpt lat="47.04855" lon="-0.96847">
        <ele>90.668266296387</ele>
        <time>2016-04-20T13:47:51.000Z</time>
      </trkpt>
      <trkpt lat="47.04859" lon="-0.96846">
        <ele>91.308464050293</ele>
        <time>2016-04-20T13:47:54.000Z</time>
      </trkpt>
      <trkpt lat="47.04863" lon="-0.96846">
        <ele>91.332534790039</ele>
        <time>2016-04-20T13:47:57.000Z</time>
      </trkpt>
      <trkpt lat="47.04865" lon="-0.96845">
        <ele>91.043533325195</ele>
        <time>2016-04-20T13:47:59.000Z</time>
      </trkpt>
      <trkpt lat="47.04867" lon="-0.96843">
        <ele>90.524353027344</ele>
        <time>2016-04-20T13:48:02.000Z</time>
      </trkpt>
      <trkpt lat="47.04868" lon="-0.96843">
        <ele>90.921989440918</ele>
        <time>2016-04-20T13:48:04.000Z</time>
      </trkpt>
      <trkpt lat="47.04869" lon="-0.96842">
        <ele>91.56664276123</ele>
        <time>2016-04-20T13:48:20.000Z</time>
      </trkpt>
      <trkpt lat="47.04869" lon="-0.9684">
        <ele>92.05542755127</ele>
        <time>2016-04-20T13:48:26.000Z</time>
      </trkpt>
      <trkpt lat="47.04869" lon="-0.9684">
        <ele>90.612289428711</ele>
        <time>2016-04-20T13:48:46.000Z</time>
      </trkpt>
      <trkpt lat="47.04871" lon="-0.96839">
        <ele>93.993965148926</ele>
        <time>2016-04-20T13:48:50.000Z</time>
      </trkpt>
      <trkpt lat="47.04874" lon="-0.96838">
        <ele>94.532722473145</ele>
        <time>2016-04-20T13:48:53.000Z</time>
      </trkpt>
      <trkpt lat="47.04876" lon="-0.96838">
        <ele>94.489936828613</ele>
        <time>2016-04-20T13:48:56.000Z</time>
      </trkpt>
      <trkpt lat="47.04877" lon="-0.96838">
        <ele>94.478958129883</ele>
        <time>2016-04-20T13:48:58.000Z</time>
      </trkpt>
      <trkpt lat="47.04879" lon="-0.96838">
        <ele>94.48365020752</ele>
        <time>2016-04-20T13:49:00.000Z</time>
      </trkpt>
      <trkpt lat="47.04883" lon="-0.96837">
        <ele>95.302223205566</ele>
        <time>2016-04-20T13:49:05.000Z</time>
      </trkpt>
      <trkpt lat="47.04885" lon="-0.96836">
        <ele>96.329948425293</ele>
        <time>2016-04-20T13:49:09.000Z</time>
      </trkpt>
      <trkpt lat="47.04888" lon="-0.96835">
        <ele>96.502449035645</ele>
        <time>2016-04-20T13:49:12.000Z</time>
      </trkpt>
      <trkpt lat="47.04891" lon="-0.96835">
        <ele>96.485893249512</ele>
        <time>2016-04-20T13:49:14.000Z</time>
      </trkpt>
      <trkpt lat="47.04894" lon="-0.96834">
        <ele>95.537170410156</ele>
        <time>2016-04-20T13:49:17.000Z</time>
      </trkpt>
      <trkpt lat="47.04896" lon="-0.96834">
        <ele>95.906272888184</ele>
        <time>2016-04-20T13:49:19.000Z</time>
      </trkpt>
      <trkpt lat="47.04897" lon="-0.96833">
        <ele>96.430000305176</ele>
        <time>2016-04-20T13:49:21.000Z</time>
      </trkpt>
      <trkpt lat="47.049" lon="-0.96833">
        <ele>96.496955871582</ele>
        <time>2016-04-20T13:49:23.000Z</time>
      </trkpt>
      <trkpt lat="47.04903" lon="-0.96832">
        <ele>96.483825683594</ele>
        <time>2016-04-20T13:49:26.000Z</time>
      </trkpt>
      <trkpt lat="47.04905" lon="-0.96832">
        <ele>96.475364685059</ele>
        <time>2016-04-20T13:49:28.000Z</time>
      </trkpt>
      <trkpt lat="47.04907" lon="-0.96832">
        <ele>96.940742492676</ele>
        <time>2016-04-20T13:49:30.000Z</time>
      </trkpt>
      <trkpt lat="47.0491" lon="-0.96832">
        <ele>97.454940795898</ele>
        <time>2016-04-20T13:49:32.000Z</time>
      </trkpt>
      <trkpt lat="47.04913" lon="-0.96832">
        <ele>97.484985351562</ele>
        <time>2016-04-20T13:49:35.000Z</time>
      </trkpt>
      <trkpt lat="47.04916" lon="-0.96832">
        <ele>96.670631408691</ele>
        <time>2016-04-20T13:49:37.000Z</time>
      </trkpt>
      <trkpt lat="47.04918" lon="-0.96831">
        <ele>97.28303527832</ele>
        <time>2016-04-20T13:49:39.000Z</time>
      </trkpt>
      <trkpt lat="47.04922" lon="-0.9683">
        <ele>97.946029663086</ele>
        <time>2016-04-20T13:49:42.000Z</time>
      </trkpt>
      <trkpt lat="47.04926" lon="-0.9683">
        <ele>96.895065307617</ele>
        <time>2016-04-20T13:49:45.000Z</time>
      </trkpt>
      <trkpt lat="47.04927" lon="-0.9683">
        <ele>96.507514953613</ele>
        <time>2016-04-20T13:49:47.000Z</time>
      </trkpt>
      <trkpt lat="47.04932" lon="-0.96829">
        <ele>96.987449645996</ele>
        <time>2016-04-20T13:49:50.000Z</time>
      </trkpt>
      <trkpt lat="47.04934" lon="-0.96828">
        <ele>96.150032043457</ele>
        <time>2016-04-20T13:49:52.000Z</time>
      </trkpt>
      <trkpt lat="47.04938" lon="-0.96828">
        <ele>95.950653076172</ele>
        <time>2016-04-20T13:49:55.000Z</time>
      </trkpt>
      <trkpt lat="47.0494" lon="-0.96827">
        <ele>95.984703063965</ele>
        <time>2016-04-20T13:49:57.000Z</time>
      </trkpt>
      <trkpt lat="47.04943" lon="-0.96827">
        <ele>95.520774841309</ele>
        <time>2016-04-20T13:49:59.000Z</time>
      </trkpt>
      <trkpt lat="47.04946" lon="-0.96827">
        <ele>95.473747253418</ele>
        <time>2016-04-20T13:50:02.000Z</time>
      </trkpt>
      <trkpt lat="47.0495" lon="-0.96827">
        <ele>95.479843139648</ele>
        <time>2016-04-20T13:50:05.000Z</time>
      </trkpt>
      <trkpt lat="47.04953" lon="-0.96826">
        <ele>95.482475280762</ele>
        <time>2016-04-20T13:50:08.000Z</time>
      </trkpt>
      <trkpt lat="47.04957" lon="-0.96825">
        <ele>94.659706115723</ele>
        <time>2016-04-20T13:50:11.000Z</time>
      </trkpt>
      <trkpt lat="47.04959" lon="-0.96825">
        <ele>94.92601776123</ele>
        <time>2016-04-20T13:50:13.000Z</time>
      </trkpt>
      <trkpt lat="47.04963" lon="-0.96825">
        <ele>94.96329498291</ele>
        <time>2016-04-20T13:50:16.000Z</time>
      </trkpt>
      <trkpt lat="47.04966" lon="-0.96825">
        <ele>95.449462890625</ele>
        <time>2016-04-20T13:50:18.000Z</time>
      </trkpt>
      <trkpt lat="47.04969" lon="-0.96824">
        <ele>95.485496520996</ele>
        <time>2016-04-20T13:50:21.000Z</time>
      </trkpt>
      <trkpt lat="47.04972" lon="-0.96824">
        <ele>95.478363037109</ele>
        <time>2016-04-20T13:50:23.000Z</time>
      </trkpt>
      <trkpt lat="47.04975" lon="-0.96824">
        <ele>95.942596435547</ele>
        <time>2016-04-20T13:50:25.000Z</time>
      </trkpt>
      <trkpt lat="47.04978" lon="-0.96824">
        <ele>95.518928527832</ele>
        <time>2016-04-20T13:50:28.000Z</time>
      </trkpt>
      <trkpt lat="47.04982" lon="-0.96824">
        <ele>95.006004333496</ele>
        <time>2016-04-20T13:50:31.000Z</time>
      </trkpt>
      <trkpt lat="47.04986" lon="-0.96825">
        <ele>94.461181640625</ele>
        <time>2016-04-20T13:50:34.000Z</time>
      </trkpt>
      <trkpt lat="47.04988" lon="-0.96825">
        <ele>94.467819213867</ele>
        <time>2016-04-20T13:50:36.000Z</time>
      </trkpt>
      <trkpt lat="47.04991" lon="-0.96825">
        <ele>94.475112915039</ele>
        <time>2016-04-20T13:50:38.000Z</time>
      </trkpt>
      <trkpt lat="47.04995" lon="-0.96825">
        <ele>94.476013183594</ele>
        <time>2016-04-20T13:50:41.000Z</time>
      </trkpt>
      <trkpt lat="47.04998" lon="-0.96825">
        <ele>94.93310546875</ele>
        <time>2016-04-20T13:50:44.000Z</time>
      </trkpt>
      <trkpt lat="47.05002" lon="-0.96825">
        <ele>94.681053161621</ele>
        <time>2016-04-20T13:50:47.000Z</time>
      </trkpt>
      <trkpt lat="47.05004" lon="-0.96825">
        <ele>94.470199584961</ele>
        <time>2016-04-20T13:50:49.000Z</time>
      </trkpt>
      <trkpt lat="47.05006" lon="-0.96825">
        <ele>94.924263000488</ele>
        <time>2016-04-20T13:50:51.000Z</time>
      </trkpt>
      <trkpt lat="47.0501" lon="-0.96824">
        <ele>95.49666595459</ele>
        <time>2016-04-20T13:50:54.000Z</time>
      </trkpt>
      <trkpt lat="47.05014" lon="-0.96824">
        <ele>95.48176574707</ele>
        <time>2016-04-20T13:50:57.000Z</time>
      </trkpt>
      <trkpt lat="47.05017" lon="-0.96824">
        <ele>95.034851074219</ele>
        <time>2016-04-20T13:51:00.000Z</time>
      </trkpt>
      <trkpt lat="47.0502" lon="-0.96824">
        <ele>94.941276550293</ele>
        <time>2016-04-20T13:51:02.000Z</time>
      </trkpt>
      <trkpt lat="47.05024" lon="-0.96824">
        <ele>95.483116149902</ele>
        <time>2016-04-20T13:51:05.000Z</time>
      </trkpt>
      <trkpt lat="47.05027" lon="-0.96824">
        <ele>95.481750488281</ele>
        <time>2016-04-20T13:51:07.000Z</time>
      </trkpt>
      <trkpt lat="47.0503" lon="-0.96824">
        <ele>96.295211791992</ele>
        <time>2016-04-20T13:51:10.000Z</time>
      </trkpt>
      <trkpt lat="47.05034" lon="-0.96824">
        <ele>96.488616943359</ele>
        <time>2016-04-20T13:51:13.000Z</time>
      </trkpt>
      <trkpt lat="47.05037" lon="-0.96824">
        <ele>96.477951049805</ele>
        <time>2016-04-20T13:51:15.000Z</time>
      </trkpt>
      <trkpt lat="47.05039" lon="-0.96824">
        <ele>96.480018615723</ele>
        <time>2016-04-20T13:51:17.000Z</time>
      </trkpt>
      <trkpt lat="47.05042" lon="-0.96824">
        <ele>96.481346130371</ele>
        <time>2016-04-20T13:51:20.000Z</time>
      </trkpt>
      <trkpt lat="47.05046" lon="-0.96823">
        <ele>96.478897094727</ele>
        <time>2016-04-20T13:51:23.000Z</time>
      </trkpt>
      <trkpt lat="47.05048" lon="-0.96823">
        <ele>96.021789550781</ele>
        <time>2016-04-20T13:51:25.000Z</time>
      </trkpt>
      <trkpt lat="47.05052" lon="-0.96823">
        <ele>94.657104492188</ele>
        <time>2016-04-20T13:51:28.000Z</time>
      </trkpt>
      <trkpt lat="47.05056" lon="-0.96822">
        <ele>94.465026855469</ele>
        <time>2016-04-20T13:51:31.000Z</time>
      </trkpt>
      <trkpt lat="47.05059" lon="-0.96822">
        <ele>94.933181762695</ele>
        <time>2016-04-20T13:51:33.000Z</time>
      </trkpt>
      <trkpt lat="47.05062" lon="-0.96821">
        <ele>94.871307373047</ele>
        <time>2016-04-20T13:51:36.000Z</time>
      </trkpt>
      <trkpt lat="47.05066" lon="-0.96821">
        <ele>95.291999816895</ele>
        <time>2016-04-20T13:51:39.000Z</time>
      </trkpt>
      <trkpt lat="47.05068" lon="-0.96821">
        <ele>94.687393188477</ele>
        <time>2016-04-20T13:51:41.000Z</time>
      </trkpt>
      <trkpt lat="47.05072" lon="-0.96821">
        <ele>95.437675476074</ele>
        <time>2016-04-20T13:51:44.000Z</time>
      </trkpt>
      <trkpt lat="47.05075" lon="-0.96821">
        <ele>94.507843017578</ele>
        <time>2016-04-20T13:51:47.000Z</time>
      </trkpt>
      <trkpt lat="47.05079" lon="-0.9682">
        <ele>94.473976135254</ele>
        <time>2016-04-20T13:51:50.000Z</time>
      </trkpt>
      <trkpt lat="47.05082" lon="-0.9682">
        <ele>94.940422058105</ele>
        <time>2016-04-20T13:51:52.000Z</time>
      </trkpt>
      <trkpt lat="47.05085" lon="-0.9682">
        <ele>95.490753173828</ele>
        <time>2016-04-20T13:51:55.000Z</time>
      </trkpt>
      <trkpt lat="47.05089" lon="-0.9682">
        <ele>95.479629516602</ele>
        <time>2016-04-20T13:51:58.000Z</time>
      </trkpt>
      <trkpt lat="47.05093" lon="-0.9682">
        <ele>95.477653503418</ele>
        <time>2016-04-20T13:52:01.000Z</time>
      </trkpt>
      <trkpt lat="47.05096" lon="-0.9682">
        <ele>95.477890014648</ele>
        <time>2016-04-20T13:52:04.000Z</time>
      </trkpt>
      <trkpt lat="47.051" lon="-0.9682">
        <ele>95.328216552734</ele>
        <time>2016-04-20T13:52:07.000Z</time>
      </trkpt>
      <trkpt lat="47.05104" lon="-0.96819">
        <ele>95.485145568848</ele>
        <time>2016-04-20T13:52:10.000Z</time>
      </trkpt>
      <trkpt lat="47.05107" lon="-0.96819">
        <ele>95.478416442871</ele>
        <time>2016-04-20T13:52:13.000Z</time>
      </trkpt>
      <trkpt lat="47.05111" lon="-0.9682">
        <ele>95.474060058594</ele>
        <time>2016-04-20T13:52:16.000Z</time>
      </trkpt>
      <trkpt lat="47.05114" lon="-0.96821">
        <ele>95.125114440918</ele>
        <time>2016-04-20T13:52:19.000Z</time>
      </trkpt>
      <trkpt lat="47.05116" lon="-0.96821">
        <ele>95.859497070312</ele>
        <time>2016-04-20T13:52:21.000Z</time>
      </trkpt>
      <trkpt lat="47.0512" lon="-0.96821">
        <ele>95.983123779297</ele>
        <time>2016-04-20T13:52:24.000Z</time>
      </trkpt>
      <trkpt lat="47.05122" lon="-0.96822">
        <ele>95.622520446777</ele>
        <time>2016-04-20T13:52:26.000Z</time>
      </trkpt>
      <trkpt lat="47.05125" lon="-0.96822">
        <ele>95.47290802002</ele>
        <time>2016-04-20T13:52:28.000Z</time>
      </trkpt>
      <trkpt lat="47.05129" lon="-0.96822">
        <ele>95.322853088379</ele>
        <time>2016-04-20T13:52:31.000Z</time>
      </trkpt>
      <trkpt lat="47.05132" lon="-0.96822">
        <ele>95.481338500977</ele>
        <time>2016-04-20T13:52:34.000Z</time>
      </trkpt>
      <trkpt lat="47.05134" lon="-0.96823">
        <ele>95.476196289062</ele>
        <time>2016-04-20T13:52:36.000Z</time>
      </trkpt>
      <trkpt lat="47.05138" lon="-0.96823">
        <ele>95.838470458984</ele>
        <time>2016-04-20T13:52:39.000Z</time>
      </trkpt>
      <trkpt lat="47.05141" lon="-0.96824">
        <ele>95.636436462402</ele>
        <time>2016-04-20T13:52:42.000Z</time>
      </trkpt>
      <trkpt lat="47.05143" lon="-0.96824">
        <ele>95.474609375</ele>
        <time>2016-04-20T13:52:44.000Z</time>
      </trkpt>
      <trkpt lat="47.05147" lon="-0.96825">
        <ele>94.499015808105</ele>
        <time>2016-04-20T13:52:47.000Z</time>
      </trkpt>
      <trkpt lat="47.05151" lon="-0.96825">
        <ele>94.467430114746</ele>
        <time>2016-04-20T13:52:50.000Z</time>
      </trkpt>
      <trkpt lat="47.05155" lon="-0.96826">
        <ele>95.445953369141</ele>
        <time>2016-04-20T13:52:53.000Z</time>
      </trkpt>
      <trkpt lat="47.05158" lon="-0.96827">
        <ele>95.480308532715</ele>
        <time>2016-04-20T13:52:56.000Z</time>
      </trkpt>
      <trkpt lat="47.05162" lon="-0.96828">
        <ele>96.461654663086</ele>
        <time>2016-04-20T13:52:59.000Z</time>
      </trkpt>
      <trkpt lat="47.05165" lon="-0.96828">
        <ele>96.48282623291</ele>
        <time>2016-04-20T13:53:01.000Z</time>
      </trkpt>
      <trkpt lat="47.0517" lon="-0.96828">
        <ele>95.50464630127</ele>
        <time>2016-04-20T13:53:04.000Z</time>
      </trkpt>
      <trkpt lat="47.05173" lon="-0.96829">
        <ele>95.468299865723</ele>
        <time>2016-04-20T13:53:07.000Z</time>
      </trkpt>
      <trkpt lat="47.05177" lon="-0.9683">
        <ele>95.47403717041</ele>
        <time>2016-04-20T13:53:10.000Z</time>
      </trkpt>
      <trkpt lat="47.0518" lon="-0.96832">
        <ele>95.924240112305</ele>
        <time>2016-04-20T13:53:13.000Z</time>
      </trkpt>
      <trkpt lat="47.05183" lon="-0.96832">
        <ele>96.451354980469</ele>
        <time>2016-04-20T13:53:15.000Z</time>
      </trkpt>
      <trkpt lat="47.05185" lon="-0.96833">
        <ele>97.302665710449</ele>
        <time>2016-04-20T13:53:17.000Z</time>
      </trkpt>
      <trkpt lat="47.05188" lon="-0.96834">
        <ele>98.457237243652</ele>
        <time>2016-04-20T13:53:20.000Z</time>
      </trkpt>
      <trkpt lat="47.05192" lon="-0.96834">
        <ele>98.480796813965</ele>
        <time>2016-04-20T13:53:23.000Z</time>
      </trkpt>
      <trkpt lat="47.05195" lon="-0.96835">
        <ele>98.471519470215</ele>
        <time>2016-04-20T13:53:25.000Z</time>
      </trkpt>
      <trkpt lat="47.05198" lon="-0.96836">
        <ele>97.671951293945</ele>
        <time>2016-04-20T13:53:28.000Z</time>
      </trkpt>
      <trkpt lat="47.05201" lon="-0.96836">
        <ele>98.279930114746</ele>
        <time>2016-04-20T13:53:30.000Z</time>
      </trkpt>
      <trkpt lat="47.05205" lon="-0.96836">
        <ele>98.485664367676</ele>
        <time>2016-04-20T13:53:33.000Z</time>
      </trkpt>
      <trkpt lat="47.05207" lon="-0.96836">
        <ele>99.298362731934</ele>
        <time>2016-04-20T13:53:35.000Z</time>
      </trkpt>
      <trkpt lat="47.05211" lon="-0.96837">
        <ele>99.487159729004</ele>
        <time>2016-04-20T13:53:38.000Z</time>
      </trkpt>
      <trkpt lat="47.05215" lon="-0.96838">
        <ele>99.472801208496</ele>
        <time>2016-04-20T13:53:41.000Z</time>
      </trkpt>
      <trkpt lat="47.05217" lon="-0.96838">
        <ele>99.472175598145</ele>
        <time>2016-04-20T13:53:43.000Z</time>
      </trkpt>
      <trkpt lat="47.05222" lon="-0.96839">
        <ele>98.853485107422</ele>
        <time>2016-04-20T13:53:46.000Z</time>
      </trkpt>
      <trkpt lat="47.05225" lon="-0.96839">
        <ele>98.470352172852</ele>
        <time>2016-04-20T13:53:49.000Z</time>
      </trkpt>
      <trkpt lat="47.05228" lon="-0.9684">
        <ele>98.472724914551</ele>
        <time>2016-04-20T13:53:51.000Z</time>
      </trkpt>
      <trkpt lat="47.05231" lon="-0.96839">
        <ele>98.481300354004</ele>
        <time>2016-04-20T13:53:54.000Z</time>
      </trkpt>
      <trkpt lat="47.05234" lon="-0.96835">
        <ele>98.486503601074</ele>
        <time>2016-04-20T13:53:57.000Z</time>
      </trkpt>
      <trkpt lat="47.05234" lon="-0.96832">
        <ele>98.487716674805</ele>
        <time>2016-04-20T13:53:59.000Z</time>
      </trkpt>
      <trkpt lat="47.05233" lon="-0.96827">
        <ele>99.645538330078</ele>
        <time>2016-04-20T13:54:02.000Z</time>
      </trkpt>
      <trkpt lat="47.05231" lon="-0.96822">
        <ele>100.50399780273</ele>
        <time>2016-04-20T13:54:05.000Z</time>
      </trkpt>
      <trkpt lat="47.0523" lon="-0.96817">
        <ele>100.52579498291</ele>
        <time>2016-04-20T13:54:08.000Z</time>
      </trkpt>
      <trkpt lat="47.05229" lon="-0.96814">
        <ele>100.51709747314</ele>
        <time>2016-04-20T13:54:10.000Z</time>
      </trkpt>
      <trkpt lat="47.05228" lon="-0.96809">
        <ele>100.50743103027</ele>
        <time>2016-04-20T13:54:13.000Z</time>
      </trkpt>
      <trkpt lat="47.05227" lon="-0.96806">
        <ele>101.20655059814</ele>
        <time>2016-04-20T13:54:15.000Z</time>
      </trkpt>
      <trkpt lat="47.05225" lon="-0.96801">
        <ele>102.40055847168</ele>
        <time>2016-04-20T13:54:18.000Z</time>
      </trkpt>
      <trkpt lat="47.05223" lon="-0.96796">
        <ele>102.53748321533</ele>
        <time>2016-04-20T13:54:21.000Z</time>
      </trkpt>
      <trkpt lat="47.05222" lon="-0.96792">
        <ele>102.51991271973</ele>
        <time>2016-04-20T13:54:24.000Z</time>
      </trkpt>
      <trkpt lat="47.0522" lon="-0.96789">
        <ele>102.52152252197</ele>
        <time>2016-04-20T13:54:26.000Z</time>
      </trkpt>
      <trkpt lat="47.05217" lon="-0.96775">
        <ele>98.812599182129</ele>
        <time>2016-04-20T13:54:42.000Z</time>
      </trkpt>
      <trkpt lat="47.05206" lon="-0.96752">
        <ele>98.423393249512</ele>
        <time>2016-04-20T13:54:46.000Z</time>
      </trkpt>
      <trkpt lat="47.05204" lon="-0.96747">
        <ele>97.741806030273</ele>
        <time>2016-04-20T13:54:50.000Z</time>
      </trkpt>
      <trkpt lat="47.05201" lon="-0.96743">
        <ele>100.69914245605</ele>
        <time>2016-04-20T13:54:54.000Z</time>
      </trkpt>
      <trkpt lat="47.052" lon="-0.9674">
        <ele>101.72294616699</ele>
        <time>2016-04-20T13:54:57.000Z</time>
      </trkpt>
      <trkpt lat="47.05198" lon="-0.96735">
        <ele>102.87413787842</ele>
        <time>2016-04-20T13:55:01.000Z</time>
      </trkpt>
      <trkpt lat="47.05196" lon="-0.96731">
        <ele>102.55605316162</ele>
        <time>2016-04-20T13:55:04.000Z</time>
      </trkpt>
      <trkpt lat="47.05195" lon="-0.96728">
        <ele>102.91928863525</ele>
        <time>2016-04-20T13:55:06.000Z</time>
      </trkpt>
      <trkpt lat="47.05193" lon="-0.96726">
        <ele>103.46161651611</ele>
        <time>2016-04-20T13:55:08.000Z</time>
      </trkpt>
      <trkpt lat="47.05192" lon="-0.96723">
        <ele>103.92780303955</ele>
        <time>2016-04-20T13:55:10.000Z</time>
      </trkpt>
      <trkpt lat="47.0519" lon="-0.9672">
        <ele>104.52002716064</ele>
        <time>2016-04-20T13:55:13.000Z</time>
      </trkpt>
      <trkpt lat="47.05188" lon="-0.96718">
        <ele>105.27944946289</ele>
        <time>2016-04-20T13:55:15.000Z</time>
      </trkpt>
      <trkpt lat="47.05186" lon="-0.96715">
        <ele>105.54669952393</ele>
        <time>2016-04-20T13:55:18.000Z</time>
      </trkpt>
      <trkpt lat="47.05183" lon="-0.96713">
        <ele>105.5232925415</ele>
        <time>2016-04-20T13:55:21.000Z</time>
      </trkpt>
      <trkpt lat="47.0518" lon="-0.96709">
        <ele>104.73846435547</ele>
        <time>2016-04-20T13:55:24.000Z</time>
      </trkpt>
      <trkpt lat="47.05177" lon="-0.96706">
        <ele>104.51187133789</ele>
        <time>2016-04-20T13:55:27.000Z</time>
      </trkpt>
      <trkpt lat="47.05174" lon="-0.96703">
        <ele>103.75061035156</ele>
        <time>2016-04-20T13:55:30.000Z</time>
      </trkpt>
      <trkpt lat="47.05172" lon="-0.96701">
        <ele>102.72472381592</ele>
        <time>2016-04-20T13:55:33.000Z</time>
      </trkpt>
      <trkpt lat="47.0517" lon="-0.96699">
        <ele>102.51512908936</ele>
        <time>2016-04-20T13:55:35.000Z</time>
      </trkpt>
      <trkpt lat="47.05168" lon="-0.96697">
        <ele>102.51607513428</ele>
        <time>2016-04-20T13:55:37.000Z</time>
      </trkpt>
      <trkpt lat="47.05165" lon="-0.96695">
        <ele>102.95763397217</ele>
        <time>2016-04-20T13:55:40.000Z</time>
      </trkpt>
      <trkpt lat="47.05163" lon="-0.96693">
        <ele>103.47885131836</ele>
        <time>2016-04-20T13:55:42.000Z</time>
      </trkpt>
      <trkpt lat="47.0516" lon="-0.96691">
        <ele>103.53470611572</ele>
        <time>2016-04-20T13:55:45.000Z</time>
      </trkpt>
      <trkpt lat="47.05158" lon="-0.96689">
        <ele>103.52436065674</ele>
        <time>2016-04-20T13:55:47.000Z</time>
      </trkpt>
      <trkpt lat="47.05156" lon="-0.96688">
        <ele>103.16566467285</ele>
        <time>2016-04-20T13:55:49.000Z</time>
      </trkpt>
      <trkpt lat="47.05153" lon="-0.96685">
        <ele>102.71657562256</ele>
        <time>2016-04-20T13:55:52.000Z</time>
      </trkpt>
      <trkpt lat="47.0515" lon="-0.96683">
        <ele>102.51532745361</ele>
        <time>2016-04-20T13:55:55.000Z</time>
      </trkpt>
      <trkpt lat="47.05147" lon="-0.9668">
        <ele>102.52126312256</ele>
        <time>2016-04-20T13:55:58.000Z</time>
      </trkpt>
      <trkpt lat="47.05146" lon="-0.96679">
        <ele>102.52265167236</ele>
        <time>2016-04-20T13:56:00.000Z</time>
      </trkpt>
      <trkpt lat="47.05143" lon="-0.96677">
        <ele>102.52519989014</ele>
        <time>2016-04-20T13:56:02.000Z</time>
      </trkpt>
      <trkpt lat="47.05141" lon="-0.96674">
        <ele>102.52421569824</ele>
        <time>2016-04-20T13:56:05.000Z</time>
      </trkpt>
      <trkpt lat="47.05139" lon="-0.96672">
        <ele>102.52258300781</ele>
        <time>2016-04-20T13:56:07.000Z</time>
      </trkpt>
      <trkpt lat="47.05137" lon="-0.9667">
        <ele>101.7364730835</ele>
        <time>2016-04-20T13:56:09.000Z</time>
      </trkpt>
      <trkpt lat="47.05134" lon="-0.96666">
        <ele>101.51113128662</ele>
        <time>2016-04-20T13:56:12.000Z</time>
      </trkpt>
      <trkpt lat="47.05131" lon="-0.96663">
        <ele>101.10346984863</ele>
        <time>2016-04-20T13:56:15.000Z</time>
      </trkpt>
      <trkpt lat="47.0513" lon="-0.96661">
        <ele>100.58585357666</ele>
        <time>2016-04-20T13:56:17.000Z</time>
      </trkpt>
      <trkpt lat="47.05127" lon="-0.96659">
        <ele>100.51416778564</ele>
        <time>2016-04-20T13:56:20.000Z</time>
      </trkpt>
      <trkpt lat="47.05124" lon="-0.96656">
        <ele>100.52577972412</ele>
        <time>2016-04-20T13:56:23.000Z</time>
      </trkpt>
      <trkpt lat="47.05122" lon="-0.96654">
        <ele>100.5267868042</ele>
        <time>2016-04-20T13:56:25.000Z</time>
      </trkpt>
      <trkpt lat="47.05114" lon="-0.96646">
        <ele>101.85940551758</ele>
        <time>2016-04-20T13:56:42.000Z</time>
      </trkpt>
      <trkpt lat="47.05097" lon="-0.96633">
        <ele>95.707763671875</ele>
        <time>2016-04-20T13:56:46.000Z</time>
      </trkpt>
      <trkpt lat="47.05095" lon="-0.96628">
        <ele>97.413482666016</ele>
        <time>2016-04-20T13:56:49.000Z</time>
      </trkpt>
      <trkpt lat="47.05093" lon="-0.96626">
        <ele>97.866470336914</ele>
        <time>2016-04-20T13:56:51.000Z</time>
      </trkpt>
      <trkpt lat="47.05091" lon="-0.96623">
        <ele>95.900733947754</ele>
        <time>2016-04-20T13:56:54.000Z</time>
      </trkpt>
      <trkpt lat="47.0509" lon="-0.96622">
        <ele>95.438926696777</ele>
        <time>2016-04-20T13:56:57.000Z</time>
      </trkpt>
      <trkpt lat="47.05087" lon="-0.96618">
        <ele>96.458549499512</ele>
        <time>2016-04-20T13:57:00.000Z</time>
      </trkpt>
      <trkpt lat="47.05085" lon="-0.96616">
        <ele>96.929107666016</ele>
        <time>2016-04-20T13:57:02.000Z</time>
      </trkpt>
      <trkpt lat="47.05083" lon="-0.96613">
        <ele>96.970756530762</ele>
        <time>2016-04-20T13:57:04.000Z</time>
      </trkpt>
      <trkpt lat="47.0508" lon="-0.9661">
        <ele>96.528625488281</ele>
        <time>2016-04-20T13:57:07.000Z</time>
      </trkpt>
      <trkpt lat="47.05078" lon="-0.96607">
        <ele>96.517021179199</ele>
        <time>2016-04-20T13:57:09.000Z</time>
      </trkpt>
      <trkpt lat="47.05076" lon="-0.96605">
        <ele>96.523490905762</ele>
        <time>2016-04-20T13:57:11.000Z</time>
      </trkpt>
      <trkpt lat="47.05074" lon="-0.96601">
        <ele>97.450347900391</ele>
        <time>2016-04-20T13:57:14.000Z</time>
      </trkpt>
      <trkpt lat="47.05072" lon="-0.96597">
        <ele>97.533653259277</ele>
        <time>2016-04-20T13:57:17.000Z</time>
      </trkpt>
      <trkpt lat="47.05069" lon="-0.96594">
        <ele>97.529113769531</ele>
        <time>2016-04-20T13:57:19.000Z</time>
      </trkpt>
      <trkpt lat="47.05067" lon="-0.96591">
        <ele>97.522850036621</ele>
        <time>2016-04-20T13:57:21.000Z</time>
      </trkpt>
      <trkpt lat="47.05066" lon="-0.96587">
        <ele>98.073089599609</ele>
        <time>2016-04-20T13:57:24.000Z</time>
      </trkpt>
      <trkpt lat="47.05063" lon="-0.96583">
        <ele>97.110298156738</ele>
        <time>2016-04-20T13:57:27.000Z</time>
      </trkpt>
      <trkpt lat="47.05061" lon="-0.9658">
        <ele>96.920394897461</ele>
        <time>2016-04-20T13:57:29.000Z</time>
      </trkpt>
      <trkpt lat="47.05059" lon="-0.96578">
        <ele>96.134460449219</ele>
        <time>2016-04-20T13:57:31.000Z</time>
      </trkpt>
      <trkpt lat="47.05057" lon="-0.96574">
        <ele>95.520736694336</ele>
        <time>2016-04-20T13:57:34.000Z</time>
      </trkpt>
      <trkpt lat="47.05055" lon="-0.9657">
        <ele>95.509666442871</ele>
        <time>2016-04-20T13:57:36.000Z</time>
      </trkpt>
      <trkpt lat="47.05053" lon="-0.96566">
        <ele>94.59545135498</ele>
        <time>2016-04-20T13:57:39.000Z</time>
      </trkpt>
      <trkpt lat="47.05052" lon="-0.96563">
        <ele>94.509994506836</ele>
        <time>2016-04-20T13:57:41.000Z</time>
      </trkpt>
      <trkpt lat="47.0505" lon="-0.96558">
        <ele>93.757545471191</ele>
        <time>2016-04-20T13:57:44.000Z</time>
      </trkpt>
      <trkpt lat="47.05048" lon="-0.96556">
        <ele>93.517539978027</ele>
        <time>2016-04-20T13:57:46.000Z</time>
      </trkpt>
      <trkpt lat="47.05045" lon="-0.96552">
        <ele>93.098724365234</ele>
        <time>2016-04-20T13:57:49.000Z</time>
      </trkpt>
      <trkpt lat="47.05042" lon="-0.96548">
        <ele>92.519302368164</ele>
        <time>2016-04-20T13:57:52.000Z</time>
      </trkpt>
      <trkpt lat="47.0504" lon="-0.96544">
        <ele>92.517036437988</ele>
        <time>2016-04-20T13:57:55.000Z</time>
      </trkpt>
      <trkpt lat="47.05037" lon="-0.9654">
        <ele>93.46418762207</ele>
        <time>2016-04-20T13:57:58.000Z</time>
      </trkpt>
      <trkpt lat="47.05035" lon="-0.96537">
        <ele>93.533767700195</ele>
        <time>2016-04-20T13:58:00.000Z</time>
      </trkpt>
      <trkpt lat="47.05034" lon="-0.96535">
        <ele>93.522071838379</ele>
        <time>2016-04-20T13:58:02.000Z</time>
      </trkpt>
      <trkpt lat="47.05032" lon="-0.9653">
        <ele>93.519142150879</ele>
        <time>2016-04-20T13:58:05.000Z</time>
      </trkpt>
      <trkpt lat="47.0503" lon="-0.96527">
        <ele>92.58765411377</ele>
        <time>2016-04-20T13:58:08.000Z</time>
      </trkpt>
      <trkpt lat="47.05028" lon="-0.96523">
        <ele>92.509826660156</ele>
        <time>2016-04-20T13:58:11.000Z</time>
      </trkpt>
      <trkpt lat="47.05025" lon="-0.96519">
        <ele>91.747711181641</ele>
        <time>2016-04-20T13:58:14.000Z</time>
      </trkpt>
      <trkpt lat="47.05023" lon="-0.96515">
        <ele>91.510894775391</ele>
        <time>2016-04-20T13:58:17.000Z</time>
      </trkpt>
      <trkpt lat="47.05022" lon="-0.96512">
        <ele>91.18196105957</ele>
        <time>2016-04-20T13:58:19.000Z</time>
      </trkpt>
      <trkpt lat="47.0502" lon="-0.96509">
        <ele>91.047431945801</ele>
        <time>2016-04-20T13:58:21.000Z</time>
      </trkpt>
      <trkpt lat="47.05019" lon="-0.96506">
        <ele>91.344299316406</ele>
        <time>2016-04-20T13:58:23.000Z</time>
      </trkpt>
      <trkpt lat="47.05017" lon="-0.96503">
        <ele>90.782615661621</ele>
        <time>2016-04-20T13:58:26.000Z</time>
      </trkpt>
      <trkpt lat="47.05015" lon="-0.96501">
        <ele>90.94310760498</ele>
        <time>2016-04-20T13:58:28.000Z</time>
      </trkpt>
      <trkpt lat="47.05014" lon="-0.96498">
        <ele>90.689491271973</ele>
        <time>2016-04-20T13:58:30.000Z</time>
      </trkpt>
      <trkpt lat="47.05012" lon="-0.96494">
        <ele>90.162536621094</ele>
        <time>2016-04-20T13:58:33.000Z</time>
      </trkpt>
      <trkpt lat="47.05011" lon="-0.9649">
        <ele>88.835388183594</ele>
        <time>2016-04-20T13:58:36.000Z</time>
      </trkpt>
      <trkpt lat="47.05009" lon="-0.96486">
        <ele>87.607070922852</ele>
        <time>2016-04-20T13:58:39.000Z</time>
      </trkpt>
      <trkpt lat="47.05007" lon="-0.96483">
        <ele>87.108955383301</ele>
        <time>2016-04-20T13:58:42.000Z</time>
      </trkpt>
      <trkpt lat="47.05006" lon="-0.9648">
        <ele>86.585975646973</ele>
        <time>2016-04-20T13:58:44.000Z</time>
      </trkpt>
      <trkpt lat="47.05004" lon="-0.96477">
        <ele>85.028244018555</ele>
        <time>2016-04-20T13:58:47.000Z</time>
      </trkpt>
      <trkpt lat="47.05003" lon="-0.96474">
        <ele>84.923530578613</ele>
        <time>2016-04-20T13:58:50.000Z</time>
      </trkpt>
      <trkpt lat="47.05002" lon="-0.96472">
        <ele>85.413604736328</ele>
        <time>2016-04-20T13:58:53.000Z</time>
      </trkpt>
      <trkpt lat="47.05" lon="-0.96469">
        <ele>85.869354248047</ele>
        <time>2016-04-20T13:58:56.000Z</time>
      </trkpt>
      <trkpt lat="47.04998" lon="-0.96466">
        <ele>85.878219604492</ele>
        <time>2016-04-20T13:58:59.000Z</time>
      </trkpt>
      <trkpt lat="47.04996" lon="-0.96464">
        <ele>86.334251403809</ele>
        <time>2016-04-20T13:59:01.000Z</time>
      </trkpt>
      <trkpt lat="47.04994" lon="-0.96459">
        <ele>86.947235107422</ele>
        <time>2016-04-20T13:59:04.000Z</time>
      </trkpt>
      <trkpt lat="47.04992" lon="-0.96455">
        <ele>87.880851745605</ele>
        <time>2016-04-20T13:59:07.000Z</time>
      </trkpt>
      <trkpt lat="47.04991" lon="-0.96452">
        <ele>88.425872802734</ele>
        <time>2016-04-20T13:59:09.000Z</time>
      </trkpt>
      <trkpt lat="47.04989" lon="-0.96449">
        <ele>88.978187561035</ele>
        <time>2016-04-20T13:59:11.000Z</time>
      </trkpt>
      <trkpt lat="47.04987" lon="-0.96444">
        <ele>89.855041503906</ele>
        <time>2016-04-20T13:59:15.000Z</time>
      </trkpt>
      <trkpt lat="47.04985" lon="-0.96439">
        <ele>90.539192199707</ele>
        <time>2016-04-20T13:59:18.000Z</time>
      </trkpt>
      <trkpt lat="47.04982" lon="-0.96435">
        <ele>90.527221679688</ele>
        <time>2016-04-20T13:59:21.000Z</time>
      </trkpt>
      <trkpt lat="47.0498" lon="-0.96432">
        <ele>89.725845336914</ele>
        <time>2016-04-20T13:59:23.000Z</time>
      </trkpt>
      <trkpt lat="47.04978" lon="-0.96428">
        <ele>90.314605712891</ele>
        <time>2016-04-20T13:59:25.000Z</time>
      </trkpt>
      <trkpt lat="47.04975" lon="-0.96423">
        <ele>89.742607116699</ele>
        <time>2016-04-20T13:59:28.000Z</time>
      </trkpt>
      <trkpt lat="47.04972" lon="-0.96418">
        <ele>89.692070007324</ele>
        <time>2016-04-20T13:59:31.000Z</time>
      </trkpt>
      <trkpt lat="47.04971" lon="-0.96416">
        <ele>89.525314331055</ele>
        <time>2016-04-20T13:59:33.000Z</time>
      </trkpt>
      <trkpt lat="47.04969" lon="-0.96412">
        <ele>89.513999938965</ele>
        <time>2016-04-20T13:59:35.000Z</time>
      </trkpt>
      <trkpt lat="47.04967" lon="-0.96407">
        <ele>88.756423950195</ele>
        <time>2016-04-20T13:59:38.000Z</time>
      </trkpt>
      <trkpt lat="47.04965" lon="-0.96404">
        <ele>88.515327453613</ele>
        <time>2016-04-20T13:59:40.000Z</time>
      </trkpt>
      <trkpt lat="47.04963" lon="-0.96402">
        <ele>89.26643371582</ele>
        <time>2016-04-20T13:59:42.000Z</time>
      </trkpt>
      <trkpt lat="47.04962" lon="-0.96399">
        <ele>89.504295349121</ele>
        <time>2016-04-20T13:59:44.000Z</time>
      </trkpt>
      <trkpt lat="47.0496" lon="-0.96394">
        <ele>88.601249694824</ele>
        <time>2016-04-20T13:59:47.000Z</time>
      </trkpt>
      <trkpt lat="47.04959" lon="-0.96391">
        <ele>88.166847229004</ele>
        <time>2016-04-20T13:59:49.000Z</time>
      </trkpt>
      <trkpt lat="47.04956" lon="-0.96388">
        <ele>87.925086975098</ele>
        <time>2016-04-20T13:59:52.000Z</time>
      </trkpt>
      <trkpt lat="47.04955" lon="-0.96386">
        <ele>87.581169128418</ele>
        <time>2016-04-20T13:59:54.000Z</time>
      </trkpt>
      <trkpt lat="47.04952" lon="-0.96383">
        <ele>88.286476135254</ele>
        <time>2016-04-20T13:59:57.000Z</time>
      </trkpt>
      <trkpt lat="47.04949" lon="-0.96381">
        <ele>88.54370880127</ele>
        <time>2016-04-20T14:00:00.000Z</time>
      </trkpt>
      <trkpt lat="47.04947" lon="-0.96379">
        <ele>89.352615356445</ele>
        <time>2016-04-20T14:00:02.000Z</time>
      </trkpt>
      <trkpt lat="47.04943" lon="-0.96378">
        <ele>90.497108459473</ele>
        <time>2016-04-20T14:00:05.000Z</time>
      </trkpt>
      <trkpt lat="47.0494" lon="-0.96378">
        <ele>90.909980773926</ele>
        <time>2016-04-20T14:00:09.000Z</time>
      </trkpt>
      <trkpt lat="47.04937" lon="-0.96377">
        <ele>90.559532165527</ele>
        <time>2016-04-20T14:00:12.000Z</time>
      </trkpt>
      <trkpt lat="47.04934" lon="-0.96376">
        <ele>90.970031738281</ele>
        <time>2016-04-20T14:00:14.000Z</time>
      </trkpt>
      <trkpt lat="47.0493" lon="-0.96376">
        <ele>91.404472351074</ele>
        <time>2016-04-20T14:00:17.000Z</time>
      </trkpt>
      <trkpt lat="47.04926" lon="-0.96375">
        <ele>90.714042663574</ele>
        <time>2016-04-20T14:00:20.000Z</time>
      </trkpt>
      <trkpt lat="47.04922" lon="-0.96374">
        <ele>90.516479492188</ele>
        <time>2016-04-20T14:00:23.000Z</time>
      </trkpt>
      <trkpt lat="47.04918" lon="-0.96373">
        <ele>90.52433013916</ele>
        <time>2016-04-20T14:00:26.000Z</time>
      </trkpt>
      <trkpt lat="47.04915" lon="-0.96372">
        <ele>90.082122802734</ele>
        <time>2016-04-20T14:00:35.000Z</time>
      </trkpt>
      <trkpt lat="47.04912" lon="-0.96371">
        <ele>89.51749420166</ele>
        <time>2016-04-20T14:00:38.000Z</time>
      </trkpt>
      <trkpt lat="47.04909" lon="-0.9637">
        <ele>89.521865844727</ele>
        <time>2016-04-20T14:00:41.000Z</time>
      </trkpt>
      <trkpt lat="47.04906" lon="-0.96369">
        <ele>89.524452209473</ele>
        <time>2016-04-20T14:00:44.000Z</time>
      </trkpt>
      <trkpt lat="47.04904" lon="-0.96368">
        <ele>89.52352142334</ele>
        <time>2016-04-20T14:00:46.000Z</time>
      </trkpt>
      <trkpt lat="47.04902" lon="-0.96367">
        <ele>89.525939941406</ele>
        <time>2016-04-20T14:00:48.000Z</time>
      </trkpt>
      <trkpt lat="47.04898" lon="-0.96366">
        <ele>89.976181030273</ele>
        <time>2016-04-20T14:00:51.000Z</time>
      </trkpt>
      <trkpt lat="47.04895" lon="-0.96363">
        <ele>90.092391967773</ele>
        <time>2016-04-20T14:00:54.000Z</time>
      </trkpt>
      <trkpt lat="47.04893" lon="-0.96362">
        <ele>89.584846496582</ele>
        <time>2016-04-20T14:00:56.000Z</time>
      </trkpt>
      <trkpt lat="47.04892" lon="-0.96361">
        <ele>89.081840515137</ele>
        <time>2016-04-20T14:00:58.000Z</time>
      </trkpt>
      <trkpt lat="47.04888" lon="-0.96359">
        <ele>88.512954711914</ele>
        <time>2016-04-20T14:01:01.000Z</time>
      </trkpt>
      <trkpt lat="47.04885" lon="-0.96357">
        <ele>88.521286010742</ele>
        <time>2016-04-20T14:01:04.000Z</time>
      </trkpt>
      <trkpt lat="47.04883" lon="-0.96355">
        <ele>88.848220825195</ele>
        <time>2016-04-20T14:01:06.000Z</time>
      </trkpt>
      <trkpt lat="47.04881" lon="-0.96352">
        <ele>88.53337097168</ele>
        <time>2016-04-20T14:01:09.000Z</time>
      </trkpt>
      <trkpt lat="47.04879" lon="-0.96349">
        <ele>88.516174316406</ele>
        <time>2016-04-20T14:01:11.000Z</time>
      </trkpt>
      <trkpt lat="47.04878" lon="-0.96347">
        <ele>88.520210266113</ele>
        <time>2016-04-20T14:01:13.000Z</time>
      </trkpt>
      <trkpt lat="47.04876" lon="-0.96344">
        <ele>88.520133972168</ele>
        <time>2016-04-20T14:01:16.000Z</time>
      </trkpt>
      <trkpt lat="47.04874" lon="-0.96342">
        <ele>88.517051696777</ele>
        <time>2016-04-20T14:01:18.000Z</time>
      </trkpt>
      <trkpt lat="47.04872" lon="-0.96339">
        <ele>89.478828430176</ele>
        <time>2016-04-20T14:01:21.000Z</time>
      </trkpt>
      <trkpt lat="47.0487" lon="-0.96337">
        <ele>89.112678527832</ele>
        <time>2016-04-20T14:01:23.000Z</time>
      </trkpt>
      <trkpt lat="47.04868" lon="-0.96335">
        <ele>88.527313232422</ele>
        <time>2016-04-20T14:01:26.000Z</time>
      </trkpt>
      <trkpt lat="47.04865" lon="-0.96332">
        <ele>88.10391998291</ele>
        <time>2016-04-20T14:01:29.000Z</time>
      </trkpt>
      <trkpt lat="47.04863" lon="-0.96329">
        <ele>87.521339416504</ele>
        <time>2016-04-20T14:01:32.000Z</time>
      </trkpt>
      <trkpt lat="47.04862" lon="-0.96328">
        <ele>87.505783081055</ele>
        <time>2016-04-20T14:01:34.000Z</time>
      </trkpt>
      <trkpt lat="47.0486" lon="-0.96325">
        <ele>87.519432067871</ele>
        <time>2016-04-20T14:01:37.000Z</time>
      </trkpt>
      <trkpt lat="47.04858" lon="-0.96323">
        <ele>87.523582458496</ele>
        <time>2016-04-20T14:01:39.000Z</time>
      </trkpt>
      <trkpt lat="47.04855" lon="-0.9632">
        <ele>87.521957397461</ele>
        <time>2016-04-20T14:01:42.000Z</time>
      </trkpt>
      <trkpt lat="47.04854" lon="-0.96318">
        <ele>87.522773742676</ele>
        <time>2016-04-20T14:01:44.000Z</time>
      </trkpt>
      <trkpt lat="47.0485" lon="-0.96314">
        <ele>87.524307250977</ele>
        <time>2016-04-20T14:01:47.000Z</time>
      </trkpt>
      <trkpt lat="47.04849" lon="-0.96312">
        <ele>87.520690917969</ele>
        <time>2016-04-20T14:01:49.000Z</time>
      </trkpt>
      <trkpt lat="47.04847" lon="-0.9631">
        <ele>88.277557373047</ele>
        <time>2016-04-20T14:01:51.000Z</time>
      </trkpt>
      <trkpt lat="47.04844" lon="-0.96306">
        <ele>88.03099822998</ele>
        <time>2016-04-20T14:01:54.000Z</time>
      </trkpt>
      <trkpt lat="47.04843" lon="-0.96304">
        <ele>88.45630645752</ele>
        <time>2016-04-20T14:01:56.000Z</time>
      </trkpt>
      <trkpt lat="47.0484" lon="-0.963">
        <ele>88.527374267578</ele>
        <time>2016-04-20T14:01:59.000Z</time>
      </trkpt>
      <trkpt lat="47.04838" lon="-0.96296">
        <ele>87.599891662598</ele>
        <time>2016-04-20T14:02:02.000Z</time>
      </trkpt>
      <trkpt lat="47.04837" lon="-0.96293">
        <ele>87.132698059082</ele>
        <time>2016-04-20T14:02:04.000Z</time>
      </trkpt>
      <trkpt lat="47.04835" lon="-0.96289">
        <ele>87.108810424805</ele>
        <time>2016-04-20T14:02:07.000Z</time>
      </trkpt>
      <trkpt lat="47.04832" lon="-0.96286">
        <ele>87.487510681152</ele>
        <time>2016-04-20T14:02:09.000Z</time>
      </trkpt>
      <trkpt lat="47.0483" lon="-0.96282">
        <ele>87.522285461426</ele>
        <time>2016-04-20T14:02:12.000Z</time>
      </trkpt>
      <trkpt lat="47.04828" lon="-0.96279">
        <ele>87.525077819824</ele>
        <time>2016-04-20T14:02:14.000Z</time>
      </trkpt>
      <trkpt lat="47.04826" lon="-0.96274">
        <ele>87.52311706543</ele>
        <time>2016-04-20T14:02:17.000Z</time>
      </trkpt>
      <trkpt lat="47.04823" lon="-0.96269">
        <ele>87.124465942383</ele>
        <time>2016-04-20T14:02:20.000Z</time>
      </trkpt>
      <trkpt lat="47.04822" lon="-0.96264">
        <ele>86.543922424316</ele>
        <time>2016-04-20T14:02:23.000Z</time>
      </trkpt>
      <trkpt lat="47.04821" lon="-0.96261">
        <ele>86.855102539062</ele>
        <time>2016-04-20T14:02:25.000Z</time>
      </trkpt>
      <trkpt lat="47.0482" lon="-0.96256">
        <ele>86.545349121094</ele>
        <time>2016-04-20T14:02:28.000Z</time>
      </trkpt>
      <trkpt lat="47.04819" lon="-0.96254">
        <ele>86.138916015625</ele>
        <time>2016-04-20T14:02:30.000Z</time>
      </trkpt>
      <trkpt lat="47.04818" lon="-0.9625">
        <ele>85.604621887207</ele>
        <time>2016-04-20T14:02:32.000Z</time>
      </trkpt>
      <trkpt lat="47.04816" lon="-0.96247">
        <ele>85.506965637207</ele>
        <time>2016-04-20T14:02:34.000Z</time>
      </trkpt>
      <trkpt lat="47.04815" lon="-0.96242">
        <ele>85.511360168457</ele>
        <time>2016-04-20T14:02:37.000Z</time>
      </trkpt>
      <trkpt lat="47.04814" lon="-0.96236">
        <ele>84.668678283691</ele>
        <time>2016-04-20T14:02:40.000Z</time>
      </trkpt>
      <trkpt lat="47.04813" lon="-0.96231">
        <ele>84.501617431641</ele>
        <time>2016-04-20T14:02:43.000Z</time>
      </trkpt>
      <trkpt lat="47.04813" lon="-0.96228">
        <ele>84.494911193848</ele>
        <time>2016-04-20T14:02:45.000Z</time>
      </trkpt>
      <trkpt lat="47.04812" lon="-0.96223">
        <ele>85.202796936035</ele>
        <time>2016-04-20T14:02:48.000Z</time>
      </trkpt>
      <trkpt lat="47.04812" lon="-0.96217">
        <ele>86.063896179199</ele>
        <time>2016-04-20T14:02:51.000Z</time>
      </trkpt>
      <trkpt lat="47.04812" lon="-0.96214">
        <ele>86.269943237305</ele>
        <time>2016-04-20T14:02:53.000Z</time>
      </trkpt>
      <trkpt lat="47.04812" lon="-0.9621">
        <ele>86.366516113281</ele>
        <time>2016-04-20T14:02:55.000Z</time>
      </trkpt>
      <trkpt lat="47.04811" lon="-0.96205">
        <ele>87.213081359863</ele>
        <time>2016-04-20T14:02:58.000Z</time>
      </trkpt>
      <trkpt lat="47.04811" lon="-0.96201">
        <ele>87.44303894043</ele>
        <time>2016-04-20T14:03:00.000Z</time>
      </trkpt>
      <trkpt lat="47.04811" lon="-0.96198">
        <ele>87.463470458984</ele>
        <time>2016-04-20T14:03:02.000Z</time>
      </trkpt>
      <trkpt lat="47.04811" lon="-0.96195">
        <ele>87.445922851562</ele>
        <time>2016-04-20T14:03:04.000Z</time>
      </trkpt>
      <trkpt lat="47.04811" lon="-0.9619">
        <ele>87.467666625977</ele>
        <time>2016-04-20T14:03:07.000Z</time>
      </trkpt>
      <trkpt lat="47.04811" lon="-0.96186">
        <ele>87.01823425293</ele>
        <time>2016-04-20T14:03:09.000Z</time>
      </trkpt>
      <trkpt lat="47.04811" lon="-0.96181">
        <ele>86.81128692627</ele>
        <time>2016-04-20T14:03:12.000Z</time>
      </trkpt>
      <trkpt lat="47.0481" lon="-0.96176">
        <ele>85.455307006836</ele>
        <time>2016-04-20T14:03:15.000Z</time>
      </trkpt>
      <trkpt lat="47.0481" lon="-0.96172">
        <ele>85.312744140625</ele>
        <time>2016-04-20T14:03:17.000Z</time>
      </trkpt>
      <trkpt lat="47.04809" lon="-0.96166">
        <ele>86.035438537598</ele>
        <time>2016-04-20T14:03:20.000Z</time>
      </trkpt>
      <trkpt lat="47.04808" lon="-0.96162">
        <ele>86.310592651367</ele>
        <time>2016-04-20T14:03:22.000Z</time>
      </trkpt>
      <trkpt lat="47.04808" lon="-0.96157">
        <ele>86.746574401855</ele>
        <time>2016-04-20T14:03:25.000Z</time>
      </trkpt>
      <trkpt lat="47.04808" lon="-0.96151">
        <ele>86.945869445801</ele>
        <time>2016-04-20T14:03:28.000Z</time>
      </trkpt>
      <trkpt lat="47.04808" lon="-0.96146">
        <ele>86.669067382812</ele>
        <time>2016-04-20T14:03:31.000Z</time>
      </trkpt>
      <trkpt lat="47.04808" lon="-0.96143">
        <ele>86.41153717041</ele>
        <time>2016-04-20T14:03:33.000Z</time>
      </trkpt>
      <trkpt lat="47.04807" lon="-0.96137">
        <ele>86.180595397949</ele>
        <time>2016-04-20T14:03:36.000Z</time>
      </trkpt>
      <trkpt lat="47.04807" lon="-0.96133">
        <ele>85.679183959961</ele>
        <time>2016-04-20T14:03:38.000Z</time>
      </trkpt>
      <trkpt lat="47.04806" lon="-0.96129">
        <ele>85.847946166992</ele>
        <time>2016-04-20T14:03:40.000Z</time>
      </trkpt>
      <trkpt lat="47.04805" lon="-0.96125">
        <ele>86.659873962402</ele>
        <time>2016-04-20T14:03:43.000Z</time>
      </trkpt>
      <trkpt lat="47.04805" lon="-0.96121">
        <ele>87.165603637695</ele>
        <time>2016-04-20T14:03:45.000Z</time>
      </trkpt>
      <trkpt lat="47.04804" lon="-0.96116">
        <ele>87.795928955078</ele>
        <time>2016-04-20T14:03:48.000Z</time>
      </trkpt>
      <trkpt lat="47.04803" lon="-0.96111">
        <ele>88.336151123047</ele>
        <time>2016-04-20T14:03:51.000Z</time>
      </trkpt>
      <trkpt lat="47.04802" lon="-0.96106">
        <ele>88.519416809082</ele>
        <time>2016-04-20T14:03:54.000Z</time>
      </trkpt>
      <trkpt lat="47.04802" lon="-0.96103">
        <ele>88.521751403809</ele>
        <time>2016-04-20T14:03:56.000Z</time>
      </trkpt>
      <trkpt lat="47.04801" lon="-0.96097">
        <ele>88.503318786621</ele>
        <time>2016-04-20T14:03:59.000Z</time>
      </trkpt>
      <trkpt lat="47.048" lon="-0.96094">
        <ele>88.504386901855</ele>
        <time>2016-04-20T14:04:01.000Z</time>
      </trkpt>
      <trkpt lat="47.048" lon="-0.96089">
        <ele>87.753196716309</ele>
        <time>2016-04-20T14:04:04.000Z</time>
      </trkpt>
      <trkpt lat="47.04799" lon="-0.96085">
        <ele>87.51927947998</ele>
        <time>2016-04-20T14:04:07.000Z</time>
      </trkpt>
      <trkpt lat="47.04798" lon="-0.9608">
        <ele>86.678787231445</ele>
        <time>2016-04-20T14:04:10.000Z</time>
      </trkpt>
      <trkpt lat="47.04797" lon="-0.96077">
        <ele>86.502624511719</ele>
        <time>2016-04-20T14:04:12.000Z</time>
      </trkpt>
      <trkpt lat="47.04796" lon="-0.96071">
        <ele>86.506187438965</ele>
        <time>2016-04-20T14:04:15.000Z</time>
      </trkpt>
      <trkpt lat="47.04795" lon="-0.96068">
        <ele>86.512008666992</ele>
        <time>2016-04-20T14:04:17.000Z</time>
      </trkpt>
      <trkpt lat="47.04794" lon="-0.96065">
        <ele>87.192108154297</ele>
        <time>2016-04-20T14:04:19.000Z</time>
      </trkpt>
      <trkpt lat="47.04792" lon="-0.9606">
        <ele>87.541687011719</ele>
        <time>2016-04-20T14:04:22.000Z</time>
      </trkpt>
      <trkpt lat="47.0479" lon="-0.96057">
        <ele>87.527320861816</ele>
        <time>2016-04-20T14:04:24.000Z</time>
      </trkpt>
      <trkpt lat="47.04789" lon="-0.96053">
        <ele>87.518325805664</ele>
        <time>2016-04-20T14:04:27.000Z</time>
      </trkpt>
      <trkpt lat="47.04787" lon="-0.96048">
        <ele>87.518737792969</ele>
        <time>2016-04-20T14:04:30.000Z</time>
      </trkpt>
      <trkpt lat="47.04785" lon="-0.96045">
        <ele>87.521102905273</ele>
        <time>2016-04-20T14:04:32.000Z</time>
      </trkpt>
      <trkpt lat="47.04784" lon="-0.96042">
        <ele>87.517295837402</ele>
        <time>2016-04-20T14:04:34.000Z</time>
      </trkpt>
      <trkpt lat="47.04782" lon="-0.96037">
        <ele>87.51392364502</ele>
        <time>2016-04-20T14:04:37.000Z</time>
      </trkpt>
      <trkpt lat="47.04781" lon="-0.96035">
        <ele>88.207344055176</ele>
        <time>2016-04-20T14:04:39.000Z</time>
      </trkpt>
      <trkpt lat="47.04779" lon="-0.9603">
        <ele>88.529594421387</ele>
        <time>2016-04-20T14:04:42.000Z</time>
      </trkpt>
      <trkpt lat="47.04778" lon="-0.96026">
        <ele>88.520622253418</ele>
        <time>2016-04-20T14:04:45.000Z</time>
      </trkpt>
      <trkpt lat="47.04776" lon="-0.96023">
        <ele>88.928817749023</ele>
        <time>2016-04-20T14:04:47.000Z</time>
      </trkpt>
      <trkpt lat="47.04774" lon="-0.96018">
        <ele>89.494705200195</ele>
        <time>2016-04-20T14:04:50.000Z</time>
      </trkpt>
      <trkpt lat="47.04773" lon="-0.96015">
        <ele>89.52449798584</ele>
        <time>2016-04-20T14:04:52.000Z</time>
      </trkpt>
      <trkpt lat="47.04772" lon="-0.96011">
        <ele>89.511764526367</ele>
        <time>2016-04-20T14:04:55.000Z</time>
      </trkpt>
      <trkpt lat="47.04771" lon="-0.96008">
        <ele>89.512725830078</ele>
        <time>2016-04-20T14:04:57.000Z</time>
      </trkpt>
      <trkpt lat="47.04769" lon="-0.96003">
        <ele>90.423416137695</ele>
        <time>2016-04-20T14:05:00.000Z</time>
      </trkpt>
      <trkpt lat="47.04768" lon="-0.95999">
        <ele>90.538429260254</ele>
        <time>2016-04-20T14:05:03.000Z</time>
      </trkpt>
      <trkpt lat="47.04766" lon="-0.95995">
        <ele>89.790084838867</ele>
        <time>2016-04-20T14:05:06.000Z</time>
      </trkpt>
      <trkpt lat="47.04765" lon="-0.95992">
        <ele>90.26091003418</ele>
        <time>2016-04-20T14:05:08.000Z</time>
      </trkpt>
      <trkpt lat="47.04762" lon="-0.95987">
        <ele>90.531021118164</ele>
        <time>2016-04-20T14:05:11.000Z</time>
      </trkpt>
      <trkpt lat="47.04761" lon="-0.95984">
        <ele>90.521049499512</ele>
        <time>2016-04-20T14:05:13.000Z</time>
      </trkpt>
      <trkpt lat="47.0476" lon="-0.95979">
        <ele>90.512878417969</ele>
        <time>2016-04-20T14:05:16.000Z</time>
      </trkpt>
      <trkpt lat="47.04758" lon="-0.95976">
        <ele>90.512794494629</ele>
        <time>2016-04-20T14:05:18.000Z</time>
      </trkpt>
      <trkpt lat="47.04757" lon="-0.95972">
        <ele>90.519798278809</ele>
        <time>2016-04-20T14:05:21.000Z</time>
      </trkpt>
      <trkpt lat="47.04755" lon="-0.95967">
        <ele>91.413787841797</ele>
        <time>2016-04-20T14:05:24.000Z</time>
      </trkpt>
      <trkpt lat="47.04753" lon="-0.95963">
        <ele>91.316047668457</ele>
        <time>2016-04-20T14:05:27.000Z</time>
      </trkpt>
      <trkpt lat="47.04752" lon="-0.9596">
        <ele>91.162017822266</ele>
        <time>2016-04-20T14:05:29.000Z</time>
      </trkpt>
      <trkpt lat="47.0475" lon="-0.95956">
        <ele>91.016250610352</ele>
        <time>2016-04-20T14:05:32.000Z</time>
      </trkpt>
      <trkpt lat="47.04748" lon="-0.95952">
        <ele>91.107688903809</ele>
        <time>2016-04-20T14:05:35.000Z</time>
      </trkpt>
      <trkpt lat="47.04745" lon="-0.95948">
        <ele>90.521415710449</ele>
        <time>2016-04-20T14:05:38.000Z</time>
      </trkpt>
      <trkpt lat="47.04743" lon="-0.95945">
        <ele>90.515922546387</ele>
        <time>2016-04-20T14:05:40.000Z</time>
      </trkpt>
      <trkpt lat="47.04741" lon="-0.95941">
        <ele>90.519340515137</ele>
        <time>2016-04-20T14:05:43.000Z</time>
      </trkpt>
      <trkpt lat="47.04739" lon="-0.95936">
        <ele>90.322723388672</ele>
        <time>2016-04-20T14:05:46.000Z</time>
      </trkpt>
      <trkpt lat="47.04737" lon="-0.95931">
        <ele>90.525207519531</ele>
        <time>2016-04-20T14:05:49.000Z</time>
      </trkpt>
      <trkpt lat="47.04735" lon="-0.95928">
        <ele>90.51636505127</ele>
        <time>2016-04-20T14:05:52.000Z</time>
      </trkpt>
      <trkpt lat="47.04733" lon="-0.95924">
        <ele>90.7109375</ele>
        <time>2016-04-20T14:05:55.000Z</time>
      </trkpt>
      <trkpt lat="47.04732" lon="-0.95921">
        <ele>90.934585571289</ele>
        <time>2016-04-20T14:05:57.000Z</time>
      </trkpt>
      <trkpt lat="47.0473" lon="-0.95917">
        <ele>90.588600158691</ele>
        <time>2016-04-20T14:06:00.000Z</time>
      </trkpt>
      <trkpt lat="47.04728" lon="-0.95913">
        <ele>90.957527160645</ele>
        <time>2016-04-20T14:06:03.000Z</time>
      </trkpt>
      <trkpt lat="47.04726" lon="-0.95909">
        <ele>91.007347106934</ele>
        <time>2016-04-20T14:06:06.000Z</time>
      </trkpt>
      <trkpt lat="47.04724" lon="-0.95905">
        <ele>91.51863861084</ele>
        <time>2016-04-20T14:06:09.000Z</time>
      </trkpt>
      <trkpt lat="47.04723" lon="-0.95902">
        <ele>91.519744873047</ele>
        <time>2016-04-20T14:06:13.000Z</time>
      </trkpt>
      <trkpt lat="47.04722" lon="-0.95901">
        <ele>91.512405395508</ele>
        <time>2016-04-20T14:06:17.000Z</time>
      </trkpt>
      <trkpt lat="47.0472" lon="-0.95898">
        <ele>91.525169372559</ele>
        <time>2016-04-20T14:06:20.000Z</time>
      </trkpt>
      <trkpt lat="47.04718" lon="-0.95896">
        <ele>91.522369384766</ele>
        <time>2016-04-20T14:06:22.000Z</time>
      </trkpt>
      <trkpt lat="47.04715" lon="-0.95891">
        <ele>91.521949768066</ele>
        <time>2016-04-20T14:06:25.000Z</time>
      </trkpt>
      <trkpt lat="47.04713" lon="-0.95887">
        <ele>91.911529541016</ele>
        <time>2016-04-20T14:06:28.000Z</time>
      </trkpt>
      <trkpt lat="47.04712" lon="-0.95885">
        <ele>92.41072845459</ele>
        <time>2016-04-20T14:06:30.000Z</time>
      </trkpt>
      <trkpt lat="47.04712" lon="-0.95882">
        <ele>92.516212463379</ele>
        <time>2016-04-20T14:06:32.000Z</time>
      </trkpt>
      <trkpt lat="47.0471" lon="-0.95879">
        <ele>92.168846130371</ele>
        <time>2016-04-20T14:06:35.000Z</time>
      </trkpt>
      <trkpt lat="47.04708" lon="-0.95876">
        <ele>92.464088439941</ele>
        <time>2016-04-20T14:06:37.000Z</time>
      </trkpt>
      <trkpt lat="47.04706" lon="-0.95872">
        <ele>92.52018737793</ele>
        <time>2016-04-20T14:06:40.000Z</time>
      </trkpt>
      <trkpt lat="47.04704" lon="-0.95867">
        <ele>91.777389526367</ele>
        <time>2016-04-20T14:06:43.000Z</time>
      </trkpt>
      <trkpt lat="47.04702" lon="-0.95864">
        <ele>91.868057250977</ele>
        <time>2016-04-20T14:06:45.000Z</time>
      </trkpt>
      <trkpt lat="47.04701" lon="-0.95862">
        <ele>92.335670471191</ele>
        <time>2016-04-20T14:06:47.000Z</time>
      </trkpt>
      <trkpt lat="47.04699" lon="-0.95857">
        <ele>92.344902038574</ele>
        <time>2016-04-20T14:06:50.000Z</time>
      </trkpt>
      <trkpt lat="47.04697" lon="-0.95853">
        <ele>92.520172119141</ele>
        <time>2016-04-20T14:06:53.000Z</time>
      </trkpt>
      <trkpt lat="47.04694" lon="-0.9585">
        <ele>92.19620513916</ele>
        <time>2016-04-20T14:06:56.000Z</time>
      </trkpt>
      <trkpt lat="47.04692" lon="-0.95846">
        <ele>92.51277923584</ele>
        <time>2016-04-20T14:06:59.000Z</time>
      </trkpt>
      <trkpt lat="47.0469" lon="-0.95843">
        <ele>92.522964477539</ele>
        <time>2016-04-20T14:07:01.000Z</time>
      </trkpt>
      <trkpt lat="47.04689" lon="-0.9584">
        <ele>92.901039123535</ele>
        <time>2016-04-20T14:07:04.000Z</time>
      </trkpt>
      <trkpt lat="47.04686" lon="-0.95836">
        <ele>93.51863861084</ele>
        <time>2016-04-20T14:07:07.000Z</time>
      </trkpt>
      <trkpt lat="47.04685" lon="-0.95833">
        <ele>93.528968811035</ele>
        <time>2016-04-20T14:07:09.000Z</time>
      </trkpt>
      <trkpt lat="47.04682" lon="-0.95829">
        <ele>92.937400817871</ele>
        <time>2016-04-20T14:07:12.000Z</time>
      </trkpt>
      <trkpt lat="47.04679" lon="-0.95826">
        <ele>93.463722229004</ele>
        <time>2016-04-20T14:07:15.000Z</time>
      </trkpt>
      <trkpt lat="47.04679" lon="-0.95823">
        <ele>93.511894226074</ele>
        <time>2016-04-20T14:07:17.000Z</time>
      </trkpt>
      <trkpt lat="47.04677" lon="-0.9582">
        <ele>92.800491333008</ele>
        <time>2016-04-20T14:07:19.000Z</time>
      </trkpt>
      <trkpt lat="47.04675" lon="-0.95815">
        <ele>92.503242492676</ele>
        <time>2016-04-20T14:07:22.000Z</time>
      </trkpt>
      <trkpt lat="47.04674" lon="-0.95812">
        <ele>92.512229919434</ele>
        <time>2016-04-20T14:07:24.000Z</time>
      </trkpt>
      <trkpt lat="47.04672" lon="-0.95808">
        <ele>93.43327331543</ele>
        <time>2016-04-20T14:07:27.000Z</time>
      </trkpt>
      <trkpt lat="47.04669" lon="-0.95804">
        <ele>93.377555847168</ele>
        <time>2016-04-20T14:07:30.000Z</time>
      </trkpt>
      <trkpt lat="47.04667" lon="-0.95801">
        <ele>94.274826049805</ele>
        <time>2016-04-20T14:07:32.000Z</time>
      </trkpt>
      <trkpt lat="47.04665" lon="-0.95797">
        <ele>94.344665527344</ele>
        <time>2016-04-20T14:07:35.000Z</time>
      </trkpt>
      <trkpt lat="47.04663" lon="-0.95794">
        <ele>94.512786865234</ele>
        <time>2016-04-20T14:07:37.000Z</time>
      </trkpt>
      <trkpt lat="47.04662" lon="-0.9579">
        <ele>94.522033691406</ele>
        <time>2016-04-20T14:07:40.000Z</time>
      </trkpt>
      <trkpt lat="47.0466" lon="-0.95788">
        <ele>94.097541809082</ele>
        <time>2016-04-20T14:07:43.000Z</time>
      </trkpt>
      <trkpt lat="47.04659" lon="-0.95784">
        <ele>94.110137939453</ele>
        <time>2016-04-20T14:07:46.000Z</time>
      </trkpt>
      <trkpt lat="47.04658" lon="-0.95782">
        <ele>93.711402893066</ele>
        <time>2016-04-20T14:07:49.000Z</time>
      </trkpt>
      <trkpt lat="47.04655" lon="-0.95779">
        <ele>93.513572692871</ele>
        <time>2016-04-20T14:07:52.000Z</time>
      </trkpt>
      <trkpt lat="47.04652" lon="-0.95775">
        <ele>93.954650878906</ele>
        <time>2016-04-20T14:07:55.000Z</time>
      </trkpt>
      <trkpt lat="47.04651" lon="-0.95773">
        <ele>94.462677001953</ele>
        <time>2016-04-20T14:07:57.000Z</time>
      </trkpt>
      <trkpt lat="47.04648" lon="-0.95769">
        <ele>94.533309936523</ele>
        <time>2016-04-20T14:08:00.000Z</time>
      </trkpt>
      <trkpt lat="47.04648" lon="-0.95769">
        <ele>91.430763244629</ele>
        <time>2016-04-20T14:08:20.000Z</time>
      </trkpt>
      <trkpt lat="47.04641" lon="-0.95759">
        <ele>96.011299133301</ele>
        <time>2016-04-20T14:08:21.000Z</time>
      </trkpt>
      <trkpt lat="47.04626" lon="-0.95739">
        <ele>96.239120483398</ele>
        <time>2016-04-20T14:08:25.000Z</time>
      </trkpt>
      <trkpt lat="47.04624" lon="-0.95736">
        <ele>95.61319732666</ele>
        <time>2016-04-20T14:08:28.000Z</time>
      </trkpt>
      <trkpt lat="47.04623" lon="-0.95734">
        <ele>95.918830871582</ele>
        <time>2016-04-20T14:08:30.000Z</time>
      </trkpt>
      <trkpt lat="47.04621" lon="-0.95731">
        <ele>95.663642883301</ele>
        <time>2016-04-20T14:08:32.000Z</time>
      </trkpt>
      <trkpt lat="47.04618" lon="-0.95729">
        <ele>96.48957824707</ele>
        <time>2016-04-20T14:08:35.000Z</time>
      </trkpt>
      <trkpt lat="47.04615" lon="-0.95727">
        <ele>96.540962219238</ele>
        <time>2016-04-20T14:08:37.000Z</time>
      </trkpt>
      <trkpt lat="47.04612" lon="-0.95724">
        <ele>97.464805603027</ele>
        <time>2016-04-20T14:08:40.000Z</time>
      </trkpt>
      <trkpt lat="47.0461" lon="-0.95722">
        <ele>97.534332275391</ele>
        <time>2016-04-20T14:08:42.000Z</time>
      </trkpt>
      <trkpt lat="47.04609" lon="-0.9572">
        <ele>97.945556640625</ele>
        <time>2016-04-20T14:08:44.000Z</time>
      </trkpt>
      <trkpt lat="47.04605" lon="-0.95717">
        <ele>98.537696838379</ele>
        <time>2016-04-20T14:08:47.000Z</time>
      </trkpt>
      <trkpt lat="47.04604" lon="-0.95714">
        <ele>98.530891418457</ele>
        <time>2016-04-20T14:08:49.000Z</time>
      </trkpt>
      <trkpt lat="47.04602" lon="-0.95712">
        <ele>97.763938903809</ele>
        <time>2016-04-20T14:08:52.000Z</time>
      </trkpt>
      <trkpt lat="47.04599" lon="-0.95709">
        <ele>97.506439208984</ele>
        <time>2016-04-20T14:08:55.000Z</time>
      </trkpt>
      <trkpt lat="47.04596" lon="-0.95707">
        <ele>97.52367401123</ele>
        <time>2016-04-20T14:08:57.000Z</time>
      </trkpt>
      <trkpt lat="47.04594" lon="-0.95704">
        <ele>97.523712158203</ele>
        <time>2016-04-20T14:09:00.000Z</time>
      </trkpt>
      <trkpt lat="47.04592" lon="-0.95702">
        <ele>97.524131774902</ele>
        <time>2016-04-20T14:09:02.000Z</time>
      </trkpt>
      <trkpt lat="47.0459" lon="-0.957">
        <ele>97.524215698242</ele>
        <time>2016-04-20T14:09:04.000Z</time>
      </trkpt>
      <trkpt lat="47.04587" lon="-0.95697">
        <ele>97.522888183594</ele>
        <time>2016-04-20T14:09:07.000Z</time>
      </trkpt>
      <trkpt lat="47.04585" lon="-0.95695">
        <ele>97.523887634277</ele>
        <time>2016-04-20T14:09:09.000Z</time>
      </trkpt>
      <trkpt lat="47.04583" lon="-0.95693">
        <ele>97.525215148926</ele>
        <time>2016-04-20T14:09:11.000Z</time>
      </trkpt>
      <trkpt lat="47.04581" lon="-0.95691">
        <ele>97.52660369873</ele>
        <time>2016-04-20T14:09:13.000Z</time>
      </trkpt>
      <trkpt lat="47.04577" lon="-0.95689">
        <ele>97.526214599609</ele>
        <time>2016-04-20T14:09:16.000Z</time>
      </trkpt>
      <trkpt lat="47.04575" lon="-0.95687">
        <ele>97.523773193359</ele>
        <time>2016-04-20T14:09:18.000Z</time>
      </trkpt>
      <trkpt lat="47.04573" lon="-0.95685">
        <ele>97.526290893555</ele>
        <time>2016-04-20T14:09:20.000Z</time>
      </trkpt>
      <trkpt lat="47.0457" lon="-0.95682">
        <ele>97.527435302734</ele>
        <time>2016-04-20T14:09:23.000Z</time>
      </trkpt>
      <trkpt lat="47.04567" lon="-0.95681">
        <ele>97.526245117188</ele>
        <time>2016-04-20T14:09:25.000Z</time>
      </trkpt>
      <trkpt lat="47.04565" lon="-0.95679">
        <ele>97.527587890625</ele>
        <time>2016-04-20T14:09:27.000Z</time>
      </trkpt>
      <trkpt lat="47.04562" lon="-0.95677">
        <ele>97.526565551758</ele>
        <time>2016-04-20T14:09:30.000Z</time>
      </trkpt>
      <trkpt lat="47.04559" lon="-0.95675">
        <ele>97.527557373047</ele>
        <time>2016-04-20T14:09:32.000Z</time>
      </trkpt>
      <trkpt lat="47.04556" lon="-0.95672">
        <ele>96.569465637207</ele>
        <time>2016-04-20T14:09:35.000Z</time>
      </trkpt>
      <trkpt lat="47.04554" lon="-0.95669">
        <ele>97.461708068848</ele>
        <time>2016-04-20T14:09:38.000Z</time>
      </trkpt>
      <trkpt lat="47.04552" lon="-0.95667">
        <ele>97.540168762207</ele>
        <time>2016-04-20T14:09:40.000Z</time>
      </trkpt>
      <trkpt lat="47.0455" lon="-0.95665">
        <ele>97.528358459473</ele>
        <time>2016-04-20T14:09:42.000Z</time>
      </trkpt>
      <trkpt lat="47.04546" lon="-0.95662">
        <ele>97.527374267578</ele>
        <time>2016-04-20T14:09:45.000Z</time>
      </trkpt>
      <trkpt lat="47.04543" lon="-0.9566">
        <ele>97.972503662109</ele>
        <time>2016-04-20T14:09:48.000Z</time>
      </trkpt>
      <trkpt lat="47.0454" lon="-0.95657">
        <ele>98.529006958008</ele>
        <time>2016-04-20T14:09:51.000Z</time>
      </trkpt>
      <trkpt lat="47.04538" lon="-0.95656">
        <ele>98.533248901367</ele>
        <time>2016-04-20T14:09:53.000Z</time>
      </trkpt>
      <trkpt lat="47.04535" lon="-0.95654">
        <ele>98.52522277832</ele>
        <time>2016-04-20T14:09:56.000Z</time>
      </trkpt>
      <trkpt lat="47.04531" lon="-0.95652">
        <ele>98.526954650879</ele>
        <time>2016-04-20T14:09:59.000Z</time>
      </trkpt>
      <trkpt lat="47.04529" lon="-0.9565">
        <ele>98.524887084961</ele>
        <time>2016-04-20T14:10:01.000Z</time>
      </trkpt>
      <trkpt lat="47.04526" lon="-0.95647">
        <ele>98.525718688965</ele>
        <time>2016-04-20T14:10:04.000Z</time>
      </trkpt>
      <trkpt lat="47.04524" lon="-0.95645">
        <ele>98.525260925293</ele>
        <time>2016-04-20T14:10:06.000Z</time>
      </trkpt>
      <trkpt lat="47.04521" lon="-0.95642">
        <ele>98.523460388184</ele>
        <time>2016-04-20T14:10:09.000Z</time>
      </trkpt>
      <trkpt lat="47.04519" lon="-0.95641">
        <ele>98.52734375</ele>
        <time>2016-04-20T14:10:11.000Z</time>
      </trkpt>
      <trkpt lat="47.04515" lon="-0.95638">
        <ele>98.525001525879</ele>
        <time>2016-04-20T14:10:14.000Z</time>
      </trkpt>
      <trkpt lat="47.04512" lon="-0.95635">
        <ele>97.92049407959</ele>
        <time>2016-04-20T14:10:17.000Z</time>
      </trkpt>
      <trkpt lat="47.0451" lon="-0.95634">
        <ele>97.560920715332</ele>
        <time>2016-04-20T14:10:19.000Z</time>
      </trkpt>
      <trkpt lat="47.04509" lon="-0.95632">
        <ele>97.873504638672</ele>
        <time>2016-04-20T14:10:21.000Z</time>
      </trkpt>
      <trkpt lat="47.04505" lon="-0.9563">
        <ele>98.325164794922</ele>
        <time>2016-04-20T14:10:24.000Z</time>
      </trkpt>
      <trkpt lat="47.04502" lon="-0.95627">
        <ele>98.37181854248</ele>
        <time>2016-04-20T14:10:27.000Z</time>
      </trkpt>
      <trkpt lat="47.04501" lon="-0.95626">
        <ele>98.513572692871</ele>
        <time>2016-04-20T14:10:29.000Z</time>
      </trkpt>
      <trkpt lat="47.04498" lon="-0.95624">
        <ele>98.525421142578</ele>
        <time>2016-04-20T14:10:32.000Z</time>
      </trkpt>
      <trkpt lat="47.04495" lon="-0.95621">
        <ele>98.524475097656</ele>
        <time>2016-04-20T14:10:35.000Z</time>
      </trkpt>
      <trkpt lat="47.04492" lon="-0.95619">
        <ele>98.52400970459</ele>
        <time>2016-04-20T14:10:38.000Z</time>
      </trkpt>
      <trkpt lat="47.0449" lon="-0.95617">
        <ele>98.521766662598</ele>
        <time>2016-04-20T14:10:40.000Z</time>
      </trkpt>
      <trkpt lat="47.04487" lon="-0.95615">
        <ele>98.52619934082</ele>
        <time>2016-04-20T14:10:43.000Z</time>
      </trkpt>
      <trkpt lat="47.04485" lon="-0.95613">
        <ele>98.071022033691</ele>
        <time>2016-04-20T14:10:45.000Z</time>
      </trkpt>
      <trkpt lat="47.04482" lon="-0.9561">
        <ele>97.51927947998</ele>
        <time>2016-04-20T14:10:48.000Z</time>
      </trkpt>
      <trkpt lat="47.04479" lon="-0.95607">
        <ele>97.518814086914</ele>
        <time>2016-04-20T14:10:51.000Z</time>
      </trkpt>
      <trkpt lat="47.04476" lon="-0.95604">
        <ele>97.526489257812</ele>
        <time>2016-04-20T14:10:54.000Z</time>
      </trkpt>
      <trkpt lat="47.04474" lon="-0.95602">
        <ele>97.522682189941</ele>
        <time>2016-04-20T14:10:56.000Z</time>
      </trkpt>
      <trkpt lat="47.04471" lon="-0.95599">
        <ele>98.332824707031</ele>
        <time>2016-04-20T14:10:59.000Z</time>
      </trkpt>
      <trkpt lat="47.04469" lon="-0.95597">
        <ele>98.529632568359</ele>
        <time>2016-04-20T14:11:01.000Z</time>
      </trkpt>
      <trkpt lat="47.04466" lon="-0.95596">
        <ele>98.53426361084</ele>
        <time>2016-04-20T14:11:03.000Z</time>
      </trkpt>
      <trkpt lat="47.04465" lon="-0.95595">
        <ele>98.071022033691</ele>
        <time>2016-04-20T14:11:05.000Z</time>
      </trkpt>
      <trkpt lat="47.04462" lon="-0.95592">
        <ele>98.035911560059</ele>
        <time>2016-04-20T14:11:08.000Z</time>
      </trkpt>
      <trkpt lat="47.04459" lon="-0.95589">
        <ele>98.118934631348</ele>
        <time>2016-04-20T14:11:11.000Z</time>
      </trkpt>
      <trkpt lat="47.04456" lon="-0.95586">
        <ele>98.522796630859</ele>
        <time>2016-04-20T14:11:14.000Z</time>
      </trkpt>
      <trkpt lat="47.04454" lon="-0.95584">
        <ele>98.53214263916</ele>
        <time>2016-04-20T14:11:16.000Z</time>
      </trkpt>
      <trkpt lat="47.04451" lon="-0.95582">
        <ele>98.52725982666</ele>
        <time>2016-04-20T14:11:18.000Z</time>
      </trkpt>
      <trkpt lat="47.04448" lon="-0.95579">
        <ele>98.096717834473</ele>
        <time>2016-04-20T14:11:22.000Z</time>
      </trkpt>
      <trkpt lat="47.04445" lon="-0.95575">
        <ele>97.51342010498</ele>
        <time>2016-04-20T14:11:25.000Z</time>
      </trkpt>
      <trkpt lat="47.04442" lon="-0.95572">
        <ele>97.520568847656</ele>
        <time>2016-04-20T14:11:28.000Z</time>
      </trkpt>
      <trkpt lat="47.04439" lon="-0.9557">
        <ele>97.97151184082</ele>
        <time>2016-04-20T14:11:31.000Z</time>
      </trkpt>
      <trkpt lat="47.04437" lon="-0.95568">
        <ele>98.468460083008</ele>
        <time>2016-04-20T14:11:33.000Z</time>
      </trkpt>
      <trkpt lat="47.04435" lon="-0.95565">
        <ele>98.530578613281</ele>
        <time>2016-04-20T14:11:36.000Z</time>
      </trkpt>
      <trkpt lat="47.04433" lon="-0.95563">
        <ele>98.519233703613</ele>
        <time>2016-04-20T14:11:38.000Z</time>
      </trkpt>
      <trkpt lat="47.04432" lon="-0.95561">
        <ele>98.932640075684</ele>
        <time>2016-04-20T14:11:40.000Z</time>
      </trkpt>
      <trkpt lat="47.04429" lon="-0.95558">
        <ele>99.521751403809</ele>
        <time>2016-04-20T14:11:43.000Z</time>
      </trkpt>
      <trkpt lat="47.04427" lon="-0.95556">
        <ele>99.124366760254</ele>
        <time>2016-04-20T14:11:45.000Z</time>
      </trkpt>
      <trkpt lat="47.04425" lon="-0.95553">
        <ele>98.516571044922</ele>
        <time>2016-04-20T14:11:48.000Z</time>
      </trkpt>
      <trkpt lat="47.04422" lon="-0.95551">
        <ele>98.523002624512</ele>
        <time>2016-04-20T14:11:51.000Z</time>
      </trkpt>
      <trkpt lat="47.04419" lon="-0.95548">
        <ele>98.180740356445</ele>
        <time>2016-04-20T14:11:54.000Z</time>
      </trkpt>
      <trkpt lat="47.04417" lon="-0.95546">
        <ele>98.476722717285</ele>
        <time>2016-04-20T14:11:56.000Z</time>
      </trkpt>
      <trkpt lat="47.04414" lon="-0.95543">
        <ele>97.734008789062</ele>
        <time>2016-04-20T14:11:59.000Z</time>
      </trkpt>
      <trkpt lat="47.04412" lon="-0.95541">
        <ele>97.517364501953</ele>
        <time>2016-04-20T14:12:01.000Z</time>
      </trkpt>
      <trkpt lat="47.0441" lon="-0.95539">
        <ele>97.100677490234</ele>
        <time>2016-04-20T14:12:04.000Z</time>
      </trkpt>
      <trkpt lat="47.04408" lon="-0.95537">
        <ele>96.551918029785</ele>
        <time>2016-04-20T14:12:07.000Z</time>
      </trkpt>
      <trkpt lat="47.04405" lon="-0.95535">
        <ele>96.068405151367</ele>
        <time>2016-04-20T14:12:10.000Z</time>
      </trkpt>
      <trkpt lat="47.04403" lon="-0.95535">
        <ele>96.368942260742</ele>
        <time>2016-04-20T14:12:18.000Z</time>
      </trkpt>
      <trkpt lat="47.04401" lon="-0.95534">
        <ele>96.521942138672</ele>
        <time>2016-04-20T14:12:20.000Z</time>
      </trkpt>
      <trkpt lat="47.04398" lon="-0.95532">
        <ele>96.524452209473</ele>
        <time>2016-04-20T14:12:23.000Z</time>
      </trkpt>
      <trkpt lat="47.04396" lon="-0.95531">
        <ele>96.523979187012</ele>
        <time>2016-04-20T14:12:25.000Z</time>
      </trkpt>
      <trkpt lat="47.04395" lon="-0.95531">
        <ele>95.745903015137</ele>
        <time>2016-04-20T14:12:29.000Z</time>
      </trkpt>
      <trkpt lat="47.04394" lon="-0.95531">
        <ele>95.151000976562</ele>
        <time>2016-04-20T14:12:34.000Z</time>
      </trkpt>
      <trkpt lat="47.04393" lon="-0.95531">
        <ele>94.733039855957</ele>
        <time>2016-04-20T14:12:43.000Z</time>
      </trkpt>
      <trkpt lat="47.04391" lon="-0.9553">
        <ele>94.507186889648</ele>
        <time>2016-04-20T14:12:45.000Z</time>
      </trkpt>
      <trkpt lat="47.04387" lon="-0.95528">
        <ele>95.308113098145</ele>
        <time>2016-04-20T14:12:49.000Z</time>
      </trkpt>
      <trkpt lat="47.04385" lon="-0.95526">
        <ele>95.535743713379</ele>
        <time>2016-04-20T14:12:52.000Z</time>
      </trkpt>
      <trkpt lat="47.04383" lon="-0.95525">
        <ele>95.531944274902</ele>
        <time>2016-04-20T14:12:55.000Z</time>
      </trkpt>
      <trkpt lat="47.0438" lon="-0.95523">
        <ele>94.730979919434</ele>
        <time>2016-04-20T14:12:58.000Z</time>
      </trkpt>
      <trkpt lat="47.04378" lon="-0.95522">
        <ele>94.517868041992</ele>
        <time>2016-04-20T14:13:00.000Z</time>
      </trkpt>
      <trkpt lat="47.04376" lon="-0.95521">
        <ele>94.167839050293</ele>
        <time>2016-04-20T14:13:02.000Z</time>
      </trkpt>
      <trkpt lat="47.04373" lon="-0.9552">
        <ele>94.344985961914</ele>
        <time>2016-04-20T14:13:05.000Z</time>
      </trkpt>
      <trkpt lat="47.0437" lon="-0.95518">
        <ele>94.534324645996</ele>
        <time>2016-04-20T14:13:08.000Z</time>
      </trkpt>
      <trkpt lat="47.04367" lon="-0.95516">
        <ele>94.527778625488</ele>
        <time>2016-04-20T14:13:11.000Z</time>
      </trkpt>
      <trkpt lat="47.04364" lon="-0.95515">
        <ele>93.710182189941</ele>
        <time>2016-04-20T14:13:13.000Z</time>
      </trkpt>
      <trkpt lat="47.04362" lon="-0.95514">
        <ele>93.517318725586</ele>
        <time>2016-04-20T14:13:15.000Z</time>
      </trkpt>
      <trkpt lat="47.04358" lon="-0.95513">
        <ele>93.058395385742</ele>
        <time>2016-04-20T14:13:18.000Z</time>
      </trkpt>
      <trkpt lat="47.04356" lon="-0.95511">
        <ele>92.55485534668</ele>
        <time>2016-04-20T14:13:20.000Z</time>
      </trkpt>
      <trkpt lat="47.04352" lon="-0.9551">
        <ele>92.521354675293</ele>
        <time>2016-04-20T14:13:23.000Z</time>
      </trkpt>
      <trkpt lat="47.0435" lon="-0.95509">
        <ele>92.524772644043</ele>
        <time>2016-04-20T14:13:25.000Z</time>
      </trkpt>
      <trkpt lat="47.04348" lon="-0.95508">
        <ele>92.525733947754</ele>
        <time>2016-04-20T14:13:27.000Z</time>
      </trkpt>
      <trkpt lat="47.04344" lon="-0.95506">
        <ele>92.528823852539</ele>
        <time>2016-04-20T14:13:30.000Z</time>
      </trkpt>
      <trkpt lat="47.04342" lon="-0.95504">
        <ele>92.527503967285</ele>
        <time>2016-04-20T14:13:32.000Z</time>
      </trkpt>
      <trkpt lat="47.04338" lon="-0.95503">
        <ele>92.525276184082</ele>
        <time>2016-04-20T14:13:35.000Z</time>
      </trkpt>
      <trkpt lat="47.04335" lon="-0.95501">
        <ele>92.525444030762</ele>
        <time>2016-04-20T14:13:38.000Z</time>
      </trkpt>
      <trkpt lat="47.04333" lon="-0.955">
        <ele>91.708351135254</ele>
        <time>2016-04-20T14:13:40.000Z</time>
      </trkpt>
      <trkpt lat="47.04329" lon="-0.95499">
        <ele>91.516746520996</ele>
        <time>2016-04-20T14:13:43.000Z</time>
      </trkpt>
      <trkpt lat="47.04326" lon="-0.95497">
        <ele>91.525886535645</ele>
        <time>2016-04-20T14:13:45.000Z</time>
      </trkpt>
      <trkpt lat="47.04323" lon="-0.95496">
        <ele>91.522979736328</ele>
        <time>2016-04-20T14:13:48.000Z</time>
      </trkpt>
      <trkpt lat="47.04321" lon="-0.95495">
        <ele>91.526481628418</ele>
        <time>2016-04-20T14:13:50.000Z</time>
      </trkpt>
      <trkpt lat="47.04316" lon="-0.95494">
        <ele>90.694679260254</ele>
        <time>2016-04-20T14:13:53.000Z</time>
      </trkpt>
      <trkpt lat="47.04313" lon="-0.95493">
        <ele>90.516693115234</ele>
        <time>2016-04-20T14:13:56.000Z</time>
      </trkpt>
      <trkpt lat="47.04309" lon="-0.95491">
        <ele>91.494102478027</ele>
        <time>2016-04-20T14:13:59.000Z</time>
      </trkpt>
      <trkpt lat="47.04305" lon="-0.95489">
        <ele>91.532821655273</ele>
        <time>2016-04-20T14:14:02.000Z</time>
      </trkpt>
      <trkpt lat="47.04302" lon="-0.95488">
        <ele>91.968475341797</ele>
        <time>2016-04-20T14:14:05.000Z</time>
      </trkpt>
      <trkpt lat="47.04298" lon="-0.95487">
        <ele>91.570594787598</ele>
        <time>2016-04-20T14:14:08.000Z</time>
      </trkpt>
      <trkpt lat="47.04295" lon="-0.95485">
        <ele>91.523139953613</ele>
        <time>2016-04-20T14:14:11.000Z</time>
      </trkpt>
      <trkpt lat="47.04293" lon="-0.95484">
        <ele>91.52473449707</ele>
        <time>2016-04-20T14:14:13.000Z</time>
      </trkpt>
      <trkpt lat="47.04289" lon="-0.95482">
        <ele>91.527359008789</ele>
        <time>2016-04-20T14:14:16.000Z</time>
      </trkpt>
      <trkpt lat="47.04287" lon="-0.95482">
        <ele>91.525917053223</ele>
        <time>2016-04-20T14:14:18.000Z</time>
      </trkpt>
      <trkpt lat="47.04285" lon="-0.95481">
        <ele>91.87712097168</ele>
        <time>2016-04-20T14:14:20.000Z</time>
      </trkpt>
      <trkpt lat="47.04283" lon="-0.9548">
        <ele>91.572647094727</ele>
        <time>2016-04-20T14:14:22.000Z</time>
      </trkpt>
      <trkpt lat="47.04279" lon="-0.95479">
        <ele>91.521812438965</ele>
        <time>2016-04-20T14:14:25.000Z</time>
      </trkpt>
      <trkpt lat="47.04276" lon="-0.95477">
        <ele>91.526519775391</ele>
        <time>2016-04-20T14:14:28.000Z</time>
      </trkpt>
      <trkpt lat="47.04273" lon="-0.95476">
        <ele>91.525093078613</ele>
        <time>2016-04-20T14:14:30.000Z</time>
      </trkpt>
      <trkpt lat="47.0427" lon="-0.95475">
        <ele>91.525535583496</ele>
        <time>2016-04-20T14:14:33.000Z</time>
      </trkpt>
      <trkpt lat="47.04268" lon="-0.95474">
        <ele>91.526786804199</ele>
        <time>2016-04-20T14:14:35.000Z</time>
      </trkpt>
      <trkpt lat="47.04264" lon="-0.95472">
        <ele>91.528350830078</ele>
        <time>2016-04-20T14:14:38.000Z</time>
      </trkpt>
      <trkpt lat="47.0426" lon="-0.95471">
        <ele>91.527870178223</ele>
        <time>2016-04-20T14:14:41.000Z</time>
      </trkpt>
      <trkpt lat="47.04256" lon="-0.9547">
        <ele>91.527610778809</ele>
        <time>2016-04-20T14:14:44.000Z</time>
      </trkpt>
      <trkpt lat="47.04252" lon="-0.95469">
        <ele>91.526817321777</ele>
        <time>2016-04-20T14:14:47.000Z</time>
      </trkpt>
      <trkpt lat="47.04249" lon="-0.95468">
        <ele>91.526031494141</ele>
        <time>2016-04-20T14:14:50.000Z</time>
      </trkpt>
      <trkpt lat="47.04245" lon="-0.95467">
        <ele>91.526206970215</ele>
        <time>2016-04-20T14:14:53.000Z</time>
      </trkpt>
      <trkpt lat="47.04242" lon="-0.95466">
        <ele>91.528381347656</ele>
        <time>2016-04-20T14:14:55.000Z</time>
      </trkpt>
      <trkpt lat="47.04239" lon="-0.95464">
        <ele>92.339790344238</ele>
        <time>2016-04-20T14:14:58.000Z</time>
      </trkpt>
      <trkpt lat="47.04236" lon="-0.95463">
        <ele>92.542098999023</ele>
        <time>2016-04-20T14:15:00.000Z</time>
      </trkpt>
      <trkpt lat="47.04232" lon="-0.95461">
        <ele>92.530319213867</ele>
        <time>2016-04-20T14:15:03.000Z</time>
      </trkpt>
      <trkpt lat="47.0423" lon="-0.9546">
        <ele>92.072662353516</ele>
        <time>2016-04-20T14:15:05.000Z</time>
      </trkpt>
      <trkpt lat="47.04227" lon="-0.95459">
        <ele>91.557388305664</ele>
        <time>2016-04-20T14:15:07.000Z</time>
      </trkpt>
      <trkpt lat="47.04225" lon="-0.95458">
        <ele>91.51424407959</ele>
        <time>2016-04-20T14:15:09.000Z</time>
      </trkpt>
      <trkpt lat="47.04221" lon="-0.95457">
        <ele>91.161956787109</ele>
        <time>2016-04-20T14:15:12.000Z</time>
      </trkpt>
      <trkpt lat="47.04217" lon="-0.95456">
        <ele>91.529121398926</ele>
        <time>2016-04-20T14:15:15.000Z</time>
      </trkpt>
      <trkpt lat="47.04214" lon="-0.95455">
        <ele>91.532211303711</ele>
        <time>2016-04-20T14:15:17.000Z</time>
      </trkpt>
      <trkpt lat="47.04211" lon="-0.95453">
        <ele>91.526702880859</ele>
        <time>2016-04-20T14:15:20.000Z</time>
      </trkpt>
      <trkpt lat="47.04208" lon="-0.95452">
        <ele>91.52613067627</ele>
        <time>2016-04-20T14:15:22.000Z</time>
      </trkpt>
      <trkpt lat="47.04205" lon="-0.95451">
        <ele>91.52587890625</ele>
        <time>2016-04-20T14:15:25.000Z</time>
      </trkpt>
      <trkpt lat="47.04202" lon="-0.9545">
        <ele>90.70881652832</ele>
        <time>2016-04-20T14:15:27.000Z</time>
      </trkpt>
      <trkpt lat="47.04199" lon="-0.95448">
        <ele>90.879653930664</ele>
        <time>2016-04-20T14:15:30.000Z</time>
      </trkpt>
      <trkpt lat="47.04197" lon="-0.95448">
        <ele>91.021385192871</ele>
        <time>2016-04-20T14:15:32.000Z</time>
      </trkpt>
      <trkpt lat="47.04193" lon="-0.95447">
        <ele>90.567962646484</ele>
        <time>2016-04-20T14:15:35.000Z</time>
      </trkpt>
      <trkpt lat="47.0419" lon="-0.95444">
        <ele>90.524505615234</ele>
        <time>2016-04-20T14:15:38.000Z</time>
      </trkpt>
      <trkpt lat="47.04186" lon="-0.95442">
        <ele>90.526847839355</ele>
        <time>2016-04-20T14:15:41.000Z</time>
      </trkpt>
      <trkpt lat="47.04183" lon="-0.9544">
        <ele>90.53311920166</ele>
        <time>2016-04-20T14:15:44.000Z</time>
      </trkpt>
      <trkpt lat="47.0418" lon="-0.95436">
        <ele>93.556983947754</ele>
        <time>2016-04-20T14:15:52.000Z</time>
      </trkpt>
      <trkpt lat="47.04174" lon="-0.95434">
        <ele>99.289985656738</ele>
        <time>2016-04-20T14:15:54.000Z</time>
      </trkpt>
      <trkpt lat="47.04171" lon="-0.95432">
        <ele>95.987075805664</ele>
        <time>2016-04-20T14:15:57.000Z</time>
      </trkpt>
      <trkpt lat="47.04169" lon="-0.9543">
        <ele>95.911354064941</ele>
        <time>2016-04-20T14:16:00.000Z</time>
      </trkpt>
      <trkpt lat="47.04165" lon="-0.95428">
        <ele>94.202529907227</ele>
        <time>2016-04-20T14:16:03.000Z</time>
      </trkpt>
      <trkpt lat="47.04162" lon="-0.95427">
        <ele>92.254997253418</ele>
        <time>2016-04-20T14:16:05.000Z</time>
      </trkpt>
      <trkpt lat="47.04159" lon="-0.95425">
        <ele>91.510498046875</ele>
        <time>2016-04-20T14:16:07.000Z</time>
      </trkpt>
      <trkpt lat="47.04155" lon="-0.95422">
        <ele>91.063552856445</ele>
        <time>2016-04-20T14:16:10.000Z</time>
      </trkpt>
      <trkpt lat="47.04152" lon="-0.9542">
        <ele>90.520301818848</ele>
        <time>2016-04-20T14:16:13.000Z</time>
      </trkpt>
      <trkpt lat="47.04148" lon="-0.95417">
        <ele>90.901588439941</ele>
        <time>2016-04-20T14:16:16.000Z</time>
      </trkpt>
      <trkpt lat="47.04145" lon="-0.95414">
        <ele>91.131858825684</ele>
        <time>2016-04-20T14:16:19.000Z</time>
      </trkpt>
      <trkpt lat="47.04143" lon="-0.95412">
        <ele>91.484466552734</ele>
        <time>2016-04-20T14:16:21.000Z</time>
      </trkpt>
      <trkpt lat="47.04141" lon="-0.9541">
        <ele>91.96647644043</ele>
        <time>2016-04-20T14:16:23.000Z</time>
      </trkpt>
      <trkpt lat="47.04138" lon="-0.95408">
        <ele>91.57447052002</ele>
        <time>2016-04-20T14:16:26.000Z</time>
      </trkpt>
      <trkpt lat="47.04136" lon="-0.95406">
        <ele>91.519859313965</ele>
        <time>2016-04-20T14:16:28.000Z</time>
      </trkpt>
      <trkpt lat="47.04133" lon="-0.95405">
        <ele>90.730171203613</ele>
        <time>2016-04-20T14:16:31.000Z</time>
      </trkpt>
      <trkpt lat="47.0413" lon="-0.95403">
        <ele>89.696128845215</ele>
        <time>2016-04-20T14:16:33.000Z</time>
      </trkpt>
      <trkpt lat="47.04126" lon="-0.954">
        <ele>89.513671875</ele>
        <time>2016-04-20T14:16:36.000Z</time>
      </trkpt>
      <trkpt lat="47.04123" lon="-0.95398">
        <ele>89.524948120117</ele>
        <time>2016-04-20T14:16:39.000Z</time>
      </trkpt>
      <trkpt lat="47.04121" lon="-0.95395">
        <ele>89.523681640625</ele>
        <time>2016-04-20T14:16:42.000Z</time>
      </trkpt>
      <trkpt lat="47.04118" lon="-0.95394">
        <ele>89.527572631836</ele>
        <time>2016-04-20T14:16:44.000Z</time>
      </trkpt>
      <trkpt lat="47.04115" lon="-0.95392">
        <ele>89.071685791016</ele>
        <time>2016-04-20T14:16:47.000Z</time>
      </trkpt>
      <trkpt lat="47.04112" lon="-0.9539">
        <ele>89.373947143555</ele>
        <time>2016-04-20T14:16:49.000Z</time>
      </trkpt>
      <trkpt lat="47.04108" lon="-0.95388">
        <ele>89.178863525391</ele>
        <time>2016-04-20T14:16:52.000Z</time>
      </trkpt>
      <trkpt lat="47.04107" lon="-0.95387">
        <ele>89.475433349609</ele>
        <time>2016-04-20T14:16:54.000Z</time>
      </trkpt>
      <trkpt lat="47.04103" lon="-0.95386">
        <ele>89.530075073242</ele>
        <time>2016-04-20T14:16:57.000Z</time>
      </trkpt>
      <trkpt lat="47.041" lon="-0.95385">
        <ele>90.492210388184</ele>
        <time>2016-04-20T14:17:00.000Z</time>
      </trkpt>
      <trkpt lat="47.04097" lon="-0.95384">
        <ele>90.535820007324</ele>
        <time>2016-04-20T14:17:02.000Z</time>
      </trkpt>
      <trkpt lat="47.04094" lon="-0.95382">
        <ele>90.528167724609</ele>
        <time>2016-04-20T14:17:05.000Z</time>
      </trkpt>
      <trkpt lat="47.04091" lon="-0.95381">
        <ele>89.706809997559</ele>
        <time>2016-04-20T14:17:07.000Z</time>
      </trkpt>
      <trkpt lat="47.04087" lon="-0.9538">
        <ele>89.514137268066</ele>
        <time>2016-04-20T14:17:10.000Z</time>
      </trkpt>
      <trkpt lat="47.04085" lon="-0.9538">
        <ele>89.151084899902</ele>
        <time>2016-04-20T14:17:12.000Z</time>
      </trkpt>
      <trkpt lat="47.04082" lon="-0.95379">
        <ele>89.493545532227</ele>
        <time>2016-04-20T14:17:14.000Z</time>
      </trkpt>
      <trkpt lat="47.04078" lon="-0.95378">
        <ele>89.530212402344</ele>
        <time>2016-04-20T14:17:17.000Z</time>
      </trkpt>
      <trkpt lat="47.04074" lon="-0.95377">
        <ele>89.991012573242</ele>
        <time>2016-04-20T14:17:20.000Z</time>
      </trkpt>
      <trkpt lat="47.04072" lon="-0.95376">
        <ele>90.495040893555</ele>
        <time>2016-04-20T14:17:22.000Z</time>
      </trkpt>
      <trkpt lat="47.04069" lon="-0.95375">
        <ele>90.535751342773</ele>
        <time>2016-04-20T14:17:25.000Z</time>
      </trkpt>
      <trkpt lat="47.04058" lon="-0.95373">
        <ele>91.157409667969</ele>
        <time>2016-04-20T14:17:41.000Z</time>
      </trkpt>
      <trkpt lat="47.04047" lon="-0.95372">
        <ele>88.083480834961</ele>
        <time>2016-04-20T14:17:44.000Z</time>
      </trkpt>
      <trkpt lat="47.04044" lon="-0.9537">
        <ele>88.015083312988</ele>
        <time>2016-04-20T14:17:48.000Z</time>
      </trkpt>
      <trkpt lat="47.04041" lon="-0.95369">
        <ele>88.397399902344</ele>
        <time>2016-04-20T14:17:50.000Z</time>
      </trkpt>
      <trkpt lat="47.04038" lon="-0.95368">
        <ele>89.360336303711</ele>
        <time>2016-04-20T14:17:52.000Z</time>
      </trkpt>
      <trkpt lat="47.04034" lon="-0.95368">
        <ele>89.539833068848</ele>
        <time>2016-04-20T14:17:55.000Z</time>
      </trkpt>
      <trkpt lat="47.04031" lon="-0.95367">
        <ele>89.527328491211</ele>
        <time>2016-04-20T14:17:57.000Z</time>
      </trkpt>
      <trkpt lat="47.04028" lon="-0.95367">
        <ele>89.522819519043</ele>
        <time>2016-04-20T14:18:00.000Z</time>
      </trkpt>
      <trkpt lat="47.04025" lon="-0.95366">
        <ele>90.934867858887</ele>
        <time>2016-04-20T14:18:03.000Z</time>
      </trkpt>
      <trkpt lat="47.04021" lon="-0.95364">
        <ele>91.188598632812</ele>
        <time>2016-04-20T14:18:06.000Z</time>
      </trkpt>
      <trkpt lat="47.0402" lon="-0.95363">
        <ele>90.701553344727</ele>
        <time>2016-04-20T14:18:08.000Z</time>
      </trkpt>
      <trkpt lat="47.04017" lon="-0.95362">
        <ele>90.513793945312</ele>
        <time>2016-04-20T14:18:11.000Z</time>
      </trkpt>
      <trkpt lat="47.04015" lon="-0.95361">
        <ele>90.522590637207</ele>
        <time>2016-04-20T14:18:13.000Z</time>
      </trkpt>
      <trkpt lat="47.04012" lon="-0.95359">
        <ele>90.523460388184</ele>
        <time>2016-04-20T14:18:16.000Z</time>
      </trkpt>
      <trkpt lat="47.04008" lon="-0.95358">
        <ele>91.338882446289</ele>
        <time>2016-04-20T14:18:19.000Z</time>
      </trkpt>
      <trkpt lat="47.04005" lon="-0.95358">
        <ele>92.003776550293</ele>
        <time>2016-04-20T14:18:21.000Z</time>
      </trkpt>
      <trkpt lat="47.04002" lon="-0.95357">
        <ele>92.385269165039</ele>
        <time>2016-04-20T14:18:24.000Z</time>
      </trkpt>
      <trkpt lat="47.03998" lon="-0.95357">
        <ele>92.533866882324</ele>
        <time>2016-04-20T14:18:27.000Z</time>
      </trkpt>
      <trkpt lat="47.03996" lon="-0.95356">
        <ele>93.334838867188</ele>
        <time>2016-04-20T14:18:29.000Z</time>
      </trkpt>
      <trkpt lat="47.03992" lon="-0.95356">
        <ele>93.992195129395</ele>
        <time>2016-04-20T14:18:32.000Z</time>
      </trkpt>
      <trkpt lat="47.03989" lon="-0.95355">
        <ele>94.959434509277</ele>
        <time>2016-04-20T14:18:34.000Z</time>
      </trkpt>
      <trkpt lat="47.03987" lon="-0.95354">
        <ele>95.517288208008</ele>
        <time>2016-04-20T14:18:36.000Z</time>
      </trkpt>
      <trkpt lat="47.03984" lon="-0.95354">
        <ele>95.541191101074</ele>
        <time>2016-04-20T14:18:38.000Z</time>
      </trkpt>
      <trkpt lat="47.03981" lon="-0.95354">
        <ele>95.909202575684</ele>
        <time>2016-04-20T14:18:41.000Z</time>
      </trkpt>
      <trkpt lat="47.03977" lon="-0.95353">
        <ele>94.529861450195</ele>
        <time>2016-04-20T14:18:44.000Z</time>
      </trkpt>
      <trkpt lat="47.03975" lon="-0.95353">
        <ele>94.510711669922</ele>
        <time>2016-04-20T14:18:46.000Z</time>
      </trkpt>
      <trkpt lat="47.03971" lon="-0.95352">
        <ele>94.528167724609</ele>
        <time>2016-04-20T14:18:49.000Z</time>
      </trkpt>
      <trkpt lat="47.03967" lon="-0.95351">
        <ele>94.528450012207</ele>
        <time>2016-04-20T14:18:52.000Z</time>
      </trkpt>
      <trkpt lat="47.03965" lon="-0.95351">
        <ele>94.523094177246</ele>
        <time>2016-04-20T14:18:54.000Z</time>
      </trkpt>
      <trkpt lat="47.0396" lon="-0.9535">
        <ele>95.369140625</ele>
        <time>2016-04-20T14:18:57.000Z</time>
      </trkpt>
      <trkpt lat="47.03958" lon="-0.95349">
        <ele>96.318893432617</ele>
        <time>2016-04-20T14:19:00.000Z</time>
      </trkpt>
      <trkpt lat="47.03955" lon="-0.95348">
        <ele>96.70329284668</ele>
        <time>2016-04-20T14:19:03.000Z</time>
      </trkpt>
      <trkpt lat="47.03951" lon="-0.95347">
        <ele>96.520736694336</ele>
        <time>2016-04-20T14:19:06.000Z</time>
      </trkpt>
      <trkpt lat="47.03948" lon="-0.95346">
        <ele>96.528350830078</ele>
        <time>2016-04-20T14:19:08.000Z</time>
      </trkpt>
      <trkpt lat="47.03944" lon="-0.95345">
        <ele>97.502975463867</ele>
        <time>2016-04-20T14:19:11.000Z</time>
      </trkpt>
      <trkpt lat="47.03942" lon="-0.95344">
        <ele>97.534568786621</ele>
        <time>2016-04-20T14:19:13.000Z</time>
      </trkpt>
      <trkpt lat="47.03939" lon="-0.95342">
        <ele>96.579055786133</ele>
        <time>2016-04-20T14:19:16.000Z</time>
      </trkpt>
      <trkpt lat="47.03937" lon="-0.95341">
        <ele>96.929000854492</ele>
        <time>2016-04-20T14:19:18.000Z</time>
      </trkpt>
      <trkpt lat="47.03934" lon="-0.95339">
        <ele>97.961982727051</ele>
        <time>2016-04-20T14:19:21.000Z</time>
      </trkpt>
      <trkpt lat="47.0393" lon="-0.95337">
        <ele>98.987487792969</ele>
        <time>2016-04-20T14:19:24.000Z</time>
      </trkpt>
      <trkpt lat="47.03928" lon="-0.95336">
        <ele>99.035003662109</ele>
        <time>2016-04-20T14:19:26.000Z</time>
      </trkpt>
      <trkpt lat="47.03924" lon="-0.95335">
        <ele>99.491912841797</ele>
        <time>2016-04-20T14:19:29.000Z</time>
      </trkpt>
      <trkpt lat="47.03921" lon="-0.95334">
        <ele>100.86047363281</ele>
        <time>2016-04-20T14:19:32.000Z</time>
      </trkpt>
      <trkpt lat="47.03919" lon="-0.95332">
        <ele>98.412033081055</ele>
        <time>2016-04-20T14:19:35.000Z</time>
      </trkpt>
      <trkpt lat="47.03916" lon="-0.9533">
        <ele>95.67919921875</ele>
        <time>2016-04-20T14:19:38.000Z</time>
      </trkpt>
      <trkpt lat="47.03914" lon="-0.95329">
        <ele>95.494369506836</ele>
        <time>2016-04-20T14:19:40.000Z</time>
      </trkpt>
      <trkpt lat="47.03911" lon="-0.95327">
        <ele>94.581436157227</ele>
        <time>2016-04-20T14:19:43.000Z</time>
      </trkpt>
      <trkpt lat="47.03909" lon="-0.95324">
        <ele>94.511749267578</ele>
        <time>2016-04-20T14:19:45.000Z</time>
      </trkpt>
      <trkpt lat="47.03906" lon="-0.95321">
        <ele>92.006607055664</ele>
        <time>2016-04-20T14:19:48.000Z</time>
      </trkpt>
      <trkpt lat="47.03903" lon="-0.95318">
        <ele>90.511032104492</ele>
        <time>2016-04-20T14:19:51.000Z</time>
      </trkpt>
      <trkpt lat="47.03901" lon="-0.95316">
        <ele>90.502449035645</ele>
        <time>2016-04-20T14:19:53.000Z</time>
      </trkpt>
      <trkpt lat="47.03899" lon="-0.95313">
        <ele>90.522071838379</ele>
        <time>2016-04-20T14:19:56.000Z</time>
      </trkpt>
      <trkpt lat="47.03897" lon="-0.9531">
        <ele>90.516014099121</ele>
        <time>2016-04-20T14:19:59.000Z</time>
      </trkpt>
      <trkpt lat="47.03894" lon="-0.95307">
        <ele>89.575950622559</ele>
        <time>2016-04-20T14:20:02.000Z</time>
      </trkpt>
      <trkpt lat="47.03891" lon="-0.95304">
        <ele>88.714973449707</ele>
        <time>2016-04-20T14:20:05.000Z</time>
      </trkpt>
      <trkpt lat="47.03889" lon="-0.95302">
        <ele>89.32022857666</ele>
        <time>2016-04-20T14:20:07.000Z</time>
      </trkpt>
      <trkpt lat="47.03886" lon="-0.95299">
        <ele>89.706817626953</ele>
        <time>2016-04-20T14:20:10.000Z</time>
      </trkpt>
      <trkpt lat="47.03883" lon="-0.95297">
        <ele>90.356834411621</ele>
        <time>2016-04-20T14:20:13.000Z</time>
      </trkpt>
      <trkpt lat="47.0388" lon="-0.95293">
        <ele>90.530319213867</ele>
        <time>2016-04-20T14:20:16.000Z</time>
      </trkpt>
      <trkpt lat="47.03877" lon="-0.9529">
        <ele>90.091148376465</ele>
        <time>2016-04-20T14:20:19.000Z</time>
      </trkpt>
      <trkpt lat="47.03876" lon="-0.95288">
        <ele>89.927543640137</ele>
        <time>2016-04-20T14:20:21.000Z</time>
      </trkpt>
      <trkpt lat="47.03874" lon="-0.95286">
        <ele>90.336883544922</ele>
        <time>2016-04-20T14:20:23.000Z</time>
      </trkpt>
      <trkpt lat="47.03872" lon="-0.95282">
        <ele>90.711479187012</ele>
        <time>2016-04-20T14:20:26.000Z</time>
      </trkpt>
      <trkpt lat="47.03871" lon="-0.95281">
        <ele>90.591415405273</ele>
        <time>2016-04-20T14:20:28.000Z</time>
      </trkpt>
      <trkpt lat="47.03869" lon="-0.95278">
        <ele>90.938667297363</ele>
        <time>2016-04-20T14:20:30.000Z</time>
      </trkpt>
      <trkpt lat="47.03867" lon="-0.95275">
        <ele>91.464614868164</ele>
        <time>2016-04-20T14:20:32.000Z</time>
      </trkpt>
      <trkpt lat="47.03864" lon="-0.95271">
        <ele>90.569465637207</ele>
        <time>2016-04-20T14:20:35.000Z</time>
      </trkpt>
      <trkpt lat="47.03861" lon="-0.95269">
        <ele>90.515853881836</ele>
        <time>2016-04-20T14:20:37.000Z</time>
      </trkpt>
      <trkpt lat="47.03859" lon="-0.95267">
        <ele>91.353172302246</ele>
        <time>2016-04-20T14:20:39.000Z</time>
      </trkpt>
      <trkpt lat="47.03855" lon="-0.95264">
        <ele>91.541152954102</ele>
        <time>2016-04-20T14:20:42.000Z</time>
      </trkpt>
      <trkpt lat="47.03852" lon="-0.9526">
        <ele>90.734039306641</ele>
        <time>2016-04-20T14:20:45.000Z</time>
      </trkpt>
      <trkpt lat="47.03851" lon="-0.95257">
        <ele>90.086502075195</ele>
        <time>2016-04-20T14:20:47.000Z</time>
      </trkpt>
      <trkpt lat="47.03847" lon="-0.95254">
        <ele>90.482818603516</ele>
        <time>2016-04-20T14:20:50.000Z</time>
      </trkpt>
      <trkpt lat="47.03845" lon="-0.95251">
        <ele>89.718955993652</ele>
        <time>2016-04-20T14:20:52.000Z</time>
      </trkpt>
      <trkpt lat="47.03843" lon="-0.95247">
        <ele>89.513641357422</ele>
        <time>2016-04-20T14:20:55.000Z</time>
      </trkpt>
      <trkpt lat="47.03841" lon="-0.95245">
        <ele>89.517395019531</ele>
        <time>2016-04-20T14:20:57.000Z</time>
      </trkpt>
      <trkpt lat="47.03839" lon="-0.95242">
        <ele>88.784683227539</ele>
        <time>2016-04-20T14:21:00.000Z</time>
      </trkpt>
      <trkpt lat="47.03837" lon="-0.9524">
        <ele>88.506660461426</ele>
        <time>2016-04-20T14:21:02.000Z</time>
      </trkpt>
      <trkpt lat="47.03833" lon="-0.95237">
        <ele>87.70565032959</ele>
        <time>2016-04-20T14:21:05.000Z</time>
      </trkpt>
      <trkpt lat="47.0383" lon="-0.95233">
        <ele>87.514541625977</ele>
        <time>2016-04-20T14:21:08.000Z</time>
      </trkpt>
      <trkpt lat="47.03827" lon="-0.95229">
        <ele>86.725631713867</ele>
        <time>2016-04-20T14:21:11.000Z</time>
      </trkpt>
      <trkpt lat="47.03824" lon="-0.95226">
        <ele>85.564636230469</ele>
        <time>2016-04-20T14:21:14.000Z</time>
      </trkpt>
      <trkpt lat="47.03822" lon="-0.95223">
        <ele>85.506675720215</ele>
        <time>2016-04-20T14:21:16.000Z</time>
      </trkpt>
      <trkpt lat="47.0382" lon="-0.9522">
        <ele>85.521186828613</ele>
        <time>2016-04-20T14:21:19.000Z</time>
      </trkpt>
      <trkpt lat="47.03818" lon="-0.95218">
        <ele>84.73405456543</ele>
        <time>2016-04-20T14:21:21.000Z</time>
      </trkpt>
      <trkpt lat="47.03815" lon="-0.95215">
        <ele>84.511962890625</ele>
        <time>2016-04-20T14:21:24.000Z</time>
      </trkpt>
      <trkpt lat="47.03813" lon="-0.95212">
        <ele>84.522018432617</ele>
        <time>2016-04-20T14:21:26.000Z</time>
      </trkpt>
      <trkpt lat="47.0381" lon="-0.95209">
        <ele>84.522850036621</ele>
        <time>2016-04-20T14:21:29.000Z</time>
      </trkpt>
      <trkpt lat="47.03807" lon="-0.95206">
        <ele>84.520919799805</ele>
        <time>2016-04-20T14:21:32.000Z</time>
      </trkpt>
      <trkpt lat="47.03806" lon="-0.95204">
        <ele>84.525100708008</ele>
        <time>2016-04-20T14:21:34.000Z</time>
      </trkpt>
      <trkpt lat="47.03804" lon="-0.95202">
        <ele>84.52384185791</ele>
        <time>2016-04-20T14:21:36.000Z</time>
      </trkpt>
      <trkpt lat="47.03801" lon="-0.95199">
        <ele>84.521308898926</ele>
        <time>2016-04-20T14:21:39.000Z</time>
      </trkpt>
      <trkpt lat="47.03799" lon="-0.95197">
        <ele>84.520088195801</ele>
        <time>2016-04-20T14:21:41.000Z</time>
      </trkpt>
      <trkpt lat="47.03797" lon="-0.95193">
        <ele>84.522613525391</ele>
        <time>2016-04-20T14:21:44.000Z</time>
      </trkpt>
      <trkpt lat="47.03794" lon="-0.9519">
        <ele>83.743141174316</ele>
        <time>2016-04-20T14:21:47.000Z</time>
      </trkpt>
      <trkpt lat="47.03791" lon="-0.95186">
        <ele>83.510383605957</ele>
        <time>2016-04-20T14:21:50.000Z</time>
      </trkpt>
      <trkpt lat="47.0379" lon="-0.95184">
        <ele>83.521873474121</ele>
        <time>2016-04-20T14:21:52.000Z</time>
      </trkpt>
      <trkpt lat="47.03786" lon="-0.9518">
        <ele>82.558578491211</ele>
        <time>2016-04-20T14:21:55.000Z</time>
      </trkpt>
      <trkpt lat="47.03784" lon="-0.95178">
        <ele>81.708686828613</ele>
        <time>2016-04-20T14:21:57.000Z</time>
      </trkpt>
      <trkpt lat="47.03782" lon="-0.95174">
        <ele>81.511024475098</ele>
        <time>2016-04-20T14:22:00.000Z</time>
      </trkpt>
      <trkpt lat="47.0378" lon="-0.95171">
        <ele>81.518760681152</ele>
        <time>2016-04-20T14:22:02.000Z</time>
      </trkpt>
      <trkpt lat="47.03777" lon="-0.95168">
        <ele>81.525093078613</ele>
        <time>2016-04-20T14:22:05.000Z</time>
      </trkpt>
      <trkpt lat="47.03774" lon="-0.95165">
        <ele>81.524139404297</ele>
        <time>2016-04-20T14:22:08.000Z</time>
      </trkpt>
      <trkpt lat="47.03771" lon="-0.95162">
        <ele>81.522491455078</ele>
        <time>2016-04-20T14:22:11.000Z</time>
      </trkpt>
      <trkpt lat="47.03769" lon="-0.9516">
        <ele>81.524787902832</ele>
        <time>2016-04-20T14:22:13.000Z</time>
      </trkpt>
      <trkpt lat="47.03766" lon="-0.95156">
        <ele>81.522102355957</ele>
        <time>2016-04-20T14:22:16.000Z</time>
      </trkpt>
      <trkpt lat="47.03765" lon="-0.95154">
        <ele>81.522193908691</ele>
        <time>2016-04-20T14:22:18.000Z</time>
      </trkpt>
      <trkpt lat="47.03763" lon="-0.95151">
        <ele>81.521614074707</ele>
        <time>2016-04-20T14:22:20.000Z</time>
      </trkpt>
      <trkpt lat="47.0376" lon="-0.95147">
        <ele>82.503913879395</ele>
        <time>2016-04-20T14:22:24.000Z</time>
      </trkpt>
      <trkpt lat="47.03757" lon="-0.95143">
        <ele>83.470710754395</ele>
        <time>2016-04-20T14:22:27.000Z</time>
      </trkpt>
      <trkpt lat="47.03756" lon="-0.95141">
        <ele>83.527671813965</ele>
        <time>2016-04-20T14:22:29.000Z</time>
      </trkpt>
      <trkpt lat="47.03754" lon="-0.95138">
        <ele>83.525901794434</ele>
        <time>2016-04-20T14:22:31.000Z</time>
      </trkpt>
      <trkpt lat="47.03751" lon="-0.95134">
        <ele>82.714233398438</ele>
        <time>2016-04-20T14:22:34.000Z</time>
      </trkpt>
      <trkpt lat="47.03748" lon="-0.95131">
        <ele>82.070091247559</ele>
        <time>2016-04-20T14:22:36.000Z</time>
      </trkpt>
      <trkpt lat="47.03745" lon="-0.95127">
        <ele>81.069458007812</ele>
        <time>2016-04-20T14:22:39.000Z</time>
      </trkpt>
      <trkpt lat="47.03744" lon="-0.95126">
        <ele>80.692611694336</ele>
        <time>2016-04-20T14:22:41.000Z</time>
      </trkpt>
      <trkpt lat="47.03741" lon="-0.95122">
        <ele>80.513969421387</ele>
        <time>2016-04-20T14:22:44.000Z</time>
      </trkpt>
      <trkpt lat="47.03738" lon="-0.95118">
        <ele>81.486930847168</ele>
        <time>2016-04-20T14:22:47.000Z</time>
      </trkpt>
      <trkpt lat="47.03735" lon="-0.95114">
        <ele>81.084785461426</ele>
        <time>2016-04-20T14:22:50.000Z</time>
      </trkpt>
      <trkpt lat="47.03732" lon="-0.9511">
        <ele>80.511161804199</ele>
        <time>2016-04-20T14:22:53.000Z</time>
      </trkpt>
      <trkpt lat="47.0373" lon="-0.95108">
        <ele>81.328453063965</ele>
        <time>2016-04-20T14:22:55.000Z</time>
      </trkpt>
      <trkpt lat="47.03727" lon="-0.95104">
        <ele>81.53295135498</ele>
        <time>2016-04-20T14:22:58.000Z</time>
      </trkpt>
      <trkpt lat="47.03726" lon="-0.95102">
        <ele>81.521690368652</ele>
        <time>2016-04-20T14:23:00.000Z</time>
      </trkpt>
      <trkpt lat="47.03724" lon="-0.95099">
        <ele>81.942115783691</ele>
        <time>2016-04-20T14:23:03.000Z</time>
      </trkpt>
      <trkpt lat="47.03721" lon="-0.95095">
        <ele>82.544593811035</ele>
        <time>2016-04-20T14:23:06.000Z</time>
      </trkpt>
      <trkpt lat="47.03718" lon="-0.95093">
        <ele>82.996047973633</ele>
        <time>2016-04-20T14:23:08.000Z</time>
      </trkpt>
      <trkpt lat="47.03715" lon="-0.9509">
        <ele>83.966484069824</ele>
        <time>2016-04-20T14:23:11.000Z</time>
      </trkpt>
      <trkpt lat="47.03712" lon="-0.95087">
        <ele>84.525421142578</ele>
        <time>2016-04-20T14:23:14.000Z</time>
      </trkpt>
      <trkpt lat="47.0371" lon="-0.95085">
        <ele>84.537109375</ele>
        <time>2016-04-20T14:23:16.000Z</time>
      </trkpt>
      <trkpt lat="47.03707" lon="-0.95082">
        <ele>83.953582763672</ele>
        <time>2016-04-20T14:23:19.000Z</time>
      </trkpt>
      <trkpt lat="47.03704" lon="-0.9508">
        <ele>83.552337646484</ele>
        <time>2016-04-20T14:23:21.000Z</time>
      </trkpt>
      <trkpt lat="47.03703" lon="-0.95078">
        <ele>83.51789855957</ele>
        <time>2016-04-20T14:23:24.000Z</time>
      </trkpt>
      <trkpt lat="47.03701" lon="-0.95076">
        <ele>83.521339416504</ele>
        <time>2016-04-20T14:23:26.000Z</time>
      </trkpt>
      <trkpt lat="47.03698" lon="-0.95074">
        <ele>83.525505065918</ele>
        <time>2016-04-20T14:23:29.000Z</time>
      </trkpt>
      <trkpt lat="47.03695" lon="-0.95072">
        <ele>82.579650878906</ele>
        <time>2016-04-20T14:23:32.000Z</time>
      </trkpt>
      <trkpt lat="47.03693" lon="-0.95069">
        <ele>82.514785766602</ele>
        <time>2016-04-20T14:23:35.000Z</time>
      </trkpt>
      <trkpt lat="47.0369" lon="-0.95066">
        <ele>82.522964477539</ele>
        <time>2016-04-20T14:23:38.000Z</time>
      </trkpt>
      <trkpt lat="47.03688" lon="-0.95062">
        <ele>82.519943237305</ele>
        <time>2016-04-20T14:23:41.000Z</time>
      </trkpt>
      <trkpt lat="47.03686" lon="-0.9506">
        <ele>82.935111999512</ele>
        <time>2016-04-20T14:23:43.000Z</time>
      </trkpt>
      <trkpt lat="47.03683" lon="-0.95057">
        <ele>83.543685913086</ele>
        <time>2016-04-20T14:23:46.000Z</time>
      </trkpt>
      <trkpt lat="47.03682" lon="-0.95054">
        <ele>83.532119750977</ele>
        <time>2016-04-20T14:23:48.000Z</time>
      </trkpt>
      <trkpt lat="47.03679" lon="-0.95052">
        <ele>83.522941589355</ele>
        <time>2016-04-20T14:23:51.000Z</time>
      </trkpt>
      <trkpt lat="47.03677" lon="-0.9505">
        <ele>83.522590637207</ele>
        <time>2016-04-20T14:23:53.000Z</time>
      </trkpt>
      <trkpt lat="47.03674" lon="-0.95046">
        <ele>83.521965026855</ele>
        <time>2016-04-20T14:23:56.000Z</time>
      </trkpt>
      <trkpt lat="47.03672" lon="-0.95043">
        <ele>83.521270751953</ele>
        <time>2016-04-20T14:23:59.000Z</time>
      </trkpt>
      <trkpt lat="47.0367" lon="-0.9504">
        <ele>83.523292541504</ele>
        <time>2016-04-20T14:24:01.000Z</time>
      </trkpt>
      <trkpt lat="47.03667" lon="-0.95037">
        <ele>84.305068969727</ele>
        <time>2016-04-20T14:24:04.000Z</time>
      </trkpt>
      <trkpt lat="47.03666" lon="-0.95034">
        <ele>84.516693115234</ele>
        <time>2016-04-20T14:24:06.000Z</time>
      </trkpt>
      <trkpt lat="47.03662" lon="-0.95031">
        <ele>84.530113220215</ele>
        <time>2016-04-20T14:24:09.000Z</time>
      </trkpt>
      <trkpt lat="47.03661" lon="-0.95029">
        <ele>84.524353027344</ele>
        <time>2016-04-20T14:24:11.000Z</time>
      </trkpt>
      <trkpt lat="47.03658" lon="-0.95026">
        <ele>85.459518432617</ele>
        <time>2016-04-20T14:24:14.000Z</time>
      </trkpt>
      <trkpt lat="47.03656" lon="-0.95023">
        <ele>85.529808044434</ele>
        <time>2016-04-20T14:24:17.000Z</time>
      </trkpt>
      <trkpt lat="47.03653" lon="-0.95019">
        <ele>85.523658752441</ele>
        <time>2016-04-20T14:24:20.000Z</time>
      </trkpt>
      <trkpt lat="47.03651" lon="-0.95017">
        <ele>85.52237701416</ele>
        <time>2016-04-20T14:24:22.000Z</time>
      </trkpt>
      <trkpt lat="47.0365" lon="-0.95015">
        <ele>85.519538879395</ele>
        <time>2016-04-20T14:24:24.000Z</time>
      </trkpt>
      <trkpt lat="47.03648" lon="-0.95013">
        <ele>86.272926330566</ele>
        <time>2016-04-20T14:24:26.000Z</time>
      </trkpt>
      <trkpt lat="47.03645" lon="-0.95009">
        <ele>85.595153808594</ele>
        <time>2016-04-20T14:24:29.000Z</time>
      </trkpt>
      <trkpt lat="47.03643" lon="-0.95007">
        <ele>85.513534545898</ele>
        <time>2016-04-20T14:24:31.000Z</time>
      </trkpt>
      <trkpt lat="47.03641" lon="-0.95004">
        <ele>85.69263458252</ele>
        <time>2016-04-20T14:24:34.000Z</time>
      </trkpt>
      <trkpt lat="47.03639" lon="-0.95001">
        <ele>86.308303833008</ele>
        <time>2016-04-20T14:24:36.000Z</time>
      </trkpt>
      <trkpt lat="47.03636" lon="-0.94998">
        <ele>86.532508850098</ele>
        <time>2016-04-20T14:24:39.000Z</time>
      </trkpt>
      <trkpt lat="47.03634" lon="-0.94996">
        <ele>86.525733947754</ele>
        <time>2016-04-20T14:24:41.000Z</time>
      </trkpt>
      <trkpt lat="47.03632" lon="-0.94992">
        <ele>87.473007202148</ele>
        <time>2016-04-20T14:24:44.000Z</time>
      </trkpt>
      <trkpt lat="47.0363" lon="-0.9499">
        <ele>87.532791137695</ele>
        <time>2016-04-20T14:24:46.000Z</time>
      </trkpt>
      <trkpt lat="47.03628" lon="-0.94988">
        <ele>87.952903747559</ele>
        <time>2016-04-20T14:24:48.000Z</time>
      </trkpt>
      <trkpt lat="47.03626" lon="-0.94985">
        <ele>88.003707885742</ele>
        <time>2016-04-20T14:24:51.000Z</time>
      </trkpt>
      <trkpt lat="47.03624" lon="-0.94983">
        <ele>88.45320892334</ele>
        <time>2016-04-20T14:24:53.000Z</time>
      </trkpt>
      <trkpt lat="47.03622" lon="-0.9498">
        <ele>88.528388977051</ele>
        <time>2016-04-20T14:24:56.000Z</time>
      </trkpt>
      <trkpt lat="47.0362" lon="-0.94978">
        <ele>88.527481079102</ele>
        <time>2016-04-20T14:24:58.000Z</time>
      </trkpt>
      <trkpt lat="47.03617" lon="-0.94975">
        <ele>89.453132629395</ele>
        <time>2016-04-20T14:25:01.000Z</time>
      </trkpt>
      <trkpt lat="47.03616" lon="-0.94972">
        <ele>89.533546447754</ele>
        <time>2016-04-20T14:25:03.000Z</time>
      </trkpt>
      <trkpt lat="47.03613" lon="-0.94969">
        <ele>89.524627685547</ele>
        <time>2016-04-20T14:25:06.000Z</time>
      </trkpt>
      <trkpt lat="47.0361" lon="-0.94966">
        <ele>89.520942687988</ele>
        <time>2016-04-20T14:25:09.000Z</time>
      </trkpt>
      <trkpt lat="47.03609" lon="-0.94964">
        <ele>89.522750854492</ele>
        <time>2016-04-20T14:25:11.000Z</time>
      </trkpt>
      <trkpt lat="47.03606" lon="-0.94961">
        <ele>89.519744873047</ele>
        <time>2016-04-20T14:25:14.000Z</time>
      </trkpt>
      <trkpt lat="47.03605" lon="-0.94958">
        <ele>89.114761352539</ele>
        <time>2016-04-20T14:25:16.000Z</time>
      </trkpt>
      <trkpt lat="47.03603" lon="-0.94955">
        <ele>89.454261779785</ele>
        <time>2016-04-20T14:25:19.000Z</time>
      </trkpt>
      <trkpt lat="47.036" lon="-0.94951">
        <ele>89.524711608887</ele>
        <time>2016-04-20T14:25:22.000Z</time>
      </trkpt>
      <trkpt lat="47.03599" lon="-0.94948">
        <ele>89.521469116211</ele>
        <time>2016-04-20T14:25:24.000Z</time>
      </trkpt>
      <trkpt lat="47.03599" lon="-0.94948">
        <ele>87.69116973877</ele>
        <time>2016-04-20T14:25:44.000Z</time>
      </trkpt>
      <trkpt lat="47.03592" lon="-0.9494">
        <ele>92.455261230469</ele>
        <time>2016-04-20T14:25:52.000Z</time>
      </trkpt>
      <trkpt lat="47.03574" lon="-0.94922">
        <ele>101.53352355957</ele>
        <time>2016-04-20T14:25:56.000Z</time>
      </trkpt>
      <trkpt lat="47.03571" lon="-0.94913">
        <ele>97.097877502441</ele>
        <time>2016-04-20T14:26:12.000Z</time>
      </trkpt>
      <trkpt lat="47.03563" lon="-0.94886">
        <ele>91.727897644043</ele>
        <time>2016-04-20T14:26:16.000Z</time>
      </trkpt>
      <trkpt lat="47.03563" lon="-0.94883">
        <ele>93.32787322998</ele>
        <time>2016-04-20T14:26:18.000Z</time>
      </trkpt>
      <trkpt lat="47.03562" lon="-0.94881">
        <ele>94.132751464844</ele>
        <time>2016-04-20T14:26:20.000Z</time>
      </trkpt>
      <trkpt lat="47.03559" lon="-0.94877">
        <ele>94.123329162598</ele>
        <time>2016-04-20T14:26:23.000Z</time>
      </trkpt>
      <trkpt lat="47.03556" lon="-0.94873">
        <ele>94.14917755127</ele>
        <time>2016-04-20T14:26:27.000Z</time>
      </trkpt>
      <trkpt lat="47.03554" lon="-0.9487">
        <ele>94.060043334961</ele>
        <time>2016-04-20T14:26:29.000Z</time>
      </trkpt>
      <trkpt lat="47.03551" lon="-0.94866">
        <ele>94.28311920166</ele>
        <time>2016-04-20T14:26:32.000Z</time>
      </trkpt>
      <trkpt lat="47.0355" lon="-0.94864">
        <ele>94.504852294922</ele>
        <time>2016-04-20T14:26:34.000Z</time>
      </trkpt>
      <trkpt lat="47.03548" lon="-0.9486">
        <ele>93.606338500977</ele>
        <time>2016-04-20T14:26:37.000Z</time>
      </trkpt>
      <trkpt lat="47.03546" lon="-0.94857">
        <ele>94.245681762695</ele>
        <time>2016-04-20T14:26:39.000Z</time>
      </trkpt>
      <trkpt lat="47.03544" lon="-0.94854">
        <ele>94.536552429199</ele>
        <time>2016-04-20T14:26:42.000Z</time>
      </trkpt>
      <trkpt lat="47.03541" lon="-0.9485">
        <ele>94.523818969727</ele>
        <time>2016-04-20T14:26:45.000Z</time>
      </trkpt>
      <trkpt lat="47.0354" lon="-0.94847">
        <ele>94.920707702637</ele>
        <time>2016-04-20T14:26:47.000Z</time>
      </trkpt>
      <trkpt lat="47.03537" lon="-0.94844">
        <ele>95.092208862305</ele>
        <time>2016-04-20T14:26:50.000Z</time>
      </trkpt>
      <trkpt lat="47.03534" lon="-0.9484">
        <ele>94.897789001465</ele>
        <time>2016-04-20T14:26:53.000Z</time>
      </trkpt>
      <trkpt lat="47.03532" lon="-0.94837">
        <ele>94.575057983398</ele>
        <time>2016-04-20T14:26:55.000Z</time>
      </trkpt>
      <trkpt lat="47.0353" lon="-0.94834">
        <ele>94.876853942871</ele>
        <time>2016-04-20T14:26:58.000Z</time>
      </trkpt>
      <trkpt lat="47.03527" lon="-0.94832">
        <ele>94.552108764648</ele>
        <time>2016-04-20T14:27:01.000Z</time>
      </trkpt>
      <trkpt lat="47.03527" lon="-0.94832">
        <ele>88.313674926758</ele>
        <time>2016-04-20T14:27:21.000Z</time>
      </trkpt>
      <trkpt lat="47.03508" lon="-0.94824">
        <ele>90.698745727539</ele>
        <time>2016-04-20T14:27:22.000Z</time>
      </trkpt>
      <trkpt lat="47.03493" lon="-0.94816">
        <ele>92.231872558594</ele>
        <time>2016-04-20T14:27:26.000Z</time>
      </trkpt>
      <trkpt lat="47.03489" lon="-0.94815">
        <ele>91.72762298584</ele>
        <time>2016-04-20T14:27:29.000Z</time>
      </trkpt>
      <trkpt lat="47.03485" lon="-0.94813">
        <ele>92.144996643066</ele>
        <time>2016-04-20T14:27:32.000Z</time>
      </trkpt>
      <trkpt lat="47.03484" lon="-0.94813">
        <ele>91.948822021484</ele>
        <time>2016-04-20T14:27:34.000Z</time>
      </trkpt>
      <trkpt lat="47.03478" lon="-0.94811">
        <ele>91.52222442627</ele>
        <time>2016-04-20T14:27:37.000Z</time>
      </trkpt>
      <trkpt lat="47.03474" lon="-0.94811">
        <ele>92.025825500488</ele>
        <time>2016-04-20T14:27:40.000Z</time>
      </trkpt>
      <trkpt lat="47.03471" lon="-0.94811">
        <ele>92.027450561523</ele>
        <time>2016-04-20T14:27:43.000Z</time>
      </trkpt>
      <trkpt lat="47.03467" lon="-0.94809">
        <ele>91.957389831543</ele>
        <time>2016-04-20T14:27:46.000Z</time>
      </trkpt>
      <trkpt lat="47.03464" lon="-0.94808">
        <ele>92.377258300781</ele>
        <time>2016-04-20T14:27:49.000Z</time>
      </trkpt>
      <trkpt lat="47.03461" lon="-0.94808">
        <ele>92.075340270996</ele>
        <time>2016-04-20T14:27:51.000Z</time>
      </trkpt>
      <trkpt lat="47.03458" lon="-0.94807">
        <ele>91.552017211914</ele>
        <time>2016-04-20T14:27:53.000Z</time>
      </trkpt>
      <trkpt lat="47.03456" lon="-0.94806">
        <ele>91.516792297363</ele>
        <time>2016-04-20T14:27:55.000Z</time>
      </trkpt>
      <trkpt lat="47.03452" lon="-0.94805">
        <ele>91.525428771973</ele>
        <time>2016-04-20T14:27:58.000Z</time>
      </trkpt>
      <trkpt lat="47.0345" lon="-0.94804">
        <ele>91.056770324707</ele>
        <time>2016-04-20T14:28:00.000Z</time>
      </trkpt>
      <trkpt lat="47.03447" lon="-0.94803">
        <ele>90.097412109375</ele>
        <time>2016-04-20T14:28:03.000Z</time>
      </trkpt>
      <trkpt lat="47.03445" lon="-0.94803">
        <ele>90.351631164551</ele>
        <time>2016-04-20T14:28:05.000Z</time>
      </trkpt>
      <trkpt lat="47.03441" lon="-0.94803">
        <ele>91.503952026367</ele>
        <time>2016-04-20T14:28:08.000Z</time>
      </trkpt>
      <trkpt lat="47.03438" lon="-0.94801">
        <ele>90.69474029541</ele>
        <time>2016-04-20T14:28:12.000Z</time>
      </trkpt>
      <trkpt lat="47.03433" lon="-0.94799">
        <ele>90.520858764648</ele>
        <time>2016-04-20T14:28:15.000Z</time>
      </trkpt>
      <trkpt lat="47.03431" lon="-0.94799">
        <ele>90.524169921875</ele>
        <time>2016-04-20T14:28:17.000Z</time>
      </trkpt>
      <trkpt lat="47.03428" lon="-0.94798">
        <ele>91.301612854004</ele>
        <time>2016-04-20T14:28:20.000Z</time>
      </trkpt>
      <trkpt lat="47.03424" lon="-0.94798">
        <ele>92.009605407715</ele>
        <time>2016-04-20T14:28:23.000Z</time>
      </trkpt>
      <trkpt lat="47.03421" lon="-0.94797">
        <ele>92.499588012695</ele>
        <time>2016-04-20T14:28:25.000Z</time>
      </trkpt>
      <trkpt lat="47.03418" lon="-0.94796">
        <ele>92.380760192871</ele>
        <time>2016-04-20T14:28:29.000Z</time>
      </trkpt>
      <trkpt lat="47.03415" lon="-0.94795">
        <ele>91.699073791504</ele>
        <time>2016-04-20T14:28:33.000Z</time>
      </trkpt>
      <trkpt lat="47.03411" lon="-0.94794">
        <ele>91.669410705566</ele>
        <time>2016-04-20T14:28:36.000Z</time>
      </trkpt>
      <trkpt lat="47.03407" lon="-0.94793">
        <ele>91.521003723145</ele>
        <time>2016-04-20T14:28:39.000Z</time>
      </trkpt>
      <trkpt lat="47.03403" lon="-0.94792">
        <ele>92.483222961426</ele>
        <time>2016-04-20T14:28:42.000Z</time>
      </trkpt>
      <trkpt lat="47.03401" lon="-0.94792">
        <ele>93.333709716797</ele>
        <time>2016-04-20T14:28:44.000Z</time>
      </trkpt>
      <trkpt lat="47.03399" lon="-0.94791">
        <ele>93.53441619873</ele>
        <time>2016-04-20T14:28:47.000Z</time>
      </trkpt>
      <trkpt lat="47.03395" lon="-0.94789">
        <ele>93.070899963379</ele>
        <time>2016-04-20T14:28:50.000Z</time>
      </trkpt>
      <trkpt lat="47.03392" lon="-0.94788">
        <ele>92.557434082031</ele>
        <time>2016-04-20T14:28:52.000Z</time>
      </trkpt>
      <trkpt lat="47.03389" lon="-0.94786">
        <ele>92.15064239502</ele>
        <time>2016-04-20T14:28:55.000Z</time>
      </trkpt>
      <trkpt lat="47.03386" lon="-0.94786">
        <ele>93.307075500488</ele>
        <time>2016-04-20T14:28:57.000Z</time>
      </trkpt>
      <trkpt lat="47.03383" lon="-0.94786">
        <ele>94.007820129395</ele>
        <time>2016-04-20T14:29:01.000Z</time>
      </trkpt>
      <trkpt lat="47.0338" lon="-0.94785">
        <ele>94.515838623047</ele>
        <time>2016-04-20T14:29:04.000Z</time>
      </trkpt>
      <trkpt lat="47.03378" lon="-0.94784">
        <ele>94.969619750977</ele>
        <time>2016-04-20T14:29:06.000Z</time>
      </trkpt>
      <trkpt lat="47.03374" lon="-0.94783">
        <ele>94.714363098145</ele>
        <time>2016-04-20T14:29:09.000Z</time>
      </trkpt>
      <trkpt lat="47.0337" lon="-0.94783">
        <ele>94.514770507812</ele>
        <time>2016-04-20T14:29:12.000Z</time>
      </trkpt>
      <trkpt lat="47.03366" lon="-0.94783">
        <ele>93.665550231934</ele>
        <time>2016-04-20T14:29:16.000Z</time>
      </trkpt>
      <trkpt lat="47.03363" lon="-0.94781">
        <ele>93.187744140625</ele>
        <time>2016-04-20T14:29:19.000Z</time>
      </trkpt>
      <trkpt lat="47.03361" lon="-0.94778">
        <ele>92.589630126953</ele>
        <time>2016-04-20T14:29:22.000Z</time>
      </trkpt>
      <trkpt lat="47.03359" lon="-0.94776">
        <ele>92.520042419434</ele>
        <time>2016-04-20T14:29:24.000Z</time>
      </trkpt>
      <trkpt lat="47.03357" lon="-0.94773">
        <ele>92.521598815918</ele>
        <time>2016-04-20T14:29:26.000Z</time>
      </trkpt>
      <trkpt lat="47.03355" lon="-0.94769">
        <ele>92.519515991211</ele>
        <time>2016-04-20T14:29:29.000Z</time>
      </trkpt>
      <trkpt lat="47.03353" lon="-0.94766">
        <ele>91.784240722656</ele>
        <time>2016-04-20T14:29:31.000Z</time>
      </trkpt>
      <trkpt lat="47.03352" lon="-0.94763">
        <ele>91.536613464355</ele>
        <time>2016-04-20T14:29:33.000Z</time>
      </trkpt>
      <trkpt lat="47.03352" lon="-0.94761">
        <ele>91.509857177734</ele>
        <time>2016-04-20T14:29:35.000Z</time>
      </trkpt>
      <trkpt lat="47.03352" lon="-0.94756">
        <ele>91.611526489258</ele>
        <time>2016-04-20T14:29:38.000Z</time>
      </trkpt>
      <trkpt lat="47.03353" lon="-0.94753">
        <ele>91.542694091797</ele>
        <time>2016-04-20T14:29:40.000Z</time>
      </trkpt>
      <trkpt lat="47.03353" lon="-0.94749">
        <ele>91.486869812012</ele>
        <time>2016-04-20T14:29:43.000Z</time>
      </trkpt>
      <trkpt lat="47.03352" lon="-0.94745">
        <ele>92.272102355957</ele>
        <time>2016-04-20T14:29:46.000Z</time>
      </trkpt>
      <trkpt lat="47.03349" lon="-0.9474">
        <ele>92.526374816895</ele>
        <time>2016-04-20T14:29:49.000Z</time>
      </trkpt>
      <trkpt lat="47.03349" lon="-0.94735">
        <ele>92.502197265625</ele>
        <time>2016-04-20T14:29:52.000Z</time>
      </trkpt>
      <trkpt lat="47.03349" lon="-0.9473">
        <ele>92.480529785156</ele>
        <time>2016-04-20T14:29:55.000Z</time>
      </trkpt>
      <trkpt lat="47.03349" lon="-0.94725">
        <ele>92.46443939209</ele>
        <time>2016-04-20T14:29:58.000Z</time>
      </trkpt>
      <trkpt lat="47.03349" lon="-0.94721">
        <ele>92.471252441406</ele>
        <time>2016-04-20T14:30:00.000Z</time>
      </trkpt>
      <trkpt lat="47.03349" lon="-0.94717">
        <ele>91.303581237793</ele>
        <time>2016-04-20T14:30:03.000Z</time>
      </trkpt>
      <trkpt lat="47.03349" lon="-0.94714">
        <ele>91.080009460449</ele>
        <time>2016-04-20T14:30:05.000Z</time>
      </trkpt>
      <trkpt lat="47.0335" lon="-0.94711">
        <ele>91.353157043457</ele>
        <time>2016-04-20T14:30:07.000Z</time>
      </trkpt>
      <trkpt lat="47.03351" lon="-0.94707">
        <ele>91.717597961426</ele>
        <time>2016-04-20T14:30:09.000Z</time>
      </trkpt>
      <trkpt lat="47.03351" lon="-0.94703">
        <ele>91.822158813477</ele>
        <time>2016-04-20T14:30:11.000Z</time>
      </trkpt>
      <trkpt lat="47.03351" lon="-0.94698">
        <ele>91.60147857666</ele>
        <time>2016-04-20T14:30:14.000Z</time>
      </trkpt>
      <trkpt lat="47.03351" lon="-0.94695">
        <ele>91.534317016602</ele>
        <time>2016-04-20T14:30:16.000Z</time>
      </trkpt>
      <trkpt lat="47.03352" lon="-0.9469">
        <ele>91.791091918945</ele>
        <time>2016-04-20T14:30:19.000Z</time>
      </trkpt>
      <trkpt lat="47.03353" lon="-0.94685">
        <ele>92.35661315918</ele>
        <time>2016-04-20T14:30:22.000Z</time>
      </trkpt>
      <trkpt lat="47.03353" lon="-0.94682">
        <ele>92.466194152832</ele>
        <time>2016-04-20T14:30:24.000Z</time>
      </trkpt>
      <trkpt lat="47.03353" lon="-0.94678">
        <ele>92.668365478516</ele>
        <time>2016-04-20T14:30:26.000Z</time>
      </trkpt>
      <trkpt lat="47.03353" lon="-0.94674">
        <ele>92.364814758301</ele>
        <time>2016-04-20T14:30:29.000Z</time>
      </trkpt>
      <trkpt lat="47.03353" lon="-0.9467">
        <ele>91.802513122559</ele>
        <time>2016-04-20T14:30:31.000Z</time>
      </trkpt>
      <trkpt lat="47.03352" lon="-0.94665">
        <ele>91.565948486328</ele>
        <time>2016-04-20T14:30:34.000Z</time>
      </trkpt>
      <trkpt lat="47.03352" lon="-0.94662">
        <ele>91.52938079834</ele>
        <time>2016-04-20T14:30:36.000Z</time>
      </trkpt>
      <trkpt lat="47.03352" lon="-0.94658">
        <ele>91.499458312988</ele>
        <time>2016-04-20T14:30:38.000Z</time>
      </trkpt>
      <trkpt lat="47.03352" lon="-0.94654">
        <ele>91.483840942383</ele>
        <time>2016-04-20T14:30:40.000Z</time>
      </trkpt>
      <trkpt lat="47.03353" lon="-0.9465">
        <ele>92.006645202637</ele>
        <time>2016-04-20T14:30:43.000Z</time>
      </trkpt>
      <trkpt lat="47.03353" lon="-0.94645">
        <ele>92.283157348633</ele>
        <time>2016-04-20T14:30:45.000Z</time>
      </trkpt>
      <trkpt lat="47.03354" lon="-0.9464">
        <ele>92.006706237793</ele>
        <time>2016-04-20T14:30:48.000Z</time>
      </trkpt>
      <trkpt lat="47.03354" lon="-0.94636">
        <ele>91.742630004883</ele>
        <time>2016-04-20T14:30:50.000Z</time>
      </trkpt>
      <trkpt lat="47.03354" lon="-0.94633">
        <ele>91.629219055176</ele>
        <time>2016-04-20T14:30:53.000Z</time>
      </trkpt>
      <trkpt lat="47.03354" lon="-0.94629">
        <ele>91.543190002441</ele>
        <time>2016-04-20T14:30:55.000Z</time>
      </trkpt>
      <trkpt lat="47.03353" lon="-0.94625">
        <ele>91.504959106445</ele>
        <time>2016-04-20T14:30:57.000Z</time>
      </trkpt>
      <trkpt lat="47.03354" lon="-0.9462">
        <ele>91.477348327637</ele>
        <time>2016-04-20T14:31:00.000Z</time>
      </trkpt>
      <trkpt lat="47.03354" lon="-0.94616">
        <ele>91.768249511719</ele>
        <time>2016-04-20T14:31:02.000Z</time>
      </trkpt>
      <trkpt lat="47.03355" lon="-0.94611">
        <ele>91.548072814941</ele>
        <time>2016-04-20T14:31:05.000Z</time>
      </trkpt>
      <trkpt lat="47.03355" lon="-0.94608">
        <ele>92.007614135742</ele>
        <time>2016-04-20T14:31:07.000Z</time>
      </trkpt>
      <trkpt lat="47.03356" lon="-0.94603">
        <ele>92.566963195801</ele>
        <time>2016-04-20T14:31:10.000Z</time>
      </trkpt>
      <trkpt lat="47.03356" lon="-0.94602">
        <ele>92.817459106445</ele>
        <time>2016-04-20T14:31:12.000Z</time>
      </trkpt>
      <trkpt lat="47.03356" lon="-0.94598">
        <ele>93.094902038574</ele>
        <time>2016-04-20T14:31:14.000Z</time>
      </trkpt>
      <trkpt lat="47.03356" lon="-0.94594">
        <ele>93.279411315918</ele>
        <time>2016-04-20T14:31:17.000Z</time>
      </trkpt>
      <trkpt lat="47.03356" lon="-0.94591">
        <ele>93.323257446289</ele>
        <time>2016-04-20T14:31:19.000Z</time>
      </trkpt>
      <trkpt lat="47.03356" lon="-0.94584">
        <ele>92.853591918945</ele>
        <time>2016-04-20T14:31:22.000Z</time>
      </trkpt>
      <trkpt lat="47.03357" lon="-0.9458">
        <ele>92.059417724609</ele>
        <time>2016-04-20T14:31:25.000Z</time>
      </trkpt>
      <trkpt lat="47.03357" lon="-0.94574">
        <ele>91.446434020996</ele>
        <time>2016-04-20T14:31:28.000Z</time>
      </trkpt>
      <trkpt lat="47.03356" lon="-0.94569">
        <ele>91.221809387207</ele>
        <time>2016-04-20T14:31:31.000Z</time>
      </trkpt>
      <trkpt lat="47.03356" lon="-0.94566">
        <ele>90.780952453613</ele>
        <time>2016-04-20T14:31:33.000Z</time>
      </trkpt>
      <trkpt lat="47.03356" lon="-0.94562">
        <ele>90.622718811035</ele>
        <time>2016-04-20T14:31:35.000Z</time>
      </trkpt>
      <trkpt lat="47.03356" lon="-0.94558">
        <ele>90.509979248047</ele>
        <time>2016-04-20T14:31:38.000Z</time>
      </trkpt>
      <trkpt lat="47.03355" lon="-0.94553">
        <ele>90.487586975098</ele>
        <time>2016-04-20T14:31:41.000Z</time>
      </trkpt>
      <trkpt lat="47.03355" lon="-0.94548">
        <ele>90.600852966309</ele>
        <time>2016-04-20T14:31:44.000Z</time>
      </trkpt>
      <trkpt lat="47.03355" lon="-0.94543">
        <ele>90.998031616211</ele>
        <time>2016-04-20T14:31:47.000Z</time>
      </trkpt>
      <trkpt lat="47.03354" lon="-0.9454">
        <ele>91.335113525391</ele>
        <time>2016-04-20T14:31:49.000Z</time>
      </trkpt>
      <trkpt lat="47.03354" lon="-0.94535">
        <ele>91.462379455566</ele>
        <time>2016-04-20T14:31:52.000Z</time>
      </trkpt>
      <trkpt lat="47.03354" lon="-0.9453">
        <ele>91.472290039062</ele>
        <time>2016-04-20T14:31:55.000Z</time>
      </trkpt>
      <trkpt lat="47.03354" lon="-0.94525">
        <ele>91.495002746582</ele>
        <time>2016-04-20T14:31:58.000Z</time>
      </trkpt>
      <trkpt lat="47.03354" lon="-0.94522">
        <ele>91.72013092041</ele>
        <time>2016-04-20T14:32:00.000Z</time>
      </trkpt>
      <trkpt lat="47.03352" lon="-0.94516">
        <ele>91.235427856445</ele>
        <time>2016-04-20T14:32:03.000Z</time>
      </trkpt>
      <trkpt lat="47.0335" lon="-0.94512">
        <ele>91.240310668945</ele>
        <time>2016-04-20T14:32:06.000Z</time>
      </trkpt>
      <trkpt lat="47.0335" lon="-0.9451">
        <ele>91.357086181641</ele>
        <time>2016-04-20T14:32:08.000Z</time>
      </trkpt>
      <trkpt lat="47.0335" lon="-0.94505">
        <ele>91.429153442383</ele>
        <time>2016-04-20T14:32:11.000Z</time>
      </trkpt>
      <trkpt lat="47.0335" lon="-0.94502">
        <ele>91.257667541504</ele>
        <time>2016-04-20T14:32:13.000Z</time>
      </trkpt>
      <trkpt lat="47.0335" lon="-0.94497">
        <ele>91.045188903809</ele>
        <time>2016-04-20T14:32:16.000Z</time>
      </trkpt>
      <trkpt lat="47.03349" lon="-0.94494">
        <ele>91.242179870605</ele>
        <time>2016-04-20T14:32:18.000Z</time>
      </trkpt>
      <trkpt lat="47.03348" lon="-0.9449">
        <ele>91.461273193359</ele>
        <time>2016-04-20T14:32:20.000Z</time>
      </trkpt>
      <trkpt lat="47.03348" lon="-0.94486">
        <ele>91.000953674316</ele>
        <time>2016-04-20T14:32:23.000Z</time>
      </trkpt>
      <trkpt lat="47.03347" lon="-0.94483">
        <ele>90.103607177734</ele>
        <time>2016-04-20T14:32:25.000Z</time>
      </trkpt>
      <trkpt lat="47.03347" lon="-0.94481">
        <ele>90.181861877441</ele>
        <time>2016-04-20T14:32:27.000Z</time>
      </trkpt>
      <trkpt lat="47.03347" lon="-0.94475">
        <ele>90.665260314941</ele>
        <time>2016-04-20T14:32:30.000Z</time>
      </trkpt>
      <trkpt lat="47.03347" lon="-0.9447">
        <ele>90.861289978027</ele>
        <time>2016-04-20T14:32:33.000Z</time>
      </trkpt>
      <trkpt lat="47.03346" lon="-0.94467">
        <ele>91.19303894043</ele>
        <time>2016-04-20T14:32:35.000Z</time>
      </trkpt>
      <trkpt lat="47.03346" lon="-0.94464">
        <ele>91.332595825195</ele>
        <time>2016-04-20T14:32:37.000Z</time>
      </trkpt>
      <trkpt lat="47.03346" lon="-0.9446">
        <ele>91.171798706055</ele>
        <time>2016-04-20T14:32:39.000Z</time>
      </trkpt>
      <trkpt lat="47.03345" lon="-0.94457">
        <ele>90.672256469727</ele>
        <time>2016-04-20T14:32:42.000Z</time>
      </trkpt>
      <trkpt lat="47.03343" lon="-0.94458">
        <ele>90.074142456055</ele>
        <time>2016-04-20T14:32:45.000Z</time>
      </trkpt>
      <trkpt lat="47.0334" lon="-0.94461">
        <ele>89.076774597168</ele>
        <time>2016-04-20T14:32:54.000Z</time>
      </trkpt>
      <trkpt lat="47.03338" lon="-0.94463">
        <ele>87.793838500977</ele>
        <time>2016-04-20T14:32:56.000Z</time>
      </trkpt>
      <trkpt lat="47.03335" lon="-0.94464">
        <ele>87.491081237793</ele>
        <time>2016-04-20T14:32:59.000Z</time>
      </trkpt>
      <trkpt lat="47.03332" lon="-0.94465">
        <ele>87.515563964844</ele>
        <time>2016-04-20T14:33:02.000Z</time>
      </trkpt>
      <trkpt lat="47.03328" lon="-0.94467">
        <ele>87.518081665039</ele>
        <time>2016-04-20T14:33:05.000Z</time>
      </trkpt>
      <trkpt lat="47.03326" lon="-0.94467">
        <ele>87.518264770508</ele>
        <time>2016-04-20T14:33:07.000Z</time>
      </trkpt>
      <trkpt lat="47.03318" lon="-0.94467">
        <ele>88.63981628418</ele>
        <time>2016-04-20T14:33:22.000Z</time>
      </trkpt>
      <trkpt lat="47.03311" lon="-0.9446">
        <ele>92.420867919922</ele>
        <time>2016-04-20T14:33:25.000Z</time>
      </trkpt>
      <trkpt lat="47.03312" lon="-0.94457">
        <ele>91.826057434082</ele>
        <time>2016-04-20T14:33:27.000Z</time>
      </trkpt>
      <trkpt lat="47.03312" lon="-0.94452">
        <ele>92.832801818848</ele>
        <time>2016-04-20T14:33:30.000Z</time>
      </trkpt>
      <trkpt lat="47.03312" lon="-0.94449">
        <ele>93.802711486816</ele>
        <time>2016-04-20T14:33:33.000Z</time>
      </trkpt>
      <trkpt lat="47.03312" lon="-0.94446">
        <ele>93.868286132812</ele>
        <time>2016-04-20T14:33:35.000Z</time>
      </trkpt>
      <trkpt lat="47.03312" lon="-0.94443">
        <ele>93.874443054199</ele>
        <time>2016-04-20T14:33:37.000Z</time>
      </trkpt>
      <trkpt lat="47.03313" lon="-0.94439">
        <ele>94.016372680664</ele>
        <time>2016-04-20T14:33:40.000Z</time>
      </trkpt>
      <trkpt lat="47.03312" lon="-0.94434">
        <ele>94.048110961914</ele>
        <time>2016-04-20T14:33:43.000Z</time>
      </trkpt>
      <trkpt lat="47.03312" lon="-0.94429">
        <ele>93.61434173584</ele>
        <time>2016-04-20T14:33:46.000Z</time>
      </trkpt>
      <trkpt lat="47.03311" lon="-0.94426">
        <ele>92.937049865723</ele>
        <time>2016-04-20T14:33:48.000Z</time>
      </trkpt>
      <trkpt lat="47.0331" lon="-0.94421">
        <ele>91.692802429199</ele>
        <time>2016-04-20T14:33:51.000Z</time>
      </trkpt>
      <trkpt lat="47.0331" lon="-0.94418">
        <ele>91.582321166992</ele>
        <time>2016-04-20T14:33:53.000Z</time>
      </trkpt>
      <trkpt lat="47.0331" lon="-0.94413">
        <ele>91.532638549805</ele>
        <time>2016-04-20T14:33:56.000Z</time>
      </trkpt>
      <trkpt lat="47.03312" lon="-0.94411">
        <ele>91.496734619141</ele>
        <time>2016-04-20T14:33:58.000Z</time>
      </trkpt>
      <trkpt lat="47.03312" lon="-0.94407">
        <ele>91.690322875977</ele>
        <time>2016-04-20T14:34:00.000Z</time>
      </trkpt>
      <trkpt lat="47.03312" lon="-0.94402">
        <ele>91.557991027832</ele>
        <time>2016-04-20T14:34:03.000Z</time>
      </trkpt>
      <trkpt lat="47.03312" lon="-0.94399">
        <ele>91.752021789551</ele>
        <time>2016-04-20T14:34:05.000Z</time>
      </trkpt>
      <trkpt lat="47.03312" lon="-0.94395">
        <ele>92.312461853027</ele>
        <time>2016-04-20T14:34:08.000Z</time>
      </trkpt>
      <trkpt lat="47.03313" lon="-0.94391">
        <ele>92.491104125977</ele>
        <time>2016-04-20T14:34:11.000Z</time>
      </trkpt>
      <trkpt lat="47.03313" lon="-0.94388">
        <ele>92.79956817627</ele>
        <time>2016-04-20T14:34:13.000Z</time>
      </trkpt>
      <trkpt lat="47.03314" lon="-0.94385">
        <ele>93.346710205078</ele>
        <time>2016-04-20T14:34:15.000Z</time>
      </trkpt>
      <trkpt lat="47.03316" lon="-0.94381">
        <ele>94.190147399902</ele>
        <time>2016-04-20T14:34:18.000Z</time>
      </trkpt>
      <trkpt lat="47.03317" lon="-0.94378">
        <ele>94.870872497559</ele>
        <time>2016-04-20T14:34:20.000Z</time>
      </trkpt>
      <trkpt lat="47.03319" lon="-0.94373">
        <ele>95.864410400391</ele>
        <time>2016-04-20T14:34:23.000Z</time>
      </trkpt>
      <trkpt lat="47.03321" lon="-0.9437">
        <ele>96.822021484375</ele>
        <time>2016-04-20T14:34:26.000Z</time>
      </trkpt>
      <trkpt lat="47.03321" lon="-0.94365">
        <ele>97.411735534668</ele>
        <time>2016-04-20T14:34:29.000Z</time>
      </trkpt>
      <trkpt lat="47.03322" lon="-0.94363">
        <ele>97.463447570801</ele>
        <time>2016-04-20T14:34:31.000Z</time>
      </trkpt>
      <trkpt lat="47.03322" lon="-0.94363">
        <ele>85.892944335938</ele>
        <time>2016-04-20T14:34:51.000Z</time>
      </trkpt>
      <trkpt lat="47.03325" lon="-0.94351">
        <ele>98.444313049316</ele>
        <time>2016-04-20T14:34:53.000Z</time>
      </trkpt>
      <trkpt lat="47.03321" lon="-0.94331">
        <ele>91.839981079102</ele>
        <time>2016-04-20T14:34:57.000Z</time>
      </trkpt>
      <trkpt lat="47.03321" lon="-0.94329">
        <ele>88.276412963867</ele>
        <time>2016-04-20T14:35:00.000Z</time>
      </trkpt>
      <trkpt lat="47.03324" lon="-0.94328">
        <ele>86.730430603027</ele>
        <time>2016-04-20T14:35:03.000Z</time>
      </trkpt>
      <trkpt lat="47.03328" lon="-0.94327">
        <ele>85.50235748291</ele>
        <time>2016-04-20T14:35:06.000Z</time>
      </trkpt>
      <trkpt lat="47.03331" lon="-0.94327">
        <ele>84.49983215332</ele>
        <time>2016-04-20T14:35:09.000Z</time>
      </trkpt>
      <trkpt lat="47.03334" lon="-0.94325">
        <ele>83.674057006836</ele>
        <time>2016-04-20T14:35:12.000Z</time>
      </trkpt>
      <trkpt lat="47.03338" lon="-0.94322">
        <ele>83.021751403809</ele>
        <time>2016-04-20T14:35:15.000Z</time>
      </trkpt>
      <trkpt lat="47.0334" lon="-0.94319">
        <ele>82.538619995117</ele>
        <time>2016-04-20T14:35:17.000Z</time>
      </trkpt>
      <trkpt lat="47.03342" lon="-0.94313">
        <ele>81.539749145508</ele>
        <time>2016-04-20T14:35:20.000Z</time>
      </trkpt>
      <trkpt lat="47.03344" lon="-0.9431">
        <ele>80.384284973145</ele>
        <time>2016-04-20T14:35:23.000Z</time>
      </trkpt>
      <trkpt lat="47.03344" lon="-0.94305">
        <ele>79.585029602051</ele>
        <time>2016-04-20T14:35:26.000Z</time>
      </trkpt>
      <trkpt lat="47.03344" lon="-0.94301">
        <ele>79.377906799316</ele>
        <time>2016-04-20T14:35:29.000Z</time>
      </trkpt>
      <trkpt lat="47.03344" lon="-0.94297">
        <ele>79.895805358887</ele>
        <time>2016-04-20T14:35:32.000Z</time>
      </trkpt>
      <trkpt lat="47.03344" lon="-0.94292">
        <ele>81.393539428711</ele>
        <time>2016-04-20T14:35:35.000Z</time>
      </trkpt>
      <trkpt lat="47.03344" lon="-0.94286">
        <ele>82.005256652832</ele>
        <time>2016-04-20T14:35:38.000Z</time>
      </trkpt>
      <trkpt lat="47.03344" lon="-0.94282">
        <ele>82.252151489258</ele>
        <time>2016-04-20T14:35:40.000Z</time>
      </trkpt>
      <trkpt lat="47.03345" lon="-0.94279">
        <ele>82.434181213379</ele>
        <time>2016-04-20T14:35:43.000Z</time>
      </trkpt>
      <trkpt lat="47.03346" lon="-0.94274">
        <ele>83.147483825684</ele>
        <time>2016-04-20T14:35:46.000Z</time>
      </trkpt>
      <trkpt lat="47.03347" lon="-0.94271">
        <ele>82.790420532227</ele>
        <time>2016-04-20T14:35:48.000Z</time>
      </trkpt>
      <trkpt lat="47.03347" lon="-0.94268">
        <ele>81.913398742676</ele>
        <time>2016-04-20T14:35:50.000Z</time>
      </trkpt>
      <trkpt lat="47.03348" lon="-0.94263">
        <ele>81.859848022461</ele>
        <time>2016-04-20T14:35:53.000Z</time>
      </trkpt>
      <trkpt lat="47.03347" lon="-0.9426">
        <ele>82.765426635742</ele>
        <time>2016-04-20T14:35:55.000Z</time>
      </trkpt>
      <trkpt lat="47.03347" lon="-0.94256">
        <ele>83.154922485352</ele>
        <time>2016-04-20T14:35:58.000Z</time>
      </trkpt>
      <trkpt lat="47.03348" lon="-0.94251">
        <ele>83.41178894043</ele>
        <time>2016-04-20T14:36:01.000Z</time>
      </trkpt>
      <trkpt lat="47.03349" lon="-0.94248">
        <ele>83.230781555176</ele>
        <time>2016-04-20T14:36:03.000Z</time>
      </trkpt>
      <trkpt lat="47.03349" lon="-0.94243">
        <ele>84.160667419434</ele>
        <time>2016-04-20T14:36:06.000Z</time>
      </trkpt>
      <trkpt lat="47.03349" lon="-0.9424">
        <ele>84.319953918457</ele>
        <time>2016-04-20T14:36:08.000Z</time>
      </trkpt>
      <trkpt lat="47.03349" lon="-0.94237">
        <ele>84.117584228516</ele>
        <time>2016-04-20T14:36:11.000Z</time>
      </trkpt>
      <trkpt lat="47.0335" lon="-0.94231">
        <ele>84.338523864746</ele>
        <time>2016-04-20T14:36:14.000Z</time>
      </trkpt>
      <trkpt lat="47.0335" lon="-0.94228">
        <ele>84.423072814941</ele>
        <time>2016-04-20T14:36:16.000Z</time>
      </trkpt>
      <trkpt lat="47.0335" lon="-0.94225">
        <ele>84.945083618164</ele>
        <time>2016-04-20T14:36:19.000Z</time>
      </trkpt>
      <trkpt lat="47.0335" lon="-0.94221">
        <ele>85.499351501465</ele>
        <time>2016-04-20T14:36:21.000Z</time>
      </trkpt>
      <trkpt lat="47.0335" lon="-0.94215">
        <ele>86.435173034668</ele>
        <time>2016-04-20T14:36:24.000Z</time>
      </trkpt>
      <trkpt lat="47.03349" lon="-0.94212">
        <ele>88.089012145996</ele>
        <time>2016-04-20T14:36:27.000Z</time>
      </trkpt>
      <trkpt lat="47.03348" lon="-0.94207">
        <ele>89.127479553223</ele>
        <time>2016-04-20T14:36:30.000Z</time>
      </trkpt>
      <trkpt lat="47.03347" lon="-0.94203">
        <ele>88.252540588379</ele>
        <time>2016-04-20T14:36:32.000Z</time>
      </trkpt>
      <trkpt lat="47.03347" lon="-0.94199">
        <ele>87.980400085449</ele>
        <time>2016-04-20T14:36:35.000Z</time>
      </trkpt>
      <trkpt lat="47.03347" lon="-0.94196">
        <ele>88.306045532227</ele>
        <time>2016-04-20T14:36:37.000Z</time>
      </trkpt>
      <trkpt lat="47.03345" lon="-0.94191">
        <ele>88.698043823242</ele>
        <time>2016-04-20T14:36:40.000Z</time>
      </trkpt>
      <trkpt lat="47.03344" lon="-0.94187">
        <ele>88.535148620605</ele>
        <time>2016-04-20T14:36:43.000Z</time>
      </trkpt>
      <trkpt lat="47.03345" lon="-0.94184">
        <ele>89.287971496582</ele>
        <time>2016-04-20T14:36:45.000Z</time>
      </trkpt>
      <trkpt lat="47.03344" lon="-0.94181">
        <ele>88.843528747559</ele>
        <time>2016-04-20T14:36:48.000Z</time>
      </trkpt>
      <trkpt lat="47.03344" lon="-0.94177">
        <ele>88.860305786133</ele>
        <time>2016-04-20T14:36:50.000Z</time>
      </trkpt>
      <trkpt lat="47.03343" lon="-0.94172">
        <ele>89.822212219238</ele>
        <time>2016-04-20T14:36:53.000Z</time>
      </trkpt>
      <trkpt lat="47.03343" lon="-0.94168">
        <ele>89.84423828125</ele>
        <time>2016-04-20T14:36:55.000Z</time>
      </trkpt>
      <trkpt lat="47.03342" lon="-0.94163">
        <ele>90.277725219727</ele>
        <time>2016-04-20T14:36:58.000Z</time>
      </trkpt>
      <trkpt lat="47.03342" lon="-0.94158">
        <ele>89.693481445312</ele>
        <time>2016-04-20T14:37:01.000Z</time>
      </trkpt>
      <trkpt lat="47.03341" lon="-0.94155">
        <ele>89.225105285645</ele>
        <time>2016-04-20T14:37:03.000Z</time>
      </trkpt>
      <trkpt lat="47.0334" lon="-0.94151">
        <ele>88.723419189453</ele>
        <time>2016-04-20T14:37:06.000Z</time>
      </trkpt>
      <trkpt lat="47.0334" lon="-0.94149">
        <ele>88.601142883301</ele>
        <time>2016-04-20T14:37:08.000Z</time>
      </trkpt>
      <trkpt lat="47.03339" lon="-0.94145">
        <ele>89.046630859375</ele>
        <time>2016-04-20T14:37:11.000Z</time>
      </trkpt>
      <trkpt lat="47.03339" lon="-0.94142">
        <ele>89.100799560547</ele>
        <time>2016-04-20T14:37:13.000Z</time>
      </trkpt>
      <trkpt lat="47.03337" lon="-0.94137">
        <ele>88.628082275391</ele>
        <time>2016-04-20T14:37:16.000Z</time>
      </trkpt>
      <trkpt lat="47.03336" lon="-0.94134">
        <ele>89.224670410156</ele>
        <time>2016-04-20T14:37:18.000Z</time>
      </trkpt>
      <trkpt lat="47.03334" lon="-0.94129">
        <ele>88.80598449707</ele>
        <time>2016-04-20T14:37:21.000Z</time>
      </trkpt>
      <trkpt lat="47.03334" lon="-0.94126">
        <ele>89.232513427734</ele>
        <time>2016-04-20T14:37:23.000Z</time>
      </trkpt>
      <trkpt lat="47.03333" lon="-0.94122">
        <ele>89.638702392578</ele>
        <time>2016-04-20T14:37:26.000Z</time>
      </trkpt>
      <trkpt lat="47.03333" lon="-0.94118">
        <ele>89.860305786133</ele>
        <time>2016-04-20T14:37:29.000Z</time>
      </trkpt>
      <trkpt lat="47.03332" lon="-0.94115">
        <ele>90.339546203613</ele>
        <time>2016-04-20T14:37:31.000Z</time>
      </trkpt>
      <trkpt lat="47.03331" lon="-0.9411">
        <ele>89.929985046387</ele>
        <time>2016-04-20T14:37:35.000Z</time>
      </trkpt>
      <trkpt lat="47.03331" lon="-0.94106">
        <ele>89.620376586914</ele>
        <time>2016-04-20T14:37:38.000Z</time>
      </trkpt>
      <trkpt lat="47.03331" lon="-0.94103">
        <ele>89.557014465332</ele>
        <time>2016-04-20T14:37:40.000Z</time>
      </trkpt>
      <trkpt lat="47.03329" lon="-0.94099">
        <ele>89.762619018555</ele>
        <time>2016-04-20T14:37:43.000Z</time>
      </trkpt>
      <trkpt lat="47.03326" lon="-0.94094">
        <ele>90.213203430176</ele>
        <time>2016-04-20T14:37:46.000Z</time>
      </trkpt>
      <trkpt lat="47.03325" lon="-0.94091">
        <ele>90.143440246582</ele>
        <time>2016-04-20T14:37:48.000Z</time>
      </trkpt>
      <trkpt lat="47.03323" lon="-0.94088">
        <ele>90.447105407715</ele>
        <time>2016-04-20T14:37:50.000Z</time>
      </trkpt>
      <trkpt lat="47.03322" lon="-0.94084">
        <ele>91.216896057129</ele>
        <time>2016-04-20T14:37:53.000Z</time>
      </trkpt>
      <trkpt lat="47.0332" lon="-0.94081">
        <ele>91.575500488281</ele>
        <time>2016-04-20T14:37:56.000Z</time>
      </trkpt>
      <trkpt lat="47.03319" lon="-0.94078">
        <ele>92.322677612305</ele>
        <time>2016-04-20T14:37:59.000Z</time>
      </trkpt>
      <trkpt lat="47.03318" lon="-0.94075">
        <ele>92.581977844238</ele>
        <time>2016-04-20T14:38:02.000Z</time>
      </trkpt>
      <trkpt lat="47.03317" lon="-0.94073">
        <ele>92.294609069824</ele>
        <time>2016-04-20T14:38:04.000Z</time>
      </trkpt>
      <trkpt lat="47.03315" lon="-0.9407">
        <ele>91.273178100586</ele>
        <time>2016-04-20T14:38:07.000Z</time>
      </trkpt>
      <trkpt lat="47.03315" lon="-0.94067">
        <ele>91.366134643555</ele>
        <time>2016-04-20T14:38:09.000Z</time>
      </trkpt>
      <trkpt lat="47.03314" lon="-0.94063">
        <ele>90.466651916504</ele>
        <time>2016-04-20T14:38:12.000Z</time>
      </trkpt>
      <trkpt lat="47.03313" lon="-0.9406">
        <ele>90.061828613281</ele>
        <time>2016-04-20T14:38:14.000Z</time>
      </trkpt>
      <trkpt lat="47.03311" lon="-0.94054">
        <ele>90.680641174316</ele>
        <time>2016-04-20T14:38:17.000Z</time>
      </trkpt>
      <trkpt lat="47.0331" lon="-0.94051">
        <ele>90.292388916016</ele>
        <time>2016-04-20T14:38:19.000Z</time>
      </trkpt>
      <trkpt lat="47.03308" lon="-0.94046">
        <ele>90.523048400879</ele>
        <time>2016-04-20T14:38:22.000Z</time>
      </trkpt>
      <trkpt lat="47.03307" lon="-0.94042">
        <ele>90.399765014648</ele>
        <time>2016-04-20T14:38:25.000Z</time>
      </trkpt>
      <trkpt lat="47.03304" lon="-0.94036">
        <ele>91.012580871582</ele>
        <time>2016-04-20T14:38:28.000Z</time>
      </trkpt>
      <trkpt lat="47.03302" lon="-0.94032">
        <ele>91.390647888184</ele>
        <time>2016-04-20T14:38:31.000Z</time>
      </trkpt>
      <trkpt lat="47.03301" lon="-0.94028">
        <ele>92.00984954834</ele>
        <time>2016-04-20T14:38:34.000Z</time>
      </trkpt>
      <trkpt lat="47.03298" lon="-0.94025">
        <ele>92.452713012695</ele>
        <time>2016-04-20T14:38:37.000Z</time>
      </trkpt>
      <trkpt lat="47.03296" lon="-0.94022">
        <ele>92.195365905762</ele>
        <time>2016-04-20T14:38:39.000Z</time>
      </trkpt>
      <trkpt lat="47.03294" lon="-0.94019">
        <ele>92.033058166504</ele>
        <time>2016-04-20T14:38:42.000Z</time>
      </trkpt>
      <trkpt lat="47.03292" lon="-0.94016">
        <ele>92.015525817871</ele>
        <time>2016-04-20T14:38:45.000Z</time>
      </trkpt>
      <trkpt lat="47.03291" lon="-0.94014">
        <ele>92.016006469727</ele>
        <time>2016-04-20T14:38:47.000Z</time>
      </trkpt>
      <trkpt lat="47.0329" lon="-0.94012">
        <ele>92.391860961914</ele>
        <time>2016-04-20T14:38:50.000Z</time>
      </trkpt>
      <trkpt lat="47.03288" lon="-0.9401">
        <ele>92.638793945312</ele>
        <time>2016-04-20T14:38:52.000Z</time>
      </trkpt>
      <trkpt lat="47.03286" lon="-0.94009">
        <ele>93.333679199219</ele>
        <time>2016-04-20T14:38:54.000Z</time>
      </trkpt>
      <trkpt lat="47.03284" lon="-0.94007">
        <ele>93.992607116699</ele>
        <time>2016-04-20T14:38:57.000Z</time>
      </trkpt>
      <trkpt lat="47.03283" lon="-0.94004">
        <ele>94.040397644043</ele>
        <time>2016-04-20T14:38:59.000Z</time>
      </trkpt>
      <trkpt lat="47.03281" lon="-0.94">
        <ele>93.634223937988</ele>
        <time>2016-04-20T14:39:02.000Z</time>
      </trkpt>
      <trkpt lat="47.03279" lon="-0.93997">
        <ele>93.098541259766</ele>
        <time>2016-04-20T14:39:04.000Z</time>
      </trkpt>
      <trkpt lat="47.03277" lon="-0.93995">
        <ele>93.337364196777</ele>
        <time>2016-04-20T14:39:07.000Z</time>
      </trkpt>
      <trkpt lat="47.03276" lon="-0.93993">
        <ele>93.085868835449</ele>
        <time>2016-04-20T14:39:09.000Z</time>
      </trkpt>
      <trkpt lat="47.03274" lon="-0.9399">
        <ele>93.017402648926</ele>
        <time>2016-04-20T14:39:12.000Z</time>
      </trkpt>
      <trkpt lat="47.03272" lon="-0.93988">
        <ele>93.795555114746</ele>
        <time>2016-04-20T14:39:14.000Z</time>
      </trkpt>
      <trkpt lat="47.0327" lon="-0.93986">
        <ele>93.609352111816</ele>
        <time>2016-04-20T14:39:16.000Z</time>
      </trkpt>
      <trkpt lat="47.03268" lon="-0.93984">
        <ele>93.512893676758</ele>
        <time>2016-04-20T14:39:20.000Z</time>
      </trkpt>
      <trkpt lat="47.03266" lon="-0.93981">
        <ele>93.964477539062</ele>
        <time>2016-04-20T14:39:22.000Z</time>
      </trkpt>
      <trkpt lat="47.03263" lon="-0.93979">
        <ele>94.565979003906</ele>
        <time>2016-04-20T14:39:25.000Z</time>
      </trkpt>
      <trkpt lat="47.03262" lon="-0.93976">
        <ele>94.106521606445</ele>
        <time>2016-04-20T14:39:27.000Z</time>
      </trkpt>
      <trkpt lat="47.03259" lon="-0.93973">
        <ele>94.013885498047</ele>
        <time>2016-04-20T14:39:30.000Z</time>
      </trkpt>
      <trkpt lat="47.03258" lon="-0.93972">
        <ele>94.021995544434</ele>
        <time>2016-04-20T14:39:33.000Z</time>
      </trkpt>
      <trkpt lat="47.03257" lon="-0.9397">
        <ele>94.02515411377</ele>
        <time>2016-04-20T14:39:35.000Z</time>
      </trkpt>
      <trkpt lat="47.03256" lon="-0.93966">
        <ele>94.469909667969</ele>
        <time>2016-04-20T14:39:37.000Z</time>
      </trkpt>
      <trkpt lat="47.03254" lon="-0.93961">
        <ele>95.955345153809</ele>
        <time>2016-04-20T14:39:41.000Z</time>
      </trkpt>
      <trkpt lat="47.03252" lon="-0.93958">
        <ele>96.478759765625</ele>
        <time>2016-04-20T14:39:43.000Z</time>
      </trkpt>
      <trkpt lat="47.0325" lon="-0.93955">
        <ele>97.03360748291</ele>
        <time>2016-04-20T14:39:47.000Z</time>
      </trkpt>
      <trkpt lat="47.03247" lon="-0.93953">
        <ele>97.027671813965</ele>
        <time>2016-04-20T14:39:50.000Z</time>
      </trkpt>
      <trkpt lat="47.03244" lon="-0.9395">
        <ele>97.809173583984</ele>
        <time>2016-04-20T14:39:53.000Z</time>
      </trkpt>
      <trkpt lat="47.03243" lon="-0.93949">
        <ele>97.554740905762</ele>
        <time>2016-04-20T14:39:57.000Z</time>
      </trkpt>
      <trkpt lat="47.03242" lon="-0.93946">
        <ele>96.826530456543</ele>
        <time>2016-04-20T14:39:59.000Z</time>
      </trkpt>
      <trkpt lat="47.03241" lon="-0.93943">
        <ele>96.203239440918</ele>
        <time>2016-04-20T14:40:01.000Z</time>
      </trkpt>
      <trkpt lat="47.03236" lon="-0.93941">
        <ele>95.401840209961</ele>
        <time>2016-04-20T14:40:04.000Z</time>
      </trkpt>
      <trkpt lat="47.03231" lon="-0.93941">
        <ele>94.029243469238</ele>
        <time>2016-04-20T14:40:07.000Z</time>
      </trkpt>
      <trkpt lat="47.03228" lon="-0.93941">
        <ele>95.244163513184</ele>
        <time>2016-04-20T14:40:09.000Z</time>
      </trkpt>
      <trkpt lat="47.03226" lon="-0.93941">
        <ele>96.364219665527</ele>
        <time>2016-04-20T14:40:11.000Z</time>
      </trkpt>
      <trkpt lat="47.03224" lon="-0.9394">
        <ele>96.268890380859</ele>
        <time>2016-04-20T14:40:14.000Z</time>
      </trkpt>
      <trkpt lat="47.03221" lon="-0.93941">
        <ele>96.005424499512</ele>
        <time>2016-04-20T14:40:17.000Z</time>
      </trkpt>
      <trkpt lat="47.03218" lon="-0.93941">
        <ele>96.015808105469</ele>
        <time>2016-04-20T14:40:20.000Z</time>
      </trkpt>
      <trkpt lat="47.03215" lon="-0.93941">
        <ele>95.66667175293</ele>
        <time>2016-04-20T14:40:22.000Z</time>
      </trkpt>
      <trkpt lat="47.03212" lon="-0.93943">
        <ele>96.01057434082</ele>
        <time>2016-04-20T14:40:25.000Z</time>
      </trkpt>
      <trkpt lat="47.0321" lon="-0.93944">
        <ele>96.018508911133</ele>
        <time>2016-04-20T14:40:28.000Z</time>
      </trkpt>
      <trkpt lat="47.03208" lon="-0.93948">
        <ele>95.685615539551</ele>
        <time>2016-04-20T14:40:31.000Z</time>
      </trkpt>
      <trkpt lat="47.03206" lon="-0.93949">
        <ele>94.748405456543</ele>
        <time>2016-04-20T14:40:34.000Z</time>
      </trkpt>
      <trkpt lat="47.03204" lon="-0.93951">
        <ele>94.852043151855</ele>
        <time>2016-04-20T14:40:36.000Z</time>
      </trkpt>
      <trkpt lat="47.03202" lon="-0.93956">
        <ele>95.007598876953</ele>
        <time>2016-04-20T14:40:39.000Z</time>
      </trkpt>
      <trkpt lat="47.032" lon="-0.93959">
        <ele>95.014358520508</ele>
        <time>2016-04-20T14:40:41.000Z</time>
      </trkpt>
      <trkpt lat="47.03199" lon="-0.93961">
        <ele>94.705093383789</ele>
        <time>2016-04-20T14:40:43.000Z</time>
      </trkpt>
      <trkpt lat="47.03197" lon="-0.93966">
        <ele>94.993225097656</ele>
        <time>2016-04-20T14:40:46.000Z</time>
      </trkpt>
      <trkpt lat="47.03195" lon="-0.9397">
        <ele>95.014526367188</ele>
        <time>2016-04-20T14:40:49.000Z</time>
      </trkpt>
      <trkpt lat="47.03193" lon="-0.93974">
        <ele>94.615989685059</ele>
        <time>2016-04-20T14:40:52.000Z</time>
      </trkpt>
      <trkpt lat="47.03192" lon="-0.93975">
        <ele>94.43879699707</ele>
        <time>2016-04-20T14:40:54.000Z</time>
      </trkpt>
      <trkpt lat="47.0319" lon="-0.93976">
        <ele>96.257148742676</ele>
        <time>2016-04-20T14:40:58.000Z</time>
      </trkpt>
      <trkpt lat="47.0319" lon="-0.93978">
        <ele>96.698516845703</ele>
        <time>2016-04-20T14:41:00.000Z</time>
      </trkpt>
      <trkpt lat="47.03188" lon="-0.9398">
        <ele>97.771057128906</ele>
        <time>2016-04-20T14:41:02.000Z</time>
      </trkpt>
      <trkpt lat="47.03186" lon="-0.93983">
        <ele>98.046966552734</ele>
        <time>2016-04-20T14:41:05.000Z</time>
      </trkpt>
      <trkpt lat="47.03185" lon="-0.93987">
        <ele>98.018455505371</ele>
        <time>2016-04-20T14:41:08.000Z</time>
      </trkpt>
      <trkpt lat="47.03183" lon="-0.93993">
        <ele>96.756866455078</ele>
        <time>2016-04-20T14:41:11.000Z</time>
      </trkpt>
      <trkpt lat="47.03181" lon="-0.93998">
        <ele>97.264297485352</ele>
        <time>2016-04-20T14:41:15.000Z</time>
      </trkpt>
      <trkpt lat="47.03179" lon="-0.94">
        <ele>97.652290344238</ele>
        <time>2016-04-20T14:41:17.000Z</time>
      </trkpt>
      <trkpt lat="47.03177" lon="-0.94001">
        <ele>96.971267700195</ele>
        <time>2016-04-20T14:41:19.000Z</time>
      </trkpt>
      <trkpt lat="47.03175" lon="-0.94004">
        <ele>96.605949401855</ele>
        <time>2016-04-20T14:41:22.000Z</time>
      </trkpt>
      <trkpt lat="47.03172" lon="-0.94007">
        <ele>95.635475158691</ele>
        <time>2016-04-20T14:41:25.000Z</time>
      </trkpt>
      <trkpt lat="47.0317" lon="-0.94008">
        <ele>95.070068359375</ele>
        <time>2016-04-20T14:41:27.000Z</time>
      </trkpt>
      <trkpt lat="47.03168" lon="-0.94009">
        <ele>94.54866027832</ele>
        <time>2016-04-20T14:41:31.000Z</time>
      </trkpt>
      <trkpt lat="47.03166" lon="-0.94012">
        <ele>95.29271697998</ele>
        <time>2016-04-20T14:41:35.000Z</time>
      </trkpt>
      <trkpt lat="47.03166" lon="-0.94015">
        <ele>95.732292175293</ele>
        <time>2016-04-20T14:41:37.000Z</time>
      </trkpt>
      <trkpt lat="47.03166" lon="-0.94017">
        <ele>95.846473693848</ele>
        <time>2016-04-20T14:41:40.000Z</time>
      </trkpt>
      <trkpt lat="47.03166" lon="-0.9402">
        <ele>95.471572875977</ele>
        <time>2016-04-20T14:41:47.000Z</time>
      </trkpt>
      <trkpt lat="47.03166" lon="-0.94025">
        <ele>95.343803405762</ele>
        <time>2016-04-20T14:41:50.000Z</time>
      </trkpt>
      <trkpt lat="47.03165" lon="-0.94025">
        <ele>94.522979736328</ele>
        <time>2016-04-20T14:41:53.000Z</time>
      </trkpt>
      <trkpt lat="47.03162" lon="-0.94026">
        <ele>93.033920288086</ele>
        <time>2016-04-20T14:41:57.000Z</time>
      </trkpt>
      <trkpt lat="47.0316" lon="-0.94025">
        <ele>92.998779296875</ele>
        <time>2016-04-20T14:42:00.000Z</time>
      </trkpt>
      <trkpt lat="47.03159" lon="-0.94025">
        <ele>94.913307189941</ele>
        <time>2016-04-20T14:42:08.000Z</time>
      </trkpt>
    </trkseg>
  </trk>
</gpx>